<?xml version='1.0' encoding='UTF-8'?><gpx version="1.1" creator="JPX - https://github.com/jenetics/jpx" xmlns="http://www.topografix.com/GPX/1/1"><trk><trkseg><trkpt lat="44.436112963948005" lon="10.0508692375302"><ele>969.9999999999999</ele><time>2026-04-07T08:06:08Z</time></trkpt><trkpt lat="44.43620263184534" lon="10.05093115551544"><ele>970.0</ele><time>2026-04-07T08:06:10Z</time></trkpt><trkpt lat="44.436275277382414" lon="10.051013170618214"><ele>970.0</ele><time>2026-04-07T08:06:12Z</time></trkpt><trkpt lat="44.43634198110002" lon="10.051075905067608"><ele>970.0</ele><time>2026-04-07T08:06:15Z</time></trkpt><trkpt lat="44.436409562758946" lon="10.051075555262969"><ele>969.9999999999999</ele><time>2026-04-07T08:06:19Z</time></trkpt><trkpt lat="44.43645658377133" lon="10.050939889046813"><ele>970.0</ele><time>2026-04-07T08:06:22Z</time></trkpt><trkpt lat="44.436467989488925" lon="10.050851529825774"><ele>967.6</ele><time>2026-04-07T08:06:23Z</time></trkpt><trkpt lat="44.436478604374656" lon="10.050754730213027"><ele>965.2</ele><time>2026-04-07T08:06:24Z</time></trkpt><trkpt lat="44.4365083597421" lon="10.050589053497747"><ele>962.8</ele><time>2026-04-07T08:06:26Z</time></trkpt><trkpt lat="44.43653949431818" lon="10.050440107955218"><ele>960.4</ele><time>2026-04-07T08:06:28Z</time></trkpt><trkpt lat="44.436588711148346" lon="10.05030452126398"><ele>958.0</ele><time>2026-04-07T08:06:30Z</time></trkpt><trkpt lat="44.436631438860104" lon="10.050162114724598"><ele>957.9999999999999</ele><time>2026-04-07T08:06:32Z</time></trkpt><trkpt lat="44.43668747285442" lon="10.050016906184988"><ele>958.0</ele><time>2026-04-07T08:06:34Z</time></trkpt><trkpt lat="44.436720183015076" lon="10.049929083884235"><ele>958.0</ele><time>2026-04-07T08:06:38Z</time></trkpt><trkpt lat="44.43675182842378" lon="10.04985024349238"><ele>958.0</ele><time>2026-04-07T08:06:42Z</time></trkpt><trkpt lat="44.436786029259956" lon="10.04977605271041"><ele>957.9999999999999</ele><time>2026-04-07T08:07:02Z</time></trkpt><trkpt lat="44.4368197978575" lon="10.049673356253964"><ele>958.0</ele><time>2026-04-07T08:07:06Z</time></trkpt><trkpt lat="44.43685102434715" lon="10.049562930690179"><ele>958.5999999999999</ele><time>2026-04-07T08:07:10Z</time></trkpt><trkpt lat="44.43689849316204" lon="10.049477679960003"><ele>959.1999999999999</ele><time>2026-04-07T08:07:19Z</time></trkpt><trkpt lat="44.436950643436326" lon="10.04937935435664"><ele>959.8</ele><time>2026-04-07T08:07:23Z</time></trkpt><trkpt lat="44.43699005550939" lon="10.049300465404304"><ele>960.4</ele><time>2026-04-07T08:07:27Z</time></trkpt><trkpt lat="44.437033061935836" lon="10.049213467878419"><ele>961.0</ele><time>2026-04-07T08:07:29Z</time></trkpt><trkpt lat="44.4371736324912" lon="10.049006005258159"><ele>960.9999999999999</ele><time>2026-04-07T08:07:32Z</time></trkpt><trkpt lat="44.437292026031294" lon="10.048923038223391"><ele>961.0</ele><time>2026-04-07T08:07:34Z</time></trkpt><trkpt lat="44.43735778929548" lon="10.048867526699198"><ele>961.0</ele><time>2026-04-07T08:07:35Z</time></trkpt><trkpt lat="44.43742047475266" lon="10.048821285400464"><ele>961.0</ele><time>2026-04-07T08:07:36Z</time></trkpt><trkpt lat="44.43748846780422" lon="10.048773835986998"><ele>960.9999999999999</ele><time>2026-04-07T08:07:37Z</time></trkpt><trkpt lat="44.43755481106393" lon="10.048736617046414"><ele>961.0</ele><time>2026-04-07T08:07:38Z</time></trkpt><trkpt lat="44.43762060186969" lon="10.048699876543015"><ele>960.9999999999999</ele><time>2026-04-07T08:07:39Z</time></trkpt><trkpt lat="44.43767478128113" lon="10.048650086157817"><ele>961.0</ele><time>2026-04-07T08:07:40Z</time></trkpt><trkpt lat="44.43774812136287" lon="10.048608981518191"><ele>961.0</ele><time>2026-04-07T08:07:41Z</time></trkpt><trkpt lat="44.437823558830914" lon="10.0485787788074"><ele>961.0</ele><time>2026-04-07T08:07:42Z</time></trkpt><trkpt lat="44.437885505086314" lon="10.048545489367552"><ele>960.9999999999999</ele><time>2026-04-07T08:07:43Z</time></trkpt><trkpt lat="44.43798051118364" lon="10.048494030371126"><ele>961.0</ele><time>2026-04-07T08:07:45Z</time></trkpt><trkpt lat="44.43806822756502" lon="10.048478829449412"><ele>956.0</ele><time>2026-04-07T08:07:47Z</time></trkpt><trkpt lat="44.43815898497452" lon="10.048430770690503"><ele>950.9999999999999</ele><time>2026-04-07T08:07:49Z</time></trkpt><trkpt lat="44.43824249334869" lon="10.048371875220111"><ele>945.9999999999999</ele><time>2026-04-07T08:07:51Z</time></trkpt><trkpt lat="44.43830770123897" lon="10.048291540188387"><ele>941.0</ele><time>2026-04-07T08:07:53Z</time></trkpt><trkpt lat="44.438386065641836" lon="10.048206861557361"><ele>936.0</ele><time>2026-04-07T08:07:56Z</time></trkpt><trkpt lat="44.43846476830171" lon="10.04812181740748"><ele>934.6666666666667</ele><time>2026-04-07T08:07:58Z</time></trkpt><trkpt lat="44.43845763923655" lon="10.048019016933337"><ele>933.3333333333334</ele><time>2026-04-07T08:08:00Z</time></trkpt><trkpt lat="44.43874636296894" lon="10.048154307281987"><ele>932.0</ele><time>2026-04-07T08:08:02Z</time></trkpt><trkpt lat="44.43885190054355" lon="10.048078903210717"><ele>928.2</ele><time>2026-04-07T08:08:04Z</time></trkpt><trkpt lat="44.43895771755728" lon="10.04801185993223"><ele>924.4000000000001</ele><time>2026-04-07T08:08:06Z</time></trkpt><trkpt lat="44.43901993080224" lon="10.047974718393966"><ele>920.5999999999999</ele><time>2026-04-07T08:08:07Z</time></trkpt><trkpt lat="44.43911216277507" lon="10.047896555726375"><ele>916.8</ele><time>2026-04-07T08:08:09Z</time></trkpt><trkpt lat="44.4392176156671" lon="10.047854544120153"><ele>913.0</ele><time>2026-04-07T08:08:11Z</time></trkpt><trkpt lat="44.439286109981005" lon="10.047839106761169"><ele>913.0</ele><time>2026-04-07T08:08:12Z</time></trkpt><trkpt lat="44.43935193310429" lon="10.04774819394896"><ele>913.0</ele><time>2026-04-07T08:08:14Z</time></trkpt><trkpt lat="44.43936739315031" lon="10.047620611069746"><ele>913.0</ele><time>2026-04-07T08:08:16Z</time></trkpt><trkpt lat="44.43934964153928" lon="10.04749006328359"><ele>913.0</ele><time>2026-04-07T08:08:18Z</time></trkpt><trkpt lat="44.43940166743903" lon="10.047364411507802"><ele>913.0</ele><time>2026-04-07T08:08:20Z</time></trkpt><trkpt lat="44.43947010765122" lon="10.04727176491542"><ele>912.1666666666666</ele><time>2026-04-07T08:08:22Z</time></trkpt><trkpt lat="44.43953529945504" lon="10.047176652770613"><ele>911.3333333333333</ele><time>2026-04-07T08:08:24Z</time></trkpt><trkpt lat="44.43958229006857" lon="10.04706874507141"><ele>910.5</ele><time>2026-04-07T08:08:26Z</time></trkpt><trkpt lat="44.43961723642816" lon="10.046954712801343"><ele>909.6666666666667</ele><time>2026-04-07T08:08:28Z</time></trkpt><trkpt lat="44.439679073978624" lon="10.046904479646862"><ele>908.8333333333334</ele><time>2026-04-07T08:08:30Z</time></trkpt><trkpt lat="44.43975046376251" lon="10.046890227531595"><ele>908.0</ele><time>2026-04-07T08:08:33Z</time></trkpt><trkpt lat="44.439809166552145" lon="10.046953141287863"><ele>903.6666666666667</ele><time>2026-04-07T08:08:35Z</time></trkpt><trkpt lat="44.43986191850854" lon="10.047047846364853"><ele>899.3333333333334</ele><time>2026-04-07T08:08:38Z</time></trkpt><trkpt lat="44.43987533042808" lon="10.047156176535141"><ele>895.0</ele><time>2026-04-07T08:08:40Z</time></trkpt><trkpt lat="44.439934760280615" lon="10.047195841353837"><ele>890.6666666666667</ele><time>2026-04-07T08:08:43Z</time></trkpt><trkpt lat="44.44000848898622" lon="10.04714284745726"><ele>886.3333333333334</ele><time>2026-04-07T08:08:45Z</time></trkpt><trkpt lat="44.44005606377633" lon="10.047079696461749"><ele>882.0</ele><time>2026-04-07T08:08:47Z</time></trkpt><trkpt lat="44.440111769288436" lon="10.047012999568958"><ele>882.0</ele><time>2026-04-07T08:08:49Z</time></trkpt><trkpt lat="44.44016220844233" lon="10.046937953648643"><ele>882.0</ele><time>2026-04-07T08:08:51Z</time></trkpt><trkpt lat="44.44020399618384" lon="10.046841177752427"><ele>882.0</ele><time>2026-04-07T08:08:53Z</time></trkpt><trkpt lat="44.44021986086035" lon="10.046702624090305"><ele>882.0</ele><time>2026-04-07T08:08:55Z</time></trkpt><trkpt lat="44.440223367543815" lon="10.046598281132963"><ele>882.0</ele><time>2026-04-07T08:08:57Z</time></trkpt><trkpt lat="44.44021161370951" lon="10.04647425925662"><ele>882.0</ele><time>2026-04-07T08:08:59Z</time></trkpt><trkpt lat="44.4401965600409" lon="10.046343865495729"><ele>879.4000000000001</ele><time>2026-04-07T08:09:01Z</time></trkpt><trkpt lat="44.440182496461745" lon="10.046195153032315"><ele>876.8000000000001</ele><time>2026-04-07T08:09:03Z</time></trkpt><trkpt lat="44.44018423359228" lon="10.046046163068565"><ele>874.2</ele><time>2026-04-07T08:09:05Z</time></trkpt><trkpt lat="44.440193735939616" lon="10.04589149798785"><ele>871.6</ele><time>2026-04-07T08:09:07Z</time></trkpt><trkpt lat="44.44017613874227" lon="10.045759628627138"><ele>869.0</ele><time>2026-04-07T08:09:09Z</time></trkpt><trkpt lat="44.440152568539446" lon="10.04563449888619"><ele>866.5000000000001</ele><time>2026-04-07T08:09:11Z</time></trkpt><trkpt lat="44.44016918083242" lon="10.045511954908363"><ele>864.0</ele><time>2026-04-07T08:09:15Z</time></trkpt><trkpt lat="44.44019542781855" lon="10.045427605736291"><ele>861.5</ele><time>2026-04-07T08:09:16Z</time></trkpt><trkpt lat="44.44024680485824" lon="10.045340585741943"><ele>859.0</ele><time>2026-04-07T08:09:18Z</time></trkpt><trkpt lat="44.440297707638656" lon="10.045255608439433"><ele>856.5000000000001</ele><time>2026-04-07T08:09:20Z</time></trkpt><trkpt lat="44.44034348562498" lon="10.045174577185882"><ele>854.0</ele><time>2026-04-07T08:09:22Z</time></trkpt><trkpt lat="44.440411463189164" lon="10.045135914342534"><ele>851.8000000000001</ele><time>2026-04-07T08:09:24Z</time></trkpt><trkpt lat="44.440485794147364" lon="10.045124390791694"><ele>849.6000000000001</ele><time>2026-04-07T08:09:26Z</time></trkpt><trkpt lat="44.44057505567503" lon="10.045067945790628"><ele>847.4</ele><time>2026-04-07T08:09:28Z</time></trkpt><trkpt lat="44.440678719774404" lon="10.045014891722532"><ele>845.2</ele><time>2026-04-07T08:09:29Z</time></trkpt><trkpt lat="44.44077546093177" lon="10.044939439730038"><ele>843.0</ele><time>2026-04-07T08:09:30Z</time></trkpt><trkpt lat="44.440872511765136" lon="10.044864582351991"><ele>840.8</ele><time>2026-04-07T08:09:31Z</time></trkpt><trkpt lat="44.44097695052462" lon="10.044797818661628"><ele>838.5999999999999</ele><time>2026-04-07T08:09:32Z</time></trkpt><trkpt lat="44.44107797785673" lon="10.044738212975275"><ele>836.4000000000001</ele><time>2026-04-07T08:09:33Z</time></trkpt><trkpt lat="44.44118356281165" lon="10.044690657373303"><ele>834.2</ele><time>2026-04-07T08:09:34Z</time></trkpt><trkpt lat="44.44128268984747" lon="10.04466533325547"><ele>832.0</ele><time>2026-04-07T08:09:35Z</time></trkpt><trkpt lat="44.441369827456555" lon="10.04464418138217"><ele>830.2857142857142</ele><time>2026-04-07T08:09:36Z</time></trkpt><trkpt lat="44.44145616370077" lon="10.044633474970432"><ele>828.5714285714287</ele><time>2026-04-07T08:09:37Z</time></trkpt><trkpt lat="44.44153462352324" lon="10.044631550381215"><ele>826.8571428571429</ele><time>2026-04-07T08:09:38Z</time></trkpt><trkpt lat="44.441611193613916" lon="10.044635578879246"><ele>825.1428571428571</ele><time>2026-04-07T08:09:39Z</time></trkpt><trkpt lat="44.4416824593556" lon="10.044644825133444"><ele>823.4285714285713</ele><time>2026-04-07T08:09:40Z</time></trkpt><trkpt lat="44.44174864377782" lon="10.044656180115297"><ele>821.7142857142858</ele><time>2026-04-07T08:09:41Z</time></trkpt><trkpt lat="44.44180161601562" lon="10.044706478768058"><ele>820.0</ele><time>2026-04-07T08:09:42Z</time></trkpt><trkpt lat="44.441843795227335" lon="10.044784388130386"><ele>820.0</ele><time>2026-04-07T08:09:43Z</time></trkpt><trkpt lat="44.44185226268344" lon="10.044877605591687"><ele>820.0</ele><time>2026-04-07T08:09:44Z</time></trkpt><trkpt lat="44.44184586030659" lon="10.044988453373652"><ele>820.0</ele><time>2026-04-07T08:09:45Z</time></trkpt><trkpt lat="44.441820303707274" lon="10.045091419683303"><ele>820.0</ele><time>2026-04-07T08:09:46Z</time></trkpt><trkpt lat="44.441793050500316" lon="10.045186645889151"><ele>820.0</ele><time>2026-04-07T08:09:47Z</time></trkpt><trkpt lat="44.44177581295303" lon="10.045283046838797"><ele>820.0</ele><time>2026-04-07T08:09:48Z</time></trkpt><trkpt lat="44.44176584342404" lon="10.045382355596873"><ele>820.0</ele><time>2026-04-07T08:09:49Z</time></trkpt><trkpt lat="44.44175972336903" lon="10.04549296887088"><ele>822.4</ele><time>2026-04-07T08:09:50Z</time></trkpt><trkpt lat="44.44174689867228" lon="10.04561167602089"><ele>824.8</ele><time>2026-04-07T08:09:51Z</time></trkpt><trkpt lat="44.441724402502636" lon="10.045736866210571"><ele>827.2</ele><time>2026-04-07T08:09:52Z</time></trkpt><trkpt lat="44.44169786869332" lon="10.045872660933927"><ele>829.6</ele><time>2026-04-07T08:09:53Z</time></trkpt><trkpt lat="44.44168424148338" lon="10.046020480677518"><ele>832.0</ele><time>2026-04-07T08:09:54Z</time></trkpt><trkpt lat="44.441691580365294" lon="10.046174936690326"><ele>832.0</ele><time>2026-04-07T08:09:55Z</time></trkpt><trkpt lat="44.44172880725774" lon="10.046326013241325"><ele>832.0</ele><time>2026-04-07T08:09:56Z</time></trkpt><trkpt lat="44.441795796532624" lon="10.046469554873614"><ele>832.0</ele><time>2026-04-07T08:09:57Z</time></trkpt><trkpt lat="44.44186805497513" lon="10.046601016048518"><ele>832.0</ele><time>2026-04-07T08:09:58Z</time></trkpt><trkpt lat="44.44192649287053" lon="10.04673363220472"><ele>832.8</ele><time>2026-04-07T08:09:59Z</time></trkpt><trkpt lat="44.44196702933129" lon="10.046861022494069"><ele>833.6</ele><time>2026-04-07T08:10:00Z</time></trkpt><trkpt lat="44.44201969169963" lon="10.046988886708373"><ele>834.4</ele><time>2026-04-07T08:10:01Z</time></trkpt><trkpt lat="44.442095777266545" lon="10.047099677254566"><ele>835.1999999999999</ele><time>2026-04-07T08:10:02Z</time></trkpt><trkpt lat="44.44219000049323" lon="10.047172332444616"><ele>836.0</ele><time>2026-04-07T08:10:03Z</time></trkpt><trkpt lat="44.44229897826446" lon="10.047204208960947"><ele>832.8</ele><time>2026-04-07T08:10:04Z</time></trkpt><trkpt lat="44.44240973366152" lon="10.047210356646195"><ele>829.5999999999999</ele><time>2026-04-07T08:10:05Z</time></trkpt><trkpt lat="44.4425113084438" lon="10.047201085366998"><ele>826.4</ele><time>2026-04-07T08:10:06Z</time></trkpt><trkpt lat="44.442607911595665" lon="10.047176024356283"><ele>823.2</ele><time>2026-04-07T08:10:07Z</time></trkpt><trkpt lat="44.44269674992637" lon="10.047117367327019"><ele>820.0</ele><time>2026-04-07T08:10:08Z</time></trkpt><trkpt lat="44.44277589867831" lon="10.047014072076541"><ele>820.0</ele><time>2026-04-07T08:10:09Z</time></trkpt><trkpt lat="44.44284222790263" lon="10.046890071434369"><ele>820.0</ele><time>2026-04-07T08:10:10Z</time></trkpt><trkpt lat="44.44291132512585" lon="10.046770829626581"><ele>820.0</ele><time>2026-04-07T08:10:11Z</time></trkpt><trkpt lat="44.442981195204446" lon="10.046666570296507"><ele>820.0</ele><time>2026-04-07T08:10:12Z</time></trkpt><trkpt lat="44.44305535160441" lon="10.046575760449024"><ele>820.0</ele><time>2026-04-07T08:10:13Z</time></trkpt><trkpt lat="44.443133285395724" lon="10.046486127867354"><ele>818.2</ele><time>2026-04-07T08:10:14Z</time></trkpt><trkpt lat="44.44320854360363" lon="10.0463877185756"><ele>816.4</ele><time>2026-04-07T08:10:15Z</time></trkpt><trkpt lat="44.443289882238666" lon="10.04629635451228"><ele>814.5999999999999</ele><time>2026-04-07T08:10:16Z</time></trkpt><trkpt lat="44.44337444144141" lon="10.046200019602908"><ele>812.8</ele><time>2026-04-07T08:10:17Z</time></trkpt><trkpt lat="44.44346581714711" lon="10.046121126652917"><ele>811.0</ele><time>2026-04-07T08:10:18Z</time></trkpt><trkpt lat="44.44355651589417" lon="10.046066381965982"><ele>811.0</ele><time>2026-04-07T08:10:19Z</time></trkpt><trkpt lat="44.443656603555596" lon="10.046034443012363"><ele>811.0</ele><time>2026-04-07T08:10:20Z</time></trkpt><trkpt lat="44.44376732205119" lon="10.046019315451879"><ele>811.0</ele><time>2026-04-07T08:10:21Z</time></trkpt><trkpt lat="44.443875210202066" lon="10.046013912254995"><ele>811.0</ele><time>2026-04-07T08:10:22Z</time></trkpt><trkpt lat="44.44397743082125" lon="10.045985251932073"><ele>811.0</ele><time>2026-04-07T08:10:23Z</time></trkpt><trkpt lat="44.4440661504426" lon="10.04593877725916"><ele>813.4</ele><time>2026-04-07T08:10:24Z</time></trkpt><trkpt lat="44.444141669709964" lon="10.045878803714345"><ele>815.8</ele><time>2026-04-07T08:10:25Z</time></trkpt><trkpt lat="44.444217169514005" lon="10.045796187667202"><ele>818.1999999999999</ele><time>2026-04-07T08:10:26Z</time></trkpt><trkpt lat="44.44428981271759" lon="10.045721715567963"><ele>820.5999999999999</ele><time>2026-04-07T08:10:27Z</time></trkpt><trkpt lat="44.44437055836789" lon="10.045661385954041"><ele>823.0</ele><time>2026-04-07T08:10:28Z</time></trkpt><trkpt lat="44.4444584443391" lon="10.045613554003722"><ele>821.0</ele><time>2026-04-07T08:10:29Z</time></trkpt><trkpt lat="44.44454896946959" lon="10.045592570639123"><ele>819.0</ele><time>2026-04-07T08:10:30Z</time></trkpt><trkpt lat="44.44463781603007" lon="10.045586026238738"><ele>817.0</ele><time>2026-04-07T08:10:31Z</time></trkpt><trkpt lat="44.44473169847581" lon="10.045588348717821"><ele>815.0</ele><time>2026-04-07T08:10:32Z</time></trkpt><trkpt lat="44.44483040330896" lon="10.045595548555152"><ele>813.0</ele><time>2026-04-07T08:10:33Z</time></trkpt><trkpt lat="44.44492436407495" lon="10.04560382311174"><ele>813.0</ele><time>2026-04-07T08:10:34Z</time></trkpt><trkpt lat="44.44501494493217" lon="10.045609973230775"><ele>813.0</ele><time>2026-04-07T08:10:35Z</time></trkpt><trkpt lat="44.445111421274454" lon="10.045615002794877"><ele>813.0</ele><time>2026-04-07T08:10:36Z</time></trkpt><trkpt lat="44.445202157389524" lon="10.045620436837151"><ele>813.0</ele><time>2026-04-07T08:10:37Z</time></trkpt><trkpt lat="44.445293054829705" lon="10.045620123814194"><ele>813.0</ele><time>2026-04-07T08:10:38Z</time></trkpt><trkpt lat="44.44538853706986" lon="10.045622224477846"><ele>813.0</ele><time>2026-04-07T08:10:39Z</time></trkpt><trkpt lat="44.44548576819892" lon="10.045625112879003"><ele>813.0</ele><time>2026-04-07T08:10:40Z</time></trkpt><trkpt lat="44.445580390835055" lon="10.045642881565684"><ele>813.0</ele><time>2026-04-07T08:10:41Z</time></trkpt><trkpt lat="44.44567674096849" lon="10.045684758079899"><ele>813.0</ele><time>2026-04-07T08:10:42Z</time></trkpt><trkpt lat="44.44576395075" lon="10.045779881273262"><ele>813.0</ele><time>2026-04-07T08:10:43Z</time></trkpt><trkpt lat="44.44587110877071" lon="10.045798468891936"><ele>816.0</ele><time>2026-04-07T08:10:44Z</time></trkpt><trkpt lat="44.445981660538145" lon="10.045815972328858"><ele>819.0</ele><time>2026-04-07T08:10:45Z</time></trkpt><trkpt lat="44.44609136411493" lon="10.045822946395944"><ele>822.0</ele><time>2026-04-07T08:10:46Z</time></trkpt><trkpt lat="44.44618938690392" lon="10.045815196441772"><ele>825.0</ele><time>2026-04-07T08:10:47Z</time></trkpt><trkpt lat="44.446274954469374" lon="10.04582087053277"><ele>828.0</ele><time>2026-04-07T08:10:48Z</time></trkpt><trkpt lat="44.446339538836696" lon="10.045835557420599"><ele>828.0</ele><time>2026-04-07T08:10:49Z</time></trkpt><trkpt lat="44.44640772503546" lon="10.045911492255666"><ele>828.0</ele><time>2026-04-07T08:10:51Z</time></trkpt><trkpt lat="44.44639102888807" lon="10.046033655158404"><ele>828.0</ele><time>2026-04-07T08:10:52.999Z</time></trkpt><trkpt lat="44.44627876525323" lon="10.046078606741801"><ele>828.0</ele><time>2026-04-07T08:10:54.999Z</time></trkpt><trkpt lat="44.446190474985954" lon="10.046088567431383"><ele>828.0</ele><time>2026-04-07T08:10:55.999Z</time></trkpt><trkpt lat="44.446095395414055" lon="10.046115877250573"><ele>828.5999999999999</ele><time>2026-04-07T08:10:56.999Z</time></trkpt><trkpt lat="44.44598608752891" lon="10.046157997314117"><ele>829.1999999999999</ele><time>2026-04-07T08:10:57.999Z</time></trkpt><trkpt lat="44.4458914637782" lon="10.046197240579739"><ele>829.8</ele><time>2026-04-07T08:10:58.999Z</time></trkpt><trkpt lat="44.445799583466915" lon="10.046233255539596"><ele>830.4</ele><time>2026-04-07T08:10:59.999Z</time></trkpt><trkpt lat="44.445712008354974" lon="10.046264659550584"><ele>831.0</ele><time>2026-04-07T08:11:00.999Z</time></trkpt><trkpt lat="44.44562828020089" lon="10.046297073979089"><ele>831.0</ele><time>2026-04-07T08:11:01.999Z</time></trkpt><trkpt lat="44.44553982614653" lon="10.046329383351472"><ele>831.0</ele><time>2026-04-07T08:11:02.999Z</time></trkpt><trkpt lat="44.44545967647322" lon="10.04635904915045"><ele>831.0</ele><time>2026-04-07T08:11:03.999Z</time></trkpt><trkpt lat="44.445369176303174" lon="10.046398722173633"><ele>831.0</ele><time>2026-04-07T08:11:04.999Z</time></trkpt><trkpt lat="44.44527464063005" lon="10.046441019752066"><ele>831.0</ele><time>2026-04-07T08:11:06Z</time></trkpt><trkpt lat="44.44517733862862" lon="10.046478134329776"><ele>831.1666666666666</ele><time>2026-04-07T08:11:07Z</time></trkpt><trkpt lat="44.44508852062737" lon="10.046525543850542"><ele>831.3333333333333</ele><time>2026-04-07T08:11:08Z</time></trkpt><trkpt lat="44.445010892311544" lon="10.046576424385844"><ele>831.5</ele><time>2026-04-07T08:11:09Z</time></trkpt><trkpt lat="44.44492833673234" lon="10.046652267409954"><ele>831.6666666666666</ele><time>2026-04-07T08:11:10Z</time></trkpt><trkpt lat="44.444857734052626" lon="10.046722527909603"><ele>831.8333333333333</ele><time>2026-04-07T08:11:11Z</time></trkpt><trkpt lat="44.44478614614421" lon="10.046775860988308"><ele>832.0</ele><time>2026-04-07T08:11:12Z</time></trkpt><trkpt lat="44.44470755911925" lon="10.046827268303321"><ele>834.6666666666666</ele><time>2026-04-07T08:11:13Z</time></trkpt><trkpt lat="44.44462144087757" lon="10.046885760091614"><ele>837.3333333333333</ele><time>2026-04-07T08:11:14Z</time></trkpt><trkpt lat="44.44453526513421" lon="10.046951137574654"><ele>840.0</ele><time>2026-04-07T08:11:15Z</time></trkpt><trkpt lat="44.444451874016785" lon="10.047010475129476"><ele>842.6666666666667</ele><time>2026-04-07T08:11:16Z</time></trkpt><trkpt lat="44.444382868198176" lon="10.047059542130997"><ele>845.3333333333334</ele><time>2026-04-07T08:11:17Z</time></trkpt><trkpt lat="44.444319060030836" lon="10.047113811411219"><ele>848.0</ele><time>2026-04-07T08:11:18Z</time></trkpt><trkpt lat="44.444239207149955" lon="10.047176293895653"><ele>848.0000000000001</ele><time>2026-04-07T08:11:19Z</time></trkpt><trkpt lat="44.444170478868855" lon="10.047238905369586"><ele>848.0</ele><time>2026-04-07T08:11:20Z</time></trkpt><trkpt lat="44.44411321829338" lon="10.047313110505053"><ele>848.0</ele><time>2026-04-07T08:11:21Z</time></trkpt><trkpt lat="44.44406277289413" lon="10.04740493962852"><ele>848.0</ele><time>2026-04-07T08:11:22Z</time></trkpt><trkpt lat="44.444020946514904" lon="10.047498987003689"><ele>848.0000000000001</ele><time>2026-04-07T08:11:23Z</time></trkpt><trkpt lat="44.44398591589852" lon="10.047585770605993"><ele>848.0</ele><time>2026-04-07T08:11:24Z</time></trkpt><trkpt lat="44.443958389534814" lon="10.04767375278823"><ele>850.8333333333334</ele><time>2026-04-07T08:11:25Z</time></trkpt><trkpt lat="44.44393674890523" lon="10.047761046313036"><ele>853.6666666666667</ele><time>2026-04-07T08:11:26Z</time></trkpt><trkpt lat="44.44394702736008" lon="10.047893141074281"><ele>856.5</ele><time>2026-04-07T08:11:28Z</time></trkpt><trkpt lat="44.444036104721306" lon="10.048001657641093"><ele>859.3333333333333</ele><time>2026-04-07T08:11:30Z</time></trkpt><trkpt lat="44.44411180969178" lon="10.048016497189085"><ele>862.1666666666666</ele><time>2026-04-07T08:11:31Z</time></trkpt><trkpt lat="44.44419246151664" lon="10.04804745984437"><ele>865.0</ele><time>2026-04-07T08:11:32Z</time></trkpt><trkpt lat="44.44428574126181" lon="10.048062348412369"><ele>865.0</ele><time>2026-04-07T08:11:33Z</time></trkpt><trkpt lat="44.44439849549329" lon="10.048071528686322"><ele>865.0</ele><time>2026-04-07T08:11:34Z</time></trkpt><trkpt lat="44.44449261034174" lon="10.048052329342548"><ele>865.0</ele><time>2026-04-07T08:11:35Z</time></trkpt><trkpt lat="44.444558548945004" lon="10.048058382130897"><ele>865.0</ele><time>2026-04-07T08:11:36Z</time></trkpt><trkpt lat="44.44462548893431" lon="10.048063231545939"><ele>865.0</ele><time>2026-04-07T08:11:37Z</time></trkpt><trkpt lat="44.44473778358032" lon="10.048113043617304"><ele>864.9999999999999</ele><time>2026-04-07T08:11:39Z</time></trkpt><trkpt lat="44.44480943524187" lon="10.048189546026046"><ele>865.0</ele><time>2026-04-07T08:11:41Z</time></trkpt><trkpt lat="44.44474462515307" lon="10.048319498379552"><ele>865.0</ele><time>2026-04-07T08:11:43Z</time></trkpt><trkpt lat="44.44468155689478" lon="10.048326433234328"><ele>865.0</ele><time>2026-04-07T08:11:44Z</time></trkpt><trkpt lat="44.444603603117926" lon="10.048303650251237"><ele>864.9999999999999</ele><time>2026-04-07T08:11:45Z</time></trkpt><trkpt lat="44.444522541158946" lon="10.04827955460242"><ele>865.0</ele><time>2026-04-07T08:11:46Z</time></trkpt><trkpt lat="44.444445554715095" lon="10.048281608487162"><ele>865.8571428571429</ele><time>2026-04-07T08:11:47Z</time></trkpt><trkpt lat="44.444373095527816" lon="10.04830636661673"><ele>866.7142857142858</ele><time>2026-04-07T08:11:48Z</time></trkpt><trkpt lat="44.444315465900736" lon="10.048354971505118"><ele>867.5714285714286</ele><time>2026-04-07T08:11:49Z</time></trkpt><trkpt lat="44.44426047357074" lon="10.048412968775594"><ele>868.4285714285714</ele><time>2026-04-07T08:11:50Z</time></trkpt><trkpt lat="44.444228428913895" lon="10.048491915496864"><ele>869.2857142857142</ele><time>2026-04-07T08:11:51Z</time></trkpt><trkpt lat="44.44422745427891" lon="10.04858383515328"><ele>870.1428571428571</ele><time>2026-04-07T08:11:52Z</time></trkpt><trkpt lat="44.44424484591375" lon="10.04868182782899"><ele>871.0</ele><time>2026-04-07T08:11:53Z</time></trkpt><trkpt lat="44.44428710821433" lon="10.04876597352548"><ele>870.9999999999999</ele><time>2026-04-07T08:11:54Z</time></trkpt><trkpt lat="44.44433886253979" lon="10.048860214117296"><ele>871.0</ele><time>2026-04-07T08:11:55Z</time></trkpt><trkpt lat="44.4444022935748" lon="10.048924655875682"><ele>871.0</ele><time>2026-04-07T08:11:56Z</time></trkpt><trkpt lat="44.444464098121145" lon="10.049004346938029"><ele>871.0</ele><time>2026-04-07T08:11:57Z</time></trkpt><trkpt lat="44.444514871770885" lon="10.049083819073664"><ele>870.9999999999999</ele><time>2026-04-07T08:11:58Z</time></trkpt><trkpt lat="44.44452484520042" lon="10.04920587372892"><ele>871.0</ele><time>2026-04-07T08:11:59Z</time></trkpt><trkpt lat="44.44453712972712" lon="10.049329301247578"><ele>871.4999999999999</ele><time>2026-04-07T08:12:00Z</time></trkpt><trkpt lat="44.44456120783099" lon="10.049466328092265"><ele>872.0</ele><time>2026-04-07T08:12:01Z</time></trkpt><trkpt lat="44.444601852470385" lon="10.049588015175813"><ele>872.5</ele><time>2026-04-07T08:12:02Z</time></trkpt><trkpt lat="44.44462829914107" lon="10.04969286891688"><ele>873.0</ele><time>2026-04-07T08:12:03Z</time></trkpt><trkpt lat="44.44467001092289" lon="10.049795473228633"><ele>873.4999999999999</ele><time>2026-04-07T08:12:04Z</time></trkpt><trkpt lat="44.44472919065003" lon="10.04987417292359"><ele>874.0</ele><time>2026-04-07T08:12:05Z</time></trkpt><trkpt lat="44.44480557303301" lon="10.049954325664828"><ele>877.8333333333333</ele><time>2026-04-07T08:12:06Z</time></trkpt><trkpt lat="44.44488791863041" lon="10.050018243052769"><ele>881.6666666666666</ele><time>2026-04-07T08:12:07Z</time></trkpt><trkpt lat="44.44495447013631" lon="10.050116346543126"><ele>885.5</ele><time>2026-04-07T08:12:08Z</time></trkpt><trkpt lat="44.44501214948951" lon="10.050197931575482"><ele>889.3333333333333</ele><time>2026-04-07T08:12:09Z</time></trkpt><trkpt lat="44.44505903233072" lon="10.050284534280507"><ele>893.1666666666666</ele><time>2026-04-07T08:12:10Z</time></trkpt><trkpt lat="44.44508079805623" lon="10.05038180438393"><ele>897.0</ele><time>2026-04-07T08:12:11Z</time></trkpt><trkpt lat="44.44509318296357" lon="10.0504977030667"><ele>897.0</ele><time>2026-04-07T08:12:12Z</time></trkpt><trkpt lat="44.44506377748122" lon="10.0506192274149"><ele>897.0</ele><time>2026-04-07T08:12:13Z</time></trkpt><trkpt lat="44.445050698031565" lon="10.050720978125602"><ele>897.0</ele><time>2026-04-07T08:12:14Z</time></trkpt><trkpt lat="44.44503283907192" lon="10.050874721315877"><ele>897.0</ele><time>2026-04-07T08:12:16Z</time></trkpt><trkpt lat="44.44496640087888" lon="10.051027942016365"><ele>897.0</ele><time>2026-04-07T08:12:18Z</time></trkpt><trkpt lat="44.4449113648486" lon="10.051093738028513"><ele>898.0</ele><time>2026-04-07T08:12:19Z</time></trkpt><trkpt lat="44.44484596490741" lon="10.051149579305696"><ele>899.0</ele><time>2026-04-07T08:12:20Z</time></trkpt><trkpt lat="44.444780643955525" lon="10.05120760957968"><ele>900.0</ele><time>2026-04-07T08:12:21Z</time></trkpt><trkpt lat="44.444718834717214" lon="10.051274550126548"><ele>901.0</ele><time>2026-04-07T08:12:22Z</time></trkpt><trkpt lat="44.444649462306295" lon="10.05135361327971"><ele>902.0</ele><time>2026-04-07T08:12:23Z</time></trkpt><trkpt lat="44.444576876193786" lon="10.05144614979818"><ele>903.0</ele><time>2026-04-07T08:12:24Z</time></trkpt><trkpt lat="44.444499483991336" lon="10.05154521418701"><ele>903.2</ele><time>2026-04-07T08:12:25Z</time></trkpt><trkpt lat="44.44442270557516" lon="10.051646890372425"><ele>903.4</ele><time>2026-04-07T08:12:26Z</time></trkpt><trkpt lat="44.44434773237815" lon="10.05172649129617"><ele>903.6000000000001</ele><time>2026-04-07T08:12:27Z</time></trkpt><trkpt lat="44.44430346417559" lon="10.051791472041936"><ele>903.8000000000001</ele><time>2026-04-07T08:12:28Z</time></trkpt><trkpt lat="44.444278061279796" lon="10.051915778715086"><ele>904.0</ele><time>2026-04-07T08:12:30Z</time></trkpt><trkpt lat="44.444356263422065" lon="10.052036860243058"><ele>904.0</ele><time>2026-04-07T08:12:32Z</time></trkpt><trkpt lat="44.4444589050924" lon="10.052017081837608"><ele>904.0000000000001</ele><time>2026-04-07T08:12:33Z</time></trkpt><trkpt lat="44.444560463890376" lon="10.051931016747913"><ele>904.0000000000001</ele><time>2026-04-07T08:12:34Z</time></trkpt><trkpt lat="44.44465688068294" lon="10.051866854464764"><ele>904.0</ele><time>2026-04-07T08:12:35Z</time></trkpt><trkpt lat="44.44473945479662" lon="10.051826638647428"><ele>904.0</ele><time>2026-04-07T08:12:36Z</time></trkpt><trkpt lat="44.44482298856861" lon="10.051794600645309"><ele>906.6666666666666</ele><time>2026-04-07T08:12:37Z</time></trkpt><trkpt lat="44.44490881873829" lon="10.051767980973528"><ele>909.3333333333333</ele><time>2026-04-07T08:12:38Z</time></trkpt><trkpt lat="44.44497603761917" lon="10.051753588654472"><ele>912.0</ele><time>2026-04-07T08:12:39Z</time></trkpt><trkpt lat="44.44506973881441" lon="10.05173230410323"><ele>914.6666666666667</ele><time>2026-04-07T08:12:40.999Z</time></trkpt><trkpt lat="44.44507744220845" lon="10.051862577045258"><ele>917.3333333333334</ele><time>2026-04-07T08:12:42.999Z</time></trkpt><trkpt lat="44.44502987204487" lon="10.051939542307272"><ele>920.0</ele><time>2026-04-07T08:12:43.999Z</time></trkpt><trkpt lat="44.444961037536466" lon="10.05201399512926"><ele>920.0000000000001</ele><time>2026-04-07T08:12:44.999Z</time></trkpt><trkpt lat="44.44489091770169" lon="10.052092899436056"><ele>920.0</ele><time>2026-04-07T08:12:45.999Z</time></trkpt><trkpt lat="44.4448091177549" lon="10.052184358852442"><ele>920.0</ele><time>2026-04-07T08:12:46.999Z</time></trkpt><trkpt lat="44.444731313174536" lon="10.052261902684261"><ele>920.0</ele><time>2026-04-07T08:12:47.999Z</time></trkpt><trkpt lat="44.44467239103289" lon="10.052321854390563"><ele>920.0000000000001</ele><time>2026-04-07T08:12:48.999Z</time></trkpt><trkpt lat="44.444613534574174" lon="10.05239478401457"><ele>920.0</ele><time>2026-04-07T08:12:49.999Z</time></trkpt><trkpt lat="44.44455386981645" lon="10.052467497780714"><ele>921.0000000000001</ele><time>2026-04-07T08:12:50.999Z</time></trkpt><trkpt lat="44.44449854797843" lon="10.052539014413094"><ele>922.0</ele><time>2026-04-07T08:12:51.999Z</time></trkpt><trkpt lat="44.444434507307776" lon="10.052612476747004"><ele>923.0</ele><time>2026-04-07T08:12:52.999Z</time></trkpt><trkpt lat="44.44436896482246" lon="10.052699654702048"><ele>924.0</ele><time>2026-04-07T08:12:53.999Z</time></trkpt><trkpt lat="44.444299428832124" lon="10.052775826154571"><ele>925.0000000000001</ele><time>2026-04-07T08:12:54.999Z</time></trkpt><trkpt lat="44.44423309379891" lon="10.05283595819919"><ele>926.0</ele><time>2026-04-07T08:12:55.999Z</time></trkpt><trkpt lat="44.44417664670571" lon="10.0528938795143"><ele>926.0000000000001</ele><time>2026-04-07T08:12:56.999Z</time></trkpt><trkpt lat="44.444132260954255" lon="10.052972307114091"><ele>926.0</ele><time>2026-04-07T08:12:57.999Z</time></trkpt><trkpt lat="44.444096820731396" lon="10.053063691649632"><ele>926.0</ele><time>2026-04-07T08:12:58.999Z</time></trkpt><trkpt lat="44.444114202507315" lon="10.053177827237407"><ele>926.0</ele><time>2026-04-07T08:12:59.999Z</time></trkpt><trkpt lat="44.44410613159499" lon="10.053283575077078"><ele>926.0000000000001</ele><time>2026-04-07T08:13:00.999Z</time></trkpt><trkpt lat="44.44410390259893" lon="10.05338610909885"><ele>926.0</ele><time>2026-04-07T08:13:01.999Z</time></trkpt><trkpt lat="44.444106626101075" lon="10.053487397622476"><ele>928.4285714285713</ele><time>2026-04-07T08:13:02.999Z</time></trkpt><trkpt lat="44.44409352053582" lon="10.053588444782521"><ele>930.8571428571428</ele><time>2026-04-07T08:13:03.999Z</time></trkpt><trkpt lat="44.44408053542071" lon="10.053684443627672"><ele>933.2857142857142</ele><time>2026-04-07T08:13:04.999Z</time></trkpt><trkpt lat="44.444065962230916" lon="10.053789662591063"><ele>935.7142857142858</ele><time>2026-04-07T08:13:05.999Z</time></trkpt><trkpt lat="44.444053494336444" lon="10.053879205575244"><ele>938.1428571428572</ele><time>2026-04-07T08:13:06.999Z</time></trkpt><trkpt lat="44.44403683707826" lon="10.053970756758378"><ele>940.5714285714287</ele><time>2026-04-07T08:13:07.999Z</time></trkpt><trkpt lat="44.44405862881564" lon="10.0540942268768"><ele>943.0</ele><time>2026-04-07T08:13:09.999Z</time></trkpt><trkpt lat="44.44413825721081" lon="10.054215377224073"><ele>942.9999999999999</ele><time>2026-04-07T08:13:12Z</time></trkpt><trkpt lat="44.44423007031625" lon="10.054186035579693"><ele>943.0</ele><time>2026-04-07T08:13:13Z</time></trkpt><trkpt lat="44.44430929065282" lon="10.054149237341136"><ele>943.0</ele><time>2026-04-07T08:13:14Z</time></trkpt><trkpt lat="44.44438105651528" lon="10.054109011713093"><ele>943.0</ele><time>2026-04-07T08:13:15Z</time></trkpt><trkpt lat="44.444444309324304" lon="10.05405942157174"><ele>942.9999999999999</ele><time>2026-04-07T08:13:16Z</time></trkpt><trkpt lat="44.4445033861158" lon="10.053995793304919"><ele>943.0</ele><time>2026-04-07T08:13:17Z</time></trkpt><trkpt lat="44.444553434834496" lon="10.05393181508731"><ele>945.0</ele><time>2026-04-07T08:13:18Z</time></trkpt><trkpt lat="44.444639455032814" lon="10.053835957597904"><ele>947.0</ele><time>2026-04-07T08:13:20Z</time></trkpt><trkpt lat="44.44470304533961" lon="10.053793577573005"><ele>949.0</ele><time>2026-04-07T08:13:21Z</time></trkpt><trkpt lat="44.444781856739176" lon="10.0537530106448"><ele>951.0</ele><time>2026-04-07T08:13:22Z</time></trkpt><trkpt lat="44.44487248546822" lon="10.053700782647109"><ele>953.0</ele><time>2026-04-07T08:13:23Z</time></trkpt><trkpt lat="44.44495404301167" lon="10.053642168115793"><ele>953.0000000000001</ele><time>2026-04-07T08:13:24Z</time></trkpt><trkpt lat="44.44502762614929" lon="10.05358748759813"><ele>953.0</ele><time>2026-04-07T08:13:25Z</time></trkpt><trkpt lat="44.44508830335767" lon="10.053541456568581"><ele>953.0</ele><time>2026-04-07T08:13:26Z</time></trkpt><trkpt lat="44.44514791985164" lon="10.05349307924226"><ele>953.0</ele><time>2026-04-07T08:13:27Z</time></trkpt><trkpt lat="44.44520861915943" lon="10.053444188802818"><ele>953.0000000000001</ele><time>2026-04-07T08:13:28Z</time></trkpt><trkpt lat="44.44527479321815" lon="10.053390888727645"><ele>953.0</ele><time>2026-04-07T08:13:29Z</time></trkpt><trkpt lat="44.445347846978386" lon="10.05332949057672"><ele>953.5000000000001</ele><time>2026-04-07T08:13:30Z</time></trkpt><trkpt lat="44.445417287928365" lon="10.053244996892285"><ele>954.0</ele><time>2026-04-07T08:13:31Z</time></trkpt><trkpt lat="44.44548715925173" lon="10.053172832197648"><ele>954.5</ele><time>2026-04-07T08:13:32Z</time></trkpt><trkpt lat="44.445550100043064" lon="10.053096394144973"><ele>955.0</ele><time>2026-04-07T08:13:33Z</time></trkpt><trkpt lat="44.44561099781466" lon="10.053019430956805"><ele>955.5000000000001</ele><time>2026-04-07T08:13:34Z</time></trkpt><trkpt lat="44.445670277004965" lon="10.05294083648346"><ele>956.0</ele><time>2026-04-07T08:13:35Z</time></trkpt><trkpt lat="44.44572298615778" lon="10.052870185727167"><ele>956.0</ele><time>2026-04-07T08:13:36Z</time></trkpt><trkpt lat="44.44577816356441" lon="10.052827254372279"><ele>955.9999999999999</ele><time>2026-04-07T08:13:37Z</time></trkpt><trkpt lat="44.44583171645749" lon="10.052720127822512"><ele>955.9999999999999</ele><time>2026-04-07T08:13:39Z</time></trkpt><trkpt lat="44.44591793245592" lon="10.052672088283483"><ele>956.0</ele><time>2026-04-07T08:13:42Z</time></trkpt><trkpt lat="44.445991910702126" lon="10.052796257197933"><ele>956.0</ele><time>2026-04-07T08:13:44Z</time></trkpt><trkpt lat="44.44602887200363" lon="10.05295546768381"><ele>956.0</ele><time>2026-04-07T08:13:46Z</time></trkpt><trkpt lat="44.4460868852743" lon="10.053101612638592"><ele>955.9999999999999</ele><time>2026-04-07T08:13:48Z</time></trkpt><trkpt lat="44.4461748730992" lon="10.05315007610544"><ele>955.9999999999999</ele><time>2026-04-07T08:13:50Z</time></trkpt><trkpt lat="44.44618449224237" lon="10.053270253848801"><ele>956.0</ele><time>2026-04-07T08:13:52Z</time></trkpt><trkpt lat="44.446196698646254" lon="10.053474216732264"><ele>956.0</ele><time>2026-04-07T08:13:54Z</time></trkpt><trkpt lat="44.44619353323562" lon="10.053576381472686"><ele>957.3333333333334</ele><time>2026-04-07T08:13:55Z</time></trkpt><trkpt lat="44.44617587895234" lon="10.053677676587023"><ele>958.6666666666667</ele><time>2026-04-07T08:13:56Z</time></trkpt><trkpt lat="44.44615311181438" lon="10.053769842023165"><ele>960.0</ele><time>2026-04-07T08:13:57Z</time></trkpt><trkpt lat="44.44616169637582" lon="10.053924004934805"><ele>961.3333333333333</ele><time>2026-04-07T08:13:59Z</time></trkpt><trkpt lat="44.44617546632367" lon="10.054012609830613"><ele>962.6666666666666</ele><time>2026-04-07T08:14:00Z</time></trkpt><trkpt lat="44.446180563379954" lon="10.054106195845941"><ele>964.0</ele><time>2026-04-07T08:14:01Z</time></trkpt><trkpt lat="44.44617059175082" lon="10.0542524281544"><ele>968.3333333333333</ele><time>2026-04-07T08:14:03Z</time></trkpt><trkpt lat="44.446106551977124" lon="10.05432543966221"><ele>972.6666666666666</ele><time>2026-04-07T08:14:05Z</time></trkpt><trkpt lat="44.446012102730236" lon="10.054367798102183"><ele>977.0</ele><time>2026-04-07T08:14:07Z</time></trkpt><trkpt lat="44.445985201272116" lon="10.054478403803405"><ele>981.3333333333333</ele><time>2026-04-07T08:14:09Z</time></trkpt><trkpt lat="44.44601170668283" lon="10.054582174766363"><ele>985.6666666666666</ele><time>2026-04-07T08:14:11Z</time></trkpt><trkpt lat="44.44605697360515" lon="10.054704392560073"><ele>990.0</ele><time>2026-04-07T08:14:13Z</time></trkpt><trkpt lat="44.44605130277197" lon="10.05486529156315"><ele>993.1666666666666</ele><time>2026-04-07T08:14:15Z</time></trkpt><trkpt lat="44.446026603918746" lon="10.0550151153148"><ele>996.3333333333333</ele><time>2026-04-07T08:14:17Z</time></trkpt><trkpt lat="44.4459909596207" lon="10.055104568472165"><ele>999.5</ele><time>2026-04-07T08:14:18Z</time></trkpt><trkpt lat="44.445977490578514" lon="10.055221252589083"><ele>1002.6666666666666</ele><time>2026-04-07T08:14:20Z</time></trkpt><trkpt lat="44.44598288376272" lon="10.05531627901778"><ele>1005.8333333333333</ele><time>2026-04-07T08:14:21Z</time></trkpt><trkpt lat="44.4460049105268" lon="10.055420552234112"><ele>1009.0</ele><time>2026-04-07T08:14:23Z</time></trkpt><trkpt lat="44.446032759432875" lon="10.055510820178297"><ele>1010.25</ele><time>2026-04-07T08:14:25Z</time></trkpt><trkpt lat="44.44605668187981" lon="10.055791218541604"><ele>1011.5</ele><time>2026-04-07T08:14:27Z</time></trkpt><trkpt lat="44.44603880047304" lon="10.055950279179447"><ele>1012.75</ele><time>2026-04-07T08:14:29Z</time></trkpt><trkpt lat="44.44601266649696" lon="10.05603900955136"><ele>1014.0</ele><time>2026-04-07T08:14:30Z</time></trkpt><trkpt lat="44.445992907695654" lon="10.056201787662982"><ele>1014.0</ele><time>2026-04-07T08:14:32Z</time></trkpt><trkpt lat="44.44598857438085" lon="10.056356572327015"><ele>1014.0000000000001</ele><time>2026-04-07T08:14:34Z</time></trkpt><trkpt lat="44.44600961996497" lon="10.056507690889365"><ele>1014.0000000000001</ele><time>2026-04-07T08:14:36Z</time></trkpt><trkpt lat="44.44602020490416" lon="10.056659177075701"><ele>1014.0</ele><time>2026-04-07T08:14:38Z</time></trkpt><trkpt lat="44.44604021046151" lon="10.056796032199353"><ele>1014.0</ele><time>2026-04-07T08:14:40Z</time></trkpt><trkpt lat="44.44601795495328" lon="10.056956914218034"><ele>1015.2</ele><time>2026-04-07T08:14:41.999Z</time></trkpt><trkpt lat="44.44600727971512" lon="10.057051256382062"><ele>1016.4000000000001</ele><time>2026-04-07T08:14:42.999Z</time></trkpt><trkpt lat="44.44597812817738" lon="10.057173302934222"><ele>1017.6</ele><time>2026-04-07T08:14:44.999Z</time></trkpt><trkpt lat="44.445920442216035" lon="10.057244867911795"><ele>1018.8</ele><time>2026-04-07T08:14:46.999Z</time></trkpt><trkpt lat="44.44594737329515" lon="10.057342963257199"><ele>1020.0</ele><time>2026-04-07T08:14:48.999Z</time></trkpt><trkpt lat="44.44597129004376" lon="10.057566271493153"><ele>1021.2</ele><time>2026-04-07T08:14:51.999Z</time></trkpt><trkpt lat="44.445984225247784" lon="10.05768588123733"><ele>1022.4</ele><time>2026-04-07T08:14:52.999Z</time></trkpt><trkpt lat="44.44597713732206" lon="10.057838494955401"><ele>1023.5999999999999</ele><time>2026-04-07T08:14:54.999Z</time></trkpt><trkpt lat="44.445971926281366" lon="10.057984254001708"><ele>1024.8</ele><time>2026-04-07T08:14:56.999Z</time></trkpt><trkpt lat="44.44599343880956" lon="10.058129669900282"><ele>1026.0</ele><time>2026-04-07T08:14:58.999Z</time></trkpt><trkpt lat="44.446012558762945" lon="10.058216793034058"><ele>1027.8333333333333</ele><time>2026-04-07T08:14:59.999Z</time></trkpt><trkpt lat="44.446030986937636" lon="10.058305176618967"><ele>1029.6666666666667</ele><time>2026-04-07T08:15:00.999Z</time></trkpt><trkpt lat="44.44604728685804" lon="10.058390866027137"><ele>1031.5</ele><time>2026-04-07T08:15:01.999Z</time></trkpt><trkpt lat="44.4460515321394" lon="10.058486122874001"><ele>1033.3333333333335</ele><time>2026-04-07T08:15:02.999Z</time></trkpt><trkpt lat="44.44606755139638" lon="10.058615804640793"><ele>1035.1666666666667</ele><time>2026-04-07T08:15:04.999Z</time></trkpt><trkpt lat="44.44606117417987" lon="10.0587675736552"><ele>1037.0</ele><time>2026-04-07T08:15:06.999Z</time></trkpt><trkpt lat="44.44604399585773" lon="10.058915905516912"><ele>1037.0</ele><time>2026-04-07T08:15:08.999Z</time></trkpt><trkpt lat="44.446053936702775" lon="10.059009117645594"><ele>1037.0</ele><time>2026-04-07T08:15:10.999Z</time></trkpt><trkpt lat="44.44610714675836" lon="10.05929376479632"><ele>1037.0</ele><time>2026-04-07T08:15:13.999Z</time></trkpt><trkpt lat="44.446123117956816" lon="10.059384995506939"><ele>1037.0</ele><time>2026-04-07T08:15:14.999Z</time></trkpt><trkpt lat="44.446139699731596" lon="10.059470676269486"><ele>1037.0</ele><time>2026-04-07T08:15:15.999Z</time></trkpt><trkpt lat="44.44615806297406" lon="10.059574326414015"><ele>1039.8</ele><time>2026-04-07T08:15:16.999Z</time></trkpt><trkpt lat="44.44619504578061" lon="10.059702701661777"><ele>1042.6</ele><time>2026-04-07T08:15:19Z</time></trkpt><trkpt lat="44.446217109096075" lon="10.05978736547336"><ele>1045.3999999999999</ele><time>2026-04-07T08:15:20Z</time></trkpt><trkpt lat="44.446249519793604" lon="10.059944720288136"><ele>1048.2</ele><time>2026-04-07T08:15:22Z</time></trkpt><trkpt lat="44.446205942808746" lon="10.060094838339088"><ele>1051.0</ele><time>2026-04-07T08:15:24Z</time></trkpt><trkpt lat="44.44617738158649" lon="10.060263267628743"><ele>1052.6</ele><time>2026-04-07T08:15:26Z</time></trkpt><trkpt lat="44.44616131308411" lon="10.06037471469602"><ele>1054.1999999999998</ele><time>2026-04-07T08:15:27Z</time></trkpt><trkpt lat="44.446121776032946" lon="10.060510655286038"><ele>1055.8000000000002</ele><time>2026-04-07T08:15:29Z</time></trkpt><trkpt lat="44.44609211250477" lon="10.060642166041335"><ele>1057.4</ele><time>2026-04-07T08:15:31Z</time></trkpt><trkpt lat="44.44606900069836" lon="10.060822332223998"><ele>1059.0</ele><time>2026-04-07T08:15:33Z</time></trkpt><trkpt lat="44.44602604086571" lon="10.060929490566277"><ele>1060.0</ele><time>2026-04-07T08:15:34Z</time></trkpt><trkpt lat="44.44598558268603" lon="10.061043161151112"><ele>1061.0</ele><time>2026-04-07T08:15:36Z</time></trkpt><trkpt lat="44.44595575924244" lon="10.061173994943635"><ele>1062.0</ele><time>2026-04-07T08:15:38Z</time></trkpt><trkpt lat="44.44594385684648" lon="10.061269306616156"><ele>1063.0</ele><time>2026-04-07T08:15:40Z</time></trkpt><trkpt lat="44.445960025051654" lon="10.061432827997805"><ele>1064.0</ele><time>2026-04-07T08:15:42Z</time></trkpt><trkpt lat="44.44597460867287" lon="10.06152298691935"><ele>1065.0</ele><time>2026-04-07T08:15:43Z</time></trkpt><trkpt lat="44.44599472759902" lon="10.061609222301163"><ele>1066.4</ele><time>2026-04-07T08:15:44Z</time></trkpt><trkpt lat="44.44602917059211" lon="10.061760777382151"><ele>1067.8</ele><time>2026-04-07T08:15:46Z</time></trkpt><trkpt lat="44.44606456747216" lon="10.061923437755725"><ele>1069.2</ele><time>2026-04-07T08:15:48Z</time></trkpt><trkpt lat="44.446063249550626" lon="10.062012694314513"><ele>1070.6</ele><time>2026-04-07T08:15:49Z</time></trkpt><trkpt lat="44.44607024731703" lon="10.06210848796047"><ele>1072.0</ele><time>2026-04-07T08:15:50Z</time></trkpt><trkpt lat="44.446097281022766" lon="10.062263589714496"><ele>1072.0</ele><time>2026-04-07T08:15:52Z</time></trkpt><trkpt lat="44.44614960838333" lon="10.062381561869687"><ele>1072.0</ele><time>2026-04-07T08:15:54Z</time></trkpt><trkpt lat="44.44622023737591" lon="10.06251847879873"><ele>1072.0</ele><time>2026-04-07T08:15:56Z</time></trkpt><trkpt lat="44.44627628563326" lon="10.062657328033161"><ele>1072.0</ele><time>2026-04-07T08:15:58Z</time></trkpt><trkpt lat="44.446319805370265" lon="10.0627246423458"><ele>1072.0</ele><time>2026-04-07T08:15:59Z</time></trkpt><trkpt lat="44.44637410447155" lon="10.062794345853277"><ele>1074.5</ele><time>2026-04-07T08:16:00Z</time></trkpt><trkpt lat="44.44641567031347" lon="10.062878570749302"><ele>1077.0</ele><time>2026-04-07T08:16:01Z</time></trkpt><trkpt lat="44.446463959814956" lon="10.06295531722794"><ele>1079.5</ele><time>2026-04-07T08:16:02Z</time></trkpt><trkpt lat="44.44655477117783" lon="10.063067310422952"><ele>1082.0</ele><time>2026-04-07T08:16:04Z</time></trkpt><trkpt lat="44.446609204965704" lon="10.063115390005597"><ele>1084.5</ele><time>2026-04-07T08:16:05Z</time></trkpt><trkpt lat="44.4466743113256" lon="10.06314571258581"><ele>1087.0</ele><time>2026-04-07T08:16:06Z</time></trkpt><trkpt lat="44.446747726962464" lon="10.063160885548372"><ele>1087.0</ele><time>2026-04-07T08:16:07Z</time></trkpt><trkpt lat="44.44686619344773" lon="10.06321431190352"><ele>1087.0</ele><time>2026-04-07T08:16:09Z</time></trkpt><trkpt lat="44.44692499749774" lon="10.063258116004965"><ele>1087.0</ele><time>2026-04-07T08:16:10Z</time></trkpt><trkpt lat="44.446982024726104" lon="10.063305141522266"><ele>1087.0</ele><time>2026-04-07T08:16:11Z</time></trkpt><trkpt lat="44.447035313762036" lon="10.06335942373724"><ele>1087.0</ele><time>2026-04-07T08:16:12Z</time></trkpt><trkpt lat="44.44712269198065" lon="10.063476685615484"><ele>1087.0</ele><time>2026-04-07T08:16:14Z</time></trkpt><trkpt lat="44.447212585119004" lon="10.06351662514637"><ele>1092.8</ele><time>2026-04-07T08:16:16Z</time></trkpt><trkpt lat="44.447324598236825" lon="10.063518647206312"><ele>1098.6</ele><time>2026-04-07T08:16:18Z</time></trkpt><trkpt lat="44.44743151057134" lon="10.063572370259793"><ele>1104.3999999999999</ele><time>2026-04-07T08:16:20Z</time></trkpt><trkpt lat="44.44755132161863" lon="10.06361326184586"><ele>1110.2</ele><time>2026-04-07T08:16:22Z</time></trkpt><trkpt lat="44.447617740226725" lon="10.063626932109118"><ele>1116.0</ele><time>2026-04-07T08:16:23Z</time></trkpt><trkpt lat="44.44770034877595" lon="10.063665729592332"><ele>1116.0</ele><time>2026-04-07T08:16:25Z</time></trkpt><trkpt lat="44.44768199728954" lon="10.063754014967088"><ele>1116.0</ele><time>2026-04-07T08:16:28Z</time></trkpt><trkpt lat="44.44764113383574" lon="10.063857861432341"><ele>1116.0</ele><time>2026-04-07T08:16:30Z</time></trkpt><trkpt lat="44.44749219951223" lon="10.064064050770115"><ele>1116.0</ele><time>2026-04-07T08:16:32Z</time></trkpt><trkpt lat="44.447437911206414" lon="10.064115885055235"><ele>1116.0</ele><time>2026-04-07T08:16:33Z</time></trkpt><trkpt lat="44.44732859374667" lon="10.064160837016546"><ele>1118.8</ele><time>2026-04-07T08:16:35Z</time></trkpt><trkpt lat="44.44720212231387" lon="10.064153485009506"><ele>1121.6</ele><time>2026-04-07T08:16:36.999Z</time></trkpt><trkpt lat="44.447137416456336" lon="10.064156985899768"><ele>1124.4</ele><time>2026-04-07T08:16:37.999Z</time></trkpt><trkpt lat="44.44706441068719" lon="10.064174583701632"><ele>1127.2</ele><time>2026-04-07T08:16:38.999Z</time></trkpt><trkpt lat="44.446953006044794" lon="10.064209092600654"><ele>1130.0</ele><time>2026-04-07T08:16:40.999Z</time></trkpt><trkpt lat="44.446889458222905" lon="10.064275702823839"><ele>1130.0</ele><time>2026-04-07T08:16:41.999Z</time></trkpt><trkpt lat="44.44682917501413" lon="10.064395757528729"><ele>1130.0</ele><time>2026-04-07T08:16:43.999Z</time></trkpt><trkpt lat="44.446824949445954" lon="10.06451118111978"><ele>1130.0</ele><time>2026-04-07T08:16:44.999Z</time></trkpt><trkpt lat="44.44677352286703" lon="10.064609355323945"><ele>1130.0</ele><time>2026-04-07T08:16:45.999Z</time></trkpt><trkpt lat="44.44673140027279" lon="10.064696800598844"><ele>1130.0</ele><time>2026-04-07T08:16:46.999Z</time></trkpt><trkpt lat="44.44668821983678" lon="10.06478455440205"><ele>1130.0</ele><time>2026-04-07T08:16:47.999Z</time></trkpt><trkpt lat="44.44662568865238" lon="10.064847587776775"><ele>1130.0</ele><time>2026-04-07T08:16:48.999Z</time></trkpt><trkpt lat="44.44663131034667" lon="10.064942333281493"><ele>1130.0</ele><time>2026-04-07T08:16:49.999Z</time></trkpt><trkpt lat="44.4465968642845" lon="10.065068706698748"><ele>1130.0</ele><time>2026-04-07T08:16:51.999Z</time></trkpt><trkpt lat="44.446611675534136" lon="10.065175013224296"><ele>1130.0</ele><time>2026-04-07T08:16:52.999Z</time></trkpt><trkpt lat="44.44660974234396" lon="10.065326029940648"><ele>1130.0</ele><time>2026-04-07T08:16:54.999Z</time></trkpt><trkpt lat="44.44667653007401" lon="10.065461987566074"><ele>1134.8</ele><time>2026-04-07T08:16:56.999Z</time></trkpt><trkpt lat="44.446715656773925" lon="10.06561629706482"><ele>1139.6</ele><time>2026-04-07T08:16:58.999Z</time></trkpt><trkpt lat="44.44672311358242" lon="10.065800024333626"><ele>1144.4</ele><time>2026-04-07T08:17:00.999Z</time></trkpt><trkpt lat="44.44671484352806" lon="10.065897208882184"><ele>1149.2</ele><time>2026-04-07T08:17:01.999Z</time></trkpt><trkpt lat="44.44669959543792" lon="10.06607706583947"><ele>1154.0</ele><time>2026-04-07T08:17:03.999Z</time></trkpt><trkpt lat="44.44667030724813" lon="10.066163221435799"><ele>1156.6666666666667</ele><time>2026-04-07T08:17:04.999Z</time></trkpt><trkpt lat="44.44664095661597" lon="10.066250671664802"><ele>1159.3333333333335</ele><time>2026-04-07T08:17:05.999Z</time></trkpt><trkpt lat="44.44661700193848" lon="10.066339335067756"><ele>1162.0</ele><time>2026-04-07T08:17:06.999Z</time></trkpt><trkpt lat="44.44660256571076" lon="10.06642582300176"><ele>1164.6666666666667</ele><time>2026-04-07T08:17:07.999Z</time></trkpt><trkpt lat="44.44655995995804" lon="10.066593576514547"><ele>1167.3333333333333</ele><time>2026-04-07T08:17:09.999Z</time></trkpt><trkpt lat="44.446597096915504" lon="10.06672607226139"><ele>1170.0</ele><time>2026-04-07T08:17:11.999Z</time></trkpt><trkpt lat="44.44666884768079" lon="10.066874680408326"><ele>1172.2</ele><time>2026-04-07T08:17:13.999Z</time></trkpt><trkpt lat="44.44674490684011" lon="10.066979382118738"><ele>1174.4</ele><time>2026-04-07T08:17:15.999Z</time></trkpt><trkpt lat="44.44684320911639" lon="10.067088546585117"><ele>1176.6</ele><time>2026-04-07T08:17:17.999Z</time></trkpt><trkpt lat="44.44691215466791" lon="10.067200295891126"><ele>1178.8</ele><time>2026-04-07T08:17:19.999Z</time></trkpt><trkpt lat="44.446958304706946" lon="10.067266670208372"><ele>1181.0</ele><time>2026-04-07T08:17:20.999Z</time></trkpt><trkpt lat="44.44698868074116" lon="10.067353090334413"><ele>1180.0</ele><time>2026-04-07T08:17:21.999Z</time></trkpt><trkpt lat="44.44704345312491" lon="10.06751552310924"><ele>1179.0</ele><time>2026-04-07T08:17:24Z</time></trkpt><trkpt lat="44.447110224079054" lon="10.067655163572582"><ele>1178.0</ele><time>2026-04-07T08:17:26Z</time></trkpt><trkpt lat="44.44715440372049" lon="10.067813241277669"><ele>1177.0</ele><time>2026-04-07T08:17:28Z</time></trkpt><trkpt lat="44.44719094370959" lon="10.06789521876873"><ele>1176.0</ele><time>2026-04-07T08:17:29Z</time></trkpt><trkpt lat="44.44723144173" lon="10.067972371191068"><ele>1178.6666666666667</ele><time>2026-04-07T08:17:30Z</time></trkpt><trkpt lat="44.44728318901845" lon="10.06804306496335"><ele>1181.3333333333333</ele><time>2026-04-07T08:17:31Z</time></trkpt><trkpt lat="44.4473323395477" lon="10.068106833770264"><ele>1184.0</ele><time>2026-04-07T08:17:32Z</time></trkpt><trkpt lat="44.44739979570473" lon="10.068177372906879"><ele>1186.6666666666665</ele><time>2026-04-07T08:17:34Z</time></trkpt><trkpt lat="44.44746768445436" lon="10.068223007997622"><ele>1189.3333333333333</ele><time>2026-04-07T08:17:41Z</time></trkpt><trkpt lat="44.44757366579791" lon="10.06828189866412"><ele>1192.0</ele><time>2026-04-07T08:17:43Z</time></trkpt><trkpt lat="44.44765407608291" lon="10.0682949689269"><ele>1192.0</ele><time>2026-04-07T08:17:45Z</time></trkpt><trkpt lat="44.447730976286444" lon="10.068362790327662"><ele>1192.0</ele><time>2026-04-07T08:17:47Z</time></trkpt><trkpt lat="44.447793087637486" lon="10.068412833328814"><ele>1192.0</ele><time>2026-04-07T08:17:49Z</time></trkpt><trkpt lat="44.44784124853584" lon="10.068497314699968"><ele>1192.0</ele><time>2026-04-07T08:17:51Z</time></trkpt><trkpt lat="44.44786986963051" lon="10.068609057869821"><ele>1192.0</ele><time>2026-04-07T08:17:53Z</time></trkpt><trkpt lat="44.447880049040506" lon="10.068722696951422"><ele>1192.0</ele><time>2026-04-07T08:17:55Z</time></trkpt><trkpt lat="44.44783986948476" lon="10.068831732216127"><ele>1192.0</ele><time>2026-04-07T08:17:57Z</time></trkpt><trkpt lat="44.447806603503686" lon="10.068960368959345"><ele>1192.0</ele><time>2026-04-07T08:17:59Z</time></trkpt><trkpt lat="44.44779057973844" lon="10.069111365399932"><ele>1192.0</ele><time>2026-04-07T08:18:01Z</time></trkpt><trkpt lat="44.44781391287346" lon="10.069256779809391"><ele>1192.0</ele><time>2026-04-07T08:18:03Z</time></trkpt><trkpt lat="44.44782109219498" lon="10.06939856636353"><ele>1192.0</ele><time>2026-04-07T08:18:05Z</time></trkpt><trkpt lat="44.44784789265334" lon="10.069483206114272"><ele>1192.3333333333333</ele><time>2026-04-07T08:18:07Z</time></trkpt><trkpt lat="44.44790001199957" lon="10.069593837085794"><ele>1192.6666666666665</ele><time>2026-04-07T08:18:10Z</time></trkpt><trkpt lat="44.447971693266695" lon="10.069675590621765"><ele>1193.0</ele><time>2026-04-07T08:18:12Z</time></trkpt><trkpt lat="44.448006890752914" lon="10.069777490712218"><ele>1193.3333333333333</ele><time>2026-04-07T08:18:14Z</time></trkpt><trkpt lat="44.44803664830943" lon="10.069893079247304"><ele>1193.6666666666667</ele><time>2026-04-07T08:18:16Z</time></trkpt><trkpt lat="44.44807816277738" lon="10.069991658699134"><ele>1194.0</ele><time>2026-04-07T08:18:18Z</time></trkpt><trkpt lat="44.448104528997135" lon="10.070085981811372"><ele>1195.1666666666667</ele><time>2026-04-07T08:18:21Z</time></trkpt><trkpt lat="44.44812587887896" lon="10.07019970611263"><ele>1196.3333333333333</ele><time>2026-04-07T08:18:24Z</time></trkpt><trkpt lat="44.448175940029195" lon="10.070319502058478"><ele>1197.5</ele><time>2026-04-07T08:18:27Z</time></trkpt><trkpt lat="44.44825840780912" lon="10.07034525851998"><ele>1198.6666666666665</ele><time>2026-04-07T08:18:29Z</time></trkpt><trkpt lat="44.44831874228369" lon="10.070431956584931"><ele>1199.8333333333333</ele><time>2026-04-07T08:18:32Z</time></trkpt><trkpt lat="44.44835674893031" lon="10.070529899505125"><ele>1201.0</ele><time>2026-04-07T08:18:34Z</time></trkpt><trkpt lat="44.44841057107904" lon="10.070618314893467"><ele>1201.0000000000002</ele><time>2026-04-07T08:18:36Z</time></trkpt><trkpt lat="44.44845963560749" lon="10.070686124770981"><ele>1201.0</ele><time>2026-04-07T08:18:38.999Z</time></trkpt><trkpt lat="44.44852165528628" lon="10.070749064266307"><ele>1201.0</ele><time>2026-04-07T08:18:41.999Z</time></trkpt><trkpt lat="44.448556617097616" lon="10.070825338985108"><ele>1201.0</ele><time>2026-04-07T08:18:44.999Z</time></trkpt><trkpt lat="44.44860326869586" lon="10.0709022927543"><ele>1201.0</ele><time>2026-04-07T08:18:47.999Z</time></trkpt><trkpt lat="44.44864394691497" lon="10.070980438746497"><ele>1201.0000000000002</ele><time>2026-04-07T08:18:51.999Z</time></trkpt><trkpt lat="44.44870103069151" lon="10.071059343001272"><ele>1201.0</ele><time>2026-04-07T08:19:00.999Z</time></trkpt><trkpt lat="44.44875660427649" lon="10.071107490586456"><ele>1198.4285714285716</ele><time>2026-04-07T08:19:06.999Z</time></trkpt><trkpt lat="44.44882949368893" lon="10.071114367300542"><ele>1195.857142857143</ele><time>2026-04-07T08:19:20.999Z</time></trkpt><trkpt lat="44.44886928795075" lon="10.071045992421594"><ele>1193.2857142857142</ele><time>2026-04-07T08:19:32Z</time></trkpt><trkpt lat="44.44887316116201" lon="10.070949218073352"><ele>1190.7142857142858</ele><time>2026-04-07T08:19:35Z</time></trkpt><trkpt lat="44.44889445925185" lon="10.070837643285836"><ele>1188.142857142857</ele><time>2026-04-07T08:19:38Z</time></trkpt><trkpt lat="44.44889224808269" lon="10.070745932729515"><ele>1185.5714285714287</ele><time>2026-04-07T08:19:42Z</time></trkpt><trkpt lat="44.44891063420659" lon="10.070651664577545"><ele>1183.0</ele><time>2026-04-07T08:19:51Z</time></trkpt><trkpt lat="44.44894815161713" lon="10.070571240497367"><ele>1183.0</ele><time>2026-04-07T08:19:55Z</time></trkpt><trkpt lat="44.44900707427437" lon="10.070526254070392"><ele>1183.0</ele><time>2026-04-07T08:19:58Z</time></trkpt><trkpt lat="44.449055282685386" lon="10.070461474844116"><ele>1183.0</ele><time>2026-04-07T08:20:14Z</time></trkpt><trkpt lat="44.44898388918285" lon="10.070530568332899"><ele>1183.0</ele><time>2026-04-07T08:20:21Z</time></trkpt><trkpt lat="44.44892825340491" lon="10.070581346350972"><ele>1183.0</ele><time>2026-04-07T08:20:25Z</time></trkpt><trkpt lat="44.44890133166651" lon="10.070671382123571"><ele>1183.0</ele><time>2026-04-07T08:20:28Z</time></trkpt><trkpt lat="44.448907932916875" lon="10.070770767955475"><ele>1183.0</ele><time>2026-04-07T08:20:31Z</time></trkpt><trkpt lat="44.44888116607155" lon="10.070880347124552"><ele>1183.0</ele><time>2026-04-07T08:20:35Z</time></trkpt><trkpt lat="44.448863212096164" lon="10.07099119143999"><ele>1183.0</ele><time>2026-04-07T08:20:38Z</time></trkpt><trkpt lat="44.448821990269295" lon="10.071076613625403"><ele>1183.0</ele><time>2026-04-07T08:20:40.999Z</time></trkpt><trkpt lat="44.44875483099547" lon="10.07110392875619"><ele>1183.0</ele><time>2026-04-07T08:20:43.999Z</time></trkpt><trkpt lat="44.44874430318572" lon="10.071237533340534"><ele>1183.0</ele><time>2026-04-07T08:20:45.999Z</time></trkpt><trkpt lat="44.44873403987035" lon="10.071339425492457"><ele>1183.0</ele><time>2026-04-07T08:20:47.999Z</time></trkpt><trkpt lat="44.44866076867062" lon="10.071397880570112"><ele>1184.142857142857</ele><time>2026-04-07T08:20:49.999Z</time></trkpt><trkpt lat="44.44863369061075" lon="10.071494357373973"><ele>1185.2857142857142</ele><time>2026-04-07T08:20:52.999Z</time></trkpt><trkpt lat="44.44865205953223" lon="10.071580475845545"><ele>1186.4285714285716</ele><time>2026-04-07T08:20:54.999Z</time></trkpt><trkpt lat="44.44866211427779" lon="10.071690770958512"><ele>1187.5714285714284</ele><time>2026-04-07T08:20:56.999Z</time></trkpt><trkpt lat="44.44867786617546" lon="10.071789787799808"><ele>1188.7142857142858</ele><time>2026-04-07T08:20:58.999Z</time></trkpt><trkpt lat="44.4487123452078" lon="10.071877839586584"><ele>1189.857142857143</ele><time>2026-04-07T08:21:00.999Z</time></trkpt><trkpt lat="44.44876172129848" lon="10.07193329299347"><ele>1191.0</ele><time>2026-04-07T08:21:02.999Z</time></trkpt><trkpt lat="44.44882001495339" lon="10.071972779735272"><ele>1191.0</ele><time>2026-04-07T08:21:04.999Z</time></trkpt><trkpt lat="44.44886515502167" lon="10.07203918300369"><ele>1191.0</ele><time>2026-04-07T08:21:06.999Z</time></trkpt><trkpt lat="44.44889453788048" lon="10.072122886570376"><ele>1191.0</ele><time>2026-04-07T08:21:08.999Z</time></trkpt><trkpt lat="44.448930273492046" lon="10.07222690618838"><ele>1191.0</ele><time>2026-04-07T08:21:10.999Z</time></trkpt><trkpt lat="44.44894029784468" lon="10.072330038161544"><ele>1191.0</ele><time>2026-04-07T08:21:12.999Z</time></trkpt><trkpt lat="44.448995788618305" lon="10.07247473564872"><ele>1191.0</ele><time>2026-04-07T08:21:14.999Z</time></trkpt><trkpt lat="44.44904660766416" lon="10.072588178347889"><ele>1193.8333333333333</ele><time>2026-04-07T08:21:16.999Z</time></trkpt><trkpt lat="44.449106529509564" lon="10.07266155060711"><ele>1196.6666666666667</ele><time>2026-04-07T08:21:18.999Z</time></trkpt><trkpt lat="44.44917738808077" lon="10.072671874790503"><ele>1199.5</ele><time>2026-04-07T08:21:21.999Z</time></trkpt><trkpt lat="44.449190968510216" lon="10.07278957262554"><ele>1202.3333333333335</ele><time>2026-04-07T08:21:24.999Z</time></trkpt><trkpt lat="44.44919369740472" lon="10.072945771013929"><ele>1205.1666666666667</ele><time>2026-04-07T08:21:27.999Z</time></trkpt><trkpt lat="44.44922467531544" lon="10.073037658254604"><ele>1208.0</ele><time>2026-04-07T08:21:29.999Z</time></trkpt><trkpt lat="44.44923448255363" lon="10.07313492253253"><ele>1208.0</ele><time>2026-04-07T08:21:32.999Z</time></trkpt><trkpt lat="44.44932355143444" lon="10.073196892286106"><ele>1208.0</ele><time>2026-04-07T08:21:34.999Z</time></trkpt><trkpt lat="44.44933673830027" lon="10.07328649968691"><ele>1208.0</ele><time>2026-04-07T08:21:37Z</time></trkpt><trkpt lat="44.44937859727008" lon="10.073369274760818"><ele>1208.0</ele><time>2026-04-07T08:21:39Z</time></trkpt><trkpt lat="44.44936246362536" lon="10.073479474592705"><ele>1208.0</ele><time>2026-04-07T08:21:42Z</time></trkpt><trkpt lat="44.44933261079331" lon="10.07359955077117"><ele>1208.0</ele><time>2026-04-07T08:21:45Z</time></trkpt><trkpt lat="44.44929911130685" lon="10.073683361323205"><ele>1211.0</ele><time>2026-04-07T08:21:47Z</time></trkpt><trkpt lat="44.44927951717008" lon="10.073813588248575"><ele>1214.0</ele><time>2026-04-07T08:21:49Z</time></trkpt><trkpt lat="44.44926309716331" lon="10.073913782204666"><ele>1217.0</ele><time>2026-04-07T08:21:50Z</time></trkpt><trkpt lat="44.44922358435357" lon="10.07401169179526"><ele>1220.0</ele><time>2026-04-07T08:21:51Z</time></trkpt><trkpt lat="44.44920889249142" lon="10.074113217101532"><ele>1223.0</ele><time>2026-04-07T08:21:53Z</time></trkpt><trkpt lat="44.44917842246826" lon="10.07422059214858"><ele>1226.0</ele><time>2026-04-07T08:21:59Z</time></trkpt><trkpt lat="44.44910501203772" lon="10.074291670548781"><ele>1228.0</ele><time>2026-04-07T08:22:01Z</time></trkpt><trkpt lat="44.44907699117541" lon="10.07439571181114"><ele>1230.0</ele><time>2026-04-07T08:22:03Z</time></trkpt><trkpt lat="44.44905024361418" lon="10.074523114010207"><ele>1232.0</ele><time>2026-04-07T08:22:06Z</time></trkpt><trkpt lat="44.44904576480716" lon="10.074648469386602"><ele>1234.0</ele><time>2026-04-07T08:22:09Z</time></trkpt><trkpt lat="44.44904501146876" lon="10.074741053514447"><ele>1236.0</ele><time>2026-04-07T08:22:12Z</time></trkpt><trkpt lat="44.449046600626254" lon="10.0748308625096"><ele>1238.0</ele><time>2026-04-07T08:22:15Z</time></trkpt><trkpt lat="44.449033819632284" lon="10.074923782343891"><ele>1238.0</ele><time>2026-04-07T08:22:51.999Z</time></trkpt><trkpt lat="44.44909694646039" lon="10.074952774482433"><ele>1238.0</ele><time>2026-04-07T08:23:04.999Z</time></trkpt><trkpt lat="44.449177607860264" lon="10.074924284545439"><ele>1238.0</ele><time>2026-04-07T08:23:07.999Z</time></trkpt><trkpt lat="44.44927508884258" lon="10.074905407687332"><ele>1238.0</ele><time>2026-04-07T08:23:10.999Z</time></trkpt><trkpt lat="44.44936722660568" lon="10.074874157407343"><ele>1238.0</ele><time>2026-04-07T08:23:13.999Z</time></trkpt><trkpt lat="44.449438605358495" lon="10.074825216735393"><ele>1238.0</ele><time>2026-04-07T08:23:18.999Z</time></trkpt><trkpt lat="44.44950597957794" lon="10.074822650530585"><ele>1238.0</ele><time>2026-04-07T08:23:20.999Z</time></trkpt><trkpt lat="44.4495695746689" lon="10.074830847190734"><ele>1238.0</ele><time>2026-04-07T08:23:22.999Z</time></trkpt><trkpt lat="44.44965438112848" lon="10.07484715481702"><ele>1238.0</ele><time>2026-04-07T08:23:25.999Z</time></trkpt><trkpt lat="44.44973463691448" lon="10.074830006536013"><ele>1238.0</ele><time>2026-04-07T08:23:28.999Z</time></trkpt><trkpt lat="44.44979759722447" lon="10.07483836913137"><ele>1238.0</ele><time>2026-04-07T08:23:30.999Z</time></trkpt><trkpt lat="44.4498540402259" lon="10.07488522087323"><ele>1238.0</ele><time>2026-04-07T08:23:32.999Z</time></trkpt><trkpt lat="44.44993601782831" lon="10.07487288772329"><ele>1238.0</ele><time>2026-04-07T08:23:35.999Z</time></trkpt><trkpt lat="44.450011152951774" lon="10.074826734741313"><ele>1238.2857142857142</ele><time>2026-04-07T08:23:37.999Z</time></trkpt><trkpt lat="44.450073143773274" lon="10.074808899446428"><ele>1238.5714285714287</ele><time>2026-04-07T08:23:39.999Z</time></trkpt><trkpt lat="44.45013617769512" lon="10.074811207019023"><ele>1238.857142857143</ele><time>2026-04-07T08:23:42Z</time></trkpt><trkpt lat="44.450212520929384" lon="10.074775871312083"><ele>1239.142857142857</ele><time>2026-04-07T08:23:45Z</time></trkpt><trkpt lat="44.45027468265989" lon="10.074756521550999"><ele>1239.4285714285713</ele><time>2026-04-07T08:23:47Z</time></trkpt><trkpt lat="44.45037579888618" lon="10.074697936334855"><ele>1239.7142857142858</ele><time>2026-04-07T08:23:50Z</time></trkpt><trkpt lat="44.45043923591646" lon="10.074660627867804"><ele>1240.0</ele><time>2026-04-07T08:23:52Z</time></trkpt><trkpt lat="44.45051221000508" lon="10.0746427586633"><ele>1242.8333333333333</ele><time>2026-04-07T08:23:55Z</time></trkpt><trkpt lat="44.450574610766935" lon="10.074625856612451"><ele>1245.6666666666665</ele><time>2026-04-07T08:23:57Z</time></trkpt><trkpt lat="44.45063785741335" lon="10.0746119846688"><ele>1248.5</ele><time>2026-04-07T08:23:59Z</time></trkpt><trkpt lat="44.45069300108718" lon="10.074557714124369"><ele>1251.3333333333333</ele><time>2026-04-07T08:24:02Z</time></trkpt><trkpt lat="44.45078623550201" lon="10.074528933178986"><ele>1254.1666666666667</ele><time>2026-04-07T08:24:05Z</time></trkpt><trkpt lat="44.45086116033139" lon="10.0745122698425"><ele>1257.0</ele><time>2026-04-07T08:24:07Z</time></trkpt><trkpt lat="44.45095316948546" lon="10.074535428721015"><ele>1257.0</ele><time>2026-04-07T08:24:10Z</time></trkpt><trkpt lat="44.45104800814824" lon="10.074511008506553"><ele>1257.0</ele><time>2026-04-07T08:24:13Z</time></trkpt><trkpt lat="44.4511149201939" lon="10.074507333300108"><ele>1257.0</ele><time>2026-04-07T08:24:15Z</time></trkpt><trkpt lat="44.45118191685457" lon="10.074532504843926"><ele>1257.0</ele><time>2026-04-07T08:24:17Z</time></trkpt><trkpt lat="44.45125488205674" lon="10.074481988575243"><ele>1257.0</ele><time>2026-04-07T08:24:20Z</time></trkpt><trkpt lat="44.451318083274565" lon="10.074431211737304"><ele>1257.0</ele><time>2026-04-07T08:24:22Z</time></trkpt><trkpt lat="44.45141166108554" lon="10.074369270433024"><ele>1254.3333333333333</ele><time>2026-04-07T08:24:26Z</time></trkpt><trkpt lat="44.451476691366416" lon="10.07433349198083"><ele>1251.6666666666667</ele><time>2026-04-07T08:24:29Z</time></trkpt><trkpt lat="44.451560991736606" lon="10.074301846313737"><ele>1249.0</ele><time>2026-04-07T08:24:32Z</time></trkpt><trkpt lat="44.45163528708211" lon="10.074256045670056"><ele>1246.3333333333335</ele><time>2026-04-07T08:24:36Z</time></trkpt><trkpt lat="44.4516999307698" lon="10.074211992878672"><ele>1243.6666666666667</ele><time>2026-04-07T08:24:38Z</time></trkpt><trkpt lat="44.45177260220268" lon="10.074169954241716"><ele>1241.0</ele><time>2026-04-07T08:24:41Z</time></trkpt><trkpt lat="44.45183350828245" lon="10.07409701283525"><ele>1241.0</ele><time>2026-04-07T08:24:44Z</time></trkpt><trkpt lat="44.451898176357105" lon="10.074060389750265"><ele>1241.0</ele><time>2026-04-07T08:24:47Z</time></trkpt><trkpt lat="44.45198719452277" lon="10.074037593150976"><ele>1241.0</ele><time>2026-04-07T08:24:49.999Z</time></trkpt><trkpt lat="44.45206638183745" lon="10.074011667900802"><ele>1241.0</ele><time>2026-04-07T08:24:52.999Z</time></trkpt><trkpt lat="44.45213761432659" lon="10.07398028264997"><ele>1241.0</ele><time>2026-04-07T08:24:54.999Z</time></trkpt><trkpt lat="44.45219789371466" lon="10.073906350066425"><ele>1241.0</ele><time>2026-04-07T08:24:57.999Z</time></trkpt><trkpt lat="44.452240083202796" lon="10.073837296900486"><ele>1244.6666666666667</ele><time>2026-04-07T08:24:59.999Z</time></trkpt><trkpt lat="44.45227147731445" lon="10.073745070904048"><ele>1248.3333333333335</ele><time>2026-04-07T08:25:02.999Z</time></trkpt><trkpt lat="44.45231525538149" lon="10.073663812263785"><ele>1252.0</ele><time>2026-04-07T08:25:05.999Z</time></trkpt><trkpt lat="44.45236980908189" lon="10.073577845737816"><ele>1255.6666666666667</ele><time>2026-04-07T08:25:08.999Z</time></trkpt><trkpt lat="44.452439104093656" lon="10.073502172355393"><ele>1259.3333333333333</ele><time>2026-04-07T08:25:11.999Z</time></trkpt><trkpt lat="44.45249576827257" lon="10.073460333396312"><ele>1263.0</ele><time>2026-04-07T08:25:13.999Z</time></trkpt><trkpt lat="44.45258444812353" lon="10.073397173311037"><ele>1263.0</ele><time>2026-04-07T08:25:15.999Z</time></trkpt><trkpt lat="44.452639547932165" lon="10.073335073702053"><ele>1263.0</ele><time>2026-04-07T08:25:19.999Z</time></trkpt><trkpt lat="44.4527037084728" lon="10.073224732139373"><ele>1263.0</ele><time>2026-04-07T08:25:31.999Z</time></trkpt><trkpt lat="44.452764152165294" lon="10.07319910980537"><ele>1263.0</ele><time>2026-04-07T08:25:45.999Z</time></trkpt><trkpt lat="44.45282476506947" lon="10.073251088037217"><ele>1263.0</ele><time>2026-04-07T08:25:50Z</time></trkpt><trkpt lat="44.45288558694878" lon="10.07330841235642"><ele>1263.0</ele><time>2026-04-07T08:25:56Z</time></trkpt><trkpt lat="44.45295021883601" lon="10.073384546448104"><ele>1260.142857142857</ele><time>2026-04-07T08:26:06Z</time></trkpt><trkpt lat="44.45299833376576" lon="10.073460867647002"><ele>1257.2857142857142</ele><time>2026-04-07T08:26:09Z</time></trkpt><trkpt lat="44.45303487550149" lon="10.073534468132546"><ele>1254.4285714285716</ele><time>2026-04-07T08:26:13Z</time></trkpt><trkpt lat="44.45308143897412" lon="10.073597098635622"><ele>1251.5714285714284</ele><time>2026-04-07T08:26:15Z</time></trkpt><trkpt lat="44.45315655672856" lon="10.073703273673878"><ele>1248.7142857142858</ele><time>2026-04-07T08:26:17Z</time></trkpt><trkpt lat="44.453208803876606" lon="10.073759961946845"><ele>1245.857142857143</ele><time>2026-04-07T08:26:18Z</time></trkpt><trkpt lat="44.45326519368267" lon="10.073816132779193"><ele>1243.0</ele><time>2026-04-07T08:26:20Z</time></trkpt><trkpt lat="44.45332504594099" lon="10.073878772759793"><ele>1243.0</ele><time>2026-04-07T08:26:23Z</time></trkpt><trkpt lat="44.45338076073733" lon="10.073928481332333"><ele>1243.0</ele><time>2026-04-07T08:26:26Z</time></trkpt><trkpt lat="44.453425522527375" lon="10.074027018053084"><ele>1243.0</ele><time>2026-04-07T08:26:31Z</time></trkpt><trkpt lat="44.45351834298703" lon="10.074092348354776"><ele>1243.0</ele><time>2026-04-07T08:26:34Z</time></trkpt><trkpt lat="44.45359726471476" lon="10.074104160471096"><ele>1243.0</ele><time>2026-04-07T08:26:37Z</time></trkpt><trkpt lat="44.453673233617295" lon="10.074113617977497"><ele>1243.0</ele><time>2026-04-07T08:26:41Z</time></trkpt><trkpt lat="44.45375454014665" lon="10.074131311491403"><ele>1239.7142857142858</ele><time>2026-04-07T08:26:43Z</time></trkpt><trkpt lat="44.45382458386968" lon="10.074177900623827"><ele>1236.4285714285716</ele><time>2026-04-07T08:26:45Z</time></trkpt><trkpt lat="44.45387737743298" lon="10.074264703614354"><ele>1233.1428571428573</ele><time>2026-04-07T08:26:49.999Z</time></trkpt><trkpt lat="44.45393971779205" lon="10.074307478013658"><ele>1229.857142857143</ele><time>2026-04-07T08:26:53.999Z</time></trkpt><trkpt lat="44.45400478817817" lon="10.074314139602691"><ele>1226.5714285714284</ele><time>2026-04-07T08:26:56.999Z</time></trkpt><trkpt lat="44.4540689649861" lon="10.074325158482822"><ele>1223.2857142857144</ele><time>2026-04-07T08:26:59.999Z</time></trkpt><trkpt lat="44.45414165700193" lon="10.074310202262902"><ele>1220.0</ele><time>2026-04-07T08:27:02.999Z</time></trkpt><trkpt lat="44.45420933910576" lon="10.074303937727654"><ele>1220.0</ele><time>2026-04-07T08:27:05.999Z</time></trkpt><trkpt lat="44.45429180175518" lon="10.074322166484292"><ele>1220.0</ele><time>2026-04-07T08:27:08.999Z</time></trkpt><trkpt lat="44.454356017012024" lon="10.074376523188308"><ele>1220.0</ele><time>2026-04-07T08:27:11.999Z</time></trkpt><trkpt lat="44.45441460650133" lon="10.074422729930122"><ele>1220.0</ele><time>2026-04-07T08:27:13.999Z</time></trkpt><trkpt lat="44.45447852927712" lon="10.074421934452022"><ele>1220.0</ele><time>2026-04-07T08:27:15.999Z</time></trkpt><trkpt lat="44.454578987858255" lon="10.074429017046036"><ele>1220.0</ele><time>2026-04-07T08:27:18.999Z</time></trkpt><trkpt lat="44.454632324152804" lon="10.074489827121077"><ele>1215.5</ele><time>2026-04-07T08:27:22.999Z</time></trkpt><trkpt lat="44.45468432077879" lon="10.074543055817978"><ele>1211.0</ele><time>2026-04-07T08:27:26.999Z</time></trkpt><trkpt lat="44.45480813745397" lon="10.074554490702573"><ele>1206.5</ele><time>2026-04-07T08:27:29.999Z</time></trkpt><trkpt lat="44.45489522354805" lon="10.074555552440541"><ele>1202.0</ele><time>2026-04-07T08:27:31.999Z</time></trkpt><trkpt lat="44.4549803022552" lon="10.074543838188847"><ele>1197.5</ele><time>2026-04-07T08:27:35.999Z</time></trkpt><trkpt lat="44.45504110225548" lon="10.07458362574258"><ele>1193.0</ele><time>2026-04-07T08:27:38.999Z</time></trkpt><trkpt lat="44.45510078361244" lon="10.074613986805453"><ele>1193.0</ele><time>2026-04-07T08:27:40.999Z</time></trkpt><trkpt lat="44.455180893679554" lon="10.07464775273252"><ele>1193.0</ele><time>2026-04-07T08:27:42.999Z</time></trkpt><trkpt lat="44.45525691881584" lon="10.074689737403776"><ele>1193.0</ele><time>2026-04-07T08:27:44.999Z</time></trkpt><trkpt lat="44.45533660171908" lon="10.074683764337703"><ele>1193.0</ele><time>2026-04-07T08:27:46.999Z</time></trkpt><trkpt lat="44.4554069927648" lon="10.07465791294189"><ele>1193.0</ele><time>2026-04-07T08:27:48.999Z</time></trkpt><trkpt lat="44.45548112792017" lon="10.07462299889924"><ele>1193.0</ele><time>2026-04-07T08:27:50.999Z</time></trkpt><trkpt lat="44.45555352106894" lon="10.074617761823381"><ele>1189.6666666666667</ele><time>2026-04-07T08:27:52.999Z</time></trkpt><trkpt lat="44.4556175121331" lon="10.074609604617407"><ele>1186.3333333333335</ele><time>2026-04-07T08:27:55Z</time></trkpt><trkpt lat="44.45570947148332" lon="10.07461712047629"><ele>1183.0</ele><time>2026-04-07T08:27:58Z</time></trkpt><trkpt lat="44.45577400015941" lon="10.074607255989829"><ele>1179.6666666666667</ele><time>2026-04-07T08:28:00Z</time></trkpt><trkpt lat="44.455835538223866" lon="10.07466952276206"><ele>1176.3333333333333</ele><time>2026-04-07T08:28:03Z</time></trkpt><trkpt lat="44.455908676961116" lon="10.074739347132594"><ele>1173.0</ele><time>2026-04-07T08:28:27Z</time></trkpt><trkpt lat="44.45597195161896" lon="10.074761865672233"><ele>1173.0000000000002</ele><time>2026-04-07T08:28:29Z</time></trkpt><trkpt lat="44.45604288485044" lon="10.074778534453596"><ele>1173.0</ele><time>2026-04-07T08:28:31Z</time></trkpt><trkpt lat="44.45612311380804" lon="10.074772938493533"><ele>1173.0</ele><time>2026-04-07T08:28:33Z</time></trkpt><trkpt lat="44.45620068648189" lon="10.074744019388783"><ele>1173.0</ele><time>2026-04-07T08:28:35Z</time></trkpt><trkpt lat="44.45627614338837" lon="10.074717446598754"><ele>1173.0</ele><time>2026-04-07T08:28:37Z</time></trkpt><trkpt lat="44.45634785493735" lon="10.074714414339324"><ele>1173.0000000000002</ele><time>2026-04-07T08:28:39Z</time></trkpt><trkpt lat="44.45641291743101" lon="10.07470907367598"><ele>1173.0</ele><time>2026-04-07T08:28:41Z</time></trkpt><trkpt lat="44.456480859481914" lon="10.074673552754781"><ele>1169.8333333333333</ele><time>2026-04-07T08:28:43Z</time></trkpt><trkpt lat="44.45655410167226" lon="10.074658396878801"><ele>1166.6666666666667</ele><time>2026-04-07T08:28:45Z</time></trkpt><trkpt lat="44.45666256452759" lon="10.074690851247958"><ele>1163.5</ele><time>2026-04-07T08:28:48Z</time></trkpt><trkpt lat="44.456724617059734" lon="10.074758368370135"><ele>1160.3333333333335</ele><time>2026-04-07T08:28:50Z</time></trkpt><trkpt lat="44.456770082565455" lon="10.07485099545147"><ele>1157.1666666666667</ele><time>2026-04-07T08:28:52.999Z</time></trkpt><trkpt lat="44.456824062760404" lon="10.074919754547295"><ele>1154.0</ele><time>2026-04-07T08:28:54.999Z</time></trkpt><trkpt lat="44.45688892989979" lon="10.074985430631244"><ele>1154.0</ele><time>2026-04-07T08:28:56.999Z</time></trkpt><trkpt lat="44.456842963210455" lon="10.075074624236509"><ele>1154.0</ele><time>2026-04-07T08:28:59.999Z</time></trkpt><trkpt lat="44.45677298379651" lon="10.07508739700989"><ele>1154.0</ele><time>2026-04-07T08:29:03.999Z</time></trkpt><trkpt lat="44.45671865191061" lon="10.075141192098483"><ele>1154.0</ele><time>2026-04-07T08:29:06.999Z</time></trkpt><trkpt lat="44.45669401225776" lon="10.075245670839125"><ele>1154.0</ele><time>2026-04-07T08:29:08.999Z</time></trkpt><trkpt lat="44.45667339951206" lon="10.075339272715476"><ele>1154.0</ele><time>2026-04-07T08:29:10.999Z</time></trkpt><trkpt lat="44.456696916971566" lon="10.075439330534358"><ele>1154.0</ele><time>2026-04-07T08:29:12.999Z</time></trkpt><trkpt lat="44.45674753593248" lon="10.075501184675044"><ele>1154.0</ele><time>2026-04-07T08:29:14.999Z</time></trkpt><trkpt lat="44.45679632771986" lon="10.075577485384258"><ele>1154.0</ele><time>2026-04-07T08:29:16.999Z</time></trkpt><trkpt lat="44.45676509016139" lon="10.07566003846348"><ele>1154.0</ele><time>2026-04-07T08:29:19.999Z</time></trkpt><trkpt lat="44.456684983462736" lon="10.075672804406304"><ele>1154.0</ele><time>2026-04-07T08:29:23.999Z</time></trkpt><trkpt lat="44.456604817253314" lon="10.075728638010805"><ele>1154.0</ele><time>2026-04-07T08:29:26.999Z</time></trkpt><trkpt lat="44.45655961765942" lon="10.07586773870287"><ele>1154.0</ele><time>2026-04-07T08:29:29.999Z</time></trkpt><trkpt lat="44.45655916946936" lon="10.07600381946061"><ele>1150.2</ele><time>2026-04-07T08:29:32.999Z</time></trkpt><trkpt lat="44.45658046155631" lon="10.076251998981391"><ele>1146.4</ele><time>2026-04-07T08:29:35.999Z</time></trkpt><trkpt lat="44.45663213831813" lon="10.076325236608549"><ele>1142.6</ele><time>2026-04-07T08:29:37.999Z</time></trkpt><trkpt lat="44.45671554404633" lon="10.076339039083827"><ele>1138.8</ele><time>2026-04-07T08:29:39.999Z</time></trkpt><trkpt lat="44.45677957275088" lon="10.07633138377991"><ele>1135.0</ele><time>2026-04-07T08:29:41.999Z</time></trkpt><trkpt lat="44.45685447023522" lon="10.076347406355305"><ele>1135.0</ele><time>2026-04-07T08:29:43.999Z</time></trkpt><trkpt lat="44.45691899194857" lon="10.076378548747467"><ele>1135.0</ele><time>2026-04-07T08:29:45.999Z</time></trkpt><trkpt lat="44.4569709608304" lon="10.076453107044552"><ele>1135.0</ele><time>2026-04-07T08:29:48.999Z</time></trkpt><trkpt lat="44.45694977525224" lon="10.076568568546518"><ele>1135.0</ele><time>2026-04-07T08:29:50.999Z</time></trkpt><trkpt lat="44.45688367342708" lon="10.076677729316975"><ele>1135.0</ele><time>2026-04-07T08:29:52.999Z</time></trkpt><trkpt lat="44.45681665504917" lon="10.07671371166447"><ele>1135.0</ele><time>2026-04-07T08:29:53.999Z</time></trkpt><trkpt lat="44.456780943828505" lon="10.076822501505447"><ele>1131.0</ele><time>2026-04-07T08:29:56.999Z</time></trkpt><trkpt lat="44.456769276874944" lon="10.076923204670258"><ele>1127.0</ele><time>2026-04-07T08:29:57.999Z</time></trkpt><trkpt lat="44.456800649599444" lon="10.07701417698788"><ele>1123.0</ele><time>2026-04-07T08:30:00Z</time></trkpt><trkpt lat="44.45685554004119" lon="10.077101320544044"><ele>1119.0</ele><time>2026-04-07T08:30:03Z</time></trkpt><trkpt lat="44.45681870492876" lon="10.077197828547629"><ele>1115.0</ele><time>2026-04-07T08:40:15.999Z</time></trkpt><trkpt lat="44.45675745458026" lon="10.077278837639199"><ele>1111.0</ele><time>2026-04-07T08:40:18.999Z</time></trkpt><trkpt lat="44.456692649143854" lon="10.07732108712457"><ele>1111.0</ele><time>2026-04-07T08:40:20.999Z</time></trkpt><trkpt lat="44.45661977285647" lon="10.07732594716292"><ele>1111.0</ele><time>2026-04-07T08:40:22.999Z</time></trkpt><trkpt lat="44.45654533385556" lon="10.07731680536323"><ele>1111.0</ele><time>2026-04-07T08:40:24.999Z</time></trkpt><trkpt lat="44.456458779898796" lon="10.077359017685733"><ele>1111.0</ele><time>2026-04-07T08:40:26.999Z</time></trkpt><trkpt lat="44.456375758354845" lon="10.0773743137595"><ele>1111.0</ele><time>2026-04-07T08:40:30Z</time></trkpt><trkpt lat="44.45628132683883" lon="10.077351572306386"><ele>1111.0</ele><time>2026-04-07T08:40:33Z</time></trkpt><trkpt lat="44.45620364285794" lon="10.077321042668869"><ele>1108.6666666666665</ele><time>2026-04-07T08:40:35Z</time></trkpt><trkpt lat="44.45611726520413" lon="10.077365475605818"><ele>1106.3333333333333</ele><time>2026-04-07T08:40:37Z</time></trkpt><trkpt lat="44.45607069573889" lon="10.077472508420378"><ele>1104.0</ele><time>2026-04-07T08:40:39Z</time></trkpt><trkpt lat="44.456052971564326" lon="10.077577508537932"><ele>1101.6666666666667</ele><time>2026-04-07T08:40:41Z</time></trkpt><trkpt lat="44.45604860207115" lon="10.07769051205351"><ele>1099.3333333333335</ele><time>2026-04-07T08:40:44Z</time></trkpt><trkpt lat="44.45606680847249" lon="10.077776857698897"><ele>1097.0</ele><time>2026-04-07T08:40:46Z</time></trkpt><trkpt lat="44.456128231929895" lon="10.07780966224378"><ele>1097.0</ele><time>2026-04-07T08:40:48Z</time></trkpt><trkpt lat="44.4561995925852" lon="10.077872046957257"><ele>1097.0</ele><time>2026-04-07T08:40:51Z</time></trkpt><trkpt lat="44.45623933077855" lon="10.077942968131067"><ele>1097.0</ele><time>2026-04-07T08:40:54Z</time></trkpt><trkpt lat="44.45629632878386" lon="10.078028009561814"><ele>1097.0</ele><time>2026-04-07T08:40:56Z</time></trkpt><trkpt lat="44.45632311074779" lon="10.078122064627737"><ele>1097.0</ele><time>2026-04-07T08:40:59Z</time></trkpt><trkpt lat="44.45626373140477" lon="10.078201848656379"><ele>1097.0</ele><time>2026-04-07T08:41:03Z</time></trkpt><trkpt lat="44.45620217305952" lon="10.078248424931253"><ele>1092.3333333333335</ele><time>2026-04-07T08:41:05Z</time></trkpt><trkpt lat="44.456160150310126" lon="10.078331991080908"><ele>1087.6666666666667</ele><time>2026-04-07T08:41:07Z</time></trkpt><trkpt lat="44.456109227851094" lon="10.078420191638152"><ele>1083.0</ele><time>2026-04-07T08:41:08Z</time></trkpt><trkpt lat="44.456085123509396" lon="10.078562623157003"><ele>1078.3333333333333</ele><time>2026-04-07T08:41:11Z</time></trkpt><trkpt lat="44.4560839816277" lon="10.078685413449376"><ele>1073.6666666666665</ele><time>2026-04-07T08:41:13Z</time></trkpt><trkpt lat="44.45611047252778" lon="10.078790841225171"><ele>1069.0</ele><time>2026-04-07T08:41:16Z</time></trkpt><trkpt lat="44.456142170692424" lon="10.07891387069161"><ele>1069.0</ele><time>2026-04-07T08:41:17Z</time></trkpt><trkpt lat="44.45616085394779" lon="10.079073940818223"><ele>1069.0</ele><time>2026-04-07T08:41:19Z</time></trkpt><trkpt lat="44.45617845813695" lon="10.079162992080596"><ele>1069.0</ele><time>2026-04-07T08:41:20Z</time></trkpt><trkpt lat="44.45619536948169" lon="10.079319689146248"><ele>1069.0</ele><time>2026-04-07T08:41:22Z</time></trkpt><trkpt lat="44.45621541256204" lon="10.07946661282004"><ele>1069.0</ele><time>2026-04-07T08:41:23.999Z</time></trkpt><trkpt lat="44.45625957955693" lon="10.079566003838424"><ele>1064.6000000000001</ele><time>2026-04-07T08:41:25.999Z</time></trkpt><trkpt lat="44.456322662095616" lon="10.079713722443516"><ele>1060.2</ele><time>2026-04-07T08:41:27.999Z</time></trkpt><trkpt lat="44.45636896491447" lon="10.079799780976751"><ele>1055.8000000000002</ele><time>2026-04-07T08:41:28.999Z</time></trkpt><trkpt lat="44.45641041158248" lon="10.079867139138717"><ele>1051.4</ele><time>2026-04-07T08:41:29.999Z</time></trkpt><trkpt lat="44.456486028735" lon="10.079988694521518"><ele>1047.0</ele><time>2026-04-07T08:41:31.999Z</time></trkpt><trkpt lat="44.45651772011612" lon="10.080079986391741"><ele>1045.8333333333333</ele><time>2026-04-07T08:41:33.999Z</time></trkpt><trkpt lat="44.45651365977874" lon="10.080189108176032"><ele>1044.6666666666667</ele><time>2026-04-07T08:41:35.999Z</time></trkpt><trkpt lat="44.45647854889732" lon="10.080289206567846"><ele>1043.5</ele><time>2026-04-07T08:41:36.999Z</time></trkpt><trkpt lat="44.45647606349077" lon="10.080389705395174"><ele>1042.3333333333335</ele><time>2026-04-07T08:41:37.999Z</time></trkpt><trkpt lat="44.45647487263525" lon="10.080497109104023"><ele>1041.1666666666667</ele><time>2026-04-07T08:41:38.999Z</time></trkpt><trkpt lat="44.456463660975174" lon="10.080584594273878"><ele>1040.0</ele><time>2026-04-07T08:41:39.999Z</time></trkpt><trkpt lat="44.45638190193522" lon="10.080627012892714"><ele>1038.8333333333335</ele><time>2026-04-07T08:41:41.999Z</time></trkpt><trkpt lat="44.45628036071076" lon="10.080648928666747"><ele>1037.6666666666667</ele><time>2026-04-07T08:41:44.999Z</time></trkpt><trkpt lat="44.4562081152829" lon="10.08069343868211"><ele>1036.5</ele><time>2026-04-07T08:41:46.999Z</time></trkpt><trkpt lat="44.4561277656495" lon="10.080765143952211"><ele>1035.3333333333333</ele><time>2026-04-07T08:41:48.999Z</time></trkpt><trkpt lat="44.45607981520331" lon="10.080859076632672"><ele>1034.1666666666665</ele><time>2026-04-07T08:41:50.999Z</time></trkpt><trkpt lat="44.45605060715183" lon="10.080976438351534"><ele>1033.0</ele><time>2026-04-07T08:41:52.999Z</time></trkpt><trkpt lat="44.45610802607829" lon="10.081100252752073"><ele>1030.75</ele><time>2026-04-07T08:41:54.999Z</time></trkpt><trkpt lat="44.456215083688875" lon="10.081180542737977"><ele>1028.5</ele><time>2026-04-07T08:41:56.999Z</time></trkpt><trkpt lat="44.456295436029386" lon="10.081295222696971"><ele>1026.25</ele><time>2026-04-07T08:41:58.999Z</time></trkpt><trkpt lat="44.4563305951596" lon="10.081441904095074"><ele>1024.0</ele><time>2026-04-07T08:42:00.999Z</time></trkpt><trkpt lat="44.45634746858331" lon="10.081612152601435"><ele>1020.0</ele><time>2026-04-07T08:42:02.999Z</time></trkpt><trkpt lat="44.45635831180184" lon="10.081699349334107"><ele>1016.0000000000001</ele><time>2026-04-07T08:42:03.999Z</time></trkpt><trkpt lat="44.45634753385822" lon="10.081853600136549"><ele>1012.0000000000001</ele><time>2026-04-07T08:42:05.999Z</time></trkpt><trkpt lat="44.45632474410566" lon="10.08196860521966"><ele>1008.0</ele><time>2026-04-07T08:42:07.999Z</time></trkpt><trkpt lat="44.45629368203434" lon="10.082107656232319"><ele>1004.0</ele><time>2026-04-07T08:42:09.999Z</time></trkpt><trkpt lat="44.45628966320099" lon="10.082288939297825"><ele>1004.0</ele><time>2026-04-07T08:42:12.999Z</time></trkpt><trkpt lat="44.456293367567575" lon="10.082406691826733"><ele>1004.0</ele><time>2026-04-07T08:42:15.999Z</time></trkpt><trkpt lat="44.45625797739978" lon="10.082534454568748"><ele>1004.0</ele><time>2026-04-07T08:42:17.999Z</time></trkpt><trkpt lat="44.45620711165655" lon="10.082778272282617"><ele>1004.0</ele><time>2026-04-07T08:42:19.999Z</time></trkpt><trkpt lat="44.45616325609696" lon="10.08291490137758"><ele>1001.4000000000001</ele><time>2026-04-07T08:42:20.999Z</time></trkpt><trkpt lat="44.4561307703243" lon="10.083013702749419"><ele>998.8000000000001</ele><time>2026-04-07T08:42:21.999Z</time></trkpt><trkpt lat="44.456102210029734" lon="10.083183005608493"><ele>996.1999999999999</ele><time>2026-04-07T08:42:23.999Z</time></trkpt><trkpt lat="44.456036787594826" lon="10.083310177831155"><ele>993.5999999999999</ele><time>2026-04-07T08:42:25.999Z</time></trkpt><trkpt lat="44.45596141183717" lon="10.083318282289497"><ele>991.0</ele><time>2026-04-07T08:42:28.999Z</time></trkpt><trkpt lat="44.4558861273823" lon="10.083326636674734"><ele>987.9999999999999</ele><time>2026-04-07T08:42:31.999Z</time></trkpt><trkpt lat="44.45586245536611" lon="10.0834190563584"><ele>985.0</ele><time>2026-04-07T08:42:36Z</time></trkpt><trkpt lat="44.4559190200558" lon="10.0835267543077"><ele>982.0</ele><time>2026-04-07T08:42:38Z</time></trkpt><trkpt lat="44.45599054283808" lon="10.083644892103704"><ele>979.0</ele><time>2026-04-07T08:42:40Z</time></trkpt><trkpt lat="44.456052096571725" lon="10.083708868508554"><ele>975.9999999999999</ele><time>2026-04-07T08:42:41Z</time></trkpt><trkpt lat="44.45611077976285" lon="10.083762100276362"><ele>973.0</ele><time>2026-04-07T08:42:42Z</time></trkpt><trkpt lat="44.45620719186071" lon="10.08381745607364"><ele>972.9999999999999</ele><time>2026-04-07T08:42:44Z</time></trkpt><trkpt lat="44.4562861206862" lon="10.083800932365401"><ele>973.0</ele><time>2026-04-07T08:42:46Z</time></trkpt><trkpt lat="44.456283999532864" lon="10.083674699257033"><ele>973.0</ele><time>2026-04-07T08:42:50Z</time></trkpt><trkpt lat="44.45619637552906" lon="10.083720350086972"><ele>973.0</ele><time>2026-04-07T08:42:52Z</time></trkpt><trkpt lat="44.456246614904046" lon="10.08384021273661"><ele>972.9999999999999</ele><time>2026-04-07T08:42:54Z</time></trkpt><trkpt lat="44.45630288661359" lon="10.08388944981551"><ele>973.0</ele><time>2026-04-07T08:42:55Z</time></trkpt><trkpt lat="44.45637624887088" lon="10.083951167526608"><ele>971.5999999999999</ele><time>2026-04-07T08:42:56Z</time></trkpt><trkpt lat="44.45646611097874" lon="10.084035157463306"><ele>970.1999999999999</ele><time>2026-04-07T08:42:57Z</time></trkpt><trkpt lat="44.45653391537232" lon="10.084139550567148"><ele>968.8</ele><time>2026-04-07T08:42:58Z</time></trkpt><trkpt lat="44.456576082457325" lon="10.084217788464999"><ele>967.4</ele><time>2026-04-07T08:42:59Z</time></trkpt><trkpt lat="44.45662393204935" lon="10.084317376703705"><ele>966.0</ele><time>2026-04-07T08:43:01Z</time></trkpt><trkpt lat="44.45671697275232" lon="10.084377096163214"><ele>966.0</ele><time>2026-04-07T08:43:04Z</time></trkpt><trkpt lat="44.45691234964828" lon="10.084359184096446"><ele>966.0</ele><time>2026-04-07T08:43:07Z</time></trkpt><trkpt lat="44.45699213118939" lon="10.084368305613078"><ele>966.0</ele><time>2026-04-07T08:43:08Z</time></trkpt><trkpt lat="44.45706279613452" lon="10.084366979101878"><ele>966.0</ele><time>2026-04-07T08:43:09Z</time></trkpt><trkpt lat="44.45716855420225" lon="10.084405862153343"><ele>966.8333333333334</ele><time>2026-04-07T08:43:11Z</time></trkpt><trkpt lat="44.45724977301047" lon="10.084416663170561"><ele>967.6666666666667</ele><time>2026-04-07T08:43:13Z</time></trkpt><trkpt lat="44.45733152330937" lon="10.084438180640175"><ele>968.5</ele><time>2026-04-07T08:43:15Z</time></trkpt><trkpt lat="44.457431517537685" lon="10.084461473506053"><ele>969.3333333333334</ele><time>2026-04-07T08:43:17Z</time></trkpt><trkpt lat="44.45751246646529" lon="10.08446043691487"><ele>970.1666666666667</ele><time>2026-04-07T08:43:19Z</time></trkpt><trkpt lat="44.457543500676216" lon="10.084544773221694"><ele>971.0</ele><time>2026-04-07T08:43:25Z</time></trkpt><trkpt lat="44.45760065644625" lon="10.084622282448978"><ele>971.0000000000001</ele><time>2026-04-07T08:43:33.999Z</time></trkpt><trkpt lat="44.457611011852315" lon="10.084754733293117"><ele>971.0</ele><time>2026-04-07T08:43:35.999Z</time></trkpt><trkpt lat="44.45758045439101" lon="10.084845013252288"><ele>971.0</ele><time>2026-04-07T08:43:37.999Z</time></trkpt><trkpt lat="44.45754717099816" lon="10.084920042872103"><ele>971.0</ele><time>2026-04-07T08:43:40.999Z</time></trkpt><trkpt lat="44.45755696654027" lon="10.085044109617463"><ele>971.0000000000001</ele><time>2026-04-07T08:43:43.999Z</time></trkpt><trkpt lat="44.45758519874084" lon="10.085129882104082"><ele>971.0</ele><time>2026-04-07T08:43:45.999Z</time></trkpt><trkpt lat="44.45760708363479" lon="10.085227689868498"><ele>967.3333333333334</ele><time>2026-04-07T08:43:46.999Z</time></trkpt><trkpt lat="44.457562872607845" lon="10.085301848882034"><ele>963.6666666666667</ele><time>2026-04-07T08:43:48.999Z</time></trkpt><trkpt lat="44.45749548520179" lon="10.08535782544358"><ele>960.0</ele><time>2026-04-07T08:43:50.999Z</time></trkpt><trkpt lat="44.45744568902566" lon="10.085442922672577"><ele>956.3333333333333</ele><time>2026-04-07T08:43:53.999Z</time></trkpt><trkpt lat="44.457486798797696" lon="10.085525680754312"><ele>952.6666666666666</ele><time>2026-04-07T08:43:55.999Z</time></trkpt><trkpt lat="44.45753653356212" lon="10.085606046827348"><ele>949.0</ele><time>2026-04-07T08:43:58.999Z</time></trkpt><trkpt lat="44.45760588054953" lon="10.085666028815309"><ele>945.2</ele><time>2026-04-07T08:44:00.999Z</time></trkpt><trkpt lat="44.45771254662888" lon="10.085769983555775"><ele>941.4000000000001</ele><time>2026-04-07T08:44:02.999Z</time></trkpt><trkpt lat="44.45775052306832" lon="10.085918681199649"><ele>937.6</ele><time>2026-04-07T08:44:04.999Z</time></trkpt><trkpt lat="44.45779034560778" lon="10.086034692750195"><ele>933.8</ele><time>2026-04-07T08:44:06.999Z</time></trkpt><trkpt lat="44.45780877687736" lon="10.086141739320315"><ele>930.0</ele><time>2026-04-07T08:44:08.999Z</time></trkpt><trkpt lat="44.457767424659345" lon="10.086239256514435"><ele>930.0</ele><time>2026-04-07T08:44:10.999Z</time></trkpt><trkpt lat="44.457677357026945" lon="10.086289738695521"><ele>930.0</ele><time>2026-04-07T08:44:12.999Z</time></trkpt><trkpt lat="44.457594316614355" lon="10.086321133555636"><ele>930.0</ele><time>2026-04-07T08:44:14.999Z</time></trkpt><trkpt lat="44.457554259763256" lon="10.086405279091492"><ele>930.0</ele><time>2026-04-07T08:44:16.999Z</time></trkpt><trkpt lat="44.45754468118776" lon="10.086513303391628"><ele>930.0</ele><time>2026-04-07T08:44:18.999Z</time></trkpt><trkpt lat="44.45757799349145" lon="10.086633895870177"><ele>930.0</ele><time>2026-04-07T08:44:20.999Z</time></trkpt><trkpt lat="44.45763558913894" lon="10.08670780757638"><ele>927.0</ele><time>2026-04-07T08:44:22.999Z</time></trkpt><trkpt lat="44.4577204815293" lon="10.086732908094644"><ele>924.0</ele><time>2026-04-07T08:44:25.999Z</time></trkpt><trkpt lat="44.457785417931966" lon="10.086792633852419"><ele>921.0</ele><time>2026-04-07T08:44:27.999Z</time></trkpt><trkpt lat="44.45785537427034" lon="10.086895661449967"><ele>918.0</ele><time>2026-04-07T08:44:30.999Z</time></trkpt><trkpt lat="44.457903823511145" lon="10.086956596520096"><ele>915.0</ele><time>2026-04-07T08:44:32.999Z</time></trkpt><trkpt lat="44.45796889407748" lon="10.086937369017932"><ele>912.0</ele><time>2026-04-07T08:44:34.999Z</time></trkpt><trkpt lat="44.45801944018538" lon="10.086998121814332"><ele>912.0</ele><time>2026-04-07T08:44:36.999Z</time></trkpt><trkpt lat="44.45801274022891" lon="10.087118606693549"><ele>912.0</ele><time>2026-04-07T08:44:38.999Z</time></trkpt><trkpt lat="44.45796604259515" lon="10.08730137517517"><ele>912.0</ele><time>2026-04-07T08:44:40.999Z</time></trkpt><trkpt lat="44.45794778776899" lon="10.08741556692562"><ele>912.0</ele><time>2026-04-07T08:44:42Z</time></trkpt><trkpt lat="44.45792829198212" lon="10.087519274173342"><ele>912.0</ele><time>2026-04-07T08:44:43Z</time></trkpt><trkpt lat="44.457914656751136" lon="10.087622340641659"><ele>908.0</ele><time>2026-04-07T08:44:44Z</time></trkpt><trkpt lat="44.45790912545892" lon="10.087723214504507"><ele>904.0</ele><time>2026-04-07T08:44:45Z</time></trkpt><trkpt lat="44.45791591596699" lon="10.087825396451327"><ele>900.0</ele><time>2026-04-07T08:44:46Z</time></trkpt><trkpt lat="44.457900352963236" lon="10.087921987958103"><ele>896.0</ele><time>2026-04-07T08:44:47Z</time></trkpt><trkpt lat="44.45788359376551" lon="10.088036460021065"><ele>892.0</ele><time>2026-04-07T08:44:48Z</time></trkpt><trkpt lat="44.457871777878914" lon="10.088153511120927"><ele>888.0</ele><time>2026-04-07T08:44:49Z</time></trkpt><trkpt lat="44.457866472555594" lon="10.08826154997292"><ele>886.0</ele><time>2026-04-07T08:44:50Z</time></trkpt><trkpt lat="44.45786091914184" lon="10.088361801048507"><ele>884.0</ele><time>2026-04-07T08:44:51Z</time></trkpt><trkpt lat="44.45784165230834" lon="10.088460884835387"><ele>882.0</ele><time>2026-04-07T08:44:52Z</time></trkpt><trkpt lat="44.457828427565296" lon="10.088547244086042"><ele>880.0</ele><time>2026-04-07T08:44:53Z</time></trkpt><trkpt lat="44.45785039187431" lon="10.088684629191835"><ele>878.0</ele><time>2026-04-07T08:44:55Z</time></trkpt><trkpt lat="44.45791800510334" lon="10.088778451274202"><ele>876.0</ele><time>2026-04-07T08:45:04Z</time></trkpt><trkpt lat="44.45794353721834" lon="10.088860039102354"><ele>876.0</ele><time>2026-04-07T08:45:05Z</time></trkpt><trkpt lat="44.45794852469238" lon="10.088990542415583"><ele>875.9999999999999</ele><time>2026-04-07T08:45:07Z</time></trkpt><trkpt lat="44.45790884948335" lon="10.089118437299863"><ele>875.9999999999999</ele><time>2026-04-07T08:45:09Z</time></trkpt><trkpt lat="44.457868273056036" lon="10.089223009376074"><ele>876.0</ele><time>2026-04-07T08:45:11Z</time></trkpt><trkpt lat="44.45782753480297" lon="10.089374332232092"><ele>876.0</ele><time>2026-04-07T08:45:13Z</time></trkpt><trkpt lat="44.45777825380015" lon="10.089505748468659"><ele>874.8</ele><time>2026-04-07T08:45:15Z</time></trkpt><trkpt lat="44.45770121757266" lon="10.089605216070911"><ele>873.5999999999999</ele><time>2026-04-07T08:45:17Z</time></trkpt><trkpt lat="44.45763159544783" lon="10.089704123161313"><ele>872.4</ele><time>2026-04-07T08:45:19Z</time></trkpt><trkpt lat="44.4575502694173" lon="10.089814884122772"><ele>871.2</ele><time>2026-04-07T08:45:21Z</time></trkpt><trkpt lat="44.45749489957482" lon="10.089874684145373"><ele>870.0</ele><time>2026-04-07T08:45:22Z</time></trkpt><trkpt lat="44.45739121437696" lon="10.089911627158264"><ele>866.6</ele><time>2026-04-07T08:45:24Z</time></trkpt><trkpt lat="44.45733296471301" lon="10.089971710849062"><ele>863.2</ele><time>2026-04-07T08:45:25Z</time></trkpt><trkpt lat="44.45731565013025" lon="10.090061563579592"><ele>859.8</ele><time>2026-04-07T08:45:26Z</time></trkpt><trkpt lat="44.45734350976369" lon="10.090182102300817"><ele>856.4</ele><time>2026-04-07T08:45:28Z</time></trkpt><trkpt lat="44.457369699812126" lon="10.090294486483023"><ele>853.0</ele><time>2026-04-07T08:45:31Z</time></trkpt><trkpt lat="44.45737628413192" lon="10.09050290897687"><ele>853.0</ele><time>2026-04-07T08:45:33Z</time></trkpt><trkpt lat="44.45737532765755" lon="10.090611942299766"><ele>853.0</ele><time>2026-04-07T08:45:35Z</time></trkpt><trkpt lat="44.45737869801478" lon="10.090756099043908"><ele>853.0</ele><time>2026-04-07T08:45:36.999Z</time></trkpt><trkpt lat="44.45740540097408" lon="10.090880385421947"><ele>853.0</ele><time>2026-04-07T08:45:38.999Z</time></trkpt><trkpt lat="44.45743167371697" lon="10.091005145640084"><ele>853.0</ele><time>2026-04-07T08:45:40.999Z</time></trkpt><trkpt lat="44.45744987789561" lon="10.09112842435536"><ele>849.8</ele><time>2026-04-07T08:45:42.999Z</time></trkpt><trkpt lat="44.457532546366245" lon="10.091179664250069"><ele>846.5999999999999</ele><time>2026-04-07T08:45:44.999Z</time></trkpt><trkpt lat="44.457670041466336" lon="10.0911602325368"><ele>843.4000000000001</ele><time>2026-04-07T08:45:46.999Z</time></trkpt><trkpt lat="44.45778412724305" lon="10.091134874628274"><ele>840.2</ele><time>2026-04-07T08:45:47.999Z</time></trkpt><trkpt lat="44.45788594612465" lon="10.091130742125122"><ele>837.0</ele><time>2026-04-07T08:45:48.999Z</time></trkpt><trkpt lat="44.45798805774011" lon="10.091111837249967"><ele>837.0</ele><time>2026-04-07T08:45:49.999Z</time></trkpt><trkpt lat="44.4580752803229" lon="10.091095068938676"><ele>837.0</ele><time>2026-04-07T08:45:50.999Z</time></trkpt><trkpt lat="44.45816106675913" lon="10.091091384680018"><ele>837.0</ele><time>2026-04-07T08:45:51.999Z</time></trkpt><trkpt lat="44.45824855747671" lon="10.091110678976365"><ele>837.0</ele><time>2026-04-07T08:45:52.999Z</time></trkpt><trkpt lat="44.45833259688764" lon="10.091147704023241"><ele>837.0</ele><time>2026-04-07T08:45:53.999Z</time></trkpt><trkpt lat="44.458408148015884" lon="10.091241640233546"><ele>837.0</ele><time>2026-04-07T08:45:54.999Z</time></trkpt><trkpt lat="44.45847125761073" lon="10.091322120980506"><ele>837.0</ele><time>2026-04-07T08:45:55.999Z</time></trkpt><trkpt lat="44.45853671088555" lon="10.091397325337317"><ele>837.0</ele><time>2026-04-07T08:45:56.999Z</time></trkpt><trkpt lat="44.45861726608162" lon="10.09148504937709"><ele>837.0</ele><time>2026-04-07T08:45:57.999Z</time></trkpt><trkpt lat="44.45870945164574" lon="10.091562205888664"><ele>837.0</ele><time>2026-04-07T08:45:58.999Z</time></trkpt><trkpt lat="44.458804283196365" lon="10.091613921222589"><ele>836.0</ele><time>2026-04-07T08:45:59.999Z</time></trkpt><trkpt lat="44.45889040818527" lon="10.091649905967614"><ele>835.0</ele><time>2026-04-07T08:46:00.999Z</time></trkpt><trkpt lat="44.45897002859475" lon="10.091688205649666"><ele>834.0</ele><time>2026-04-07T08:46:01.999Z</time></trkpt><trkpt lat="44.45905063380574" lon="10.091735451557977"><ele>833.0</ele><time>2026-04-07T08:46:02.999Z</time></trkpt><trkpt lat="44.45912801852299" lon="10.091812763564418"><ele>832.0</ele><time>2026-04-07T08:46:03.999Z</time></trkpt><trkpt lat="44.459200512001836" lon="10.091898129056556"><ele>832.0</ele><time>2026-04-07T08:46:04.999Z</time></trkpt><trkpt lat="44.459269817134214" lon="10.09198952320808"><ele>832.0</ele><time>2026-04-07T08:46:05.999Z</time></trkpt><trkpt lat="44.45934516424423" lon="10.092082754369729"><ele>832.0</ele><time>2026-04-07T08:46:06.999Z</time></trkpt><trkpt lat="44.45940379303569" lon="10.09217883964357"><ele>832.0</ele><time>2026-04-07T08:46:07.999Z</time></trkpt><trkpt lat="44.45947233400125" lon="10.092271693176233"><ele>832.0</ele><time>2026-04-07T08:46:08.999Z</time></trkpt><trkpt lat="44.45954258856491" lon="10.09236967545739"><ele>831.6</ele><time>2026-04-07T08:46:09.999Z</time></trkpt><trkpt lat="44.45959665987938" lon="10.092479459595925"><ele>831.2</ele><time>2026-04-07T08:46:10.999Z</time></trkpt><trkpt lat="44.45963219371908" lon="10.092597111461343"><ele>830.8</ele><time>2026-04-07T08:46:11.999Z</time></trkpt><trkpt lat="44.45965775398228" lon="10.092719437915889"><ele>830.4</ele><time>2026-04-07T08:46:12.999Z</time></trkpt><trkpt lat="44.459682689296514" lon="10.092841834836594"><ele>830.0</ele><time>2026-04-07T08:46:13.999Z</time></trkpt><trkpt lat="44.45970669144042" lon="10.092970233556535"><ele>830.0</ele><time>2026-04-07T08:46:14.999Z</time></trkpt><trkpt lat="44.459734345322964" lon="10.093099135212462"><ele>830.0</ele><time>2026-04-07T08:46:15.999Z</time></trkpt><trkpt lat="44.45975392437606" lon="10.093221108330209"><ele>830.0</ele><time>2026-04-07T08:46:16.999Z</time></trkpt><trkpt lat="44.45977800118307" lon="10.093357636965983"><ele>830.0</ele><time>2026-04-07T08:46:17.999Z</time></trkpt><trkpt lat="44.45980450643717" lon="10.093495921858466"><ele>830.0</ele><time>2026-04-07T08:46:18.999Z</time></trkpt><trkpt lat="44.45982536115916" lon="10.093618808806738"><ele>828.6666666666667</ele><time>2026-04-07T08:46:19.999Z</time></trkpt><trkpt lat="44.45984667491479" lon="10.09373462583496"><ele>827.3333333333334</ele><time>2026-04-07T08:46:20.999Z</time></trkpt><trkpt lat="44.45987042847635" lon="10.093840627815762"><ele>826.0</ele><time>2026-04-07T08:46:21.999Z</time></trkpt><trkpt lat="44.459900497379216" lon="10.093942890136455"><ele>824.6666666666667</ele><time>2026-04-07T08:46:22.999Z</time></trkpt><trkpt lat="44.45993939857923" lon="10.094036815874547"><ele>823.3333333333334</ele><time>2026-04-07T08:46:23.999Z</time></trkpt><trkpt lat="44.45997984829265" lon="10.094120927806074"><ele>822.0</ele><time>2026-04-07T08:46:24.999Z</time></trkpt><trkpt lat="44.46001653288655" lon="10.09419372199783"><ele>820.0</ele><time>2026-04-07T08:46:25.999Z</time></trkpt><trkpt lat="44.460026918879535" lon="10.094344253130417"><ele>818.0</ele><time>2026-04-07T08:46:27.999Z</time></trkpt><trkpt lat="44.46000868625411" lon="10.0944567716025"><ele>816.0</ele><time>2026-04-07T08:46:29.999Z</time></trkpt><trkpt lat="44.460047869734" lon="10.094616214500418"><ele>814.0</ele><time>2026-04-07T08:46:30.999Z</time></trkpt><trkpt lat="44.46032721348687" lon="10.09436472832474"><ele>813.9999999999999</ele><time>2026-04-07T08:46:31.999Z</time></trkpt><trkpt lat="44.46038647168243" lon="10.094400089671247"><ele>814.0</ele><time>2026-04-07T08:46:32.999Z</time></trkpt><trkpt lat="44.46046636242423" lon="10.094457062822032"><ele>814.0</ele><time>2026-04-07T08:46:33.999Z</time></trkpt><trkpt lat="44.46053117090734" lon="10.094500577098124"><ele>814.0</ele><time>2026-04-07T08:46:34.999Z</time></trkpt><trkpt lat="44.460643343593475" lon="10.094536993725129"><ele>813.9999999999999</ele><time>2026-04-07T08:46:36.999Z</time></trkpt><trkpt lat="44.460710613708486" lon="10.09456372656866"><ele>814.0</ele><time>2026-04-07T08:46:37.999Z</time></trkpt><trkpt lat="44.46078865945914" lon="10.094585696973855"><ele>815.0000000000001</ele><time>2026-04-07T08:46:38.999Z</time></trkpt><trkpt lat="44.46086553873903" lon="10.094603543019895"><ele>816.0</ele><time>2026-04-07T08:46:39.999Z</time></trkpt><trkpt lat="44.460940123991634" lon="10.094595390913863"><ele>817.0</ele><time>2026-04-07T08:46:40.999Z</time></trkpt><trkpt lat="44.46100435741626" lon="10.09459105775829"><ele>818.0</ele><time>2026-04-07T08:46:41.999Z</time></trkpt><trkpt lat="44.46107644377804" lon="10.09459089580542"><ele>819.0</ele><time>2026-04-07T08:46:42.999Z</time></trkpt><trkpt lat="44.46115310826349" lon="10.0946104911497"><ele>820.0000000000001</ele><time>2026-04-07T08:46:43.999Z</time></trkpt><trkpt lat="44.46122480784414" lon="10.09462035496599"><ele>821.0</ele><time>2026-04-07T08:46:44.999Z</time></trkpt><trkpt lat="44.461302815485155" lon="10.094613552828376"><ele>821.0000000000001</ele><time>2026-04-07T08:46:45.999Z</time></trkpt><trkpt lat="44.46138098255521" lon="10.094593560503126"><ele>821.0</ele><time>2026-04-07T08:46:46.999Z</time></trkpt><trkpt lat="44.46147131151513" lon="10.094562937705962"><ele>821.0</ele><time>2026-04-07T08:46:48Z</time></trkpt><trkpt lat="44.46155886404031" lon="10.09453620650183"><ele>821.0</ele><time>2026-04-07T08:46:49Z</time></trkpt><trkpt lat="44.46163425277379" lon="10.094517166285502"><ele>821.0000000000001</ele><time>2026-04-07T08:46:50Z</time></trkpt><trkpt lat="44.46171495556373" lon="10.09450402346178"><ele>821.0</ele><time>2026-04-07T08:46:51Z</time></trkpt><trkpt lat="44.46180673238082" lon="10.094494755039149"><ele>821.0000000000001</ele><time>2026-04-07T08:46:52Z</time></trkpt><trkpt lat="44.4618935570461" lon="10.094474636939625"><ele>821.0</ele><time>2026-04-07T08:46:53Z</time></trkpt><trkpt lat="44.461967020650114" lon="10.094476213793774"><ele>821.0</ele><time>2026-04-07T08:46:54Z</time></trkpt><trkpt lat="44.4620406648801" lon="10.094462894486364"><ele>821.0</ele><time>2026-04-07T08:46:55Z</time></trkpt><trkpt lat="44.46210673970527" lon="10.09444111446074"><ele>821.0000000000001</ele><time>2026-04-07T08:46:56Z</time></trkpt><trkpt lat="44.462219612299265" lon="10.0943717212872"><ele>821.0</ele><time>2026-04-07T08:46:58Z</time></trkpt><trkpt lat="44.4622855530803" lon="10.094346367902043"><ele>820.1666666666667</ele><time>2026-04-07T08:46:59Z</time></trkpt><trkpt lat="44.46236139934521" lon="10.09431091282419"><ele>819.3333333333334</ele><time>2026-04-07T08:47:00Z</time></trkpt><trkpt lat="44.4624312748012" lon="10.09430292595254"><ele>818.5</ele><time>2026-04-07T08:47:01Z</time></trkpt><trkpt lat="44.46249855133992" lon="10.094283936919858"><ele>817.6666666666667</ele><time>2026-04-07T08:47:02Z</time></trkpt><trkpt lat="44.462565212776425" lon="10.094262888212489"><ele>816.8333333333334</ele><time>2026-04-07T08:47:03Z</time></trkpt><trkpt lat="44.46268167789471" lon="10.094232065845716"><ele>816.0</ele><time>2026-04-07T08:47:05Z</time></trkpt><trkpt lat="44.46278555513312" lon="10.094222272710525"><ele>816.0</ele><time>2026-04-07T08:47:07Z</time></trkpt><trkpt lat="44.46290376070472" lon="10.094198362095561"><ele>816.0</ele><time>2026-04-07T08:47:09Z</time></trkpt><trkpt lat="44.46296640591716" lon="10.094167366147053"><ele>816.0</ele><time>2026-04-07T08:47:10Z</time></trkpt><trkpt lat="44.463032502913684" lon="10.094121820815133"><ele>816.0</ele><time>2026-04-07T08:47:11Z</time></trkpt><trkpt lat="44.463146501864834" lon="10.094055043853169"><ele>816.0</ele><time>2026-04-07T08:47:13Z</time></trkpt><trkpt lat="44.463215284210996" lon="10.094015003860509"><ele>818.0</ele><time>2026-04-07T08:47:14Z</time></trkpt><trkpt lat="44.463276383777604" lon="10.093977738372978"><ele>820.0</ele><time>2026-04-07T08:47:15Z</time></trkpt><trkpt lat="44.46334517259547" lon="10.09394679407005"><ele>822.0</ele><time>2026-04-07T08:47:16Z</time></trkpt><trkpt lat="44.463477112688416" lon="10.094165428093774"><ele>824.0</ele><time>2026-04-07T08:47:17Z</time></trkpt><trkpt lat="44.46361195444415" lon="10.094075196720537"><ele>824.0</ele><time>2026-04-07T08:47:19Z</time></trkpt><trkpt lat="44.463674936035986" lon="10.09402579384636"><ele>824.0</ele><time>2026-04-07T08:47:21Z</time></trkpt><trkpt lat="44.46378251883854" lon="10.093950888655309"><ele>824.0</ele><time>2026-04-07T08:47:23Z</time></trkpt><trkpt lat="44.46387544774061" lon="10.093909726626144"><ele>824.0</ele><time>2026-04-07T08:47:24Z</time></trkpt><trkpt lat="44.46401833343175" lon="10.093891317901752"><ele>824.0</ele><time>2026-04-07T08:47:25Z</time></trkpt><trkpt lat="44.46408853591471" lon="10.09384660654421"><ele>818.3333333333334</ele><time>2026-04-07T08:47:26Z</time></trkpt><trkpt lat="44.46418339229708" lon="10.093786193362481"><ele>812.6666666666667</ele><time>2026-04-07T08:47:28Z</time></trkpt><trkpt lat="44.46426463523506" lon="10.09373699872818"><ele>807.0</ele><time>2026-04-07T08:47:30Z</time></trkpt><trkpt lat="44.464507158024055" lon="10.093577705876651"><ele>807.0</ele><time>2026-04-07T08:47:32Z</time></trkpt><trkpt lat="44.46460488293972" lon="10.093418418829858"><ele>807.0</ele><time>2026-04-07T08:47:33Z</time></trkpt><trkpt lat="44.46460844786229" lon="10.093227903533355"><ele>807.0</ele><time>2026-04-07T08:47:34Z</time></trkpt><trkpt lat="44.46465838149252" lon="10.093087928811947"><ele>807.0</ele><time>2026-04-07T08:47:36Z</time></trkpt><trkpt lat="44.46469170344486" lon="10.092988933241282"><ele>805.0</ele><time>2026-04-07T08:47:38Z</time></trkpt><trkpt lat="44.46474786927867" lon="10.09287389471306"><ele>803.0</ele><time>2026-04-07T08:47:40Z</time></trkpt><trkpt lat="44.464852798431664" lon="10.092658245396954"><ele>801.0</ele><time>2026-04-07T08:47:42Z</time></trkpt><trkpt lat="44.46489461663134" lon="10.092498749572268"><ele>799.0</ele><time>2026-04-07T08:47:43Z</time></trkpt><trkpt lat="44.46491311641999" lon="10.092407976331733"><ele>799.0</ele><time>2026-04-07T08:47:44Z</time></trkpt><trkpt lat="44.46495182383583" lon="10.092248837329645"><ele>799.0</ele><time>2026-04-07T08:47:46Z</time></trkpt><trkpt lat="44.46498675904975" lon="10.09212562683146"><ele>799.0</ele><time>2026-04-07T08:47:47Z</time></trkpt><trkpt lat="44.46502234414214" lon="10.091994682841413"><ele>799.0</ele><time>2026-04-07T08:47:48Z</time></trkpt><trkpt lat="44.46506476781791" lon="10.091856220031678"><ele>799.0</ele><time>2026-04-07T08:47:50Z</time></trkpt><trkpt lat="44.46449739627403" lon="10.091236733641512"><ele>801.1666666666666</ele><time>2026-04-07T08:47:51.999Z</time></trkpt><trkpt lat="44.46447123916191" lon="10.091125487826213"><ele>803.3333333333333</ele><time>2026-04-07T08:47:53.999Z</time></trkpt><trkpt lat="44.46454573640983" lon="10.091078569382534"><ele>805.5</ele><time>2026-04-07T08:47:55.999Z</time></trkpt><trkpt lat="44.464656417133156" lon="10.091032236035971"><ele>807.6666666666667</ele><time>2026-04-07T08:47:57.999Z</time></trkpt><trkpt lat="44.464705555945514" lon="10.090971343690503"><ele>809.8333333333334</ele><time>2026-04-07T08:47:58.999Z</time></trkpt><trkpt lat="44.464774992900736" lon="10.090894886432643"><ele>812.0</ele><time>2026-04-07T08:48:00.999Z</time></trkpt><trkpt lat="44.46488309932881" lon="10.090836928851154"><ele>812.0000000000001</ele><time>2026-04-07T08:48:02.999Z</time></trkpt><trkpt lat="44.46494615469692" lon="10.090796924396724"><ele>812.0</ele><time>2026-04-07T08:48:03.999Z</time></trkpt><trkpt lat="44.46502261666657" lon="10.090739750610553"><ele>812.0</ele><time>2026-04-07T08:48:04.999Z</time></trkpt><trkpt lat="44.465106449835524" lon="10.090685635792294"><ele>812.0</ele><time>2026-04-07T08:48:05.999Z</time></trkpt><trkpt lat="44.46519113089752" lon="10.090601363010027"><ele>812.0000000000001</ele><time>2026-04-07T08:48:06.999Z</time></trkpt><trkpt lat="44.46525362978784" lon="10.090548220618437"><ele>812.0</ele><time>2026-04-07T08:48:07.999Z</time></trkpt><trkpt lat="44.46532196766974" lon="10.090493776936672"><ele>814.4000000000001</ele><time>2026-04-07T08:48:08.999Z</time></trkpt><trkpt lat="44.465377877107294" lon="10.090448328169078"><ele>816.8000000000001</ele><time>2026-04-07T08:48:09.999Z</time></trkpt><trkpt lat="44.46547187199841" lon="10.09034464781378"><ele>819.2</ele><time>2026-04-07T08:48:11.999Z</time></trkpt><trkpt lat="44.46551135847802" lon="10.090197253706487"><ele>821.6</ele><time>2026-04-07T08:48:13.999Z</time></trkpt><trkpt lat="44.46552914370107" lon="10.090089378427852"><ele>824.0</ele><time>2026-04-07T08:48:15.999Z</time></trkpt><trkpt lat="44.46561360924958" lon="10.090131546936464"><ele>824.8333333333334</ele><time>2026-04-07T08:48:18.999Z</time></trkpt><trkpt lat="44.46563246511622" lon="10.090216166054839"><ele>825.6666666666667</ele><time>2026-04-07T08:48:19.999Z</time></trkpt><trkpt lat="44.46568403999923" lon="10.09029327915292"><ele>826.5</ele><time>2026-04-07T08:48:20.999Z</time></trkpt><trkpt lat="44.46574021515205" lon="10.090357530558167"><ele>827.3333333333333</ele><time>2026-04-07T08:48:21.999Z</time></trkpt><trkpt lat="44.46576777886983" lon="10.09044046742532"><ele>828.1666666666666</ele><time>2026-04-07T08:48:22.999Z</time></trkpt><trkpt lat="44.46579890679767" lon="10.09053227417412"><ele>829.0</ele><time>2026-04-07T08:48:23.999Z</time></trkpt><trkpt lat="44.46582541503146" lon="10.090696351692882"><ele>824.6</ele><time>2026-04-07T08:48:25.999Z</time></trkpt><trkpt lat="44.465855842430635" lon="10.09083271155908"><ele>820.2</ele><time>2026-04-07T08:48:27.999Z</time></trkpt><trkpt lat="44.46592520844368" lon="10.090939207005064"><ele>815.8000000000001</ele><time>2026-04-07T08:48:29.999Z</time></trkpt><trkpt lat="44.46603022812871" lon="10.090982111021683"><ele>811.4000000000001</ele><time>2026-04-07T08:48:31.999Z</time></trkpt><trkpt lat="44.46613687866435" lon="10.09093526172048"><ele>807.0</ele><time>2026-04-07T08:48:33.999Z</time></trkpt><trkpt lat="44.46623913626592" lon="10.090885816535257"><ele>807.3333333333334</ele><time>2026-04-07T08:48:35.999Z</time></trkpt><trkpt lat="44.4663259404655" lon="10.090875456938917"><ele>807.6666666666667</ele><time>2026-04-07T08:48:36.999Z</time></trkpt><trkpt lat="44.466405210107716" lon="10.09089786328531"><ele>808.0</ele><time>2026-04-07T08:48:37.999Z</time></trkpt><trkpt lat="44.46648052833298" lon="10.090949704011773"><ele>808.3333333333334</ele><time>2026-04-07T08:48:38.999Z</time></trkpt><trkpt lat="44.46655285480482" lon="10.09100648898654"><ele>808.6666666666667</ele><time>2026-04-07T08:48:39.999Z</time></trkpt><trkpt lat="44.466635711593476" lon="10.09104897327462"><ele>809.0</ele><time>2026-04-07T08:48:40.999Z</time></trkpt><trkpt lat="44.46671318893078" lon="10.09105455174746"><ele>809.0000000000001</ele><time>2026-04-07T08:48:41.999Z</time></trkpt><trkpt lat="44.46681299067064" lon="10.091054701440266"><ele>809.0</ele><time>2026-04-07T08:48:43.999Z</time></trkpt><trkpt lat="44.46688715751069" lon="10.091074853056028"><ele>809.0</ele><time>2026-04-07T08:48:44.999Z</time></trkpt><trkpt lat="44.4669433059948" lon="10.091127051320479"><ele>809.0</ele><time>2026-04-07T08:48:45.999Z</time></trkpt><trkpt lat="44.46700734758138" lon="10.091157998562666"><ele>809.0000000000001</ele><time>2026-04-07T08:48:46.999Z</time></trkpt><trkpt lat="44.467107591927835" lon="10.091198193602613"><ele>809.0</ele><time>2026-04-07T08:48:48.999Z</time></trkpt><trkpt lat="44.46716572989618" lon="10.091245200134336"><ele>807.6</ele><time>2026-04-07T08:48:49.999Z</time></trkpt><trkpt lat="44.46726780835139" lon="10.091228040099036"><ele>806.2</ele><time>2026-04-07T08:48:51.999Z</time></trkpt><trkpt lat="44.46735495828751" lon="10.09117382905936"><ele>804.8000000000001</ele><time>2026-04-07T08:48:54Z</time></trkpt><trkpt lat="44.46744253797435" lon="10.091053289536362"><ele>803.4000000000001</ele><time>2026-04-07T08:48:56Z</time></trkpt><trkpt lat="44.467504758671595" lon="10.09100394177928"><ele>802.0</ele><time>2026-04-07T08:48:57Z</time></trkpt><trkpt lat="44.46760527633826" lon="10.090942150895868"><ele>802.0</ele><time>2026-04-07T08:48:59Z</time></trkpt><trkpt lat="44.467696731672845" lon="10.09086655860634"><ele>802.0</ele><time>2026-04-07T08:49:01Z</time></trkpt><trkpt lat="44.46784501843996" lon="10.090828236149989"><ele>802.0</ele><time>2026-04-07T08:49:03Z</time></trkpt><trkpt lat="44.46793876952434" lon="10.090801424359531"><ele>802.0</ele><time>2026-04-07T08:49:04Z</time></trkpt><trkpt lat="44.46801675712766" lon="10.090785918418419"><ele>802.0</ele><time>2026-04-07T08:49:05Z</time></trkpt><trkpt lat="44.46814598963656" lon="10.0908059431335"><ele>800.8571428571429</ele><time>2026-04-07T08:49:07Z</time></trkpt><trkpt lat="44.46821168310034" lon="10.090794067390304"><ele>799.7142857142858</ele><time>2026-04-07T08:49:08Z</time></trkpt><trkpt lat="44.468273836102334" lon="10.09081523416754"><ele>798.5714285714286</ele><time>2026-04-07T08:49:09Z</time></trkpt><trkpt lat="44.46834005766753" lon="10.09082875684448"><ele>797.4285714285714</ele><time>2026-04-07T08:49:10Z</time></trkpt><trkpt lat="44.468377007923536" lon="10.090904127345725"><ele>796.2857142857142</ele><time>2026-04-07T08:49:11Z</time></trkpt><trkpt lat="44.46843985466909" lon="10.090986881498145"><ele>795.1428571428571</ele><time>2026-04-07T08:49:12Z</time></trkpt><trkpt lat="44.46850603044126" lon="10.09105916878414"><ele>794.0</ele><time>2026-04-07T08:49:13Z</time></trkpt><trkpt lat="44.46858408623512" lon="10.091112504571623"><ele>794.0000000000001</ele><time>2026-04-07T08:49:14Z</time></trkpt><trkpt lat="44.46866001886833" lon="10.09116056935896"><ele>794.0</ele><time>2026-04-07T08:49:15Z</time></trkpt><trkpt lat="44.468720346328965" lon="10.091219540929979"><ele>794.0</ele><time>2026-04-07T08:49:16Z</time></trkpt><trkpt lat="44.46877545420599" lon="10.091273365589574"><ele>794.0</ele><time>2026-04-07T08:49:17Z</time></trkpt><trkpt lat="44.46884316651215" lon="10.09134705071442"><ele>794.0000000000001</ele><time>2026-04-07T08:49:18Z</time></trkpt><trkpt lat="44.468903002942106" lon="10.091407813024116"><ele>794.0</ele><time>2026-04-07T08:49:19Z</time></trkpt><trkpt lat="44.4690266836398" lon="10.091470558438631"><ele>795.0000000000001</ele><time>2026-04-07T08:49:21Z</time></trkpt><trkpt lat="44.46911366698957" lon="10.09150726135791"><ele>796.0</ele><time>2026-04-07T08:49:22Z</time></trkpt><trkpt lat="44.469191255112" lon="10.091560319053682"><ele>797.0</ele><time>2026-04-07T08:49:23Z</time></trkpt><trkpt lat="44.46926395237719" lon="10.09160242479972"><ele>798.0</ele><time>2026-04-07T08:49:24Z</time></trkpt><trkpt lat="44.46932615978653" lon="10.091684422223212"><ele>799.0000000000001</ele><time>2026-04-07T08:49:25Z</time></trkpt><trkpt lat="44.46937634811798" lon="10.091744700998895"><ele>800.0</ele><time>2026-04-07T08:49:26Z</time></trkpt><trkpt lat="44.469410572382905" lon="10.091820464546421"><ele>796.7142857142858</ele><time>2026-04-07T08:49:27Z</time></trkpt><trkpt lat="44.46945763621262" lon="10.091881447063995"><ele>793.4285714285714</ele><time>2026-04-07T08:49:28Z</time></trkpt><trkpt lat="44.46951454988112" lon="10.09193662410278"><ele>790.1428571428571</ele><time>2026-04-07T08:49:29Z</time></trkpt><trkpt lat="44.46957337850255" lon="10.09197844326264"><ele>786.8571428571429</ele><time>2026-04-07T08:49:30Z</time></trkpt><trkpt lat="44.46963780056148" lon="10.092024460659575"><ele>783.5714285714286</ele><time>2026-04-07T08:49:31Z</time></trkpt><trkpt lat="44.46969182699796" lon="10.09207216219717"><ele>780.2857142857143</ele><time>2026-04-07T08:49:32Z</time></trkpt><trkpt lat="44.46975187171439" lon="10.092101371112808"><ele>777.0</ele><time>2026-04-07T08:49:33Z</time></trkpt><trkpt lat="44.46981357286682" lon="10.09214717875201"><ele>777.0</ele><time>2026-04-07T08:49:34Z</time></trkpt><trkpt lat="44.4698718330038" lon="10.09218881449255"><ele>777.0</ele><time>2026-04-07T08:49:35Z</time></trkpt><trkpt lat="44.469929587171016" lon="10.09222900666717"><ele>777.0</ele><time>2026-04-07T08:49:36Z</time></trkpt><trkpt lat="44.469986031867144" lon="10.09227111781347"><ele>777.0</ele><time>2026-04-07T08:49:37Z</time></trkpt><trkpt lat="44.470108869004285" lon="10.092354014638833"><ele>777.0</ele><time>2026-04-07T08:49:39Z</time></trkpt><trkpt lat="44.470173109640186" lon="10.09238075993087"><ele>777.0</ele><time>2026-04-07T08:49:40Z</time></trkpt><trkpt lat="44.47027531631649" lon="10.092451525188093"><ele>772.2</ele><time>2026-04-07T08:49:42Z</time></trkpt><trkpt lat="44.470361600097135" lon="10.092515158338443"><ele>767.4000000000001</ele><time>2026-04-07T08:49:44Z</time></trkpt><trkpt lat="44.47045827652623" lon="10.092550121084829"><ele>762.5999999999999</ele><time>2026-04-07T08:49:46Z</time></trkpt><trkpt lat="44.47055545019388" lon="10.092511578501895"><ele>757.8</ele><time>2026-04-07T08:49:48Z</time></trkpt><trkpt lat="44.470625349217265" lon="10.092486172517823"><ele>753.0</ele><time>2026-04-07T08:49:50Z</time></trkpt><trkpt lat="44.4707062066382" lon="10.092433694070072"><ele>755.2</ele><time>2026-04-07T08:49:51Z</time></trkpt><trkpt lat="44.47080843981516" lon="10.092358313051095"><ele>757.4</ele><time>2026-04-07T08:49:53Z</time></trkpt><trkpt lat="44.470859846917875" lon="10.092283669491161"><ele>759.6</ele><time>2026-04-07T08:49:55Z</time></trkpt><trkpt lat="44.470914494814835" lon="10.092196642128055"><ele>761.8000000000001</ele><time>2026-04-07T08:49:56Z</time></trkpt><trkpt lat="44.47095849455421" lon="10.092111993398856"><ele>764.0</ele><time>2026-04-07T08:49:57Z</time></trkpt><trkpt lat="44.4710466603424" lon="10.091979520695428"><ele>764.0</ele><time>2026-04-07T08:49:59Z</time></trkpt><trkpt lat="44.47114580616285" lon="10.091878327335577"><ele>764.0</ele><time>2026-04-07T08:50:01Z</time></trkpt><trkpt lat="44.471188140376604" lon="10.09179662492309"><ele>764.0</ele><time>2026-04-07T08:50:02Z</time></trkpt><trkpt lat="44.47134175904444" lon="10.091820603301258"><ele>764.0</ele><time>2026-04-07T08:50:03Z</time></trkpt><trkpt lat="44.47139629502163" lon="10.091712553924188"><ele>764.0</ele><time>2026-04-07T08:50:05Z</time></trkpt><trkpt lat="44.47146611240734" lon="10.091593415211358"><ele>759.2</ele><time>2026-04-07T08:50:06.999Z</time></trkpt><trkpt lat="44.4715119092136" lon="10.091516486834598"><ele>754.4000000000001</ele><time>2026-04-07T08:50:07.999Z</time></trkpt><trkpt lat="44.4715550810846" lon="10.091440807849166"><ele>749.6</ele><time>2026-04-07T08:50:09.999Z</time></trkpt><trkpt lat="44.471622457909156" lon="10.091319010754514"><ele>744.8</ele><time>2026-04-07T08:50:11.999Z</time></trkpt><trkpt lat="44.4716750133379" lon="10.091175136206072"><ele>740.0</ele><time>2026-04-07T08:50:13.999Z</time></trkpt><trkpt lat="44.47170160974618" lon="10.091023787902719"><ele>740.0</ele><time>2026-04-07T08:50:15.999Z</time></trkpt><trkpt lat="44.471703280216374" lon="10.090889331559177"><ele>740.0</ele><time>2026-04-07T08:50:17.999Z</time></trkpt><trkpt lat="44.471701699510156" lon="10.090773274638508"><ele>740.0</ele><time>2026-04-07T08:50:19.999Z</time></trkpt><trkpt lat="44.47152756470703" lon="10.09065722855304"><ele>740.0</ele><time>2026-04-07T08:50:21.999Z</time></trkpt><trkpt lat="44.47155864219156" lon="10.090523056524308"><ele>742.2</ele><time>2026-04-07T08:50:23.999Z</time></trkpt><trkpt lat="44.471597492048964" lon="10.090451805387698"><ele>744.4</ele><time>2026-04-07T08:50:24.999Z</time></trkpt><trkpt lat="44.47165856625436" lon="10.090315487202474"><ele>746.5999999999999</ele><time>2026-04-07T08:50:26.999Z</time></trkpt><trkpt lat="44.47178576848057" lon="10.09032428762675"><ele>748.8</ele><time>2026-04-07T08:50:27.999Z</time></trkpt><trkpt lat="44.47184044538217" lon="10.090179521821208"><ele>751.0</ele><time>2026-04-07T08:50:29.999Z</time></trkpt><trkpt lat="44.47191198521533" lon="10.090039125233712"><ele>753.75</ele><time>2026-04-07T08:50:31.999Z</time></trkpt><trkpt lat="44.47197762086305" lon="10.089921321432424"><ele>756.5</ele><time>2026-04-07T08:50:33.999Z</time></trkpt><trkpt lat="44.47204263860814" lon="10.089824005865285"><ele>759.25</ele><time>2026-04-07T08:50:35.999Z</time></trkpt><trkpt lat="44.47208632148798" lon="10.089745030492892"><ele>762.0</ele><time>2026-04-07T08:50:38.999Z</time></trkpt><trkpt lat="44.47172148248153" lon="10.08919993526354"><ele>762.0</ele><time>2026-04-07T08:50:39.999Z</time></trkpt><trkpt lat="44.471663616738276" lon="10.089134132154715"><ele>762.0</ele><time>2026-04-07T08:50:40.999Z</time></trkpt><trkpt lat="44.471613580823636" lon="10.089073691648373"><ele>762.0</ele><time>2026-04-07T08:50:42.999Z</time></trkpt><trkpt lat="44.471496726287576" lon="10.088977649073431"><ele>762.0</ele><time>2026-04-07T08:50:44.999Z</time></trkpt><trkpt lat="44.47140267009223" lon="10.088961525815368"><ele>762.0</ele><time>2026-04-07T08:50:45.999Z</time></trkpt><trkpt lat="44.47132241458145" lon="10.08899389614038"><ele>762.1428571428571</ele><time>2026-04-07T08:50:47.999Z</time></trkpt><trkpt lat="44.47125540500029" lon="10.089024955550942"><ele>762.2857142857143</ele><time>2026-04-07T08:50:49.999Z</time></trkpt><trkpt lat="44.471207763775965" lon="10.088941672045324"><ele>762.4285714285714</ele><time>2026-04-07T08:50:51.999Z</time></trkpt><trkpt lat="44.47115793939072" lon="10.088883433679433"><ele>762.5714285714286</ele><time>2026-04-07T08:50:53.999Z</time></trkpt><trkpt lat="44.471194130977416" lon="10.088959024009451"><ele>762.7142857142858</ele><time>2026-04-07T08:51:53Z</time></trkpt><trkpt lat="44.471260657749255" lon="10.089017109165836"><ele>762.8571428571429</ele><time>2026-04-07T08:51:56Z</time></trkpt><trkpt lat="44.47134040693317" lon="10.08901220326152"><ele>763.0</ele><time>2026-04-07T08:52:01Z</time></trkpt><trkpt lat="44.47142768442271" lon="10.089041686070226"><ele>763.0</ele><time>2026-04-07T08:52:04Z</time></trkpt><trkpt lat="44.471531021450154" lon="10.089007923388936"><ele>763.0</ele><time>2026-04-07T08:52:05Z</time></trkpt><trkpt lat="44.471613237871345" lon="10.089031852960582"><ele>763.0</ele><time>2026-04-07T08:52:07Z</time></trkpt><trkpt lat="44.47169154223886" lon="10.089098581360622"><ele>763.0</ele><time>2026-04-07T08:52:09Z</time></trkpt><trkpt lat="44.47176823246651" lon="10.0891668757534"><ele>763.0</ele><time>2026-04-07T08:52:11Z</time></trkpt><trkpt lat="44.47179878569255" lon="10.089249186939728"><ele>763.0</ele><time>2026-04-07T08:52:12.999Z</time></trkpt><trkpt lat="44.47178656798221" lon="10.089367737803057"><ele>762.8333333333334</ele><time>2026-04-07T08:52:14.999Z</time></trkpt><trkpt lat="44.47176754861233" lon="10.089490930072213"><ele>762.6666666666667</ele><time>2026-04-07T08:52:15.999Z</time></trkpt><trkpt lat="44.47174889766882" lon="10.089580325266548"><ele>762.5</ele><time>2026-04-07T08:52:16.999Z</time></trkpt><trkpt lat="44.471732258347735" lon="10.089671095970015"><ele>762.3333333333334</ele><time>2026-04-07T08:52:17.999Z</time></trkpt><trkpt lat="44.47171998672418" lon="10.089773721832943"><ele>762.1666666666666</ele><time>2026-04-07T08:52:18.999Z</time></trkpt><trkpt lat="44.471702040586365" lon="10.089884704924454"><ele>762.0</ele><time>2026-04-07T08:52:19.999Z</time></trkpt><trkpt lat="44.471682382859804" lon="10.089991062849522"><ele>760.1666666666666</ele><time>2026-04-07T08:52:20.999Z</time></trkpt><trkpt lat="44.47165172427726" lon="10.090096582024787"><ele>758.3333333333334</ele><time>2026-04-07T08:52:21.999Z</time></trkpt><trkpt lat="44.47161751518358" lon="10.090197845515025"><ele>756.5</ele><time>2026-04-07T08:52:22.999Z</time></trkpt><trkpt lat="44.47157732160478" lon="10.090290379241333"><ele>754.6666666666667</ele><time>2026-04-07T08:52:23.999Z</time></trkpt><trkpt lat="44.471548700750375" lon="10.090433400806864"><ele>752.8333333333334</ele><time>2026-04-07T08:52:25.999Z</time></trkpt><trkpt lat="44.47154806685356" lon="10.090551722435631"><ele>751.0</ele><time>2026-04-07T08:52:27.999Z</time></trkpt><trkpt lat="44.4715749391133" lon="10.090646367781055"><ele>751.0</ele><time>2026-04-07T08:52:30.999Z</time></trkpt><trkpt lat="44.471698805431565" lon="10.090716243103724"><ele>751.0</ele><time>2026-04-07T08:52:35.999Z</time></trkpt><trkpt lat="44.47173231456399" lon="10.090587506350284"><ele>751.0</ele><time>2026-04-07T08:52:36.999Z</time></trkpt><trkpt lat="44.47177089899093" lon="10.090474898572072"><ele>751.0</ele><time>2026-04-07T08:52:37.999Z</time></trkpt><trkpt lat="44.471822499658195" lon="10.090343287349333"><ele>751.0</ele><time>2026-04-07T08:52:38.999Z</time></trkpt><trkpt lat="44.47186266884151" lon="10.090218085647283"><ele>751.0</ele><time>2026-04-07T08:52:39.999Z</time></trkpt><trkpt lat="44.47193166009084" lon="10.090031873566009"><ele>751.0</ele><time>2026-04-07T08:52:40.999Z</time></trkpt><trkpt lat="44.472007889650584" lon="10.089919298836405"><ele>751.0</ele><time>2026-04-07T08:52:41.999Z</time></trkpt><trkpt lat="44.47209514671419" lon="10.089814173310902"><ele>751.0</ele><time>2026-04-07T08:52:42.999Z</time></trkpt><trkpt lat="44.47216365729309" lon="10.08973695420147"><ele>745.8</ele><time>2026-04-07T08:52:43.999Z</time></trkpt><trkpt lat="44.472263654700605" lon="10.089661687931743"><ele>740.5999999999999</ele><time>2026-04-07T08:52:44.999Z</time></trkpt><trkpt lat="44.47233466437216" lon="10.08959703520342"><ele>735.4</ele><time>2026-04-07T08:52:45.999Z</time></trkpt><trkpt lat="44.47238826538729" lon="10.089502698761056"><ele>730.2</ele><time>2026-04-07T08:52:46.999Z</time></trkpt><trkpt lat="44.472435617551916" lon="10.089395438595059"><ele>725.0</ele><time>2026-04-07T08:52:47.999Z</time></trkpt><trkpt lat="44.472469083713854" lon="10.089280521601793"><ele>725.0</ele><time>2026-04-07T08:52:48.999Z</time></trkpt><trkpt lat="44.472483064014874" lon="10.08915468514172"><ele>725.0</ele><time>2026-04-07T08:52:49.999Z</time></trkpt><trkpt lat="44.472500689103434" lon="10.089017373615112"><ele>725.0</ele><time>2026-04-07T08:52:50.999Z</time></trkpt><trkpt lat="44.4725165275662" lon="10.088901388833314"><ele>725.0</ele><time>2026-04-07T08:52:51.999Z</time></trkpt><trkpt lat="44.47254168068457" lon="10.088757735503377"><ele>725.0</ele><time>2026-04-07T08:52:52.999Z</time></trkpt><trkpt lat="44.47257147914033" lon="10.088633773642023"><ele>726.1666666666666</ele><time>2026-04-07T08:52:53.999Z</time></trkpt><trkpt lat="44.47259662736795" lon="10.088516191821562"><ele>727.3333333333333</ele><time>2026-04-07T08:52:54.999Z</time></trkpt><trkpt lat="44.472622971258936" lon="10.088404572372522"><ele>728.5</ele><time>2026-04-07T08:52:55.999Z</time></trkpt><trkpt lat="44.47265370593869" lon="10.088289288323267"><ele>729.6666666666666</ele><time>2026-04-07T08:52:56.999Z</time></trkpt><trkpt lat="44.47268753935756" lon="10.088171391659095"><ele>730.8333333333334</ele><time>2026-04-07T08:52:57.999Z</time></trkpt><trkpt lat="44.47273214667864" lon="10.088065889153754"><ele>732.0</ele><time>2026-04-07T08:52:58.999Z</time></trkpt><trkpt lat="44.47277910808588" lon="10.087955942124019"><ele>732.2</ele><time>2026-04-07T08:52:59.999Z</time></trkpt><trkpt lat="44.472823856292344" lon="10.087841689209542"><ele>732.4000000000001</ele><time>2026-04-07T08:53:00.999Z</time></trkpt><trkpt lat="44.47286475721465" lon="10.087719659439287"><ele>732.5999999999999</ele><time>2026-04-07T08:53:01.999Z</time></trkpt><trkpt lat="44.47291153025658" lon="10.087594774389215"><ele>732.8</ele><time>2026-04-07T08:53:02.999Z</time></trkpt><trkpt lat="44.47293602107155" lon="10.087475222930857"><ele>733.0</ele><time>2026-04-07T08:53:03.999Z</time></trkpt><trkpt lat="44.47296186010946" lon="10.087375741787506"><ele>731.3333333333334</ele><time>2026-04-07T08:53:04.999Z</time></trkpt><trkpt lat="44.472989590826934" lon="10.087281261763115"><ele>729.6666666666667</ele><time>2026-04-07T08:53:06Z</time></trkpt><trkpt lat="44.47302610308909" lon="10.087163597483663"><ele>728.0</ele><time>2026-04-07T08:53:08Z</time></trkpt><trkpt lat="44.47299552889205" lon="10.08705229772142"><ele>726.3333333333334</ele><time>2026-04-07T08:53:10Z</time></trkpt><trkpt lat="44.47293779404921" lon="10.087009720057283"><ele>724.6666666666666</ele><time>2026-04-07T08:53:11Z</time></trkpt><trkpt lat="44.472853920662544" lon="10.087005668289617"><ele>723.0</ele><time>2026-04-07T08:53:12Z</time></trkpt><trkpt lat="44.47277824117202" lon="10.086990093992158"><ele>723.0</ele><time>2026-04-07T08:53:13Z</time></trkpt><trkpt lat="44.472673481960555" lon="10.086959123024009"><ele>723.0</ele><time>2026-04-07T08:53:14Z</time></trkpt><trkpt lat="44.47256528557746" lon="10.08691152135003"><ele>723.0</ele><time>2026-04-07T08:53:15Z</time></trkpt><trkpt lat="44.472465532761596" lon="10.086832344624177"><ele>723.0</ele><time>2026-04-07T08:53:16Z</time></trkpt><trkpt lat="44.47236207577997" lon="10.086759083067802"><ele>723.0</ele><time>2026-04-07T08:53:17Z</time></trkpt><trkpt lat="44.47224718838721" lon="10.086685556834874"><ele>723.0</ele><time>2026-04-07T08:53:18Z</time></trkpt><trkpt lat="44.47214206409148" lon="10.086607673161284"><ele>723.0</ele><time>2026-04-07T08:53:19Z</time></trkpt><trkpt lat="44.472049364144326" lon="10.086513280177718"><ele>723.0</ele><time>2026-04-07T08:53:20Z</time></trkpt><trkpt lat="44.47196285665307" lon="10.086418021497034"><ele>725.0</ele><time>2026-04-07T08:53:21Z</time></trkpt><trkpt lat="44.471866691059404" lon="10.086325787940282"><ele>727.0</ele><time>2026-04-07T08:53:22Z</time></trkpt><trkpt lat="44.4717900735137" lon="10.086224471178205"><ele>729.0</ele><time>2026-04-07T08:53:23Z</time></trkpt><trkpt lat="44.471708645421685" lon="10.08611350735446"><ele>731.0</ele><time>2026-04-07T08:53:24Z</time></trkpt><trkpt lat="44.471631590579726" lon="10.086006799971257"><ele>733.0</ele><time>2026-04-07T08:53:25Z</time></trkpt><trkpt lat="44.47155063541655" lon="10.08591246013853"><ele>733.0</ele><time>2026-04-07T08:53:26Z</time></trkpt><trkpt lat="44.47146601961983" lon="10.085829716723085"><ele>733.0</ele><time>2026-04-07T08:53:27Z</time></trkpt><trkpt lat="44.47134956960493" lon="10.085779754581303"><ele>733.0</ele><time>2026-04-07T08:53:28Z</time></trkpt><trkpt lat="44.471238733175085" lon="10.08573767891947"><ele>733.0</ele><time>2026-04-07T08:53:29Z</time></trkpt><trkpt lat="44.47113323031107" lon="10.085656472185761"><ele>737.0</ele><time>2026-04-07T08:53:30Z</time></trkpt><trkpt lat="44.471050542107115" lon="10.08554541322745"><ele>741.0</ele><time>2026-04-07T08:53:31Z</time></trkpt><trkpt lat="44.47096846984704" lon="10.085426583052834"><ele>745.0</ele><time>2026-04-07T08:53:32Z</time></trkpt><trkpt lat="44.47089577379617" lon="10.08528330057281"><ele>749.0</ele><time>2026-04-07T08:53:33Z</time></trkpt><trkpt lat="44.47082231648023" lon="10.085135641038432"><ele>749.0</ele><time>2026-04-07T08:53:34Z</time></trkpt><trkpt lat="44.470763196525425" lon="10.084985911703013"><ele>749.0</ele><time>2026-04-07T08:53:35Z</time></trkpt><trkpt lat="44.47070923094478" lon="10.084829229053044"><ele>749.0</ele><time>2026-04-07T08:53:36Z</time></trkpt><trkpt lat="44.47065176020663" lon="10.084668568327592"><ele>749.0</ele><time>2026-04-07T08:53:37Z</time></trkpt><trkpt lat="44.47061885139727" lon="10.084497238287973"><ele>746.25</ele><time>2026-04-07T08:53:38Z</time></trkpt><trkpt lat="44.47058707927637" lon="10.08433266455791"><ele>743.5</ele><time>2026-04-07T08:53:39Z</time></trkpt><trkpt lat="44.4705589943079" lon="10.084176566929907"><ele>740.75</ele><time>2026-04-07T08:53:40Z</time></trkpt><trkpt lat="44.4705235106655" lon="10.084014710982494"><ele>738.0</ele><time>2026-04-07T08:53:41Z</time></trkpt><trkpt lat="44.470475469581345" lon="10.083855627233307"><ele>740.5</ele><time>2026-04-07T08:53:42Z</time></trkpt><trkpt lat="44.47039937379117" lon="10.083724168697609"><ele>743.0</ele><time>2026-04-07T08:53:43Z</time></trkpt><trkpt lat="44.47030269607659" lon="10.083636281019517"><ele>745.5</ele><time>2026-04-07T08:53:44Z</time></trkpt><trkpt lat="44.47019380220359" lon="10.083607334538161"><ele>748.0</ele><time>2026-04-07T08:53:45Z</time></trkpt><trkpt lat="44.47007278708459" lon="10.083599179595817"><ele>748.0</ele><time>2026-04-07T08:53:46Z</time></trkpt><trkpt lat="44.46994852588957" lon="10.08359043415905"><ele>748.0</ele><time>2026-04-07T08:53:47Z</time></trkpt><trkpt lat="44.46982435398891" lon="10.083569100846741"><ele>748.0</ele><time>2026-04-07T08:53:48Z</time></trkpt><trkpt lat="44.469702977636146" lon="10.08352236739392"><ele>748.0</ele><time>2026-04-07T08:53:49Z</time></trkpt><trkpt lat="44.46960447658995" lon="10.083443632296161"><ele>751.5</ele><time>2026-04-07T08:53:50Z</time></trkpt><trkpt lat="44.4695291364546" lon="10.08332179093443"><ele>755.0</ele><time>2026-04-07T08:53:51Z</time></trkpt><trkpt lat="44.469468281819786" lon="10.083170853972534"><ele>758.5</ele><time>2026-04-07T08:53:52Z</time></trkpt><trkpt lat="44.46942526083882" lon="10.082998415735293"><ele>762.0</ele><time>2026-04-07T08:53:53Z</time></trkpt><trkpt lat="44.46939325384868" lon="10.082826087172766"><ele>762.0</ele><time>2026-04-07T08:53:54Z</time></trkpt><trkpt lat="44.469375896915516" lon="10.0826457694124"><ele>762.0</ele><time>2026-04-07T08:53:55Z</time></trkpt><trkpt lat="44.46938259094921" lon="10.082472249498652"><ele>762.0</ele><time>2026-04-07T08:53:56Z</time></trkpt><trkpt lat="44.469389340364835" lon="10.08230927389054"><ele>762.0</ele><time>2026-04-07T08:53:57Z</time></trkpt><trkpt lat="44.46937621134477" lon="10.082153862227127"><ele>761.2</ele><time>2026-04-07T08:53:58Z</time></trkpt><trkpt lat="44.46933400222655" lon="10.082001205760598"><ele>760.4000000000001</ele><time>2026-04-07T08:53:59Z</time></trkpt><trkpt lat="44.46928201918416" lon="10.081862230983212"><ele>759.5999999999999</ele><time>2026-04-07T08:54:00Z</time></trkpt><trkpt lat="44.469231731361084" lon="10.081749567111746"><ele>758.8</ele><time>2026-04-07T08:54:01Z</time></trkpt><trkpt lat="44.46918677457177" lon="10.081656788496927"><ele>758.0</ele><time>2026-04-07T08:54:02Z</time></trkpt><trkpt lat="44.469135994940224" lon="10.081533131136588"><ele>757.0</ele><time>2026-04-07T08:54:04Z</time></trkpt><trkpt lat="44.46910359045104" lon="10.081434407912553"><ele>756.0</ele><time>2026-04-07T08:54:06Z</time></trkpt><trkpt lat="44.46909302611741" lon="10.081316837612954"><ele>755.0</ele><time>2026-04-07T08:54:08Z</time></trkpt><trkpt lat="44.46911937361995" lon="10.081231532938833"><ele>754.0</ele><time>2026-04-07T08:54:10Z</time></trkpt><trkpt lat="44.469363719923045" lon="10.081375573011037"><ele>754.0</ele><time>2026-04-07T08:54:11Z</time></trkpt><trkpt lat="44.46943630179198" lon="10.081339760244898"><ele>754.0</ele><time>2026-04-07T08:54:13Z</time></trkpt><trkpt lat="44.469459004983676" lon="10.08125131652994"><ele>754.0</ele><time>2026-04-07T08:54:17Z</time></trkpt><trkpt lat="44.46952596823466" lon="10.08120455206563"><ele>754.0</ele><time>2026-04-07T08:54:21Z</time></trkpt><trkpt lat="44.46962444094161" lon="10.081170656311972"><ele>754.0</ele><time>2026-04-07T08:54:23Z</time></trkpt><trkpt lat="44.46970963495659" lon="10.081091113560824"><ele>754.0</ele><time>2026-04-07T08:54:24.999Z</time></trkpt><trkpt lat="44.46975260573037" lon="10.08100021513686"><ele>753.5</ele><time>2026-04-07T08:54:26.999Z</time></trkpt><trkpt lat="44.46982329324769" lon="10.081005925116438"><ele>753.0</ele><time>2026-04-07T08:54:29.999Z</time></trkpt><trkpt lat="44.469903277690506" lon="10.081065670104302"><ele>752.5</ele><time>2026-04-07T08:54:31.999Z</time></trkpt><trkpt lat="44.46997847604029" lon="10.08103688139773"><ele>752.0</ele><time>2026-04-07T08:54:33.999Z</time></trkpt><trkpt lat="44.47006428200071" lon="10.080994784385005"><ele>751.5</ele><time>2026-04-07T08:54:35.999Z</time></trkpt><trkpt lat="44.470138383777225" lon="10.081046384965974"><ele>751.0</ele><time>2026-04-07T08:54:37.999Z</time></trkpt><trkpt lat="44.470225646669675" lon="10.08114749035735"><ele>751.0</ele><time>2026-04-07T08:54:39.999Z</time></trkpt><trkpt lat="44.470311516946595" lon="10.081267106672986"><ele>751.0</ele><time>2026-04-07T08:54:41.999Z</time></trkpt><trkpt lat="44.4703622693375" lon="10.081329479462534"><ele>751.0</ele><time>2026-04-07T08:54:42.999Z</time></trkpt><trkpt lat="44.470413867703286" lon="10.081404213322466"><ele>751.0</ele><time>2026-04-07T08:54:43.999Z</time></trkpt><trkpt lat="44.47047001723647" lon="10.081461590735467"><ele>751.0</ele><time>2026-04-07T08:54:44.999Z</time></trkpt><trkpt lat="44.470524264983815" lon="10.081510447040532"><ele>751.0</ele><time>2026-04-07T08:54:45.999Z</time></trkpt><trkpt lat="44.47061746081625" lon="10.08158777913949"><ele>750.5999999999999</ele><time>2026-04-07T08:54:47.999Z</time></trkpt><trkpt lat="44.47071997551991" lon="10.081606091744659"><ele>750.2</ele><time>2026-04-07T08:54:49.999Z</time></trkpt><trkpt lat="44.470821547652605" lon="10.081589448014597"><ele>749.8</ele><time>2026-04-07T08:54:51.999Z</time></trkpt><trkpt lat="44.470935111663465" lon="10.081570878340502"><ele>749.4000000000001</ele><time>2026-04-07T08:54:53.999Z</time></trkpt><trkpt lat="44.47105470641572" lon="10.081552314568007"><ele>749.0</ele><time>2026-04-07T08:54:55.999Z</time></trkpt><trkpt lat="44.47118033132464" lon="10.081529396289447"><ele>749.0</ele><time>2026-04-07T08:54:57.999Z</time></trkpt><trkpt lat="44.47124629756642" lon="10.081520791919836"><ele>749.0</ele><time>2026-04-07T08:54:58.999Z</time></trkpt><trkpt lat="44.47136178973548" lon="10.081498532555576"><ele>749.0</ele><time>2026-04-07T08:55:00.999Z</time></trkpt><trkpt lat="44.4714832338949" lon="10.081475218030743"><ele>749.0</ele><time>2026-04-07T08:55:02.999Z</time></trkpt><trkpt lat="44.47155328751626" lon="10.081457444635976"><ele>749.0</ele><time>2026-04-07T08:55:03.999Z</time></trkpt><trkpt lat="44.47163012748381" lon="10.0814435472495"><ele>747.1666666666666</ele><time>2026-04-07T08:55:04.999Z</time></trkpt><trkpt lat="44.471714940086784" lon="10.081425112228372"><ele>745.3333333333333</ele><time>2026-04-07T08:55:05.999Z</time></trkpt><trkpt lat="44.47180198776662" lon="10.081404801699254"><ele>743.5</ele><time>2026-04-07T08:55:06.999Z</time></trkpt><trkpt lat="44.471896333832284" lon="10.081380473766492"><ele>741.6666666666666</ele><time>2026-04-07T08:55:07.999Z</time></trkpt><trkpt lat="44.47198256811345" lon="10.081343875464189"><ele>739.8333333333334</ele><time>2026-04-07T08:55:08.999Z</time></trkpt><trkpt lat="44.47205400054645" lon="10.081308016565282"><ele>738.0</ele><time>2026-04-07T08:55:09.999Z</time></trkpt><trkpt lat="44.47211888330667" lon="10.081276345206755"><ele>735.4</ele><time>2026-04-07T08:55:10.999Z</time></trkpt><trkpt lat="44.472232785490725" lon="10.081223731363034"><ele>732.8</ele><time>2026-04-07T08:55:13Z</time></trkpt><trkpt lat="44.47233186801207" lon="10.081167286573656"><ele>730.2</ele><time>2026-04-07T08:55:15Z</time></trkpt><trkpt lat="44.472432834723385" lon="10.08110045148752"><ele>727.6</ele><time>2026-04-07T08:55:17Z</time></trkpt><trkpt lat="44.47248884140423" lon="10.081050901804904"><ele>725.0</ele><time>2026-04-07T08:55:18Z</time></trkpt><trkpt lat="44.47255743134656" lon="10.081006340125224"><ele>725.0</ele><time>2026-04-07T08:55:19Z</time></trkpt><trkpt lat="44.472617493321714" lon="10.080960536154931"><ele>725.0</ele><time>2026-04-07T08:55:20Z</time></trkpt><trkpt lat="44.472685467087054" lon="10.080920561908144"><ele>725.0</ele><time>2026-04-07T08:55:21Z</time></trkpt><trkpt lat="44.47275105434981" lon="10.080888691077902"><ele>725.0</ele><time>2026-04-07T08:55:22Z</time></trkpt><trkpt lat="44.47282393125761" lon="10.080889785906214"><ele>725.0</ele><time>2026-04-07T08:55:23Z</time></trkpt><trkpt lat="44.47290017190638" lon="10.080864618094953"><ele>725.0</ele><time>2026-04-07T08:55:24Z</time></trkpt><trkpt lat="44.47297330476762" lon="10.08083636393899"><ele>725.0</ele><time>2026-04-07T08:55:25Z</time></trkpt><trkpt lat="44.47304206976378" lon="10.080804551668642"><ele>724.3333333333333</ele><time>2026-04-07T08:55:26Z</time></trkpt><trkpt lat="44.473105071049176" lon="10.080775547294046"><ele>723.6666666666666</ele><time>2026-04-07T08:55:27Z</time></trkpt><trkpt lat="44.47320896376509" lon="10.080730552303583"><ele>723.0</ele><time>2026-04-07T08:55:29Z</time></trkpt><trkpt lat="44.473306223580174" lon="10.08066859587034"><ele>722.3333333333334</ele><time>2026-04-07T08:55:31Z</time></trkpt><trkpt lat="44.47336928282565" lon="10.080645679060474"><ele>721.6666666666667</ele><time>2026-04-07T08:55:32Z</time></trkpt><trkpt lat="44.47344324093824" lon="10.080638765969727"><ele>721.0</ele><time>2026-04-07T08:55:33Z</time></trkpt><trkpt lat="44.47351135702335" lon="10.080633254776656"><ele>720.8571428571429</ele><time>2026-04-07T08:55:34Z</time></trkpt><trkpt lat="44.473573979535885" lon="10.080642350997978"><ele>720.7142857142858</ele><time>2026-04-07T08:55:35Z</time></trkpt><trkpt lat="44.473645969936825" lon="10.080642540033264"><ele>720.5714285714286</ele><time>2026-04-07T08:55:36Z</time></trkpt><trkpt lat="44.47371638680014" lon="10.080630651926217"><ele>720.4285714285714</ele><time>2026-04-07T08:55:37Z</time></trkpt><trkpt lat="44.47378670552997" lon="10.080620866083036"><ele>720.2857142857143</ele><time>2026-04-07T08:55:38Z</time></trkpt><trkpt lat="44.473852321215034" lon="10.080612908447952"><ele>720.1428571428571</ele><time>2026-04-07T08:55:39Z</time></trkpt><trkpt lat="44.473941964948345" lon="10.080584483136839"><ele>720.0</ele><time>2026-04-07T08:55:41Z</time></trkpt><trkpt lat="44.47403851928176" lon="10.080570494470276"><ele>718.4</ele><time>2026-04-07T08:55:43Z</time></trkpt><trkpt lat="44.47414128896439" lon="10.080532483122385"><ele>716.8</ele><time>2026-04-07T08:55:45Z</time></trkpt><trkpt lat="44.47419989908053" lon="10.080492845408795"><ele>715.2</ele><time>2026-04-07T08:55:46Z</time></trkpt><trkpt lat="44.474255319222614" lon="10.080449763127962"><ele>713.6</ele><time>2026-04-07T08:55:47Z</time></trkpt><trkpt lat="44.47435838717294" lon="10.080369324957333"><ele>712.0</ele><time>2026-04-07T08:55:49Z</time></trkpt><trkpt lat="44.474459683060715" lon="10.080286503650711"><ele>712.0</ele><time>2026-04-07T08:55:51Z</time></trkpt><trkpt lat="44.4745591190251" lon="10.080224626643885"><ele>712.0</ele><time>2026-04-07T08:55:53Z</time></trkpt><trkpt lat="44.47464616088745" lon="10.080124761652057"><ele>712.0</ele><time>2026-04-07T08:55:55Z</time></trkpt><trkpt lat="44.474713123238956" lon="10.080004547513342"><ele>712.0</ele><time>2026-04-07T08:55:57Z</time></trkpt><trkpt lat="44.47478487056011" lon="10.079903197411058"><ele>712.0</ele><time>2026-04-07T08:55:59Z</time></trkpt><trkpt lat="44.474864031402035" lon="10.079843501939541"><ele>707.6</ele><time>2026-04-07T08:56:01Z</time></trkpt><trkpt lat="44.474957309491934" lon="10.079792925983453"><ele>703.2</ele><time>2026-04-07T08:56:03Z</time></trkpt><trkpt lat="44.47505618901942" lon="10.07975000188544"><ele>698.8</ele><time>2026-04-07T08:56:05Z</time></trkpt><trkpt lat="44.475143661580645" lon="10.079703472049081"><ele>694.4</ele><time>2026-04-07T08:56:07Z</time></trkpt><trkpt lat="44.475256927198004" lon="10.07962271435441"><ele>690.0</ele><time>2026-04-07T08:56:10Z</time></trkpt><trkpt lat="44.475391901509205" lon="10.079523836499252"><ele>688.4</ele><time>2026-04-07T08:56:12Z</time></trkpt><trkpt lat="44.47547266134925" lon="10.079413860768161"><ele>686.8</ele><time>2026-04-07T08:56:14Z</time></trkpt><trkpt lat="44.47556454874791" lon="10.079284516639525"><ele>685.2</ele><time>2026-04-07T08:56:16Z</time></trkpt><trkpt lat="44.47564237709972" lon="10.079219508957985"><ele>683.6</ele><time>2026-04-07T08:56:17Z</time></trkpt><trkpt lat="44.47571118798206" lon="10.079195177404442"><ele>682.0</ele><time>2026-04-07T08:56:18Z</time></trkpt><trkpt lat="44.47577860284094" lon="10.079182447454189"><ele>682.0</ele><time>2026-04-07T08:56:19Z</time></trkpt><trkpt lat="44.47584579120576" lon="10.07920610752623"><ele>682.0</ele><time>2026-04-07T08:56:20Z</time></trkpt><trkpt lat="44.47597425127335" lon="10.079246215706604"><ele>682.0</ele><time>2026-04-07T08:56:22Z</time></trkpt><trkpt lat="44.476047274033334" lon="10.079244087917665"><ele>682.0</ele><time>2026-04-07T08:56:23Z</time></trkpt><trkpt lat="44.47611111313294" lon="10.07924090471126"><ele>682.0</ele><time>2026-04-07T08:56:24Z</time></trkpt><trkpt lat="44.47621932086366" lon="10.079214900020036"><ele>682.0</ele><time>2026-04-07T08:56:26Z</time></trkpt><trkpt lat="44.476317470050546" lon="10.079211700489608"><ele>679.8</ele><time>2026-04-07T08:56:28Z</time></trkpt><trkpt lat="44.4764195628438" lon="10.079233440655875"><ele>677.6</ele><time>2026-04-07T08:56:30Z</time></trkpt><trkpt lat="44.47650080971057" lon="10.079218352872962"><ele>675.4</ele><time>2026-04-07T08:56:32Z</time></trkpt><trkpt lat="44.47661305760811" lon="10.079276245260218"><ele>673.1999999999999</ele><time>2026-04-07T08:56:33.999Z</time></trkpt><trkpt lat="44.47671397114267" lon="10.079362078191954"><ele>671.0</ele><time>2026-04-07T08:56:35.999Z</time></trkpt><trkpt lat="44.476819000211044" lon="10.079380154367126"><ele>671.0</ele><time>2026-04-07T08:56:37.999Z</time></trkpt><trkpt lat="44.47690492729235" lon="10.079339454187707"><ele>671.0</ele><time>2026-04-07T08:56:39.999Z</time></trkpt><trkpt lat="44.47697992626338" lon="10.07931581552165"><ele>671.0</ele><time>2026-04-07T08:56:41.999Z</time></trkpt><trkpt lat="44.477060463257324" lon="10.079322544177499"><ele>671.0</ele><time>2026-04-07T08:56:44.999Z</time></trkpt><trkpt lat="44.477122650422686" lon="10.079339066314304"><ele>671.0</ele><time>2026-04-07T08:56:46.999Z</time></trkpt><trkpt lat="44.47723105731629" lon="10.079323437683408"><ele>671.0</ele><time>2026-04-07T08:56:49.999Z</time></trkpt><trkpt lat="44.47732880499775" lon="10.079269950799073"><ele>668.0</ele><time>2026-04-07T08:56:51.999Z</time></trkpt><trkpt lat="44.47744454621674" lon="10.079246927382732"><ele>665.0</ele><time>2026-04-07T08:56:53.999Z</time></trkpt><trkpt lat="44.47750896416318" lon="10.079251916375465"><ele>662.0</ele><time>2026-04-07T08:56:54.999Z</time></trkpt><trkpt lat="44.47757472417652" lon="10.079255570251396"><ele>659.0</ele><time>2026-04-07T08:56:55.999Z</time></trkpt><trkpt lat="44.47764575856724" lon="10.079261666019823"><ele>656.0</ele><time>2026-04-07T08:56:56.999Z</time></trkpt><trkpt lat="44.47771473231443" lon="10.0792442145688"><ele>653.0</ele><time>2026-04-07T08:56:57.999Z</time></trkpt><trkpt lat="44.477783506338206" lon="10.079224031413212"><ele>653.0</ele><time>2026-04-07T08:56:58.999Z</time></trkpt><trkpt lat="44.477853810000475" lon="10.079214976943657"><ele>653.0</ele><time>2026-04-07T08:56:59.999Z</time></trkpt><trkpt lat="44.4779225683256" lon="10.07920403956723"><ele>653.0</ele><time>2026-04-07T08:57:00.999Z</time></trkpt><trkpt lat="44.47799055086388" lon="10.079209076361142"><ele>653.0</ele><time>2026-04-07T08:57:01.999Z</time></trkpt><trkpt lat="44.478060339659564" lon="10.07921775241423"><ele>653.0</ele><time>2026-04-07T08:57:02.999Z</time></trkpt><trkpt lat="44.47817474290476" lon="10.079236133324109"><ele>653.0</ele><time>2026-04-07T08:57:04.999Z</time></trkpt><trkpt lat="44.47823996907481" lon="10.079243044887043"><ele>651.5714285714287</ele><time>2026-04-07T08:57:05.999Z</time></trkpt><trkpt lat="44.47830893154166" lon="10.079246153503433"><ele>650.1428571428571</ele><time>2026-04-07T08:57:06.999Z</time></trkpt><trkpt lat="44.478377593577896" lon="10.079242804654216"><ele>648.7142857142858</ele><time>2026-04-07T08:57:07.999Z</time></trkpt><trkpt lat="44.47844404345711" lon="10.079235727246195"><ele>647.2857142857143</ele><time>2026-04-07T08:57:08.999Z</time></trkpt><trkpt lat="44.47851205946615" lon="10.079226940246185"><ele>645.8571428571429</ele><time>2026-04-07T08:57:09.999Z</time></trkpt><trkpt lat="44.4785810402973" lon="10.079213416153245"><ele>644.4285714285714</ele><time>2026-04-07T08:57:10.999Z</time></trkpt><trkpt lat="44.47865647156699" lon="10.079207273253425"><ele>643.0</ele><time>2026-04-07T08:57:11.999Z</time></trkpt><trkpt lat="44.47873300989711" lon="10.079194684911016"><ele>642.1999999999999</ele><time>2026-04-07T08:57:12.999Z</time></trkpt><trkpt lat="44.47880642568151" lon="10.07919402479511"><ele>641.4</ele><time>2026-04-07T08:57:13.999Z</time></trkpt><trkpt lat="44.47886970674761" lon="10.079213190014805"><ele>640.5999999999999</ele><time>2026-04-07T08:57:14.999Z</time></trkpt><trkpt lat="44.47898110926093" lon="10.079292887911429"><ele>639.8</ele><time>2026-04-07T08:57:16.999Z</time></trkpt><trkpt lat="44.47908910864942" lon="10.07935361628353"><ele>639.0</ele><time>2026-04-07T08:57:19Z</time></trkpt><trkpt lat="44.47919598468705" lon="10.079410448533134"><ele>639.0</ele><time>2026-04-07T08:57:21Z</time></trkpt><trkpt lat="44.47925651605083" lon="10.079441172191899"><ele>639.0</ele><time>2026-04-07T08:57:22Z</time></trkpt><trkpt lat="44.47932528918896" lon="10.079472271652653"><ele>639.0</ele><time>2026-04-07T08:57:23Z</time></trkpt><trkpt lat="44.47940296842241" lon="10.07951423406939"><ele>639.0</ele><time>2026-04-07T08:57:24Z</time></trkpt><trkpt lat="44.47947990173238" lon="10.079550421327495"><ele>639.0</ele><time>2026-04-07T08:57:25Z</time></trkpt><trkpt lat="44.47957069688507" lon="10.079576988740454"><ele>639.0</ele><time>2026-04-07T08:57:26Z</time></trkpt><trkpt lat="44.479654065545844" lon="10.079598636122078"><ele>637.1666666666666</ele><time>2026-04-07T08:57:27Z</time></trkpt><trkpt lat="44.47972285362896" lon="10.07962752479202"><ele>635.3333333333334</ele><time>2026-04-07T08:57:28Z</time></trkpt><trkpt lat="44.479790877855834" lon="10.07965539596268"><ele>633.5</ele><time>2026-04-07T08:57:29Z</time></trkpt><trkpt lat="44.47987842859252" lon="10.07967854557905"><ele>631.6666666666667</ele><time>2026-04-07T08:57:31Z</time></trkpt><trkpt lat="44.479935610723444" lon="10.07972385899454"><ele>629.8333333333334</ele><time>2026-04-07T08:57:42Z</time></trkpt><trkpt lat="44.480034637865174" lon="10.079759489125488"><ele>628.0</ele><time>2026-04-07T08:57:44Z</time></trkpt><trkpt lat="44.480137946513956" lon="10.079803107328866"><ele>628.0</ele><time>2026-04-07T08:57:46Z</time></trkpt><trkpt lat="44.48023317843295" lon="10.079850928320614"><ele>628.0</ele><time>2026-04-07T08:57:48Z</time></trkpt><trkpt lat="44.48031909726874" lon="10.079842564468493"><ele>628.0</ele><time>2026-04-07T08:57:50Z</time></trkpt><trkpt lat="44.480359314602836" lon="10.079771340565438"><ele>628.0</ele><time>2026-04-07T08:57:51Z</time></trkpt><trkpt lat="44.48040007334497" lon="10.07967073539114"><ele>628.0</ele><time>2026-04-07T08:57:52Z</time></trkpt><trkpt lat="44.48045431326535" lon="10.079561373866401"><ele>628.0</ele><time>2026-04-07T08:57:53Z</time></trkpt><trkpt lat="44.48050701935353" lon="10.079432455955734"><ele>626.6666666666667</ele><time>2026-04-07T08:57:54Z</time></trkpt><trkpt lat="44.48054795517001" lon="10.079314100589059"><ele>625.3333333333334</ele><time>2026-04-07T08:57:55Z</time></trkpt><trkpt lat="44.48056756787372" lon="10.079199863620595"><ele>624.0</ele><time>2026-04-07T08:57:56Z</time></trkpt><trkpt lat="44.48057301122351" lon="10.07909174516224"><ele>622.6666666666666</ele><time>2026-04-07T08:57:57Z</time></trkpt><trkpt lat="44.48057303491722" lon="10.078999743510808"><ele>621.3333333333333</ele><time>2026-04-07T08:57:58Z</time></trkpt><trkpt lat="44.480562277892325" lon="10.078907749722742"><ele>620.0</ele><time>2026-04-07T08:57:59Z</time></trkpt><trkpt lat="44.480541306221035" lon="10.078810098393681"><ele>620.6666666666666</ele><time>2026-04-07T08:58:00Z</time></trkpt><trkpt lat="44.48051571527365" lon="10.078714720182273"><ele>621.3333333333333</ele><time>2026-04-07T08:58:01Z</time></trkpt><trkpt lat="44.480479017551595" lon="10.078600830394254"><ele>622.0</ele><time>2026-04-07T08:58:03Z</time></trkpt><trkpt lat="44.48042790099277" lon="10.07848186112489"><ele>622.6666666666666</ele><time>2026-04-07T08:58:05Z</time></trkpt><trkpt lat="44.480391203445585" lon="10.07839603392604"><ele>623.3333333333334</ele><time>2026-04-07T08:58:06Z</time></trkpt><trkpt lat="44.48034915776358" lon="10.07829831404052"><ele>624.0</ele><time>2026-04-07T08:58:07Z</time></trkpt><trkpt lat="44.480313836136595" lon="10.078196103625977"><ele>621.8</ele><time>2026-04-07T08:58:08Z</time></trkpt><trkpt lat="44.48027653693957" lon="10.078089354761902"><ele>619.5999999999999</ele><time>2026-04-07T08:58:09Z</time></trkpt><trkpt lat="44.48023932709398" lon="10.077977436552755"><ele>617.4</ele><time>2026-04-07T08:58:10Z</time></trkpt><trkpt lat="44.4801961171806" lon="10.077853062343616"><ele>615.1999999999999</ele><time>2026-04-07T08:58:11Z</time></trkpt><trkpt lat="44.48015351394751" lon="10.077727226221237"><ele>613.0</ele><time>2026-04-07T08:58:12Z</time></trkpt><trkpt lat="44.48010368478083" lon="10.077590531135609"><ele>613.0</ele><time>2026-04-07T08:58:13Z</time></trkpt><trkpt lat="44.48004936902238" lon="10.07745206625326"><ele>613.0</ele><time>2026-04-07T08:58:14Z</time></trkpt><trkpt lat="44.479996436457895" lon="10.0773106702285"><ele>613.0</ele><time>2026-04-07T08:58:15Z</time></trkpt><trkpt lat="44.47995643738222" lon="10.077174894525209"><ele>613.0</ele><time>2026-04-07T08:58:16Z</time></trkpt><trkpt lat="44.47994338745833" lon="10.077053423775295"><ele>613.0</ele><time>2026-04-07T08:58:17Z</time></trkpt><trkpt lat="44.47996518571258" lon="10.076946766268247"><ele>612.5</ele><time>2026-04-07T08:58:18Z</time></trkpt><trkpt lat="44.480040854304484" lon="10.076884429729192"><ele>612.0</ele><time>2026-04-07T08:58:19Z</time></trkpt><trkpt lat="44.48006555914968" lon="10.076786232708566"><ele>611.5</ele><time>2026-04-07T08:58:20Z</time></trkpt><trkpt lat="44.480090399019474" lon="10.076684177457881"><ele>611.0</ele><time>2026-04-07T08:58:21Z</time></trkpt><trkpt lat="44.48008568315595" lon="10.076556257902274"><ele>610.5</ele><time>2026-04-07T08:58:22Z</time></trkpt><trkpt lat="44.480055349699754" lon="10.076421396217759"><ele>610.0</ele><time>2026-04-07T08:58:23Z</time></trkpt><trkpt lat="44.48003128990574" lon="10.076304558931088"><ele>609.8</ele><time>2026-04-07T08:58:24Z</time></trkpt><trkpt lat="44.48001110213004" lon="10.076175782572667"><ele>609.6</ele><time>2026-04-07T08:58:25Z</time></trkpt><trkpt lat="44.47998560428545" lon="10.076029107184812"><ele>609.4</ele><time>2026-04-07T08:58:26Z</time></trkpt><trkpt lat="44.47996208879004" lon="10.07588133725853"><ele>609.2</ele><time>2026-04-07T08:58:27Z</time></trkpt><trkpt lat="44.479943815176306" lon="10.075742014099433"><ele>609.0</ele><time>2026-04-07T08:58:28Z</time></trkpt><trkpt lat="44.47993970013228" lon="10.075606958127253"><ele>609.0</ele><time>2026-04-07T08:58:29Z</time></trkpt><trkpt lat="44.479952437473614" lon="10.075485857122912"><ele>609.0</ele><time>2026-04-07T08:58:30Z</time></trkpt><trkpt lat="44.47997792974128" lon="10.075388722908624"><ele>609.0</ele><time>2026-04-07T08:58:31Z</time></trkpt><trkpt lat="44.48005351381216" lon="10.075335276790875"><ele>609.0</ele><time>2026-04-07T08:58:33Z</time></trkpt><trkpt lat="44.48012254345519" lon="10.075274318138499"><ele>609.0</ele><time>2026-04-07T08:58:35Z</time></trkpt><trkpt lat="44.480209998228496" lon="10.075225328514529"><ele>609.0</ele><time>2026-04-07T08:58:37Z</time></trkpt><trkpt lat="44.48039597128072" lon="10.075540669018501"><ele>606.6666666666666</ele><time>2026-04-07T08:58:39Z</time></trkpt><trkpt lat="44.48045891627417" lon="10.075599950976226"><ele>604.3333333333334</ele><time>2026-04-07T08:58:40.999Z</time></trkpt><trkpt lat="44.48051819986428" lon="10.075682061521409"><ele>602.0</ele><time>2026-04-07T08:58:42.999Z</time></trkpt><trkpt lat="44.48062972281269" lon="10.075696554152914"><ele>599.6666666666667</ele><time>2026-04-07T08:58:44.999Z</time></trkpt><trkpt lat="44.480707447249216" lon="10.075701735979653"><ele>597.3333333333334</ele><time>2026-04-07T08:58:46.999Z</time></trkpt><trkpt lat="44.4807678903893" lon="10.075760371459038"><ele>595.0</ele><time>2026-04-07T08:58:49.999Z</time></trkpt><trkpt lat="44.48084325502746" lon="10.075869049189063"><ele>594.5</ele><time>2026-04-07T08:58:51.999Z</time></trkpt><trkpt lat="44.48091342836911" lon="10.07595814819199"><ele>594.0</ele><time>2026-04-07T08:58:53.999Z</time></trkpt><trkpt lat="44.48096329100899" lon="10.076032438664742"><ele>593.5</ele><time>2026-04-07T08:58:58.999Z</time></trkpt><trkpt lat="44.48089490546832" lon="10.076089605647368"><ele>593.0</ele><time>2026-04-07T08:59:05.999Z</time></trkpt><trkpt lat="44.480803225636144" lon="10.07601181110655"><ele>592.5</ele><time>2026-04-07T08:59:07.999Z</time></trkpt><trkpt lat="44.4807452474895" lon="10.075940753361827"><ele>592.0</ele><time>2026-04-07T08:59:08.999Z</time></trkpt><trkpt lat="44.48068498660645" lon="10.075874789330975"><ele>592.0</ele><time>2026-04-07T08:59:09.999Z</time></trkpt><trkpt lat="44.48062738630826" lon="10.075824329473006"><ele>592.0</ele><time>2026-04-07T08:59:10.999Z</time></trkpt><trkpt lat="44.480550864376575" lon="10.075739343772572"><ele>592.0</ele><time>2026-04-07T08:59:12.999Z</time></trkpt><trkpt lat="44.48046731558261" lon="10.07561996487791"><ele>592.0</ele><time>2026-04-07T08:59:14.999Z</time></trkpt><trkpt lat="44.48045619617731" lon="10.075484011140876"><ele>592.0</ele><time>2026-04-07T08:59:16.999Z</time></trkpt><trkpt lat="44.48056959624683" lon="10.075389353363839"><ele>592.5</ele><time>2026-04-07T08:59:18.999Z</time></trkpt><trkpt lat="44.480643524047814" lon="10.075353054907325"><ele>593.0</ele><time>2026-04-07T08:59:19.999Z</time></trkpt><trkpt lat="44.48071739352052" lon="10.075320151920833"><ele>593.5</ele><time>2026-04-07T08:59:20.999Z</time></trkpt><trkpt lat="44.48078307610411" lon="10.075283856703296"><ele>594.0</ele><time>2026-04-07T08:59:21.999Z</time></trkpt><trkpt lat="44.48089023028326" lon="10.07522446460346"><ele>594.5</ele><time>2026-04-07T08:59:24Z</time></trkpt><trkpt lat="44.480997307120106" lon="10.075234425778424"><ele>595.0</ele><time>2026-04-07T08:59:26Z</time></trkpt><trkpt lat="44.481122628495136" lon="10.075080819793511"><ele>595.0</ele><time>2026-04-07T08:59:28Z</time></trkpt><trkpt lat="44.481262122687774" lon="10.07511687769449"><ele>595.0</ele><time>2026-04-07T08:59:31Z</time></trkpt><trkpt lat="44.48136688081654" lon="10.075131687238027"><ele>595.0</ele><time>2026-04-07T08:59:33Z</time></trkpt><trkpt lat="44.481594931917954" lon="10.075470859119486"><ele>593.3333333333334</ele><time>2026-04-07T08:59:39Z</time></trkpt><trkpt lat="44.481687378407614" lon="10.075443242282592"><ele>591.6666666666667</ele><time>2026-04-07T08:59:42Z</time></trkpt><trkpt lat="44.48173550412786" lon="10.075318151910357"><ele>590.0</ele><time>2026-04-07T08:59:44Z</time></trkpt><trkpt lat="44.48176498227246" lon="10.07519527302061"><ele>588.3333333333334</ele><time>2026-04-07T08:59:45Z</time></trkpt><trkpt lat="44.481781584533486" lon="10.075071332854158"><ele>586.6666666666666</ele><time>2026-04-07T08:59:46Z</time></trkpt><trkpt lat="44.48180798792068" lon="10.074985116958581"><ele>585.0</ele><time>2026-04-07T08:59:47Z</time></trkpt><trkpt lat="44.48180026154064" lon="10.074881048551928"><ele>585.0</ele><time>2026-04-07T08:59:48Z</time></trkpt><trkpt lat="44.48194390436712" lon="10.074839115728404"><ele>585.0</ele><time>2026-04-07T08:59:52Z</time></trkpt><trkpt lat="44.482024397520256" lon="10.074988832122651"><ele>585.0</ele><time>2026-04-07T08:59:53Z</time></trkpt><trkpt lat="44.482111560024464" lon="10.07494097338253"><ele>585.0</ele><time>2026-04-07T08:59:54Z</time></trkpt><trkpt lat="44.482192020751306" lon="10.074882248589274"><ele>583.8</ele><time>2026-04-07T08:59:55Z</time></trkpt><trkpt lat="44.48225588166139" lon="10.074855986352718"><ele>582.6</ele><time>2026-04-07T08:59:56Z</time></trkpt><trkpt lat="44.48235107489795" lon="10.074758916100052"><ele>581.4</ele><time>2026-04-07T08:59:58Z</time></trkpt><trkpt lat="44.48246969535606" lon="10.074739233683868"><ele>580.2</ele><time>2026-04-07T09:00:00Z</time></trkpt><trkpt lat="44.482567281557856" lon="10.074670559177472"><ele>579.0</ele><time>2026-04-07T09:00:02Z</time></trkpt><trkpt lat="44.48262480616937" lon="10.074628121515337"><ele>579.0</ele><time>2026-04-07T09:00:03Z</time></trkpt><trkpt lat="44.48271015491058" lon="10.074616484707288"><ele>579.0</ele><time>2026-04-07T09:00:04Z</time></trkpt><trkpt lat="44.482795232179384" lon="10.074611670652542"><ele>579.0</ele><time>2026-04-07T09:00:05Z</time></trkpt><trkpt lat="44.48288965332456" lon="10.074549522456921"><ele>579.0</ele><time>2026-04-07T09:00:07Z</time></trkpt><trkpt lat="44.4829524654778" lon="10.074398062009092"><ele>579.0</ele><time>2026-04-07T09:00:08Z</time></trkpt><trkpt lat="44.482965281278055" lon="10.074267771067595"><ele>584.0</ele><time>2026-04-07T09:00:09Z</time></trkpt><trkpt lat="44.48298057303642" lon="10.074142569744593"><ele>584.0</ele><time>2026-04-07T09:00:10Z</time></trkpt><trkpt lat="44.48298551655908" lon="10.074037898718291"><ele>585.0</ele><time>2026-04-07T09:00:11Z</time></trkpt><trkpt lat="44.48300183475091" lon="10.073935536878603"><ele>585.0</ele><time>2026-04-07T09:00:13Z</time></trkpt><trkpt lat="44.48305178304684" lon="10.073876440820023"><ele>585.0</ele><time>2026-04-07T09:00:17Z</time></trkpt><trkpt lat="44.48311681000832" lon="10.073851024771916"><ele>585.0</ele><time>2026-04-07T09:00:21Z</time></trkpt></trkseg><trkseg><trkpt lat="44.483162211295664" lon="10.073668705308878"><ele>585.0</ele><time>2026-04-07T09:33:25.588Z</time></trkpt><trkpt lat="44.48319050021887" lon="10.07383693010553"><ele>585.0</ele><time>2026-04-07T09:33:26.994Z</time></trkpt><trkpt lat="44.48312747496761" lon="10.073806747614329"><ele>585.0</ele><time>2026-04-07T09:35:07Z</time></trkpt><trkpt lat="44.48306338356478" lon="10.073786764998625"><ele>585.0</ele><time>2026-04-07T09:35:12Z</time></trkpt><trkpt lat="44.48300018000921" lon="10.073804005154734"><ele>585.0</ele><time>2026-04-07T09:35:26.999Z</time></trkpt><trkpt lat="44.48300485597664" lon="10.07389658007974"><ele>585.0</ele><time>2026-04-07T09:35:31.999Z</time></trkpt><trkpt lat="44.48300867123736" lon="10.073991472444465"><ele>585.0</ele><time>2026-04-07T09:35:39Z</time></trkpt><trkpt lat="44.4829725260476" lon="10.074089846622252"><ele>585.0</ele><time>2026-04-07T09:36:21Z</time></trkpt><trkpt lat="44.48293284295357" lon="10.07418548270111"><ele>585.0</ele><time>2026-04-07T09:36:23Z</time></trkpt><trkpt lat="44.4829231270254" lon="10.074283161842631"><ele>585.0</ele><time>2026-04-07T09:36:25Z</time></trkpt><trkpt lat="44.48291161336059" lon="10.07437201131089"><ele>585.0</ele><time>2026-04-07T09:36:27Z</time></trkpt><trkpt lat="44.482870699178214" lon="10.07446739601875"><ele>585.0</ele><time>2026-04-07T09:36:29Z</time></trkpt><trkpt lat="44.48277606824802" lon="10.074528111521113"><ele>583.8</ele><time>2026-04-07T09:36:31Z</time></trkpt><trkpt lat="44.482712297437025" lon="10.074550963859284"><ele>582.6</ele><time>2026-04-07T09:36:32Z</time></trkpt><trkpt lat="44.48264806758354" lon="10.074575330859876"><ele>581.4</ele><time>2026-04-07T09:36:33Z</time></trkpt><trkpt lat="44.48254272783989" lon="10.074635674792765"><ele>580.2</ele><time>2026-04-07T09:36:35Z</time></trkpt><trkpt lat="44.48246062454164" lon="10.074693352952963"><ele>579.0</ele><time>2026-04-07T09:36:37Z</time></trkpt><trkpt lat="44.482350770245674" lon="10.074757017938447"><ele>579.0</ele><time>2026-04-07T09:36:39Z</time></trkpt><trkpt lat="44.48228657160569" lon="10.074784217616045"><ele>579.0</ele><time>2026-04-07T09:36:40Z</time></trkpt><trkpt lat="44.48218283969842" lon="10.07483516129331"><ele>579.0</ele><time>2026-04-07T09:36:42Z</time></trkpt><trkpt lat="44.482076460710296" lon="10.07486021061914"><ele>579.0</ele><time>2026-04-07T09:36:44Z</time></trkpt><trkpt lat="44.481975411181" lon="10.07485101793922"><ele>579.0</ele><time>2026-04-07T09:36:46Z</time></trkpt><trkpt lat="44.48187627859822" lon="10.0748365557123"><ele>579.6</ele><time>2026-04-07T09:36:48Z</time></trkpt><trkpt lat="44.48179912747559" lon="10.074880702828652"><ele>580.2</ele><time>2026-04-07T09:36:50Z</time></trkpt><trkpt lat="44.48175711328678" lon="10.075019641373055"><ele>580.8000000000001</ele><time>2026-04-07T09:36:52Z</time></trkpt><trkpt lat="44.48174634537937" lon="10.07511382068145"><ele>581.4</ele><time>2026-04-07T09:36:53Z</time></trkpt><trkpt lat="44.4817010505889" lon="10.07525944025841"><ele>582.0</ele><time>2026-04-07T09:36:55Z</time></trkpt><trkpt lat="44.48166569590526" lon="10.075396992979424"><ele>582.0</ele><time>2026-04-07T09:36:57Z</time></trkpt><trkpt lat="44.48158709542819" lon="10.075431697141994"><ele>582.0</ele><time>2026-04-07T09:36:59Z</time></trkpt><trkpt lat="44.481473247104624" lon="10.075424887609946"><ele>582.0</ele><time>2026-04-07T09:37:01Z</time></trkpt><trkpt lat="44.48140794680199" lon="10.075386651145449"><ele>582.0</ele><time>2026-04-07T09:37:02Z</time></trkpt><trkpt lat="44.481347131488484" lon="10.075351302867212"><ele>582.0</ele><time>2026-04-07T09:37:03Z</time></trkpt><trkpt lat="44.48124741627983" lon="10.075281506875626"><ele>582.0</ele><time>2026-04-07T09:37:05Z</time></trkpt><trkpt lat="44.4811436743869" lon="10.075232992146706"><ele>584.6</ele><time>2026-04-07T09:37:07Z</time></trkpt><trkpt lat="44.48102103040476" lon="10.075204468025182"><ele>587.2</ele><time>2026-04-07T09:37:09Z</time></trkpt><trkpt lat="44.48088890348166" lon="10.075193374915358"><ele>589.8</ele><time>2026-04-07T09:37:11Z</time></trkpt><trkpt lat="44.48082400288797" lon="10.075200812550847"><ele>592.4</ele><time>2026-04-07T09:37:12Z</time></trkpt><trkpt lat="44.48070954450232" lon="10.075254339170124"><ele>595.0</ele><time>2026-04-07T09:37:14Z</time></trkpt><trkpt lat="44.48058699868917" lon="10.075322179688369"><ele>595.0</ele><time>2026-04-07T09:37:16Z</time></trkpt><trkpt lat="44.480519433412624" lon="10.07534099964749"><ele>595.0</ele><time>2026-04-07T09:37:17Z</time></trkpt><trkpt lat="44.48043753255466" lon="10.075351731544217"><ele>595.0</ele><time>2026-04-07T09:37:18Z</time></trkpt><trkpt lat="44.480357033448485" lon="10.075356022962463"><ele>595.0</ele><time>2026-04-07T09:37:19Z</time></trkpt><trkpt lat="44.48029124113217" lon="10.075349743455169"><ele>595.0</ele><time>2026-04-07T09:37:20Z</time></trkpt><trkpt lat="44.48022598389184" lon="10.075339990543823"><ele>595.0</ele><time>2026-04-07T09:37:21Z</time></trkpt><trkpt lat="44.48016025816468" lon="10.075330903758712"><ele>595.0</ele><time>2026-04-07T09:37:22Z</time></trkpt><trkpt lat="44.48004607557982" lon="10.075343062985059"><ele>597.0</ele><time>2026-04-07T09:37:24Z</time></trkpt><trkpt lat="44.479985719450234" lon="10.07538935024659"><ele>599.0</ele><time>2026-04-07T09:37:26Z</time></trkpt><trkpt lat="44.47992179972952" lon="10.075498217262114"><ele>601.0</ele><time>2026-04-07T09:37:28Z</time></trkpt><trkpt lat="44.47991307857611" lon="10.07559540097089"><ele>603.0</ele><time>2026-04-07T09:37:29Z</time></trkpt><trkpt lat="44.4799134843014" lon="10.07571436774654"><ele>605.0</ele><time>2026-04-07T09:37:30Z</time></trkpt><trkpt lat="44.47992790086412" lon="10.075828310973083"><ele>607.0</ele><time>2026-04-07T09:37:31Z</time></trkpt><trkpt lat="44.47994387833217" lon="10.075948087684042"><ele>607.0</ele><time>2026-04-07T09:37:32Z</time></trkpt><trkpt lat="44.479961511828385" lon="10.076078006406448"><ele>607.0</ele><time>2026-04-07T09:37:33Z</time></trkpt><trkpt lat="44.47998398414213" lon="10.076222844766749"><ele>607.0</ele><time>2026-04-07T09:37:34Z</time></trkpt><trkpt lat="44.4800133531259" lon="10.07637109073223"><ele>607.0</ele><time>2026-04-07T09:37:35Z</time></trkpt><trkpt lat="44.48003948968615" lon="10.076511541424079"><ele>607.0</ele><time>2026-04-07T09:37:36Z</time></trkpt><trkpt lat="44.48004709106143" lon="10.076626276543658"><ele>607.5</ele><time>2026-04-07T09:37:37Z</time></trkpt><trkpt lat="44.480039407488285" lon="10.076744352052533"><ele>608.0</ele><time>2026-04-07T09:37:38Z</time></trkpt><trkpt lat="44.47999838553294" lon="10.076838618040815"><ele>608.5</ele><time>2026-04-07T09:37:39Z</time></trkpt><trkpt lat="44.47995411408971" lon="10.076940350116276"><ele>609.0</ele><time>2026-04-07T09:37:40Z</time></trkpt><trkpt lat="44.47992112975897" lon="10.077065227920283"><ele>609.5</ele><time>2026-04-07T09:37:40.999Z</time></trkpt><trkpt lat="44.479936464824675" lon="10.077207884323979"><ele>610.0</ele><time>2026-04-07T09:37:41.999Z</time></trkpt><trkpt lat="44.4799879031741" lon="10.077367907875344"><ele>610.75</ele><time>2026-04-07T09:37:43Z</time></trkpt><trkpt lat="44.48005356740781" lon="10.077535133457385"><ele>611.5</ele><time>2026-04-07T09:37:44Z</time></trkpt><trkpt lat="44.48011417027899" lon="10.07770176057779"><ele>612.25</ele><time>2026-04-07T09:37:45Z</time></trkpt><trkpt lat="44.480161029519856" lon="10.077851491370948"><ele>613.0</ele><time>2026-04-07T09:37:46Z</time></trkpt><trkpt lat="44.48021025089668" lon="10.077987821620795"><ele>613.0</ele><time>2026-04-07T09:37:47Z</time></trkpt><trkpt lat="44.480255228496794" lon="10.0781292153604"><ele>613.0</ele><time>2026-04-07T09:37:48Z</time></trkpt><trkpt lat="44.48029974970812" lon="10.078263745527604"><ele>613.0</ele><time>2026-04-07T09:37:49Z</time></trkpt><trkpt lat="44.48036079385338" lon="10.07839956208695"><ele>613.0</ele><time>2026-04-07T09:37:50Z</time></trkpt><trkpt lat="44.48041617893104" lon="10.078527918127833"><ele>613.0</ele><time>2026-04-07T09:37:51Z</time></trkpt><trkpt lat="44.48046523434086" lon="10.07864519372937"><ele>612.6</ele><time>2026-04-07T09:37:52Z</time></trkpt><trkpt lat="44.48050627539551" lon="10.078776178228802"><ele>612.1999999999999</ele><time>2026-04-07T09:37:53Z</time></trkpt><trkpt lat="44.480536488419716" lon="10.078921831967568"><ele>611.8</ele><time>2026-04-07T09:37:54Z</time></trkpt><trkpt lat="44.480548372866934" lon="10.079074866471577"><ele>611.4</ele><time>2026-04-07T09:37:55Z</time></trkpt><trkpt lat="44.480532399262756" lon="10.079226658886977"><ele>611.0</ele><time>2026-04-07T09:37:56Z</time></trkpt><trkpt lat="44.48050733139852" lon="10.079401103275988"><ele>612.8</ele><time>2026-04-07T09:37:57Z</time></trkpt><trkpt lat="44.48044511337264" lon="10.079536859306964"><ele>614.6</ele><time>2026-04-07T09:37:58Z</time></trkpt><trkpt lat="44.480388506386724" lon="10.079643890644075"><ele>616.4</ele><time>2026-04-07T09:37:59Z</time></trkpt><trkpt lat="44.48035129043354" lon="10.079730092565988"><ele>618.2</ele><time>2026-04-07T09:38:00Z</time></trkpt><trkpt lat="44.48027754786197" lon="10.079843893033393"><ele>620.0</ele><time>2026-04-07T09:38:02Z</time></trkpt><trkpt lat="44.480175159920485" lon="10.079822977332489"><ele>621.3333333333333</ele><time>2026-04-07T09:38:04Z</time></trkpt><trkpt lat="44.480109034543894" lon="10.079782011440502"><ele>622.6666666666666</ele><time>2026-04-07T09:38:05Z</time></trkpt><trkpt lat="44.48003174622172" lon="10.079742194219794"><ele>624.0</ele><time>2026-04-07T09:38:06Z</time></trkpt><trkpt lat="44.47994665109713" lon="10.079699368034275"><ele>625.3333333333334</ele><time>2026-04-07T09:38:07Z</time></trkpt><trkpt lat="44.479859962539564" lon="10.079664464514657"><ele>626.6666666666667</ele><time>2026-04-07T09:38:08Z</time></trkpt><trkpt lat="44.47975852467795" lon="10.079632533949098"><ele>628.0</ele><time>2026-04-07T09:38:09Z</time></trkpt><trkpt lat="44.47964863093174" lon="10.079586620194208"><ele>630.1999999999999</ele><time>2026-04-07T09:38:10Z</time></trkpt><trkpt lat="44.47953737995706" lon="10.079543033894419"><ele>632.4</ele><time>2026-04-07T09:38:11Z</time></trkpt><trkpt lat="44.47943795211305" lon="10.079510986877368"><ele>634.5999999999999</ele><time>2026-04-07T09:38:12Z</time></trkpt><trkpt lat="44.47934789984615" lon="10.079481863623064"><ele>636.8</ele><time>2026-04-07T09:38:13Z</time></trkpt><trkpt lat="44.479263626080964" lon="10.079434893998886"><ele>639.0</ele><time>2026-04-07T09:38:14Z</time></trkpt><trkpt lat="44.47918611953977" lon="10.079381321508706"><ele>639.0</ele><time>2026-04-07T09:38:15Z</time></trkpt><trkpt lat="44.47910124559155" lon="10.079341662556182"><ele>639.0</ele><time>2026-04-07T09:38:16Z</time></trkpt><trkpt lat="44.47903707425329" lon="10.07930513519675"><ele>639.0</ele><time>2026-04-07T09:38:17Z</time></trkpt><trkpt lat="44.47891306204944" lon="10.079243939151809"><ele>639.0</ele><time>2026-04-07T09:38:19Z</time></trkpt><trkpt lat="44.478845113831376" lon="10.079206271758201"><ele>639.0</ele><time>2026-04-07T09:38:20Z</time></trkpt><trkpt lat="44.47877001818654" lon="10.079187705845099"><ele>639.0</ele><time>2026-04-07T09:38:21Z</time></trkpt><trkpt lat="44.47868595677067" lon="10.079188179263442"><ele>639.8</ele><time>2026-04-07T09:38:22Z</time></trkpt><trkpt lat="44.47859316334002" lon="10.079200780738667"><ele>640.5999999999999</ele><time>2026-04-07T09:38:23Z</time></trkpt><trkpt lat="44.478498752743526" lon="10.079212406285366"><ele>641.4</ele><time>2026-04-07T09:38:24Z</time></trkpt><trkpt lat="44.478403850606874" lon="10.07922324551579"><ele>642.1999999999999</ele><time>2026-04-07T09:38:25Z</time></trkpt><trkpt lat="44.478308811184235" lon="10.079224782892535"><ele>643.0</ele><time>2026-04-07T09:38:26Z</time></trkpt><trkpt lat="44.478216027270925" lon="10.0792229523225"><ele>643.0</ele><time>2026-04-07T09:38:27Z</time></trkpt><trkpt lat="44.47811490995802" lon="10.07920921446985"><ele>643.0</ele><time>2026-04-07T09:38:28Z</time></trkpt><trkpt lat="44.47801018610879" lon="10.079190397473809"><ele>643.0</ele><time>2026-04-07T09:38:29Z</time></trkpt><trkpt lat="44.47790624688924" lon="10.07917553637624"><ele>643.0</ele><time>2026-04-07T09:38:30Z</time></trkpt><trkpt lat="44.477807390468946" lon="10.079185589000659"><ele>643.0</ele><time>2026-04-07T09:38:31Z</time></trkpt><trkpt lat="44.477715518280405" lon="10.079204426250003"><ele>644.6666666666667</ele><time>2026-04-07T09:38:32Z</time></trkpt><trkpt lat="44.47763000694199" lon="10.07922971537735"><ele>646.3333333333334</ele><time>2026-04-07T09:38:33Z</time></trkpt><trkpt lat="44.47755291520236" lon="10.079244703526701"><ele>648.0</ele><time>2026-04-07T09:38:34Z</time></trkpt><trkpt lat="44.47747752196054" lon="10.079242557927506"><ele>649.6666666666666</ele><time>2026-04-07T09:38:35Z</time></trkpt><trkpt lat="44.477390274420536" lon="10.079238012017514"><ele>651.3333333333333</ele><time>2026-04-07T09:38:36Z</time></trkpt><trkpt lat="44.477312155657735" lon="10.07924460587242"><ele>653.0</ele><time>2026-04-07T09:38:37Z</time></trkpt><trkpt lat="44.47723681060522" lon="10.079286683092532"><ele>653.0</ele><time>2026-04-07T09:38:39Z</time></trkpt><trkpt lat="44.47717751319659" lon="10.079319099820749"><ele>653.0</ele><time>2026-04-07T09:38:40Z</time></trkpt><trkpt lat="44.47707923826601" lon="10.079328046388229"><ele>653.0</ele><time>2026-04-07T09:38:42Z</time></trkpt><trkpt lat="44.47695813137328" lon="10.079292490054893"><ele>653.0</ele><time>2026-04-07T09:38:44Z</time></trkpt><trkpt lat="44.476835094832424" lon="10.079305252078925"><ele>653.0</ele><time>2026-04-07T09:38:46Z</time></trkpt><trkpt lat="44.47676492663361" lon="10.079329397717848"><ele>656.0</ele><time>2026-04-07T09:38:47Z</time></trkpt><trkpt lat="44.47665344972855" lon="10.079309283854757"><ele>659.0</ele><time>2026-04-07T09:38:49Z</time></trkpt><trkpt lat="44.476594777962056" lon="10.079265709003062"><ele>662.0</ele><time>2026-04-07T09:38:50Z</time></trkpt><trkpt lat="44.47653034589189" lon="10.079220058708906"><ele>665.0</ele><time>2026-04-07T09:38:51Z</time></trkpt><trkpt lat="44.4764640411523" lon="10.079195721023972"><ele>668.0</ele><time>2026-04-07T09:38:52Z</time></trkpt><trkpt lat="44.47639086791645" lon="10.079178995741405"><ele>671.0</ele><time>2026-04-07T09:38:53Z</time></trkpt><trkpt lat="44.47632099819004" lon="10.079174482708563"><ele>673.1999999999999</ele><time>2026-04-07T09:38:54Z</time></trkpt><trkpt lat="44.47620381182603" lon="10.079177272080589"><ele>675.4</ele><time>2026-04-07T09:38:56Z</time></trkpt><trkpt lat="44.476074057432456" lon="10.079201839849409"><ele>677.6</ele><time>2026-04-07T09:38:58Z</time></trkpt><trkpt lat="44.47599418280135" lon="10.079206431210059"><ele>679.8</ele><time>2026-04-07T09:38:59Z</time></trkpt><trkpt lat="44.475916392627056" lon="10.079191671185482"><ele>682.0</ele><time>2026-04-07T09:39:00Z</time></trkpt><trkpt lat="44.47584142134901" lon="10.07917390329701"><ele>682.0</ele><time>2026-04-07T09:39:01Z</time></trkpt><trkpt lat="44.47576340237189" lon="10.079163299202374"><ele>682.0</ele><time>2026-04-07T09:39:02Z</time></trkpt><trkpt lat="44.47569161889943" lon="10.079155961599914"><ele>682.0</ele><time>2026-04-07T09:39:03Z</time></trkpt><trkpt lat="44.475610942525286" lon="10.079184247975974"><ele>682.0</ele><time>2026-04-07T09:39:04Z</time></trkpt><trkpt lat="44.47553828817347" lon="10.079242233124189"><ele>682.0</ele><time>2026-04-07T09:39:05Z</time></trkpt><trkpt lat="44.4754686950602" lon="10.07932576411616"><ele>682.0</ele><time>2026-04-07T09:39:06Z</time></trkpt><trkpt lat="44.47539786342435" lon="10.07942214638923"><ele>683.3333333333334</ele><time>2026-04-07T09:39:07Z</time></trkpt><trkpt lat="44.47533084016172" lon="10.079516576268134"><ele>684.6666666666667</ele><time>2026-04-07T09:39:08Z</time></trkpt><trkpt lat="44.47526197137212" lon="10.079593999905011"><ele>686.0</ele><time>2026-04-07T09:39:09Z</time></trkpt><trkpt lat="44.47519382810773" lon="10.079646572577213"><ele>687.3333333333334</ele><time>2026-04-07T09:39:10Z</time></trkpt><trkpt lat="44.47512637501552" lon="10.079689315609247"><ele>688.6666666666666</ele><time>2026-04-07T09:39:11Z</time></trkpt><trkpt lat="44.475060056426145" lon="10.079737768370824"><ele>690.0</ele><time>2026-04-07T09:39:12Z</time></trkpt><trkpt lat="44.47499070056212" lon="10.079762912103147"><ele>690.0</ele><time>2026-04-07T09:39:13Z</time></trkpt><trkpt lat="44.47492515361695" lon="10.079787022789555"><ele>690.0</ele><time>2026-04-07T09:39:14Z</time></trkpt><trkpt lat="44.474805323156616" lon="10.079850274591053"><ele>690.0</ele><time>2026-04-07T09:39:16Z</time></trkpt><trkpt lat="44.474721450559734" lon="10.079949332228809"><ele>690.0</ele><time>2026-04-07T09:39:18Z</time></trkpt><trkpt lat="44.47464343882854" lon="10.080085459861985"><ele>690.0</ele><time>2026-04-07T09:39:20Z</time></trkpt><trkpt lat="44.47459668887924" lon="10.080156551060005"><ele>694.4</ele><time>2026-04-07T09:39:21Z</time></trkpt><trkpt lat="44.474542481175106" lon="10.080223698195944"><ele>698.8</ele><time>2026-04-07T09:39:22Z</time></trkpt><trkpt lat="44.47443626658769" lon="10.080290305034351"><ele>703.2</ele><time>2026-04-07T09:39:24Z</time></trkpt><trkpt lat="44.47437415295864" lon="10.080332136402188"><ele>707.6</ele><time>2026-04-07T09:39:25Z</time></trkpt><trkpt lat="44.47426949181849" lon="10.080423884771735"><ele>712.0</ele><time>2026-04-07T09:39:27Z</time></trkpt><trkpt lat="44.474164165329874" lon="10.080489261871525"><ele>712.0</ele><time>2026-04-07T09:39:29Z</time></trkpt><trkpt lat="44.47410777451184" lon="10.080532671960281"><ele>712.0</ele><time>2026-04-07T09:39:30Z</time></trkpt><trkpt lat="44.47398795795213" lon="10.080568006689115"><ele>712.0</ele><time>2026-04-07T09:39:32Z</time></trkpt><trkpt lat="44.47392241030219" lon="10.0805694170185"><ele>712.0</ele><time>2026-04-07T09:39:33Z</time></trkpt><trkpt lat="44.47382397007026" lon="10.080586072608995"><ele>712.0</ele><time>2026-04-07T09:39:35Z</time></trkpt><trkpt lat="44.47374942943473" lon="10.080606245371833"><ele>712.0</ele><time>2026-04-07T09:39:36Z</time></trkpt><trkpt lat="44.473668407227294" lon="10.080605677093999"><ele>713.3333333333334</ele><time>2026-04-07T09:39:37Z</time></trkpt><trkpt lat="44.47359824124712" lon="10.080608324281618"><ele>714.6666666666667</ele><time>2026-04-07T09:39:38Z</time></trkpt><trkpt lat="44.47351681062769" lon="10.08061473375592"><ele>716.0</ele><time>2026-04-07T09:39:39Z</time></trkpt><trkpt lat="44.47344980200234" lon="10.080621384179725"><ele>717.3333333333334</ele><time>2026-04-07T09:39:40Z</time></trkpt><trkpt lat="44.47338255523867" lon="10.080630907771289"><ele>718.6666666666666</ele><time>2026-04-07T09:39:41Z</time></trkpt><trkpt lat="44.473261205386144" lon="10.080662680425576"><ele>720.0</ele><time>2026-04-07T09:39:43Z</time></trkpt><trkpt lat="44.47316811178003" lon="10.080715196869374"><ele>720.0</ele><time>2026-04-07T09:39:45Z</time></trkpt><trkpt lat="44.47305126856998" lon="10.0807550733844"><ele>720.0</ele><time>2026-04-07T09:39:47Z</time></trkpt><trkpt lat="44.472988427912" lon="10.08078484628404"><ele>720.0</ele><time>2026-04-07T09:39:48Z</time></trkpt><trkpt lat="44.47291194605274" lon="10.080822703314915"><ele>720.0</ele><time>2026-04-07T09:39:49Z</time></trkpt><trkpt lat="44.472842519572346" lon="10.080846160687605"><ele>720.0</ele><time>2026-04-07T09:39:50Z</time></trkpt><trkpt lat="44.47277152160217" lon="10.08086200741447"><ele>720.0</ele><time>2026-04-07T09:39:51Z</time></trkpt><trkpt lat="44.4726989303999" lon="10.080881100009174"><ele>720.8333333333334</ele><time>2026-04-07T09:39:52Z</time></trkpt><trkpt lat="44.47262530611483" lon="10.080906233690296"><ele>721.6666666666666</ele><time>2026-04-07T09:39:53Z</time></trkpt><trkpt lat="44.472557794854325" lon="10.08096150596363"><ele>722.5</ele><time>2026-04-07T09:39:54Z</time></trkpt><trkpt lat="44.472488963256296" lon="10.081022810438007"><ele>723.3333333333333</ele><time>2026-04-07T09:39:55Z</time></trkpt><trkpt lat="44.472406346683975" lon="10.081096776236402"><ele>724.1666666666666</ele><time>2026-04-07T09:39:56Z</time></trkpt><trkpt lat="44.47231933802921" lon="10.081155746332184"><ele>725.0</ele><time>2026-04-07T09:39:57Z</time></trkpt><trkpt lat="44.47223106753989" lon="10.08120234193268"><ele>725.0</ele><time>2026-04-07T09:39:58Z</time></trkpt><trkpt lat="44.47213336060048" lon="10.081252178523899"><ele>725.0</ele><time>2026-04-07T09:39:59Z</time></trkpt><trkpt lat="44.47201840256235" lon="10.081300681405544"><ele>725.0</ele><time>2026-04-07T09:40:00Z</time></trkpt><trkpt lat="44.4718995012603" lon="10.081354188368753"><ele>725.0</ele><time>2026-04-07T09:40:01Z</time></trkpt><trkpt lat="44.47178092933045" lon="10.081390882050675"><ele>727.6</ele><time>2026-04-07T09:40:02Z</time></trkpt><trkpt lat="44.47167145718749" lon="10.0814135798758"><ele>730.2</ele><time>2026-04-07T09:40:03Z</time></trkpt><trkpt lat="44.47157043867517" lon="10.081427775784737"><ele>732.8</ele><time>2026-04-07T09:40:04Z</time></trkpt><trkpt lat="44.47148389034829" lon="10.081442793605492"><ele>735.4</ele><time>2026-04-07T09:40:05Z</time></trkpt><trkpt lat="44.471405373563634" lon="10.081460556051363"><ele>738.0</ele><time>2026-04-07T09:40:06Z</time></trkpt><trkpt lat="44.47132817289021" lon="10.081480370106664"><ele>739.8333333333334</ele><time>2026-04-07T09:40:07Z</time></trkpt><trkpt lat="44.47124739752549" lon="10.08149656097263"><ele>741.6666666666666</ele><time>2026-04-07T09:40:08Z</time></trkpt><trkpt lat="44.47116214885696" lon="10.081506491734036"><ele>743.5</ele><time>2026-04-07T09:40:09Z</time></trkpt><trkpt lat="44.4710700702272" lon="10.081516455929412"><ele>745.3333333333333</ele><time>2026-04-07T09:40:10Z</time></trkpt><trkpt lat="44.47098407049315" lon="10.081525363509316"><ele>747.1666666666666</ele><time>2026-04-07T09:40:11Z</time></trkpt><trkpt lat="44.47090169701309" lon="10.081541168967924"><ele>749.0</ele><time>2026-04-07T09:40:12Z</time></trkpt><trkpt lat="44.47082309868886" lon="10.081555728485998"><ele>749.0</ele><time>2026-04-07T09:40:13Z</time></trkpt><trkpt lat="44.47075832884126" lon="10.081565306685336"><ele>749.0</ele><time>2026-04-07T09:40:14Z</time></trkpt><trkpt lat="44.47062696137216" lon="10.081560554949368"><ele>749.0</ele><time>2026-04-07T09:40:16Z</time></trkpt><trkpt lat="44.47051471855566" lon="10.08148761695564"><ele>749.0</ele><time>2026-04-07T09:40:18Z</time></trkpt><trkpt lat="44.47045168694562" lon="10.081413451008423"><ele>749.0</ele><time>2026-04-07T09:40:19Z</time></trkpt><trkpt lat="44.47038987822217" lon="10.081334912995416"><ele>749.3333333333333</ele><time>2026-04-07T09:40:20Z</time></trkpt><trkpt lat="44.470327322526195" lon="10.081255892239124"><ele>749.6666666666666</ele><time>2026-04-07T09:40:21Z</time></trkpt><trkpt lat="44.47026869843044" lon="10.0811777304985"><ele>750.0</ele><time>2026-04-07T09:40:22Z</time></trkpt><trkpt lat="44.47021436294445" lon="10.081099157293178"><ele>750.3333333333334</ele><time>2026-04-07T09:40:23Z</time></trkpt><trkpt lat="44.470163393547466" lon="10.081037044344928"><ele>750.6666666666667</ele><time>2026-04-07T09:40:24Z</time></trkpt><trkpt lat="44.47010747455826" lon="10.080993231324344"><ele>751.0</ele><time>2026-04-07T09:40:25Z</time></trkpt><trkpt lat="44.47000748890728" lon="10.080967870916432"><ele>751.0</ele><time>2026-04-07T09:40:27Z</time></trkpt><trkpt lat="44.469941612658246" lon="10.080999275020671"><ele>751.0</ele><time>2026-04-07T09:40:29Z</time></trkpt><trkpt lat="44.46987987742012" lon="10.081025353083486"><ele>751.0</ele><time>2026-04-07T09:40:31Z</time></trkpt><trkpt lat="44.46981079171042" lon="10.080945829912041"><ele>751.0</ele><time>2026-04-07T09:40:34Z</time></trkpt><trkpt lat="44.46972128348561" lon="10.08097912728821"><ele>751.0</ele><time>2026-04-07T09:40:37Z</time></trkpt><trkpt lat="44.46966791117897" lon="10.081070208441941"><ele>751.0</ele><time>2026-04-07T09:40:39Z</time></trkpt><trkpt lat="44.469581531217365" lon="10.081144529453832"><ele>751.5</ele><time>2026-04-07T09:40:41Z</time></trkpt><trkpt lat="44.46948400570767" lon="10.08117778555917"><ele>752.0</ele><time>2026-04-07T09:40:43Z</time></trkpt><trkpt lat="44.469398754948074" lon="10.0812462258579"><ele>752.5</ele><time>2026-04-07T09:40:45Z</time></trkpt><trkpt lat="44.46932752881498" lon="10.081253418659498"><ele>753.0</ele><time>2026-04-07T09:40:46Z</time></trkpt><trkpt lat="44.469258818931955" lon="10.081234962915884"><ele>753.5</ele><time>2026-04-07T09:40:47Z</time></trkpt><trkpt lat="44.46920344219571" lon="10.081190461596053"><ele>754.0</ele><time>2026-04-07T09:40:48Z</time></trkpt><trkpt lat="44.46912492378667" lon="10.081067837403047"><ele>754.0</ele><time>2026-04-07T09:40:50Z</time></trkpt><trkpt lat="44.46916117066547" lon="10.080861319953774"><ele>754.0</ele><time>2026-04-07T09:40:52Z</time></trkpt><trkpt lat="44.46920827170353" lon="10.080722956429803"><ele>754.0</ele><time>2026-04-07T09:40:53Z</time></trkpt><trkpt lat="44.46926205655471" lon="10.080554248550778"><ele>754.0</ele><time>2026-04-07T09:40:54Z</time></trkpt><trkpt lat="44.46931836481677" lon="10.080355709898587"><ele>754.0</ele><time>2026-04-07T09:40:55Z</time></trkpt><trkpt lat="44.469369380175245" lon="10.080139707416013"><ele>754.0</ele><time>2026-04-07T09:40:56Z</time></trkpt><trkpt lat="44.46942400071461" lon="10.07994676558571"><ele>754.0</ele><time>2026-04-07T09:40:57Z</time></trkpt><trkpt lat="44.469482757461314" lon="10.07979503860138"><ele>754.0</ele><time>2026-04-07T09:40:58Z</time></trkpt><trkpt lat="44.46953501142798" lon="10.079647427461252"><ele>754.6</ele><time>2026-04-07T09:40:59Z</time></trkpt><trkpt lat="44.46958750058538" lon="10.079515533571433"><ele>755.2</ele><time>2026-04-07T09:41:00Z</time></trkpt><trkpt lat="44.46964017890736" lon="10.079377457536493"><ele>755.8000000000001</ele><time>2026-04-07T09:41:01Z</time></trkpt><trkpt lat="44.469695455074" lon="10.079237486000917"><ele>756.4000000000001</ele><time>2026-04-07T09:41:02Z</time></trkpt><trkpt lat="44.46974814172258" lon="10.079108675766257"><ele>757.0</ele><time>2026-04-07T09:41:03Z</time></trkpt><trkpt lat="44.46980630387349" lon="10.07898980175678"><ele>757.75</ele><time>2026-04-07T09:41:04Z</time></trkpt><trkpt lat="44.469874296003645" lon="10.078862902018882"><ele>758.5</ele><time>2026-04-07T09:41:05Z</time></trkpt><trkpt lat="44.46995157350152" lon="10.078742889929151"><ele>759.25</ele><time>2026-04-07T09:41:06Z</time></trkpt><trkpt lat="44.4700350840389" lon="10.078612851619958"><ele>760.0</ele><time>2026-04-07T09:41:07Z</time></trkpt><trkpt lat="44.470116183961835" lon="10.078489409573123"><ele>760.0</ele><time>2026-04-07T09:41:08Z</time></trkpt><trkpt lat="44.47020581140763" lon="10.07836633671261"><ele>760.0</ele><time>2026-04-07T09:41:09Z</time></trkpt><trkpt lat="44.47030025221827" lon="10.078255051992558"><ele>760.0</ele><time>2026-04-07T09:41:10Z</time></trkpt><trkpt lat="44.47040375866509" lon="10.078149387067224"><ele>760.0</ele><time>2026-04-07T09:41:11Z</time></trkpt><trkpt lat="44.47051400106116" lon="10.078044136688165"><ele>759.25</ele><time>2026-04-07T09:41:12Z</time></trkpt><trkpt lat="44.47063072358614" lon="10.077938184279919"><ele>758.5</ele><time>2026-04-07T09:41:13Z</time></trkpt><trkpt lat="44.47074313102382" lon="10.077836625839998"><ele>757.75</ele><time>2026-04-07T09:41:14Z</time></trkpt><trkpt lat="44.47084368098354" lon="10.077747858405393"><ele>757.0</ele><time>2026-04-07T09:41:15Z</time></trkpt><trkpt lat="44.47094290265661" lon="10.077657741816811"><ele>757.0</ele><time>2026-04-07T09:41:16Z</time></trkpt><trkpt lat="44.47103612274654" lon="10.077565488352047"><ele>757.0</ele><time>2026-04-07T09:41:17Z</time></trkpt><trkpt lat="44.471122141033504" lon="10.077455172031938"><ele>757.0</ele><time>2026-04-07T09:41:18Z</time></trkpt><trkpt lat="44.47119666208591" lon="10.07732112746773"><ele>757.0</ele><time>2026-04-07T09:41:19Z</time></trkpt><trkpt lat="44.47124921203959" lon="10.077175466914984"><ele>756.0</ele><time>2026-04-07T09:41:20Z</time></trkpt><trkpt lat="44.471287159390855" lon="10.077022060958512"><ele>755.0</ele><time>2026-04-07T09:41:21Z</time></trkpt><trkpt lat="44.471313094589355" lon="10.076858254182179"><ele>754.0</ele><time>2026-04-07T09:41:22Z</time></trkpt><trkpt lat="44.47134534338576" lon="10.076673831229755"><ele>753.0</ele><time>2026-04-07T09:41:23Z</time></trkpt><trkpt lat="44.47137985785214" lon="10.076491976547555"><ele>753.0</ele><time>2026-04-07T09:41:24Z</time></trkpt><trkpt lat="44.471420603289054" lon="10.076329526912655"><ele>753.0</ele><time>2026-04-07T09:41:25Z</time></trkpt><trkpt lat="44.471471943836285" lon="10.076148815501616"><ele>753.0</ele><time>2026-04-07T09:41:26Z</time></trkpt><trkpt lat="44.471532642401584" lon="10.07598010890963"><ele>753.0</ele><time>2026-04-07T09:41:27Z</time></trkpt><trkpt lat="44.47160880756878" lon="10.075817435884495"><ele>754.75</ele><time>2026-04-07T09:41:28Z</time></trkpt><trkpt lat="44.47168570261836" lon="10.075673360717632"><ele>756.5</ele><time>2026-04-07T09:41:29Z</time></trkpt><trkpt lat="44.47175663713122" lon="10.075534614464981"><ele>758.25</ele><time>2026-04-07T09:41:30Z</time></trkpt><trkpt lat="44.471826599003066" lon="10.075391018067394"><ele>760.0</ele><time>2026-04-07T09:41:31Z</time></trkpt><trkpt lat="44.471886128612375" lon="10.075252875246576"><ele>760.0</ele><time>2026-04-07T09:41:32Z</time></trkpt><trkpt lat="44.47192384420611" lon="10.07511609648998"><ele>760.0</ele><time>2026-04-07T09:41:33Z</time></trkpt><trkpt lat="44.471935901859524" lon="10.07497112302942"><ele>760.0</ele><time>2026-04-07T09:41:34Z</time></trkpt><trkpt lat="44.47191438146227" lon="10.074830171760597"><ele>760.0</ele><time>2026-04-07T09:41:35Z</time></trkpt><trkpt lat="44.47187290828109" lon="10.074685883378574"><ele>760.0</ele><time>2026-04-07T09:41:36Z</time></trkpt><trkpt lat="44.47186217796336" lon="10.074540866340909"><ele>760.8</ele><time>2026-04-07T09:41:37Z</time></trkpt><trkpt lat="44.47185041605253" lon="10.074400974705926"><ele>761.6</ele><time>2026-04-07T09:41:38Z</time></trkpt><trkpt lat="44.471912534725476" lon="10.074267590909571"><ele>762.4000000000001</ele><time>2026-04-07T09:41:39Z</time></trkpt><trkpt lat="44.47198819460456" lon="10.074166908137672"><ele>763.2</ele><time>2026-04-07T09:41:40Z</time></trkpt><trkpt lat="44.47207583045824" lon="10.074044840231247"><ele>764.0</ele><time>2026-04-07T09:41:40.999Z</time></trkpt><trkpt lat="44.47217916124037" lon="10.073896061212757"><ele>764.0</ele><time>2026-04-07T09:41:41.999Z</time></trkpt><trkpt lat="44.47229756381756" lon="10.073762299988617"><ele>764.0</ele><time>2026-04-07T09:41:42.999Z</time></trkpt><trkpt lat="44.472425241863576" lon="10.073644921641229"><ele>764.0</ele><time>2026-04-07T09:41:43.999Z</time></trkpt><trkpt lat="44.4725617075702" lon="10.073562902597763"><ele>764.0</ele><time>2026-04-07T09:41:44.999Z</time></trkpt><trkpt lat="44.47269001628864" lon="10.073498163214857"><ele>764.0</ele><time>2026-04-07T09:41:45.999Z</time></trkpt><trkpt lat="44.472806598582196" lon="10.073434677542656"><ele>764.0</ele><time>2026-04-07T09:41:46.999Z</time></trkpt><trkpt lat="44.472913975428305" lon="10.073362601389267"><ele>764.0</ele><time>2026-04-07T09:41:47.999Z</time></trkpt><trkpt lat="44.4730168887483" lon="10.073295824324985"><ele>764.4000000000001</ele><time>2026-04-07T09:41:48.999Z</time></trkpt><trkpt lat="44.47310727888117" lon="10.073238494785208"><ele>764.8</ele><time>2026-04-07T09:41:49.999Z</time></trkpt><trkpt lat="44.47320291009915" lon="10.073174297707881"><ele>765.2</ele><time>2026-04-07T09:41:50.999Z</time></trkpt><trkpt lat="44.47330658753218" lon="10.073108304456353"><ele>765.5999999999999</ele><time>2026-04-07T09:41:51.999Z</time></trkpt><trkpt lat="44.47339465880133" lon="10.073049262955921"><ele>766.0</ele><time>2026-04-07T09:41:52.999Z</time></trkpt><trkpt lat="44.47346553129353" lon="10.072983359195016"><ele>766.0</ele><time>2026-04-07T09:41:53.999Z</time></trkpt><trkpt lat="44.47352038815365" lon="10.07288927791787"><ele>766.0</ele><time>2026-04-07T09:41:55Z</time></trkpt><trkpt lat="44.47355168948338" lon="10.072786901296027"><ele>766.0</ele><time>2026-04-07T09:41:56Z</time></trkpt><trkpt lat="44.473559462730954" lon="10.072690396370106"><ele>766.0</ele><time>2026-04-07T09:41:57Z</time></trkpt><trkpt lat="44.473583152890306" lon="10.07253067701105"><ele>766.0</ele><time>2026-04-07T09:41:59Z</time></trkpt><trkpt lat="44.473651188088965" lon="10.072495085841359"><ele>766.0</ele><time>2026-04-07T09:42:00Z</time></trkpt><trkpt lat="44.473706762547394" lon="10.072411933110736"><ele>766.5999999999999</ele><time>2026-04-07T09:42:01Z</time></trkpt><trkpt lat="44.47376647828661" lon="10.072315657487218"><ele>767.2</ele><time>2026-04-07T09:42:02Z</time></trkpt><trkpt lat="44.47382396566019" lon="10.072212503180735"><ele>767.8</ele><time>2026-04-07T09:42:03Z</time></trkpt><trkpt lat="44.47387005607112" lon="10.072110518014512"><ele>768.4000000000001</ele><time>2026-04-07T09:42:04Z</time></trkpt><trkpt lat="44.47390871635123" lon="10.072013326828838"><ele>769.0</ele><time>2026-04-07T09:42:05Z</time></trkpt><trkpt lat="44.47393276137474" lon="10.071869216759024"><ele>766.6666666666666</ele><time>2026-04-07T09:42:07Z</time></trkpt><trkpt lat="44.47398070391454" lon="10.071769230157495"><ele>764.3333333333333</ele><time>2026-04-07T09:42:09Z</time></trkpt><trkpt lat="44.47405093372916" lon="10.071674960410986"><ele>762.0</ele><time>2026-04-07T09:42:12Z</time></trkpt><trkpt lat="44.474092804805835" lon="10.071591011532691"><ele>759.6666666666666</ele><time>2026-04-07T09:42:14Z</time></trkpt><trkpt lat="44.47413994576567" lon="10.071496496894008"><ele>757.3333333333333</ele><time>2026-04-07T09:42:16Z</time></trkpt><trkpt lat="44.474190876004506" lon="10.071394385236125"><ele>755.0</ele><time>2026-04-07T09:42:18Z</time></trkpt><trkpt lat="44.47403519037137" lon="10.071148233360704"><ele>753.75</ele><time>2026-04-07T09:42:19Z</time></trkpt><trkpt lat="44.4740170052839" lon="10.070969187776528"><ele>752.5</ele><time>2026-04-07T09:42:21Z</time></trkpt><trkpt lat="44.47402172886544" lon="10.070870150575498"><ele>751.25</ele><time>2026-04-07T09:42:22Z</time></trkpt><trkpt lat="44.47382534396356" lon="10.070684089997098"><ele>750.0</ele><time>2026-04-07T09:42:23Z</time></trkpt><trkpt lat="44.47385872068059" lon="10.070515737665993"><ele>749.1428571428572</ele><time>2026-04-07T09:42:25Z</time></trkpt><trkpt lat="44.47385953186664" lon="10.070422596825708"><ele>748.2857142857142</ele><time>2026-04-07T09:42:28Z</time></trkpt><trkpt lat="44.47384527847173" lon="10.070326703504884"><ele>747.4285714285714</ele><time>2026-04-07T09:42:32Z</time></trkpt><trkpt lat="44.47381457421737" lon="10.07023781060029"><ele>746.5714285714287</ele><time>2026-04-07T09:42:35Z</time></trkpt><trkpt lat="44.47377068382692" lon="10.070147284459853"><ele>745.7142857142858</ele><time>2026-04-07T09:42:36Z</time></trkpt><trkpt lat="44.47371759006151" lon="10.070074913935974"><ele>744.8571428571429</ele><time>2026-04-07T09:42:38Z</time></trkpt><trkpt lat="44.47366591355265" lon="10.06999115411495"><ele>744.0</ele><time>2026-04-07T09:42:41Z</time></trkpt><trkpt lat="44.47359408496443" lon="10.069944083917715"><ele>744.5</ele><time>2026-04-07T09:42:45Z</time></trkpt><trkpt lat="44.47352127061509" lon="10.069853887430895"><ele>745.0</ele><time>2026-04-07T09:42:47Z</time></trkpt><trkpt lat="44.473439054916426" lon="10.069745533007206"><ele>745.5</ele><time>2026-04-07T09:42:49Z</time></trkpt><trkpt lat="44.47336432156546" lon="10.06963833377003"><ele>746.0</ele><time>2026-04-07T09:42:50Z</time></trkpt><trkpt lat="44.47332228010261" lon="10.069567678844184"><ele>746.5</ele><time>2026-04-07T09:42:51Z</time></trkpt><trkpt lat="44.47328185200843" lon="10.069493440398452"><ele>747.0</ele><time>2026-04-07T09:42:52Z</time></trkpt><trkpt lat="44.47369702896138" lon="10.069061032050206"><ele>747.0</ele><time>2026-04-07T09:42:53Z</time></trkpt><trkpt lat="44.47368971300049" lon="10.068962041568051"><ele>747.0</ele><time>2026-04-07T09:42:55Z</time></trkpt><trkpt lat="44.47318399283961" lon="10.069273092638893"><ele>747.0</ele><time>2026-04-07T09:42:56Z</time></trkpt><trkpt lat="44.47371103973425" lon="10.068642337502745"><ele>747.0</ele><time>2026-04-07T09:43:02Z</time></trkpt><trkpt lat="44.47374686320516" lon="10.068543789022032"><ele>747.0</ele><time>2026-04-07T09:43:04Z</time></trkpt><trkpt lat="44.47373530957327" lon="10.068437829757876"><ele>747.0</ele><time>2026-04-07T09:43:07Z</time></trkpt><trkpt lat="44.47368662484067" lon="10.068339261616892"><ele>747.0</ele><time>2026-04-07T09:43:09Z</time></trkpt><trkpt lat="44.47366437381035" lon="10.068179850288875"><ele>747.0</ele><time>2026-04-07T09:43:11Z</time></trkpt><trkpt lat="44.4736550306187" lon="10.068086846421538"><ele>747.0</ele><time>2026-04-07T09:43:12Z</time></trkpt><trkpt lat="44.473641310907986" lon="10.068000435705242"><ele>745.6</ele><time>2026-04-07T09:43:13Z</time></trkpt><trkpt lat="44.473650587147006" lon="10.067909517997023"><ele>744.2</ele><time>2026-04-07T09:43:14Z</time></trkpt><trkpt lat="44.47370582559301" lon="10.067792173405575"><ele>742.8</ele><time>2026-04-07T09:43:16Z</time></trkpt><trkpt lat="44.47377465666955" lon="10.067673899121866"><ele>741.4</ele><time>2026-04-07T09:43:18Z</time></trkpt><trkpt lat="44.473846280151484" lon="10.067561063863618"><ele>740.0</ele><time>2026-04-07T09:43:20Z</time></trkpt><trkpt lat="44.47389244481177" lon="10.067446088701496"><ele>734.2</ele><time>2026-04-07T09:43:23Z</time></trkpt><trkpt lat="44.473927962430984" lon="10.067319380515798"><ele>728.4</ele><time>2026-04-07T09:43:25Z</time></trkpt><trkpt lat="44.47393575812858" lon="10.067202505293587"><ele>722.5999999999999</ele><time>2026-04-07T09:43:26Z</time></trkpt><trkpt lat="44.473937229561585" lon="10.06703222677408"><ele>716.8</ele><time>2026-04-07T09:43:28Z</time></trkpt><trkpt lat="44.4739148852268" lon="10.066863672334806"><ele>711.0</ele><time>2026-04-07T09:43:30Z</time></trkpt><trkpt lat="44.473910538293985" lon="10.066708748026375"><ele>710.8</ele><time>2026-04-07T09:43:32Z</time></trkpt><trkpt lat="44.47387488584806" lon="10.066568311123502"><ele>710.5999999999999</ele><time>2026-04-07T09:43:34Z</time></trkpt><trkpt lat="44.473806374590914" lon="10.066420624427982"><ele>710.4</ele><time>2026-04-07T09:43:36Z</time></trkpt><trkpt lat="44.47375747419291" lon="10.066363015282958"><ele>710.2</ele><time>2026-04-07T09:43:37Z</time></trkpt><trkpt lat="44.47369907090495" lon="10.066256655740393"><ele>710.0</ele><time>2026-04-07T09:43:39Z</time></trkpt><trkpt lat="44.473682379570164" lon="10.06615926367485"><ele>710.0</ele><time>2026-04-07T09:43:41Z</time></trkpt><trkpt lat="44.47372730301081" lon="10.066038245165997"><ele>710.0</ele><time>2026-04-07T09:43:43Z</time></trkpt><trkpt lat="44.47378854986061" lon="10.06594435827291"><ele>710.0</ele><time>2026-04-07T09:43:45Z</time></trkpt><trkpt lat="44.47382218900984" lon="10.0658229971174"><ele>710.0</ele><time>2026-04-07T09:43:47Z</time></trkpt><trkpt lat="44.47383112298371" lon="10.065707366505576"><ele>710.0</ele><time>2026-04-07T09:43:49Z</time></trkpt><trkpt lat="44.47383511625308" lon="10.065581115321802"><ele>711.1666666666666</ele><time>2026-04-07T09:43:50.999Z</time></trkpt><trkpt lat="44.4738777771827" lon="10.065453245172392"><ele>712.3333333333333</ele><time>2026-04-07T09:43:52.999Z</time></trkpt><trkpt lat="44.473925085052954" lon="10.065364852819107"><ele>713.5</ele><time>2026-04-07T09:43:54.999Z</time></trkpt><trkpt lat="44.47399739937428" lon="10.065347719922435"><ele>714.6666666666666</ele><time>2026-04-07T09:43:57.999Z</time></trkpt><trkpt lat="44.474046426862934" lon="10.06527075358856"><ele>715.8333333333334</ele><time>2026-04-07T09:43:59.999Z</time></trkpt><trkpt lat="44.474056560824486" lon="10.065100869595998"><ele>717.0</ele><time>2026-04-07T09:44:02Z</time></trkpt><trkpt lat="44.47408609693993" lon="10.064986032098718"><ele>718.4000000000001</ele><time>2026-04-07T09:44:03Z</time></trkpt><trkpt lat="44.47414011562924" lon="10.064856673266002"><ele>719.8000000000001</ele><time>2026-04-07T09:44:05Z</time></trkpt><trkpt lat="44.47414959686165" lon="10.06470338064534"><ele>721.2</ele><time>2026-04-07T09:44:07Z</time></trkpt><trkpt lat="44.47413583340801" lon="10.064538510613032"><ele>722.6</ele><time>2026-04-07T09:44:09Z</time></trkpt><trkpt lat="44.474092046970334" lon="10.064406530611372"><ele>724.0</ele><time>2026-04-07T09:44:11Z</time></trkpt><trkpt lat="44.474104505472226" lon="10.064254260664194"><ele>722.6</ele><time>2026-04-07T09:44:13Z</time></trkpt><trkpt lat="44.47410843086691" lon="10.064085793593565"><ele>721.2</ele><time>2026-04-07T09:44:15Z</time></trkpt><trkpt lat="44.47412016242582" lon="10.06396745505739"><ele>719.8000000000001</ele><time>2026-04-07T09:44:16Z</time></trkpt><trkpt lat="44.4741263433724" lon="10.063874569320975"><ele>718.4000000000001</ele><time>2026-04-07T09:44:17Z</time></trkpt><trkpt lat="44.47413427786856" lon="10.063709089171423"><ele>717.0</ele><time>2026-04-07T09:44:19Z</time></trkpt><trkpt lat="44.47415266666648" lon="10.063624632640796"><ele>717.0</ele><time>2026-04-07T09:44:20Z</time></trkpt><trkpt lat="44.474186122559686" lon="10.06349850243114"><ele>717.0</ele><time>2026-04-07T09:44:22Z</time></trkpt><trkpt lat="44.474209456670735" lon="10.06339285755036"><ele>717.0</ele><time>2026-04-07T09:44:29Z</time></trkpt><trkpt lat="44.47425128342155" lon="10.063319709252488"><ele>717.0</ele><time>2026-04-07T09:44:32Z</time></trkpt><trkpt lat="44.47425985858142" lon="10.063224758813673"><ele>717.0</ele><time>2026-04-07T09:44:34Z</time></trkpt><trkpt lat="44.47428960630988" lon="10.06312779475674"><ele>717.0</ele><time>2026-04-07T09:44:36Z</time></trkpt><trkpt lat="44.47434437975835" lon="10.06304264095455"><ele>715.0</ele><time>2026-04-07T09:44:38Z</time></trkpt><trkpt lat="44.474379751990035" lon="10.062944658812805"><ele>713.0</ele><time>2026-04-07T09:44:40Z</time></trkpt><trkpt lat="44.47442824846955" lon="10.06286697563416"><ele>711.0</ele><time>2026-04-07T09:44:42Z</time></trkpt><trkpt lat="44.47445501902518" lon="10.062744650477605"><ele>709.0</ele><time>2026-04-07T09:44:44Z</time></trkpt><trkpt lat="44.47447045492012" lon="10.062619332746669"><ele>707.0</ele><time>2026-04-07T09:44:46Z</time></trkpt><trkpt lat="44.47447451349469" lon="10.062515601217711"><ele>705.0</ele><time>2026-04-07T09:44:48Z</time></trkpt><trkpt lat="44.4744714217477" lon="10.062406629493571"><ele>703.9999999999999</ele><time>2026-04-07T09:44:50Z</time></trkpt><trkpt lat="44.474475000997785" lon="10.062302022138827"><ele>703.0</ele><time>2026-04-07T09:44:52Z</time></trkpt><trkpt lat="44.47448921968312" lon="10.062201193243416"><ele>702.0</ele><time>2026-04-07T09:44:54Z</time></trkpt><trkpt lat="44.474513360621636" lon="10.062071974691511"><ele>701.0</ele><time>2026-04-07T09:44:57Z</time></trkpt><trkpt lat="44.47449974121708" lon="10.061976938328248"><ele>700.0</ele><time>2026-04-07T09:44:59Z</time></trkpt><trkpt lat="44.47450689830794" lon="10.06187995210231"><ele>698.9999999999999</ele><time>2026-04-07T09:45:01Z</time></trkpt><trkpt lat="44.47450984524624" lon="10.061788134652108"><ele>698.0</ele><time>2026-04-07T09:45:03Z</time></trkpt><trkpt lat="44.47451293755751" lon="10.06162930730708"><ele>696.2</ele><time>2026-04-07T09:45:05Z</time></trkpt><trkpt lat="44.474502779075216" lon="10.061465778855457"><ele>694.4</ele><time>2026-04-07T09:45:07Z</time></trkpt><trkpt lat="44.47450617069815" lon="10.06133288233599"><ele>692.6</ele><time>2026-04-07T09:45:09Z</time></trkpt><trkpt lat="44.47446974876445" lon="10.061203377509317"><ele>690.8000000000001</ele><time>2026-04-07T09:45:12Z</time></trkpt><trkpt lat="44.4744148798093" lon="10.061130825751107"><ele>689.0</ele><time>2026-04-07T09:45:14Z</time></trkpt><trkpt lat="44.47433392598913" lon="10.061032694801009"><ele>689.0</ele><time>2026-04-07T09:45:17Z</time></trkpt><trkpt lat="44.47427742277823" lon="10.060955636864206"><ele>689.0</ele><time>2026-04-07T09:45:19Z</time></trkpt><trkpt lat="44.47421609350297" lon="10.06092767078006"><ele>689.0</ele><time>2026-04-07T09:45:26Z</time></trkpt><trkpt lat="44.474182393362035" lon="10.061056900103669"><ele>689.0</ele><time>2026-04-07T09:45:29Z</time></trkpt><trkpt lat="44.47413749382304" lon="10.061183911390229"><ele>689.0</ele><time>2026-04-07T09:45:31Z</time></trkpt><trkpt lat="44.47410522072828" lon="10.061265912861845"><ele>689.0</ele><time>2026-04-07T09:45:32Z</time></trkpt><trkpt lat="44.474049449010565" lon="10.061316012054036"><ele>689.0</ele><time>2026-04-07T09:45:33Z</time></trkpt><trkpt lat="44.473960545831446" lon="10.061342022738328"><ele>689.0</ele><time>2026-04-07T09:45:35Z</time></trkpt><trkpt lat="44.473872224546696" lon="10.061340775856664"><ele>689.0</ele><time>2026-04-07T09:45:37Z</time></trkpt><trkpt lat="44.473790155715434" lon="10.061341977146212"><ele>689.0</ele><time>2026-04-07T09:45:39Z</time></trkpt><trkpt lat="44.47370468951748" lon="10.061394348205999"><ele>689.0</ele><time>2026-04-07T09:45:41Z</time></trkpt><trkpt lat="44.473647763468854" lon="10.061460254906178"><ele>689.0</ele><time>2026-04-07T09:45:44Z</time></trkpt><trkpt lat="44.47357017737347" lon="10.061624706555316"><ele>692.6</ele><time>2026-04-07T09:45:45Z</time></trkpt><trkpt lat="44.473532102343974" lon="10.061776446321778"><ele>696.2</ele><time>2026-04-07T09:45:46.999Z</time></trkpt><trkpt lat="44.4734905045746" lon="10.061887237965975"><ele>699.8000000000001</ele><time>2026-04-07T09:45:48.999Z</time></trkpt><trkpt lat="44.47346117414438" lon="10.062018955566458"><ele>703.4000000000001</ele><time>2026-04-07T09:45:50.999Z</time></trkpt><trkpt lat="44.47340384123281" lon="10.062143450361503"><ele>707.0</ele><time>2026-04-07T09:45:53.999Z</time></trkpt><trkpt lat="44.47336727536423" lon="10.062259669730908"><ele>707.0</ele><time>2026-04-07T09:45:55.999Z</time></trkpt><trkpt lat="44.473337331028766" lon="10.062382866375605"><ele>707.0</ele><time>2026-04-07T09:45:58.999Z</time></trkpt><trkpt lat="44.47332910993797" lon="10.06252361618459"><ele>707.0</ele><time>2026-04-07T09:46:00.999Z</time></trkpt><trkpt lat="44.47333145553067" lon="10.062628395908273"><ele>707.0</ele><time>2026-04-07T09:46:02.999Z</time></trkpt><trkpt lat="44.47331748284911" lon="10.06274089468839"><ele>707.0</ele><time>2026-04-07T09:46:05.999Z</time></trkpt><trkpt lat="44.473250826907076" lon="10.062792839682539"><ele>707.0</ele><time>2026-04-07T09:46:09Z</time></trkpt><trkpt lat="44.47319673433613" lon="10.062906003722604"><ele>709.0</ele><time>2026-04-07T09:46:11Z</time></trkpt><trkpt lat="44.47314095470979" lon="10.063014478875687"><ele>711.0</ele><time>2026-04-07T09:46:13Z</time></trkpt><trkpt lat="44.473085465181455" lon="10.063154515944165"><ele>713.0</ele><time>2026-04-07T09:46:15Z</time></trkpt><trkpt lat="44.47305944111179" lon="10.063302496054456"><ele>715.0</ele><time>2026-04-07T09:46:17Z</time></trkpt><trkpt lat="44.473015324488884" lon="10.063388828760097"><ele>717.0</ele><time>2026-04-07T09:46:19Z</time></trkpt><trkpt lat="44.472954376711805" lon="10.063507661723182"><ele>717.8333333333334</ele><time>2026-04-07T09:46:21Z</time></trkpt><trkpt lat="44.47289487372864" lon="10.06361067918994"><ele>718.6666666666666</ele><time>2026-04-07T09:46:23Z</time></trkpt><trkpt lat="44.47287729222806" lon="10.06370551798797"><ele>719.5</ele><time>2026-04-07T09:46:25Z</time></trkpt><trkpt lat="44.472953333788624" lon="10.063596751858402"><ele>720.3333333333333</ele><time>2026-04-07T09:46:33Z</time></trkpt><trkpt lat="44.47300395230946" lon="10.06352520704775"><ele>721.1666666666666</ele><time>2026-04-07T09:46:35Z</time></trkpt><trkpt lat="44.47303661346072" lon="10.06342729432287"><ele>722.0</ele><time>2026-04-07T09:46:37Z</time></trkpt><trkpt lat="44.473080523544425" lon="10.063303134382185"><ele>721.0</ele><time>2026-04-07T09:46:40Z</time></trkpt><trkpt lat="44.47313924066289" lon="10.06313656935875"><ele>720.0</ele><time>2026-04-07T09:46:42Z</time></trkpt><trkpt lat="44.47316837452807" lon="10.063054161020537"><ele>719.0</ele><time>2026-04-07T09:46:43Z</time></trkpt><trkpt lat="44.47325476389576" lon="10.0629331352002"><ele>718.0</ele><time>2026-04-07T09:46:45Z</time></trkpt><trkpt lat="44.473300538477524" lon="10.062863623501066"><ele>717.0</ele><time>2026-04-07T09:46:46Z</time></trkpt><trkpt lat="44.473346663375565" lon="10.062706545773699"><ele>717.0</ele><time>2026-04-07T09:46:48Z</time></trkpt><trkpt lat="44.473349849732955" lon="10.062617962769803"><ele>717.0</ele><time>2026-04-07T09:46:49Z</time></trkpt><trkpt lat="44.473349128458395" lon="10.062471913389588"><ele>717.0</ele><time>2026-04-07T09:46:51Z</time></trkpt><trkpt lat="44.473377917719326" lon="10.06237292653279"><ele>717.0</ele><time>2026-04-07T09:46:53Z</time></trkpt><trkpt lat="44.47340815754046" lon="10.062243452801313"><ele>717.0</ele><time>2026-04-07T09:46:55Z</time></trkpt><trkpt lat="44.47344617028224" lon="10.062062955234266"><ele>715.3333333333334</ele><time>2026-04-07T09:46:57Z</time></trkpt><trkpt lat="44.473466133466516" lon="10.061963580578421"><ele>713.6666666666666</ele><time>2026-04-07T09:46:58Z</time></trkpt><trkpt lat="44.47348268272233" lon="10.061863710744946"><ele>712.0</ele><time>2026-04-07T09:46:59Z</time></trkpt><trkpt lat="44.47349536537831" lon="10.061775635644342"><ele>710.3333333333333</ele><time>2026-04-07T09:47:00Z</time></trkpt><trkpt lat="44.473514239050374" lon="10.061688824492"><ele>708.6666666666666</ele><time>2026-04-07T09:47:01Z</time></trkpt><trkpt lat="44.47353968881875" lon="10.061565989219762"><ele>707.0</ele><time>2026-04-07T09:47:03Z</time></trkpt><trkpt lat="44.47359849217549" lon="10.061452897276599"><ele>706.1666666666666</ele><time>2026-04-07T09:47:06Z</time></trkpt><trkpt lat="44.473646026584056" lon="10.061389037590464"><ele>705.3333333333333</ele><time>2026-04-07T09:47:10Z</time></trkpt><trkpt lat="44.47373446293247" lon="10.06136133915438"><ele>704.5</ele><time>2026-04-07T09:47:13Z</time></trkpt><trkpt lat="44.473834652855444" lon="10.061344880300956"><ele>703.6666666666666</ele><time>2026-04-07T09:47:15Z</time></trkpt><trkpt lat="44.47391184138764" lon="10.061317068623188"><ele>702.8333333333334</ele><time>2026-04-07T09:47:17Z</time></trkpt><trkpt lat="44.47395989496609" lon="10.061218549894635"><ele>702.0</ele><time>2026-04-07T09:47:20Z</time></trkpt><trkpt lat="44.473975222331084" lon="10.061118189304812"><ele>700.1428571428572</ele><time>2026-04-07T09:47:22Z</time></trkpt><trkpt lat="44.47399288930236" lon="10.06101938227676"><ele>698.2857142857143</ele><time>2026-04-07T09:47:24Z</time></trkpt><trkpt lat="44.47401408360592" lon="10.06093137329502"><ele>696.4285714285714</ele><time>2026-04-07T09:47:26Z</time></trkpt><trkpt lat="44.47403140148135" lon="10.060827889999358"><ele>694.5714285714287</ele><time>2026-04-07T09:47:29Z</time></trkpt><trkpt lat="44.47402851915117" lon="10.060721233326785"><ele>692.7142857142858</ele><time>2026-04-07T09:47:33Z</time></trkpt><trkpt lat="44.474040155325916" lon="10.0606143064458"><ele>690.8571428571429</ele><time>2026-04-07T09:47:36Z</time></trkpt><trkpt lat="44.474092750159805" lon="10.060554852364916"><ele>689.0</ele><time>2026-04-07T09:47:39.999Z</time></trkpt><trkpt lat="44.47415907001004" lon="10.060486461609774"><ele>688.8333333333333</ele><time>2026-04-07T09:47:42.999Z</time></trkpt><trkpt lat="44.47421844887437" lon="10.060405982209927"><ele>688.6666666666666</ele><time>2026-04-07T09:47:45.999Z</time></trkpt><trkpt lat="44.4742915115938" lon="10.060375668245744"><ele>688.5</ele><time>2026-04-07T09:47:48.999Z</time></trkpt><trkpt lat="44.47435108801339" lon="10.060324322911269"><ele>688.3333333333334</ele><time>2026-04-07T09:47:50.999Z</time></trkpt><trkpt lat="44.47442489635683" lon="10.060269434793266"><ele>688.1666666666667</ele><time>2026-04-07T09:47:54.999Z</time></trkpt><trkpt lat="44.474476759466874" lon="10.060191136834652"><ele>688.0</ele><time>2026-04-07T09:47:58.999Z</time></trkpt><trkpt lat="44.474409393213534" lon="10.0602191066444"><ele>688.0000000000001</ele><time>2026-04-07T09:48:05.999Z</time></trkpt><trkpt lat="44.474345891004646" lon="10.060275459146792"><ele>688.0</ele><time>2026-04-07T09:48:09.999Z</time></trkpt><trkpt lat="44.47427837343664" lon="10.060342213689603"><ele>688.0</ele><time>2026-04-07T09:48:11.999Z</time></trkpt><trkpt lat="44.474229001008005" lon="10.060411929177711"><ele>688.0</ele><time>2026-04-07T09:48:14Z</time></trkpt><trkpt lat="44.474179219697" lon="10.060481871817414"><ele>688.0</ele><time>2026-04-07T09:48:16Z</time></trkpt><trkpt lat="44.474115785543745" lon="10.060512887813912"><ele>688.0000000000001</ele><time>2026-04-07T09:48:18Z</time></trkpt><trkpt lat="44.4740481596462" lon="10.060558827085345"><ele>688.0</ele><time>2026-04-07T09:48:20Z</time></trkpt><trkpt lat="44.47399166435036" lon="10.060617749369854"><ele>688.0</ele><time>2026-04-07T09:48:23Z</time></trkpt><trkpt lat="44.47394371363213" lon="10.060702735722783"><ele>688.0</ele><time>2026-04-07T09:48:26Z</time></trkpt><trkpt lat="44.47397034616333" lon="10.060787073989152"><ele>688.0</ele><time>2026-04-07T09:48:28Z</time></trkpt><trkpt lat="44.474072477579014" lon="10.060808238795472"><ele>688.0</ele><time>2026-04-07T09:48:30Z</time></trkpt><trkpt lat="44.47415596152346" lon="10.060796136623335"><ele>688.0</ele><time>2026-04-07T09:48:31Z</time></trkpt><trkpt lat="44.47423813732742" lon="10.060775934819164"><ele>688.0</ele><time>2026-04-07T09:48:32Z</time></trkpt><trkpt lat="44.474310767678595" lon="10.0607688386523"><ele>688.0</ele><time>2026-04-07T09:48:33Z</time></trkpt><trkpt lat="44.474411605948404" lon="10.060760086771388"><ele>688.0</ele><time>2026-04-07T09:48:35Z</time></trkpt><trkpt lat="44.47449432291051" lon="10.06076369378492"><ele>688.0</ele><time>2026-04-07T09:48:37Z</time></trkpt><trkpt lat="44.4745586864978" lon="10.060759723917457"><ele>688.0</ele><time>2026-04-07T09:48:39Z</time></trkpt><trkpt lat="44.474664607065165" lon="10.060808169018866"><ele>688.0</ele><time>2026-04-07T09:48:43Z</time></trkpt><trkpt lat="44.474717816692525" lon="10.060856813848577"><ele>688.0</ele><time>2026-04-07T09:49:10Z</time></trkpt><trkpt lat="44.47466679402596" lon="10.060944320144092"><ele>688.1666666666667</ele><time>2026-04-07T09:49:13Z</time></trkpt><trkpt lat="44.4746004485971" lon="10.060974005834947"><ele>688.3333333333334</ele><time>2026-04-07T09:49:14Z</time></trkpt><trkpt lat="44.474519550630454" lon="10.0609348318399"><ele>688.5</ele><time>2026-04-07T09:49:16Z</time></trkpt><trkpt lat="44.474432678104705" lon="10.060908373003336"><ele>688.6666666666666</ele><time>2026-04-07T09:49:18Z</time></trkpt><trkpt lat="44.47436160706712" lon="10.06098212551452"><ele>688.8333333333333</ele><time>2026-04-07T09:49:20Z</time></trkpt><trkpt lat="44.47429062068493" lon="10.06110169136981"><ele>689.0</ele><time>2026-04-07T09:49:22Z</time></trkpt><trkpt lat="44.474208742286386" lon="10.06120358068475"><ele>689.0</ele><time>2026-04-07T09:49:24Z</time></trkpt><trkpt lat="44.47412809545069" lon="10.06125958694412"><ele>689.0</ele><time>2026-04-07T09:49:26Z</time></trkpt><trkpt lat="44.47405325608936" lon="10.061282818290401"><ele>689.0</ele><time>2026-04-07T09:49:28Z</time></trkpt><trkpt lat="44.47395916228934" lon="10.061331867560687"><ele>689.0</ele><time>2026-04-07T09:49:30Z</time></trkpt><trkpt lat="44.47386068019459" lon="10.061341197037066"><ele>689.0</ele><time>2026-04-07T09:49:32Z</time></trkpt><trkpt lat="44.47376333234636" lon="10.061354151645785"><ele>691.6</ele><time>2026-04-07T09:49:34Z</time></trkpt><trkpt lat="44.47367736203036" lon="10.061415164680183"><ele>694.2</ele><time>2026-04-07T09:49:36Z</time></trkpt><trkpt lat="44.473598513067124" lon="10.061543635149276"><ele>696.8000000000001</ele><time>2026-04-07T09:49:38Z</time></trkpt><trkpt lat="44.47354724559585" lon="10.061684575303492"><ele>699.4000000000001</ele><time>2026-04-07T09:49:40Z</time></trkpt><trkpt lat="44.47349966204759" lon="10.061816069578784"><ele>702.0</ele><time>2026-04-07T09:49:41.999Z</time></trkpt><trkpt lat="44.47346913236269" lon="10.061930166757808"><ele>702.8333333333334</ele><time>2026-04-07T09:49:43.999Z</time></trkpt><trkpt lat="44.473439547064274" lon="10.062036541482932"><ele>703.6666666666666</ele><time>2026-04-07T09:49:45.999Z</time></trkpt><trkpt lat="44.47341132997079" lon="10.062158941907358"><ele>704.5</ele><time>2026-04-07T09:49:47.999Z</time></trkpt><trkpt lat="44.473375785411115" lon="10.062289424885348"><ele>705.3333333333333</ele><time>2026-04-07T09:49:49.999Z</time></trkpt><trkpt lat="44.47334933336543" lon="10.062370473626935"><ele>706.1666666666666</ele><time>2026-04-07T09:49:53.999Z</time></trkpt><trkpt lat="44.47331749849871" lon="10.062479416836211"><ele>707.0</ele><time>2026-04-07T09:49:55.999Z</time></trkpt><trkpt lat="44.47330709082864" lon="10.062608848007875"><ele>709.0</ele><time>2026-04-07T09:49:57.999Z</time></trkpt><trkpt lat="44.473284147350164" lon="10.062724970039573"><ele>711.0</ele><time>2026-04-07T09:49:59.999Z</time></trkpt><trkpt lat="44.4732304570556" lon="10.062836144190111"><ele>713.0</ele><time>2026-04-07T09:50:01.999Z</time></trkpt><trkpt lat="44.47318986845791" lon="10.062912010758746"><ele>715.0</ele><time>2026-04-07T09:50:02.999Z</time></trkpt><trkpt lat="44.473126619652035" lon="10.063034521437324"><ele>717.0</ele><time>2026-04-07T09:50:04.999Z</time></trkpt><trkpt lat="44.473078556474334" lon="10.06317849841455"><ele>717.0</ele><time>2026-04-07T09:50:06.999Z</time></trkpt><trkpt lat="44.47304626060932" lon="10.06329715109925"><ele>717.0</ele><time>2026-04-07T09:50:08.999Z</time></trkpt><trkpt lat="44.47296248611234" lon="10.063233527867851"><ele>717.0</ele><time>2026-04-07T09:50:13.999Z</time></trkpt><trkpt lat="44.472901476941054" lon="10.063151999427896"><ele>717.0</ele><time>2026-04-07T09:50:15.999Z</time></trkpt><trkpt lat="44.47284701595441" lon="10.063071278038228"><ele>717.0</ele><time>2026-04-07T09:50:17.999Z</time></trkpt><trkpt lat="44.47278884871981" lon="10.063025030258165"><ele>717.0</ele><time>2026-04-07T09:50:21Z</time></trkpt><trkpt lat="44.472765486149925" lon="10.063122160146541"><ele>717.0</ele><time>2026-04-07T09:50:33Z</time></trkpt><trkpt lat="44.472845465059386" lon="10.063180014656202"><ele>717.0</ele><time>2026-04-07T09:50:35Z</time></trkpt><trkpt lat="44.47290874244436" lon="10.06317720851015"><ele>717.0</ele><time>2026-04-07T09:50:37Z</time></trkpt><trkpt lat="44.47295131085256" lon="10.063260758058913"><ele>717.0</ele><time>2026-04-07T09:50:39Z</time></trkpt><trkpt lat="44.4730013900482" lon="10.063350079556313"><ele>717.0</ele><time>2026-04-07T09:50:41Z</time></trkpt><trkpt lat="44.473064741100345" lon="10.06328926458875"><ele>717.0</ele><time>2026-04-07T09:50:45Z</time></trkpt><trkpt lat="44.47309173944467" lon="10.063208565942157"><ele>717.0</ele><time>2026-04-07T09:50:46Z</time></trkpt><trkpt lat="44.47314312487437" lon="10.06307192732843"><ele>717.0</ele><time>2026-04-07T09:50:48Z</time></trkpt><trkpt lat="44.4732055469166" lon="10.062988113271402"><ele>717.0</ele><time>2026-04-07T09:50:50Z</time></trkpt><trkpt lat="44.473278973993" lon="10.062862896675206"><ele>717.0</ele><time>2026-04-07T09:50:52Z</time></trkpt><trkpt lat="44.473335133705675" lon="10.062714136354103"><ele>717.0</ele><time>2026-04-07T09:50:54Z</time></trkpt><trkpt lat="44.473334937843646" lon="10.062539075310502"><ele>717.0</ele><time>2026-04-07T09:50:56Z</time></trkpt><trkpt lat="44.47337372770339" lon="10.062468944768264"><ele>717.0</ele><time>2026-04-07T09:51:06Z</time></trkpt><trkpt lat="44.473440117702836" lon="10.062513977405471"><ele>717.0</ele><time>2026-04-07T09:51:08Z</time></trkpt><trkpt lat="44.47348855705066" lon="10.062579195111347"><ele>717.0</ele><time>2026-04-07T09:51:09Z</time></trkpt><trkpt lat="44.47354483517878" lon="10.06266895939252"><ele>717.0</ele><time>2026-04-07T09:51:10Z</time></trkpt><trkpt lat="44.473599287837914" lon="10.062752243945056"><ele>717.0</ele><time>2026-04-07T09:51:11Z</time></trkpt><trkpt lat="44.47364481385106" lon="10.062817241461861"><ele>717.0</ele><time>2026-04-07T09:51:12Z</time></trkpt><trkpt lat="44.47372791921347" lon="10.062888227552445"><ele>714.6</ele><time>2026-04-07T09:51:14Z</time></trkpt><trkpt lat="44.47378534043507" lon="10.062926416321003"><ele>712.2</ele><time>2026-04-07T09:51:15Z</time></trkpt><trkpt lat="44.47384431476649" lon="10.062961102222873"><ele>709.8</ele><time>2026-04-07T09:51:16Z</time></trkpt><trkpt lat="44.47392457856063" lon="10.06300541298909"><ele>707.4</ele><time>2026-04-07T09:51:18Z</time></trkpt><trkpt lat="44.47404791791857" lon="10.06305741917984"><ele>705.0</ele><time>2026-04-07T09:51:20Z</time></trkpt><trkpt lat="44.47415375083631" lon="10.063106642247858"><ele>705.0</ele><time>2026-04-07T09:51:22Z</time></trkpt><trkpt lat="44.47422823513689" lon="10.06315150772134"><ele>705.0</ele><time>2026-04-07T09:51:24Z</time></trkpt><trkpt lat="44.4742481204684" lon="10.063242396624641"><ele>705.0</ele><time>2026-04-07T09:51:26Z</time></trkpt><trkpt lat="44.47422968955307" lon="10.06333340977835"><ele>705.0</ele><time>2026-04-07T09:51:30Z</time></trkpt><trkpt lat="44.47417091780869" lon="10.063411106497755"><ele>705.0</ele><time>2026-04-07T09:51:32Z</time></trkpt><trkpt lat="44.47413313268905" lon="10.063560986727092"><ele>705.0</ele><time>2026-04-07T09:51:34Z</time></trkpt><trkpt lat="44.474130192819466" lon="10.06365670078815"><ele>708.0</ele><time>2026-04-07T09:51:35Z</time></trkpt><trkpt lat="44.47413115162418" lon="10.063827542992419"><ele>711.0</ele><time>2026-04-07T09:51:37Z</time></trkpt><trkpt lat="44.47412302822031" lon="10.063986798883498"><ele>714.0</ele><time>2026-04-07T09:51:39Z</time></trkpt><trkpt lat="44.4741327964074" lon="10.064132930328494"><ele>717.0</ele><time>2026-04-07T09:51:41Z</time></trkpt><trkpt lat="44.47414288737924" lon="10.064285779243656"><ele>717.0</ele><time>2026-04-07T09:51:43Z</time></trkpt><trkpt lat="44.47416122750717" lon="10.064372884861417"><ele>717.0</ele><time>2026-04-07T09:51:44Z</time></trkpt><trkpt lat="44.4741775589197" lon="10.064509795085769"><ele>717.0</ele><time>2026-04-07T09:51:46Z</time></trkpt><trkpt lat="44.47418748738943" lon="10.064627475651776"><ele>717.0</ele><time>2026-04-07T09:51:48Z</time></trkpt><trkpt lat="44.47418328729716" lon="10.064725775089121"><ele>717.0</ele><time>2026-04-07T09:51:50.999Z</time></trkpt><trkpt lat="44.47415071006151" lon="10.064851604501882"><ele>717.0</ele><time>2026-04-07T09:51:52.999Z</time></trkpt><trkpt lat="44.474129299585314" lon="10.064980788798906"><ele>717.0</ele><time>2026-04-07T09:51:54.999Z</time></trkpt><trkpt lat="44.47409259409322" lon="10.065135305955563"><ele>717.0</ele><time>2026-04-07T09:51:56.999Z</time></trkpt><trkpt lat="44.474030264760025" lon="10.065211898581543"><ele>717.0</ele><time>2026-04-07T09:51:58.999Z</time></trkpt><trkpt lat="44.47395831194869" lon="10.065278607154506"><ele>717.0</ele><time>2026-04-07T09:52:00.999Z</time></trkpt><trkpt lat="44.47390237796792" lon="10.065333063743063"><ele>717.0</ele><time>2026-04-07T09:52:02.999Z</time></trkpt><trkpt lat="44.47383158303249" lon="10.065462127289408"><ele>717.0</ele><time>2026-04-07T09:52:04.999Z</time></trkpt><trkpt lat="44.473831148449584" lon="10.06561825000202"><ele>717.0</ele><time>2026-04-07T09:52:06.999Z</time></trkpt><trkpt lat="44.47381615008931" lon="10.065767224655044"><ele>717.0</ele><time>2026-04-07T09:52:08.999Z</time></trkpt><trkpt lat="44.47378361685762" lon="10.065900272824742"><ele>717.0</ele><time>2026-04-07T09:52:10.999Z</time></trkpt><trkpt lat="44.4737158259963" lon="10.06599492820734"><ele>717.0</ele><time>2026-04-07T09:52:12.999Z</time></trkpt><trkpt lat="44.473665988218" lon="10.066103807828858"><ele>716.0</ele><time>2026-04-07T09:52:14.999Z</time></trkpt><trkpt lat="44.473685276838836" lon="10.06621885082951"><ele>715.0</ele><time>2026-04-07T09:52:16.999Z</time></trkpt><trkpt lat="44.4737598117527" lon="10.066309983663617"><ele>714.0</ele><time>2026-04-07T09:52:18.999Z</time></trkpt><trkpt lat="44.4738107352624" lon="10.06636336689262"><ele>713.0</ele><time>2026-04-07T09:52:19.999Z</time></trkpt><trkpt lat="44.47385218278997" lon="10.06648262588609"><ele>712.0</ele><time>2026-04-07T09:52:21.999Z</time></trkpt><trkpt lat="44.473876029371986" lon="10.066596953228478"><ele>711.0</ele><time>2026-04-07T09:52:23.999Z</time></trkpt><trkpt lat="44.473871163269216" lon="10.066729761188471"><ele>711.0</ele><time>2026-04-07T09:52:26Z</time></trkpt><trkpt lat="44.473872773665185" lon="10.06682194204312"><ele>711.0</ele><time>2026-04-07T09:52:27Z</time></trkpt><trkpt lat="44.473892359657924" lon="10.066979966685789"><ele>711.0</ele><time>2026-04-07T09:52:29Z</time></trkpt><trkpt lat="44.4738633908056" lon="10.067160663903849"><ele>711.0</ele><time>2026-04-07T09:52:31Z</time></trkpt><trkpt lat="44.473856981872" lon="10.067252299390265"><ele>711.0</ele><time>2026-04-07T09:52:32Z</time></trkpt><trkpt lat="44.47384835240435" lon="10.067365943068566"><ele>711.3333333333334</ele><time>2026-04-07T09:52:34Z</time></trkpt><trkpt lat="44.47377573273541" lon="10.067487458959587"><ele>711.6666666666666</ele><time>2026-04-07T09:52:36Z</time></trkpt><trkpt lat="44.47372841001687" lon="10.067553374089698"><ele>712.0</ele><time>2026-04-07T09:52:37Z</time></trkpt><trkpt lat="44.47369317387637" lon="10.06763388708069"><ele>712.3333333333333</ele><time>2026-04-07T09:52:38Z</time></trkpt><trkpt lat="44.47364300639726" lon="10.067720215044144"><ele>712.6666666666666</ele><time>2026-04-07T09:52:39Z</time></trkpt><trkpt lat="44.47360121121049" lon="10.067793054883907"><ele>713.0</ele><time>2026-04-07T09:52:40Z</time></trkpt><trkpt lat="44.4735856319802" lon="10.067937719036264"><ele>718.4</ele><time>2026-04-07T09:52:42Z</time></trkpt><trkpt lat="44.47361332737096" lon="10.068097823251644"><ele>723.8</ele><time>2026-04-07T09:52:44Z</time></trkpt><trkpt lat="44.473642241269125" lon="10.068236864444328"><ele>729.2</ele><time>2026-04-07T09:52:46Z</time></trkpt><trkpt lat="44.47368316929318" lon="10.06835090963215"><ele>734.6</ele><time>2026-04-07T09:52:49Z</time></trkpt><trkpt lat="44.47368708281803" lon="10.068454562042861"><ele>740.0</ele><time>2026-04-07T09:52:52Z</time></trkpt><trkpt lat="44.47363321192104" lon="10.0685310780831"><ele>741.4</ele><time>2026-04-07T09:52:54Z</time></trkpt><trkpt lat="44.47360320912614" lon="10.068646015236672"><ele>742.8</ele><time>2026-04-07T09:52:56Z</time></trkpt><trkpt lat="44.47361209844157" lon="10.068777315127988"><ele>744.2</ele><time>2026-04-07T09:52:58Z</time></trkpt><trkpt lat="44.47362351861318" lon="10.068898334305594"><ele>745.6</ele><time>2026-04-07T09:53:01Z</time></trkpt><trkpt lat="44.473630609715045" lon="10.069088095750946"><ele>747.0</ele><time>2026-04-07T09:53:03Z</time></trkpt><trkpt lat="44.47366192792267" lon="10.069240766424004"><ele>749.0</ele><time>2026-04-07T09:53:05Z</time></trkpt><trkpt lat="44.47370782944494" lon="10.069307689540544"><ele>751.0</ele><time>2026-04-07T09:53:06Z</time></trkpt><trkpt lat="44.473760798642324" lon="10.069368405634517"><ele>753.0</ele><time>2026-04-07T09:53:07Z</time></trkpt><trkpt lat="44.47380684857952" lon="10.069478594274113"><ele>755.0</ele><time>2026-04-07T09:53:10Z</time></trkpt><trkpt lat="44.473801171234" lon="10.06960244989624"><ele>757.0</ele><time>2026-04-07T09:53:12Z</time></trkpt><trkpt lat="44.47383527054407" lon="10.069747283724546"><ele>759.0</ele><time>2026-04-07T09:53:14Z</time></trkpt><trkpt lat="44.47387589357867" lon="10.06988036896683"><ele>756.0</ele><time>2026-04-07T09:53:16Z</time></trkpt><trkpt lat="44.47392103737415" lon="10.069982940586337"><ele>753.0</ele><time>2026-04-07T09:53:19Z</time></trkpt><trkpt lat="44.47396972031891" lon="10.070067404819795"><ele>750.0</ele><time>2026-04-07T09:53:20Z</time></trkpt><trkpt lat="44.4740164960809" lon="10.070238006419162"><ele>747.0</ele><time>2026-04-07T09:53:22Z</time></trkpt><trkpt lat="44.47400336388244" lon="10.070335691935416"><ele>744.0</ele><time>2026-04-07T09:53:23Z</time></trkpt><trkpt lat="44.47400142881523" lon="10.070507896508625"><ele>744.0</ele><time>2026-04-07T09:53:25Z</time></trkpt><trkpt lat="44.47399316456119" lon="10.07059944382273"><ele>744.0</ele><time>2026-04-07T09:53:26Z</time></trkpt><trkpt lat="44.47397646219458" lon="10.070793615982488"><ele>744.0</ele><time>2026-04-07T09:53:28Z</time></trkpt><trkpt lat="44.47398048511956" lon="10.070899231631355"><ele>744.0</ele><time>2026-04-07T09:53:29Z</time></trkpt><trkpt lat="44.47398274897378" lon="10.07101019306594"><ele>744.0</ele><time>2026-04-07T09:53:30Z</time></trkpt><trkpt lat="44.473991673364544" lon="10.07110127885634"><ele>744.0</ele><time>2026-04-07T09:53:31Z</time></trkpt><trkpt lat="44.473991939156484" lon="10.071248786019456"><ele>745.0</ele><time>2026-04-07T09:53:33Z</time></trkpt><trkpt lat="44.47394849729267" lon="10.071393451580965"><ele>746.0</ele><time>2026-04-07T09:53:35Z</time></trkpt><trkpt lat="44.4738920562265" lon="10.071535417477724"><ele>747.0</ele><time>2026-04-07T09:53:37Z</time></trkpt><trkpt lat="44.47389807112208" lon="10.071639728907988"><ele>748.0</ele><time>2026-04-07T09:53:38Z</time></trkpt><trkpt lat="44.47389981266212" lon="10.071739980928077"><ele>749.0</ele><time>2026-04-07T09:53:39Z</time></trkpt><trkpt lat="44.47391076396724" lon="10.071839655522938"><ele>750.0</ele><time>2026-04-07T09:53:40Z</time></trkpt><trkpt lat="44.47390232684323" lon="10.07193588790855"><ele>750.8333333333334</ele><time>2026-04-07T09:53:41Z</time></trkpt><trkpt lat="44.473871172850735" lon="10.072028175084267"><ele>751.6666666666666</ele><time>2026-04-07T09:53:42Z</time></trkpt><trkpt lat="44.47381739150445" lon="10.07211362656452"><ele>752.5</ele><time>2026-04-07T09:53:42.999Z</time></trkpt><trkpt lat="44.4737403492214" lon="10.072168517566478"><ele>753.3333333333333</ele><time>2026-04-07T09:53:43.999Z</time></trkpt><trkpt lat="44.47370050365466" lon="10.072260242473428"><ele>754.1666666666666</ele><time>2026-04-07T09:53:44.999Z</time></trkpt><trkpt lat="44.473638547026944" lon="10.072398859220009"><ele>755.0</ele><time>2026-04-07T09:53:46.999Z</time></trkpt><trkpt lat="44.47357753108217" lon="10.072492582570998"><ele>758.6666666666666</ele><time>2026-04-07T09:53:48.999Z</time></trkpt><trkpt lat="44.473398095961585" lon="10.072480546012498"><ele>762.3333333333334</ele><time>2026-04-07T09:53:50.999Z</time></trkpt><trkpt lat="44.47346077442547" lon="10.072253530914436"><ele>766.0</ele><time>2026-04-07T09:53:51.999Z</time></trkpt><trkpt lat="44.47344610316815" lon="10.072117043855332"><ele>766.75</ele><time>2026-04-07T09:53:52.999Z</time></trkpt><trkpt lat="44.473443553841086" lon="10.0719595452343"><ele>767.5</ele><time>2026-04-07T09:53:53.999Z</time></trkpt><trkpt lat="44.47345060651582" lon="10.071790938792171"><ele>768.25</ele><time>2026-04-07T09:53:54.999Z</time></trkpt><trkpt lat="44.47348388997757" lon="10.07162752360686"><ele>769.0</ele><time>2026-04-07T09:53:55.999Z</time></trkpt><trkpt lat="44.47348922804602" lon="10.071481689796276"><ele>769.8000000000001</ele><time>2026-04-07T09:53:56.999Z</time></trkpt><trkpt lat="44.473513280113835" lon="10.071341523347618"><ele>770.6</ele><time>2026-04-07T09:53:57.999Z</time></trkpt><trkpt lat="44.473558505326274" lon="10.071221076319848"><ele>771.4</ele><time>2026-04-07T09:53:58.999Z</time></trkpt><trkpt lat="44.47360222525224" lon="10.071105296191156"><ele>772.2</ele><time>2026-04-07T09:53:59.999Z</time></trkpt><trkpt lat="44.47365889795086" lon="10.071000064359563"><ele>773.0</ele><time>2026-04-07T09:54:00.999Z</time></trkpt><trkpt lat="44.47371515623849" lon="10.070893811184474"><ele>773.0000000000001</ele><time>2026-04-07T09:54:01.999Z</time></trkpt><trkpt lat="44.47376662158182" lon="10.070786232481915"><ele>773.0</ele><time>2026-04-07T09:54:02.999Z</time></trkpt><trkpt lat="44.47380898010058" lon="10.070664578768184"><ele>773.0</ele><time>2026-04-07T09:54:03.999Z</time></trkpt><trkpt lat="44.4737990062432" lon="10.070527778567378"><ele>773.0</ele><time>2026-04-07T09:54:04.999Z</time></trkpt><trkpt lat="44.473817022834574" lon="10.0704130016258"><ele>773.0000000000001</ele><time>2026-04-07T09:54:05.999Z</time></trkpt><trkpt lat="44.47381307627757" lon="10.070308944850959"><ele>773.0</ele><time>2026-04-07T09:54:06.999Z</time></trkpt><trkpt lat="44.47378019141736" lon="10.07020626683154"><ele>773.0</ele><time>2026-04-07T09:54:07.999Z</time></trkpt><trkpt lat="44.47372680403008" lon="10.070107525634654"><ele>773.0</ele><time>2026-04-07T09:54:08.999Z</time></trkpt><trkpt lat="44.47365145796138" lon="10.070014743201448"><ele>773.0</ele><time>2026-04-07T09:54:09.999Z</time></trkpt><trkpt lat="44.47356454239458" lon="10.069916017511316"><ele>773.0</ele><time>2026-04-07T09:54:10.999Z</time></trkpt><trkpt lat="44.47347073052529" lon="10.069799310356304"><ele>773.0</ele><time>2026-04-07T09:54:11.999Z</time></trkpt><trkpt lat="44.4733873923119" lon="10.069662860007957"><ele>769.5</ele><time>2026-04-07T09:54:12.999Z</time></trkpt><trkpt lat="44.47329768678298" lon="10.069526245498187"><ele>766.0</ele><time>2026-04-07T09:54:13.999Z</time></trkpt><trkpt lat="44.47321718384553" lon="10.069368313794588"><ele>762.5</ele><time>2026-04-07T09:54:14.999Z</time></trkpt><trkpt lat="44.47314560907014" lon="10.069190287815479"><ele>759.0</ele><time>2026-04-07T09:54:15.999Z</time></trkpt><trkpt lat="44.47307153370107" lon="10.069008985598696"><ele>755.0</ele><time>2026-04-07T09:54:16.999Z</time></trkpt><trkpt lat="44.47298903012834" lon="10.068826385914758"><ele>751.0</ele><time>2026-04-07T09:54:17.999Z</time></trkpt><trkpt lat="44.472910407323326" lon="10.068640206651391"><ele>747.0</ele><time>2026-04-07T09:54:18.999Z</time></trkpt><trkpt lat="44.47283610303994" lon="10.068461073737472"><ele>752.5</ele><time>2026-04-07T09:54:19.999Z</time></trkpt><trkpt lat="44.47276039776617" lon="10.068275292293574"><ele>758.0</ele><time>2026-04-07T09:54:20.999Z</time></trkpt><trkpt lat="44.472677915013364" lon="10.068100746949895"><ele>763.5</ele><time>2026-04-07T09:54:21.999Z</time></trkpt><trkpt lat="44.472591397177894" lon="10.067946819421751"><ele>769.0</ele><time>2026-04-07T09:54:22.999Z</time></trkpt><trkpt lat="44.47250089329877" lon="10.067795601781437"><ele>769.0</ele><time>2026-04-07T09:54:23.999Z</time></trkpt><trkpt lat="44.47240775477154" lon="10.067678346510718"><ele>769.0</ele><time>2026-04-07T09:54:24.999Z</time></trkpt><trkpt lat="44.4723028597738" lon="10.067573818385432"><ele>769.0</ele><time>2026-04-07T09:54:25.999Z</time></trkpt><trkpt lat="44.472205977178255" lon="10.067461319523698"><ele>769.0</ele><time>2026-04-07T09:54:26.999Z</time></trkpt><trkpt lat="44.4721137617874" lon="10.067338867126121"><ele>771.5</ele><time>2026-04-07T09:54:27.999Z</time></trkpt><trkpt lat="44.472019994526434" lon="10.067219569556167"><ele>774.0</ele><time>2026-04-07T09:54:28.999Z</time></trkpt><trkpt lat="44.471924229362" lon="10.067095033101339"><ele>776.5</ele><time>2026-04-07T09:54:29.999Z</time></trkpt><trkpt lat="44.47182642273951" lon="10.066977146636383"><ele>779.0</ele><time>2026-04-07T09:54:31Z</time></trkpt><trkpt lat="44.471722775921855" lon="10.06686208353025"><ele>779.0</ele><time>2026-04-07T09:54:32Z</time></trkpt><trkpt lat="44.47162307394344" lon="10.066771006848603"><ele>779.0</ele><time>2026-04-07T09:54:33Z</time></trkpt><trkpt lat="44.471510227109746" lon="10.066714182659544"><ele>779.0</ele><time>2026-04-07T09:54:34Z</time></trkpt><trkpt lat="44.47138838639547" lon="10.066684204805687"><ele>779.0</ele><time>2026-04-07T09:54:35Z</time></trkpt><trkpt lat="44.47126015110055" lon="10.06667646087559"><ele>778.4000000000001</ele><time>2026-04-07T09:54:36Z</time></trkpt><trkpt lat="44.471137890563014" lon="10.066679751052806"><ele>777.8</ele><time>2026-04-07T09:54:37Z</time></trkpt><trkpt lat="44.471021382875385" lon="10.066677208879856"><ele>777.2</ele><time>2026-04-07T09:54:38Z</time></trkpt><trkpt lat="44.470916065006534" lon="10.066648458974807"><ele>776.5999999999999</ele><time>2026-04-07T09:54:39Z</time></trkpt><trkpt lat="44.470823652713804" lon="10.066587132388332"><ele>776.0</ele><time>2026-04-07T09:54:40Z</time></trkpt><trkpt lat="44.47076733409144" lon="10.066494219472125"><ele>776.0</ele><time>2026-04-07T09:54:41Z</time></trkpt><trkpt lat="44.47072667202743" lon="10.066378482593832"><ele>776.0</ele><time>2026-04-07T09:54:42Z</time></trkpt><trkpt lat="44.47067773252571" lon="10.06624080275582"><ele>776.0</ele><time>2026-04-07T09:54:43Z</time></trkpt><trkpt lat="44.47060762933141" lon="10.066107114710597"><ele>776.0</ele><time>2026-04-07T09:54:44Z</time></trkpt><trkpt lat="44.47051522552537" lon="10.065977798964377"><ele>777.25</ele><time>2026-04-07T09:54:45Z</time></trkpt><trkpt lat="44.47040964501789" lon="10.06585373295935"><ele>778.5</ele><time>2026-04-07T09:54:46Z</time></trkpt><trkpt lat="44.47030872437552" lon="10.065722441387287"><ele>779.75</ele><time>2026-04-07T09:54:47Z</time></trkpt><trkpt lat="44.470216732293096" lon="10.065594148047646"><ele>781.0</ele><time>2026-04-07T09:54:48Z</time></trkpt><trkpt lat="44.47012717700244" lon="10.0654706284356"><ele>781.0</ele><time>2026-04-07T09:54:49Z</time></trkpt><trkpt lat="44.47004880040981" lon="10.065356782483333"><ele>781.0</ele><time>2026-04-07T09:54:50Z</time></trkpt><trkpt lat="44.469964491419674" lon="10.065236096342543"><ele>781.0</ele><time>2026-04-07T09:54:51Z</time></trkpt><trkpt lat="44.46988585573631" lon="10.065102638943122"><ele>781.0</ele><time>2026-04-07T09:54:52Z</time></trkpt><trkpt lat="44.469833306702206" lon="10.06495992336975"><ele>783.0</ele><time>2026-04-07T09:54:53Z</time></trkpt><trkpt lat="44.469817758285295" lon="10.064807646234083"><ele>785.0</ele><time>2026-04-07T09:54:54Z</time></trkpt><trkpt lat="44.46982110126923" lon="10.064656136173097"><ele>787.0</ele><time>2026-04-07T09:54:55Z</time></trkpt><trkpt lat="44.469850627038454" lon="10.064504279989777"><ele>789.0</ele><time>2026-04-07T09:54:56Z</time></trkpt><trkpt lat="44.46991712840161" lon="10.0643553996327"><ele>789.0</ele><time>2026-04-07T09:54:57Z</time></trkpt><trkpt lat="44.469996703132146" lon="10.064215674670432"><ele>789.0</ele><time>2026-04-07T09:54:58Z</time></trkpt><trkpt lat="44.47008617767009" lon="10.064062003504707"><ele>789.0</ele><time>2026-04-07T09:54:59Z</time></trkpt><trkpt lat="44.47017529938743" lon="10.06389289533855"><ele>789.0</ele><time>2026-04-07T09:55:00Z</time></trkpt><trkpt lat="44.470265985957155" lon="10.063718004963874"><ele>785.0</ele><time>2026-04-07T09:55:01Z</time></trkpt><trkpt lat="44.4703521559501" lon="10.063547445200989"><ele>781.0</ele><time>2026-04-07T09:55:02Z</time></trkpt><trkpt lat="44.47043162818791" lon="10.063384333386995"><ele>777.0</ele><time>2026-04-07T09:55:03Z</time></trkpt><trkpt lat="44.47050804944561" lon="10.063244803400803"><ele>773.0</ele><time>2026-04-07T09:55:04Z</time></trkpt><trkpt lat="44.47058403803203" lon="10.063109932180897"><ele>773.0</ele><time>2026-04-07T09:55:05Z</time></trkpt><trkpt lat="44.470659677945484" lon="10.062982914228252"><ele>773.0</ele><time>2026-04-07T09:55:06Z</time></trkpt><trkpt lat="44.4707165258259" lon="10.062838658707047"><ele>773.0</ele><time>2026-04-07T09:55:07Z</time></trkpt><trkpt lat="44.47073298475448" lon="10.062682855677608"><ele>773.0</ele><time>2026-04-07T09:55:08Z</time></trkpt><trkpt lat="44.470728968372555" lon="10.062520607100508"><ele>772.0</ele><time>2026-04-07T09:55:09Z</time></trkpt><trkpt lat="44.470697423093526" lon="10.062343436664728"><ele>771.0</ele><time>2026-04-07T09:55:10Z</time></trkpt><trkpt lat="44.47064843795668" lon="10.062161545101612"><ele>770.0</ele><time>2026-04-07T09:55:11Z</time></trkpt><trkpt lat="44.470570133851076" lon="10.061988046433886"><ele>769.0</ele><time>2026-04-07T09:55:12Z</time></trkpt><trkpt lat="44.47047972144986" lon="10.061822751457617"><ele>770.0</ele><time>2026-04-07T09:55:13Z</time></trkpt><trkpt lat="44.47037668679481" lon="10.061655863578537"><ele>771.0</ele><time>2026-04-07T09:55:14Z</time></trkpt><trkpt lat="44.47026015456277" lon="10.061521666479601"><ele>772.0</ele><time>2026-04-07T09:55:15Z</time></trkpt><trkpt lat="44.47014137289383" lon="10.061411035554283"><ele>772.0</ele><time>2026-04-07T09:55:16Z</time></trkpt><trkpt lat="44.47002062294656" lon="10.061313632392114"><ele>772.0</ele><time>2026-04-07T09:55:17Z</time></trkpt><trkpt lat="44.46990545756442" lon="10.061226544332312"><ele>772.0</ele><time>2026-04-07T09:55:18Z</time></trkpt><trkpt lat="44.46980552913457" lon="10.061146608175587"><ele>772.0</ele><time>2026-04-07T09:55:19Z</time></trkpt><trkpt lat="44.46970396217226" lon="10.061085280933002"><ele>773.75</ele><time>2026-04-07T09:55:20Z</time></trkpt><trkpt lat="44.46959282371627" lon="10.061041623657868"><ele>775.5</ele><time>2026-04-07T09:55:21Z</time></trkpt><trkpt lat="44.46947984575079" lon="10.060992418427292"><ele>777.25</ele><time>2026-04-07T09:55:22Z</time></trkpt><trkpt lat="44.46936626992333" lon="10.060905494843501"><ele>779.0</ele><time>2026-04-07T09:55:23Z</time></trkpt><trkpt lat="44.469260740004565" lon="10.060775613661155"><ele>779.0</ele><time>2026-04-07T09:55:24Z</time></trkpt><trkpt lat="44.46917866016606" lon="10.06062052304242"><ele>779.0</ele><time>2026-04-07T09:55:25Z</time></trkpt><trkpt lat="44.46913042632448" lon="10.060462619659836"><ele>779.0</ele><time>2026-04-07T09:55:26Z</time></trkpt><trkpt lat="44.469117532154485" lon="10.060294805177772"><ele>779.0</ele><time>2026-04-07T09:55:27Z</time></trkpt><trkpt lat="44.46907480537392" lon="10.06014820877569"><ele>779.0</ele><time>2026-04-07T09:55:28Z</time></trkpt><trkpt lat="44.46903610027482" lon="10.060007603410874"><ele>779.0</ele><time>2026-04-07T09:55:29Z</time></trkpt><trkpt lat="44.46897737459401" lon="10.059871960043195"><ele>779.0</ele><time>2026-04-07T09:55:30Z</time></trkpt><trkpt lat="44.46890107527678" lon="10.059731150272365"><ele>779.0</ele><time>2026-04-07T09:55:31Z</time></trkpt><trkpt lat="44.46881422250851" lon="10.059600721476139"><ele>778.5</ele><time>2026-04-07T09:55:32Z</time></trkpt><trkpt lat="44.4687135831664" lon="10.059474419147621"><ele>778.0</ele><time>2026-04-07T09:55:33Z</time></trkpt><trkpt lat="44.4686291559709" lon="10.059331780717674"><ele>777.5</ele><time>2026-04-07T09:55:34Z</time></trkpt><trkpt lat="44.46857307031711" lon="10.059171720651154"><ele>777.0</ele><time>2026-04-07T09:55:35Z</time></trkpt><trkpt lat="44.46853412561444" lon="10.059013801052533"><ele>777.0</ele><time>2026-04-07T09:55:36Z</time></trkpt><trkpt lat="44.46848215035452" lon="10.058884218182822"><ele>777.0</ele><time>2026-04-07T09:55:37Z</time></trkpt><trkpt lat="44.46840086246681" lon="10.058801496346783"><ele>777.0</ele><time>2026-04-07T09:55:38Z</time></trkpt><trkpt lat="44.46830834335598" lon="10.058745876457504"><ele>777.0</ele><time>2026-04-07T09:55:39Z</time></trkpt><trkpt lat="44.468188530658814" lon="10.058726469321059"><ele>777.0</ele><time>2026-04-07T09:55:40Z</time></trkpt><trkpt lat="44.46806757219175" lon="10.058700117305198"><ele>779.25</ele><time>2026-04-07T09:55:41Z</time></trkpt><trkpt lat="44.467932323845815" lon="10.058653104933025"><ele>781.5</ele><time>2026-04-07T09:55:42Z</time></trkpt><trkpt lat="44.46780170763648" lon="10.058568563791296"><ele>783.75</ele><time>2026-04-07T09:55:43Z</time></trkpt><trkpt lat="44.46766876145798" lon="10.058455678299188"><ele>786.0</ele><time>2026-04-07T09:55:44Z</time></trkpt><trkpt lat="44.46754580822443" lon="10.05834231561772"><ele>782.5</ele><time>2026-04-07T09:55:45Z</time></trkpt><trkpt lat="44.4674289624741" lon="10.058232740306044"><ele>779.0</ele><time>2026-04-07T09:55:46Z</time></trkpt><trkpt lat="44.467335187429015" lon="10.058114235467741"><ele>775.5</ele><time>2026-04-07T09:55:47Z</time></trkpt><trkpt lat="44.467245522137766" lon="10.058006256406335"><ele>772.0</ele><time>2026-04-07T09:55:47.999Z</time></trkpt><trkpt lat="44.4671450475426" lon="10.057892722690331"><ele>775.0</ele><time>2026-04-07T09:55:48.999Z</time></trkpt><trkpt lat="44.46704769871341" lon="10.057775648064624"><ele>778.0</ele><time>2026-04-07T09:55:49.999Z</time></trkpt><trkpt lat="44.466950154757235" lon="10.057663802222116"><ele>781.0</ele><time>2026-04-07T09:55:50.999Z</time></trkpt><trkpt lat="44.46685409931071" lon="10.057564515571645"><ele>784.0</ele><time>2026-04-07T09:55:51.999Z</time></trkpt><trkpt lat="44.46675715502594" lon="10.057485319178749"><ele>783.4000000000001</ele><time>2026-04-07T09:55:52.999Z</time></trkpt><trkpt lat="44.46665896188167" lon="10.057426225148255"><ele>782.8</ele><time>2026-04-07T09:55:53.999Z</time></trkpt><trkpt lat="44.46655486070916" lon="10.05739113747931"><ele>782.2</ele><time>2026-04-07T09:55:54.999Z</time></trkpt><trkpt lat="44.46644159419736" lon="10.057380163639328"><ele>781.5999999999999</ele><time>2026-04-07T09:55:55.999Z</time></trkpt><trkpt lat="44.46632641295032" lon="10.0573913609069"><ele>781.0</ele><time>2026-04-07T09:55:56.999Z</time></trkpt><trkpt lat="44.46621467881091" lon="10.057414077896443"><ele>780.9999999999999</ele><time>2026-04-07T09:55:57.999Z</time></trkpt><trkpt lat="44.466118760830334" lon="10.057422793301898"><ele>781.0</ele><time>2026-04-07T09:55:58.999Z</time></trkpt><trkpt lat="44.46602663566832" lon="10.05742351419466"><ele>781.0</ele><time>2026-04-07T09:55:59.999Z</time></trkpt><trkpt lat="44.46594586356204" lon="10.0574170367222"><ele>781.0</ele><time>2026-04-07T09:56:00.999Z</time></trkpt><trkpt lat="44.46587100806137" lon="10.05739594988362"><ele>780.9999999999999</ele><time>2026-04-07T09:56:01.999Z</time></trkpt><trkpt lat="44.465769189699785" lon="10.057366214324361"><ele>781.0</ele><time>2026-04-07T09:56:03.999Z</time></trkpt><trkpt lat="44.46572799413743" lon="10.057523484663065"><ele>782.4</ele><time>2026-04-07T09:56:06.999Z</time></trkpt><trkpt lat="44.46574405683408" lon="10.05769807721017"><ele>783.8</ele><time>2026-04-07T09:56:08.999Z</time></trkpt><trkpt lat="44.465799027951" lon="10.05786309172636"><ele>785.1999999999999</ele><time>2026-04-07T09:56:10.999Z</time></trkpt><trkpt lat="44.46583124155191" lon="10.057950519416071"><ele>786.5999999999999</ele><time>2026-04-07T09:56:11.999Z</time></trkpt><trkpt lat="44.46587259056831" lon="10.058029673452742"><ele>788.0</ele><time>2026-04-07T09:56:12.999Z</time></trkpt><trkpt lat="44.465909757740135" lon="10.058102289460567"><ele>788.0</ele><time>2026-04-07T09:56:13.999Z</time></trkpt><trkpt lat="44.465949287981765" lon="10.058234126075288"><ele>788.0</ele><time>2026-04-07T09:56:15.999Z</time></trkpt><trkpt lat="44.466029291223485" lon="10.058305016950683"><ele>788.0</ele><time>2026-04-07T09:56:17.999Z</time></trkpt><trkpt lat="44.46613352386333" lon="10.058312569144427"><ele>788.0</ele><time>2026-04-07T09:56:19.999Z</time></trkpt><trkpt lat="44.46624309184461" lon="10.058365982069049"><ele>788.0</ele><time>2026-04-07T09:56:21.999Z</time></trkpt><trkpt lat="44.46629552014316" lon="10.058424237311327"><ele>790.1666666666667</ele><time>2026-04-07T09:56:22.999Z</time></trkpt><trkpt lat="44.466355027398535" lon="10.058470777727505"><ele>792.3333333333334</ele><time>2026-04-07T09:56:23.999Z</time></trkpt><trkpt lat="44.46641603720507" lon="10.05851750640771"><ele>794.5</ele><time>2026-04-07T09:56:24.999Z</time></trkpt><trkpt lat="44.46650019694637" lon="10.058611862132127"><ele>796.6666666666667</ele><time>2026-04-07T09:56:26.999Z</time></trkpt><trkpt lat="44.4665449270539" lon="10.058706344567202"><ele>798.8333333333334</ele><time>2026-04-07T09:56:27.999Z</time></trkpt><trkpt lat="44.46658392088288" lon="10.058789263841843"><ele>801.0</ele><time>2026-04-07T09:56:28.999Z</time></trkpt><trkpt lat="44.46663024654679" lon="10.058857465651714"><ele>801.0</ele><time>2026-04-07T09:56:29.999Z</time></trkpt><trkpt lat="44.46668509069462" lon="10.05891162992404"><ele>801.0</ele><time>2026-04-07T09:56:30.999Z</time></trkpt><trkpt lat="44.46673264684039" lon="10.05903761728018"><ele>801.0</ele><time>2026-04-07T09:56:32.999Z</time></trkpt><trkpt lat="44.46664997539037" lon="10.059103393587582"><ele>801.0</ele><time>2026-04-07T09:56:35.999Z</time></trkpt><trkpt lat="44.46657852263978" lon="10.059109553194762"><ele>801.0</ele><time>2026-04-07T09:56:38Z</time></trkpt><trkpt lat="44.46653529942592" lon="10.059239842173545"><ele>801.0</ele><time>2026-04-07T09:56:40Z</time></trkpt><trkpt lat="44.46648318573584" lon="10.05934790015504"><ele>805.6666666666667</ele><time>2026-04-07T09:56:41Z</time></trkpt><trkpt lat="44.46643284873884" lon="10.059424034418004"><ele>810.3333333333334</ele><time>2026-04-07T09:56:43Z</time></trkpt><trkpt lat="44.46645411678596" lon="10.059524359493489"><ele>815.0</ele><time>2026-04-07T09:56:46Z</time></trkpt><trkpt lat="44.4665256523918" lon="10.060016835861823"><ele>817.0000000000001</ele><time>2026-04-07T09:56:50Z</time></trkpt><trkpt lat="44.466551051498996" lon="10.060199221746155"><ele>819.0</ele><time>2026-04-07T09:56:52Z</time></trkpt><trkpt lat="44.466558896315014" lon="10.06028844538018"><ele>821.0</ele><time>2026-04-07T09:56:53Z</time></trkpt><trkpt lat="44.466529138268925" lon="10.060445352819729"><ele>823.0</ele><time>2026-04-07T09:56:55Z</time></trkpt><trkpt lat="44.466540591453224" lon="10.060540102502937"><ele>825.0000000000001</ele><time>2026-04-07T09:56:56Z</time></trkpt><trkpt lat="44.46655283682157" lon="10.060627171607832"><ele>827.0</ele><time>2026-04-07T09:56:57Z</time></trkpt><trkpt lat="44.46659101642257" lon="10.060727851146321"><ele>830.0000000000001</ele><time>2026-04-07T09:56:58Z</time></trkpt><trkpt lat="44.466664482977585" lon="10.060833759424852"><ele>833.0</ele><time>2026-04-07T09:57:00Z</time></trkpt><trkpt lat="44.46677988929008" lon="10.060856371799709"><ele>836.0</ele><time>2026-04-07T09:57:02Z</time></trkpt><trkpt lat="44.46683014475587" lon="10.060913963887533"><ele>839.0</ele><time>2026-04-07T09:57:03Z</time></trkpt><trkpt lat="44.46690019914448" lon="10.060956880867021"><ele>842.0000000000001</ele><time>2026-04-07T09:57:04Z</time></trkpt><trkpt lat="44.46694356104477" lon="10.06105366237073"><ele>845.0</ele><time>2026-04-07T09:57:07Z</time></trkpt><trkpt lat="44.46694531139531" lon="10.061224825548083"><ele>845.0</ele><time>2026-04-07T09:57:09Z</time></trkpt><trkpt lat="44.46693551381543" lon="10.061344671262685"><ele>845.0</ele><time>2026-04-07T09:57:11Z</time></trkpt><trkpt lat="44.46703984027654" lon="10.061440730494688"><ele>845.0</ele><time>2026-04-07T09:57:13Z</time></trkpt><trkpt lat="44.4669708706901" lon="10.06148959851449"><ele>845.0</ele><time>2026-04-07T09:57:16Z</time></trkpt><trkpt lat="44.46699153986209" lon="10.061656797355127"><ele>845.0</ele><time>2026-04-07T09:57:17Z</time></trkpt><trkpt lat="44.46696676403049" lon="10.061742008664329"><ele>849.25</ele><time>2026-04-07T09:57:18Z</time></trkpt><trkpt lat="44.466881018437014" lon="10.061846391161964"><ele>853.5</ele><time>2026-04-07T09:57:20Z</time></trkpt><trkpt lat="44.46677379349453" lon="10.0618971489166"><ele>857.75</ele><time>2026-04-07T09:57:22Z</time></trkpt><trkpt lat="44.4666433184172" lon="10.061940668307356"><ele>862.0</ele><time>2026-04-07T09:57:24Z</time></trkpt><trkpt lat="44.46654151347909" lon="10.061953834983859"><ele>862.0</ele><time>2026-04-07T09:57:26Z</time></trkpt><trkpt lat="44.46644525952996" lon="10.06204072141455"><ele>862.0</ele><time>2026-04-07T09:57:28Z</time></trkpt><trkpt lat="44.466350638943496" lon="10.062141878710353"><ele>862.0</ele><time>2026-04-07T09:57:30Z</time></trkpt><trkpt lat="44.46628356462576" lon="10.062153073637278"><ele>862.0</ele><time>2026-04-07T09:57:31Z</time></trkpt><trkpt lat="44.46621986028068" lon="10.062182572387004"><ele>862.0</ele><time>2026-04-07T09:57:32Z</time></trkpt><trkpt lat="44.466104389520474" lon="10.062274302989529"><ele>862.9999999999999</ele><time>2026-04-07T09:57:34Z</time></trkpt><trkpt lat="44.46604854020061" lon="10.0623341878527"><ele>864.0</ele><time>2026-04-07T09:57:35Z</time></trkpt><trkpt lat="44.46598550518785" lon="10.062368874537874"><ele>865.0</ele><time>2026-04-07T09:57:36Z</time></trkpt><trkpt lat="44.46588461612396" lon="10.062414341475668"><ele>866.0</ele><time>2026-04-07T09:57:38Z</time></trkpt><trkpt lat="44.465815345682934" lon="10.062377973095398"><ele>866.9999999999999</ele><time>2026-04-07T09:57:40Z</time></trkpt><trkpt lat="44.46571797214817" lon="10.06236720813101"><ele>868.0</ele><time>2026-04-07T09:57:42Z</time></trkpt><trkpt lat="44.46564019254193" lon="10.062366245594118"><ele>868.0</ele><time>2026-04-07T09:57:43Z</time></trkpt><trkpt lat="44.465517642397515" lon="10.0623420155799"><ele>868.0</ele><time>2026-04-07T09:57:45Z</time></trkpt><trkpt lat="44.4654247157502" lon="10.062281303713618"><ele>868.0</ele><time>2026-04-07T09:57:47Z</time></trkpt><trkpt lat="44.465371784978245" lon="10.062221936628136"><ele>868.0</ele><time>2026-04-07T09:57:48Z</time></trkpt><trkpt lat="44.465273529794494" lon="10.062186141873319"><ele>868.0</ele><time>2026-04-07T09:57:49.999Z</time></trkpt><trkpt lat="44.46516353163777" lon="10.062189618177547"><ele>869.8571428571429</ele><time>2026-04-07T09:57:51.999Z</time></trkpt><trkpt lat="44.46508426639892" lon="10.062200626104776"><ele>871.7142857142858</ele><time>2026-04-07T09:57:52.999Z</time></trkpt><trkpt lat="44.46500473264122" lon="10.062204378122722"><ele>873.5714285714286</ele><time>2026-04-07T09:57:53.999Z</time></trkpt><trkpt lat="44.46494174845003" lon="10.062216029255945"><ele>875.4285714285714</ele><time>2026-04-07T09:57:54.999Z</time></trkpt><trkpt lat="44.46486630716214" lon="10.062259855526847"><ele>877.2857142857143</ele><time>2026-04-07T09:57:55.999Z</time></trkpt><trkpt lat="44.46481087254737" lon="10.062318358998311"><ele>879.1428571428571</ele><time>2026-04-07T09:57:56.999Z</time></trkpt><trkpt lat="44.46476328950256" lon="10.062385729985534"><ele>881.0</ele><time>2026-04-07T09:57:57.999Z</time></trkpt><trkpt lat="44.46468794243681" lon="10.06248802139188"><ele>882.8333333333334</ele><time>2026-04-07T09:57:59.999Z</time></trkpt><trkpt lat="44.46461684404843" lon="10.062634773841891"><ele>884.6666666666667</ele><time>2026-04-07T09:58:01.999Z</time></trkpt><trkpt lat="44.464585821019405" lon="10.062712032258716"><ele>886.5</ele><time>2026-04-07T09:58:02.999Z</time></trkpt><trkpt lat="44.46455420311835" lon="10.062792683039287"><ele>888.3333333333333</ele><time>2026-04-07T09:58:03.999Z</time></trkpt><trkpt lat="44.46451970000751" lon="10.062867993131317"><ele>890.1666666666666</ele><time>2026-04-07T09:58:04.999Z</time></trkpt><trkpt lat="44.46444924222165" lon="10.06299150081845"><ele>892.0</ele><time>2026-04-07T09:58:06.999Z</time></trkpt><trkpt lat="44.464354953227684" lon="10.063104671053036"><ele>891.9999999999999</ele><time>2026-04-07T09:58:08.999Z</time></trkpt><trkpt lat="44.46429443010441" lon="10.063175038328161"><ele>892.0</ele><time>2026-04-07T09:58:09.999Z</time></trkpt><trkpt lat="44.46423441247029" lon="10.06323091154126"><ele>892.0</ele><time>2026-04-07T09:58:10.999Z</time></trkpt><trkpt lat="44.4641829004494" lon="10.06329398153593"><ele>892.0</ele><time>2026-04-07T09:58:11.999Z</time></trkpt><trkpt lat="44.4641093243197" lon="10.063353979231845"><ele>891.9999999999999</ele><time>2026-04-07T09:58:12.999Z</time></trkpt><trkpt lat="44.46404080057476" lon="10.063399909791032"><ele>892.0</ele><time>2026-04-07T09:58:13.999Z</time></trkpt><trkpt lat="44.4639288505226" lon="10.063464654250254"><ele>893.6666666666666</ele><time>2026-04-07T09:58:15.999Z</time></trkpt><trkpt lat="44.46380755426022" lon="10.063559851435276"><ele>895.3333333333333</ele><time>2026-04-07T09:58:17.999Z</time></trkpt><trkpt lat="44.46374378848485" lon="10.063602204330019"><ele>897.0</ele><time>2026-04-07T09:58:18.999Z</time></trkpt><trkpt lat="44.46367919011988" lon="10.06366099169921"><ele>898.6666666666667</ele><time>2026-04-07T09:58:19.999Z</time></trkpt><trkpt lat="44.463614237239725" lon="10.063701877064997"><ele>900.3333333333334</ele><time>2026-04-07T09:58:20.999Z</time></trkpt><trkpt lat="44.46354819952645" lon="10.063733739093765"><ele>902.0</ele><time>2026-04-07T09:58:21.999Z</time></trkpt><trkpt lat="44.463471311509956" lon="10.063772201412693"><ele>902.0000000000001</ele><time>2026-04-07T09:58:22.999Z</time></trkpt><trkpt lat="44.46340618265015" lon="10.063823559631631"><ele>902.0</ele><time>2026-04-07T09:58:23.999Z</time></trkpt><trkpt lat="44.463297914430655" lon="10.063838114966893"><ele>902.0</ele><time>2026-04-07T09:58:25.999Z</time></trkpt><trkpt lat="44.4632104684033" lon="10.063814589944288"><ele>902.0</ele><time>2026-04-07T09:58:27.999Z</time></trkpt><trkpt lat="44.46314265447261" lon="10.063777872885368"><ele>902.0000000000001</ele><time>2026-04-07T09:58:28.999Z</time></trkpt><trkpt lat="44.463062284036305" lon="10.063747250136565"><ele>902.0</ele><time>2026-04-07T09:58:29.999Z</time></trkpt><trkpt lat="44.46298420848119" lon="10.063725814597964"><ele>902.7142857142857</ele><time>2026-04-07T09:58:30.999Z</time></trkpt><trkpt lat="44.462921722340745" lon="10.063694981008709"><ele>903.4285714285716</ele><time>2026-04-07T09:58:31.999Z</time></trkpt><trkpt lat="44.46285521710234" lon="10.063695759590544"><ele>904.1428571428572</ele><time>2026-04-07T09:58:32.999Z</time></trkpt><trkpt lat="44.46278960616272" lon="10.063716753941241"><ele>904.8571428571429</ele><time>2026-04-07T09:58:33.999Z</time></trkpt><trkpt lat="44.46272132264623" lon="10.063763997767854"><ele>905.5714285714287</ele><time>2026-04-07T09:58:34.999Z</time></trkpt><trkpt lat="44.46265450913262" lon="10.06380843054581"><ele>906.2857142857144</ele><time>2026-04-07T09:58:35.999Z</time></trkpt><trkpt lat="44.46258352670148" lon="10.063833283906899"><ele>907.0000000000001</ele><time>2026-04-07T09:58:36.999Z</time></trkpt><trkpt lat="44.46251477776641" lon="10.063837838684684"><ele>906.9999999999999</ele><time>2026-04-07T09:58:37.999Z</time></trkpt><trkpt lat="44.46244358559054" lon="10.063856830259486"><ele>907.0</ele><time>2026-04-07T09:58:38.999Z</time></trkpt><trkpt lat="44.46233757373948" lon="10.06390198239285"><ele>907.0</ele><time>2026-04-07T09:58:40.999Z</time></trkpt><trkpt lat="44.462282054793185" lon="10.063948716732273"><ele>907.0</ele><time>2026-04-07T09:58:41.999Z</time></trkpt><trkpt lat="44.46221051007536" lon="10.064014855483618"><ele>906.9999999999999</ele><time>2026-04-07T09:58:44Z</time></trkpt><trkpt lat="44.462138085233974" lon="10.064011113337445"><ele>907.0</ele><time>2026-04-07T09:58:45Z</time></trkpt><trkpt lat="44.46205469457733" lon="10.064038843326697"><ele>905.9999999999999</ele><time>2026-04-07T09:58:46Z</time></trkpt><trkpt lat="44.461978981967285" lon="10.064103635839402"><ele>905.0</ele><time>2026-04-07T09:58:47Z</time></trkpt><trkpt lat="44.46191649544741" lon="10.06419088210718"><ele>904.0</ele><time>2026-04-07T09:58:48Z</time></trkpt><trkpt lat="44.4618545626679" lon="10.064255146205006"><ele>903.0</ele><time>2026-04-07T09:58:49Z</time></trkpt><trkpt lat="44.46180060367688" lon="10.064311444047778"><ele>901.9999999999999</ele><time>2026-04-07T09:58:50Z</time></trkpt><trkpt lat="44.46170165923542" lon="10.06438371775159"><ele>901.0</ele><time>2026-04-07T09:58:52Z</time></trkpt><trkpt lat="44.46159851974336" lon="10.064457679872502"><ele>903.5999999999999</ele><time>2026-04-07T09:58:54Z</time></trkpt><trkpt lat="44.46148991597917" lon="10.064565421985877"><ele>906.1999999999999</ele><time>2026-04-07T09:58:56Z</time></trkpt><trkpt lat="44.46142783499842" lon="10.064624733685926"><ele>908.8000000000001</ele><time>2026-04-07T09:58:57Z</time></trkpt><trkpt lat="44.4613704703204" lon="10.06467469694841"><ele>911.4000000000001</ele><time>2026-04-07T09:58:58Z</time></trkpt><trkpt lat="44.46131586313744" lon="10.064722369941174"><ele>914.0</ele><time>2026-04-07T09:58:59Z</time></trkpt><trkpt lat="44.46120796687721" lon="10.064834743056565"><ele>914.0000000000001</ele><time>2026-04-07T09:59:01Z</time></trkpt><trkpt lat="44.46115977105221" lon="10.064891801350603"><ele>914.0</ele><time>2026-04-07T09:59:02Z</time></trkpt><trkpt lat="44.461072965994894" lon="10.064970762399433"><ele>914.0</ele><time>2026-04-07T09:59:04Z</time></trkpt><trkpt lat="44.46098812658002" lon="10.065018483939557"><ele>914.0</ele><time>2026-04-07T09:59:06Z</time></trkpt><trkpt lat="44.460921954005094" lon="10.064972780461904"><ele>914.0000000000001</ele><time>2026-04-07T09:59:09Z</time></trkpt><trkpt lat="44.46083627396884" lon="10.065027707326331"><ele>914.0</ele><time>2026-04-07T09:59:28Z</time></trkpt><trkpt lat="44.46078495255508" lon="10.065109133414635"><ele>915.1666666666667</ele><time>2026-04-07T09:59:29Z</time></trkpt><trkpt lat="44.460719286703274" lon="10.065193424599126"><ele>916.3333333333334</ele><time>2026-04-07T09:59:30Z</time></trkpt><trkpt lat="44.46066320458346" lon="10.065288870119822"><ele>917.5</ele><time>2026-04-07T09:59:31Z</time></trkpt><trkpt lat="44.46056828377508" lon="10.065401717904345"><ele>918.6666666666667</ele><time>2026-04-07T09:59:33Z</time></trkpt><trkpt lat="44.46051270742315" lon="10.065458417152643"><ele>919.8333333333334</ele><time>2026-04-07T09:59:34Z</time></trkpt><trkpt lat="44.46045473863324" lon="10.065501961788623"><ele>921.0</ele><time>2026-04-07T09:59:35Z</time></trkpt><trkpt lat="44.46036556796237" lon="10.065578118369436"><ele>921.0</ele><time>2026-04-07T09:59:37Z</time></trkpt><trkpt lat="44.46027549928684" lon="10.065672227308552"><ele>920.9999999999999</ele><time>2026-04-07T09:59:39Z</time></trkpt><trkpt lat="44.46020953596612" lon="10.065753475697065"><ele>920.9999999999999</ele><time>2026-04-07T09:59:41Z</time></trkpt><trkpt lat="44.46014510711281" lon="10.06581066995855"><ele>921.0</ele><time>2026-04-07T09:59:43Z</time></trkpt><trkpt lat="44.46021504177117" lon="10.065761296162924"><ele>921.0</ele><time>2026-04-07T10:00:03Z</time></trkpt><trkpt lat="44.460293059518875" lon="10.065680708211563"><ele>921.0</ele><time>2026-04-07T10:00:04.999Z</time></trkpt><trkpt lat="44.460350002603846" lon="10.06564191462736"><ele>921.0</ele><time>2026-04-07T10:00:05.999Z</time></trkpt><trkpt lat="44.46041282765608" lon="10.065591110433823"><ele>921.0</ele><time>2026-04-07T10:00:06.999Z</time></trkpt><trkpt lat="44.46051347117108" lon="10.06549717824583"><ele>921.0</ele><time>2026-04-07T10:00:08.999Z</time></trkpt><trkpt lat="44.46056889056597" lon="10.065453391036579"><ele>921.0</ele><time>2026-04-07T10:00:09.999Z</time></trkpt><trkpt lat="44.46065123059648" lon="10.06532957275878"><ele>921.0</ele><time>2026-04-07T10:00:11.999Z</time></trkpt><trkpt lat="44.46069907886535" lon="10.065263511553377"><ele>921.1999999999999</ele><time>2026-04-07T10:00:12.999Z</time></trkpt><trkpt lat="44.46077615321552" lon="10.065133908909"><ele>921.3999999999999</ele><time>2026-04-07T10:00:14.999Z</time></trkpt><trkpt lat="44.460837863855325" lon="10.065032088424704"><ele>921.6</ele><time>2026-04-07T10:00:16.999Z</time></trkpt><trkpt lat="44.46085229053593" lon="10.064928497371227"><ele>921.8</ele><time>2026-04-07T10:00:20.999Z</time></trkpt><trkpt lat="44.46082665318474" lon="10.064816153840853"><ele>922.0</ele><time>2026-04-07T10:00:22.999Z</time></trkpt><trkpt lat="44.460805197631316" lon="10.064684035431421"><ele>920.6666666666666</ele><time>2026-04-07T10:00:24.999Z</time></trkpt><trkpt lat="44.460778581791075" lon="10.064574783724098"><ele>919.3333333333333</ele><time>2026-04-07T10:00:26.999Z</time></trkpt><trkpt lat="44.46074794788974" lon="10.064446318106919"><ele>918.0</ele><time>2026-04-07T10:00:30.999Z</time></trkpt><trkpt lat="44.46072901896427" lon="10.064331883109055"><ele>916.6666666666667</ele><time>2026-04-07T10:00:32.999Z</time></trkpt><trkpt lat="44.4607094124866" lon="10.064235594737447"><ele>915.3333333333334</ele><time>2026-04-07T10:00:34.999Z</time></trkpt><trkpt lat="44.46068526829407" lon="10.06414299775632"><ele>914.0</ele><time>2026-04-07T10:00:36.999Z</time></trkpt><trkpt lat="44.46066095663334" lon="10.06405823246403"><ele>911.3333333333334</ele><time>2026-04-07T10:00:38.999Z</time></trkpt><trkpt lat="44.460664799345075" lon="10.063936735670469"><ele>908.6666666666667</ele><time>2026-04-07T10:00:41.999Z</time></trkpt><trkpt lat="44.46065012414068" lon="10.063819769788003"><ele>906.0</ele><time>2026-04-07T10:00:44.999Z</time></trkpt><trkpt lat="44.46066960790477" lon="10.063708454008014"><ele>903.3333333333333</ele><time>2026-04-07T10:00:47.999Z</time></trkpt><trkpt lat="44.46068718714394" lon="10.063617787880569"><ele>900.6666666666666</ele><time>2026-04-07T10:00:51Z</time></trkpt><trkpt lat="44.460680329131904" lon="10.06348570927733"><ele>898.0</ele><time>2026-04-07T10:00:54Z</time></trkpt><trkpt lat="44.460657988914114" lon="10.063361467211122"><ele>894.1666666666666</ele><time>2026-04-07T10:00:56Z</time></trkpt><trkpt lat="44.46070339134637" lon="10.063255933115235"><ele>890.3333333333333</ele><time>2026-04-07T10:01:08Z</time></trkpt><trkpt lat="44.46076554679063" lon="10.063150679211887"><ele>886.5</ele><time>2026-04-07T10:01:11Z</time></trkpt><trkpt lat="44.46080795502057" lon="10.06305375900298"><ele>882.6666666666667</ele><time>2026-04-07T10:01:13Z</time></trkpt><trkpt lat="44.46085937740789" lon="10.062960778294519"><ele>878.8333333333334</ele><time>2026-04-07T10:01:15Z</time></trkpt><trkpt lat="44.46093230244682" lon="10.062871368314026"><ele>875.0</ele><time>2026-04-07T10:01:17Z</time></trkpt><trkpt lat="44.46096734300027" lon="10.062762795147945"><ele>875.0000000000001</ele><time>2026-04-07T10:01:19Z</time></trkpt><trkpt lat="44.461042480836845" lon="10.062676932511451"><ele>875.0</ele><time>2026-04-07T10:01:21Z</time></trkpt><trkpt lat="44.46110097879843" lon="10.062575942732195"><ele>875.0</ele><time>2026-04-07T10:01:23Z</time></trkpt><trkpt lat="44.461144142853584" lon="10.062460679606792"><ele>875.0</ele><time>2026-04-07T10:01:25Z</time></trkpt><trkpt lat="44.46117509088087" lon="10.062356978068072"><ele>875.0000000000001</ele><time>2026-04-07T10:01:27Z</time></trkpt><trkpt lat="44.461213219888435" lon="10.06227652992197"><ele>875.0</ele><time>2026-04-07T10:01:29Z</time></trkpt><trkpt lat="44.46124143085151" lon="10.062146143280376"><ele>873.1666666666667</ele><time>2026-04-07T10:01:31Z</time></trkpt><trkpt lat="44.46126324360792" lon="10.062003793757547"><ele>871.3333333333334</ele><time>2026-04-07T10:01:33Z</time></trkpt><trkpt lat="44.461314199091774" lon="10.061872934680965"><ele>869.5</ele><time>2026-04-07T10:01:35Z</time></trkpt><trkpt lat="44.46134839618052" lon="10.061798375293314"><ele>867.6666666666667</ele><time>2026-04-07T10:01:37Z</time></trkpt><trkpt lat="44.461388026655264" lon="10.061727520585455"><ele>865.8333333333334</ele><time>2026-04-07T10:01:39Z</time></trkpt><trkpt lat="44.4614376740814" lon="10.06163497830916"><ele>864.0</ele><time>2026-04-07T10:01:41Z</time></trkpt><trkpt lat="44.46151434245661" lon="10.061548059887356"><ele>860.2</ele><time>2026-04-07T10:01:43Z</time></trkpt><trkpt lat="44.46159573061102" lon="10.061497719975009"><ele>856.4000000000001</ele><time>2026-04-07T10:01:45Z</time></trkpt><trkpt lat="44.461685830388106" lon="10.06138746063077"><ele>852.6</ele><time>2026-04-07T10:01:47Z</time></trkpt><trkpt lat="44.46176302765855" lon="10.06131581032609"><ele>848.8</ele><time>2026-04-07T10:01:49Z</time></trkpt><trkpt lat="44.461843328643546" lon="10.061223368681457"><ele>845.0</ele><time>2026-04-07T10:01:51Z</time></trkpt><trkpt lat="44.46192844587952" lon="10.061141273641727"><ele>845.0</ele><time>2026-04-07T10:01:53Z</time></trkpt><trkpt lat="44.46200031254024" lon="10.061030679182856"><ele>845.0</ele><time>2026-04-07T10:01:55Z</time></trkpt><trkpt lat="44.46204269584048" lon="10.060901570807436"><ele>845.0</ele><time>2026-04-07T10:01:57Z</time></trkpt><trkpt lat="44.46204930763429" lon="10.0607886577668"><ele>845.0</ele><time>2026-04-07T10:01:59Z</time></trkpt><trkpt lat="44.46209837874558" lon="10.060698067759567"><ele>845.0</ele><time>2026-04-07T10:02:01Z</time></trkpt><trkpt lat="44.46217368026663" lon="10.060596311406966"><ele>843.4</ele><time>2026-04-07T10:02:03Z</time></trkpt><trkpt lat="44.4622255626095" lon="10.060531553470035"><ele>841.8</ele><time>2026-04-07T10:02:04Z</time></trkpt><trkpt lat="44.46227357313611" lon="10.060471480195167"><ele>840.2</ele><time>2026-04-07T10:02:04.999Z</time></trkpt><trkpt lat="44.462361067197364" lon="10.060369187188924"><ele>838.6</ele><time>2026-04-07T10:02:06.999Z</time></trkpt><trkpt lat="44.462433316021645" lon="10.060286518296703"><ele>837.0</ele><time>2026-04-07T10:02:08.999Z</time></trkpt><trkpt lat="44.4625351067424" lon="10.060210220371767"><ele>837.0</ele><time>2026-04-07T10:02:10.999Z</time></trkpt><trkpt lat="44.46262088885303" lon="10.060115536189455"><ele>837.0</ele><time>2026-04-07T10:02:12.999Z</time></trkpt><trkpt lat="44.46268031368697" lon="10.060080108359328"><ele>837.0</ele><time>2026-04-07T10:02:13.999Z</time></trkpt><trkpt lat="44.462733376231895" lon="10.060027505218017"><ele>837.0</ele><time>2026-04-07T10:02:14.999Z</time></trkpt><trkpt lat="44.46279960207794" lon="10.059886161352825"><ele>837.0</ele><time>2026-04-07T10:02:16.999Z</time></trkpt><trkpt lat="44.46287667918887" lon="10.059771480682064"><ele>834.6</ele><time>2026-04-07T10:02:18.999Z</time></trkpt><trkpt lat="44.46295942543566" lon="10.059655487849218"><ele>832.2</ele><time>2026-04-07T10:02:20.999Z</time></trkpt><trkpt lat="44.46300258212519" lon="10.059581666503803"><ele>829.8</ele><time>2026-04-07T10:02:21.999Z</time></trkpt><trkpt lat="44.46306584229394" lon="10.059468449855867"><ele>827.4</ele><time>2026-04-07T10:02:23.999Z</time></trkpt><trkpt lat="44.4630980016678" lon="10.059367998197013"><ele>825.0</ele><time>2026-04-07T10:02:25.999Z</time></trkpt><trkpt lat="44.46312726710153" lon="10.059248850219006"><ele>825.0</ele><time>2026-04-07T10:02:27.999Z</time></trkpt><trkpt lat="44.463154607219806" lon="10.059127600697694"><ele>825.0</ele><time>2026-04-07T10:02:29.999Z</time></trkpt><trkpt lat="44.46324575799659" lon="10.059005757416955"><ele>825.0</ele><time>2026-04-07T10:02:32.999Z</time></trkpt><trkpt lat="44.46330670668015" lon="10.058920997047908"><ele>825.0</ele><time>2026-04-07T10:02:35.999Z</time></trkpt><trkpt lat="44.463359684300904" lon="10.058858108917342"><ele>825.0</ele><time>2026-04-07T10:02:37.999Z</time></trkpt><trkpt lat="44.46344152638487" lon="10.0588259014219"><ele>822.5</ele><time>2026-04-07T10:02:39.999Z</time></trkpt><trkpt lat="44.463503730648824" lon="10.058742486879584"><ele>820.0</ele><time>2026-04-07T10:02:41.999Z</time></trkpt><trkpt lat="44.463593035888536" lon="10.058704753780246"><ele>817.5</ele><time>2026-04-07T10:02:43.999Z</time></trkpt><trkpt lat="44.46365227623749" lon="10.058674124987608"><ele>815.0</ele><time>2026-04-07T10:02:44.999Z</time></trkpt><trkpt lat="44.46373756852335" lon="10.058593239089188"><ele>812.5</ele><time>2026-04-07T10:02:46.999Z</time></trkpt><trkpt lat="44.46379389541544" lon="10.058540252193255"><ele>810.0</ele><time>2026-04-07T10:02:47.999Z</time></trkpt><trkpt lat="44.4638685955481" lon="10.058476003872672"><ele>810.0</ele><time>2026-04-07T10:02:57Z</time></trkpt><trkpt lat="44.463849025404244" lon="10.058605294069803"><ele>810.0</ele><time>2026-04-07T10:03:04Z</time></trkpt><trkpt lat="44.46377772733519" lon="10.058688647808022"><ele>810.0</ele><time>2026-04-07T10:03:06Z</time></trkpt><trkpt lat="44.46371705298152" lon="10.058785970416562"><ele>810.0</ele><time>2026-04-07T10:03:08Z</time></trkpt><trkpt lat="44.46367455535209" lon="10.058933569494869"><ele>810.0</ele><time>2026-04-07T10:03:10Z</time></trkpt><trkpt lat="44.46362164780573" lon="10.059041940496648"><ele>813.75</ele><time>2026-04-07T10:03:12Z</time></trkpt><trkpt lat="44.46359710501094" lon="10.059225591834567"><ele>817.5</ele><time>2026-04-07T10:03:14Z</time></trkpt><trkpt lat="44.46356975263753" lon="10.059389209592556"><ele>821.25</ele><time>2026-04-07T10:03:16Z</time></trkpt><trkpt lat="44.463588398903426" lon="10.05954366546902"><ele>825.0</ele><time>2026-04-07T10:03:18Z</time></trkpt><trkpt lat="44.46361700258211" lon="10.059673048895911"><ele>825.0</ele><time>2026-04-07T10:03:20Z</time></trkpt><trkpt lat="44.463632087712945" lon="10.059832659406194"><ele>825.0</ele><time>2026-04-07T10:03:22Z</time></trkpt><trkpt lat="44.46361106738869" lon="10.05996389262476"><ele>825.0</ele><time>2026-04-07T10:03:24Z</time></trkpt><trkpt lat="44.46358228443066" lon="10.060074701156985"><ele>825.0</ele><time>2026-04-07T10:03:27Z</time></trkpt><trkpt lat="44.46357183148751" lon="10.060217695767225"><ele>825.0</ele><time>2026-04-07T10:03:29Z</time></trkpt><trkpt lat="44.46353406468387" lon="10.060288553271004"><ele>826.6</ele><time>2026-04-07T10:03:30Z</time></trkpt><trkpt lat="44.46347376917101" lon="10.060356566843858"><ele>828.2</ele><time>2026-04-07T10:03:31Z</time></trkpt><trkpt lat="44.46341842742299" lon="10.060422326712885"><ele>829.8</ele><time>2026-04-07T10:03:32Z</time></trkpt><trkpt lat="44.4633627966261" lon="10.060485765414533"><ele>831.4</ele><time>2026-04-07T10:03:33Z</time></trkpt><trkpt lat="44.46326761615871" lon="10.06059237734633"><ele>833.0</ele><time>2026-04-07T10:03:35Z</time></trkpt><trkpt lat="44.46318459548113" lon="10.06069964066613"><ele>833.0000000000001</ele><time>2026-04-07T10:03:37Z</time></trkpt><trkpt lat="44.4631319266058" lon="10.060760384608976"><ele>833.0</ele><time>2026-04-07T10:03:40Z</time></trkpt><trkpt lat="44.46305291632705" lon="10.060791203157482"><ele>833.0</ele><time>2026-04-07T10:03:42Z</time></trkpt><trkpt lat="44.46296897981436" lon="10.060867662038136"><ele>833.0</ele><time>2026-04-07T10:03:44Z</time></trkpt><trkpt lat="44.46294293859308" lon="10.061007298407674"><ele>833.0000000000001</ele><time>2026-04-07T10:03:46Z</time></trkpt><trkpt lat="44.46294411367232" lon="10.061125722291406"><ele>833.0</ele><time>2026-04-07T10:03:48Z</time></trkpt><trkpt lat="44.462902031870975" lon="10.061248287333107"><ele>836.0</ele><time>2026-04-07T10:03:51Z</time></trkpt><trkpt lat="44.46284978801141" lon="10.061401345471651"><ele>839.0</ele><time>2026-04-07T10:03:53Z</time></trkpt><trkpt lat="44.462827506762466" lon="10.061540659928138"><ele>842.0</ele><time>2026-04-07T10:03:55Z</time></trkpt><trkpt lat="44.462778446936056" lon="10.06163430502111"><ele>845.0</ele><time>2026-04-07T10:03:57Z</time></trkpt><trkpt lat="44.46270484184077" lon="10.061713324265465"><ele>848.0</ele><time>2026-04-07T10:03:59Z</time></trkpt><trkpt lat="44.46265136061422" lon="10.061761116740506"><ele>851.5</ele><time>2026-04-07T10:04:00Z</time></trkpt><trkpt lat="44.462545104027804" lon="10.061870648953674"><ele>855.0</ele><time>2026-04-07T10:04:02Z</time></trkpt><trkpt lat="44.46248731615116" lon="10.06190969750925"><ele>858.5</ele><time>2026-04-07T10:04:03Z</time></trkpt><trkpt lat="44.462361188844895" lon="10.061986225019899"><ele>862.0</ele><time>2026-04-07T10:04:04.999Z</time></trkpt><trkpt lat="44.46225857058391" lon="10.062099507981928"><ele>861.9999999999999</ele><time>2026-04-07T10:04:06.999Z</time></trkpt><trkpt lat="44.46220779281574" lon="10.062165561511177"><ele>862.0</ele><time>2026-04-07T10:04:07.999Z</time></trkpt><trkpt lat="44.46215548294966" lon="10.062223512331332"><ele>862.0</ele><time>2026-04-07T10:04:08.999Z</time></trkpt><trkpt lat="44.46211137285443" lon="10.06229464015996"><ele>862.0</ele><time>2026-04-07T10:04:09.999Z</time></trkpt><trkpt lat="44.46206342688133" lon="10.062457761604447"><ele>861.9999999999999</ele><time>2026-04-07T10:04:11.999Z</time></trkpt><trkpt lat="44.46202400999526" lon="10.062605067301039"><ele>862.0</ele><time>2026-04-07T10:04:13.999Z</time></trkpt><trkpt lat="44.46196552991691" lon="10.062716178087214"><ele>864.6666666666666</ele><time>2026-04-07T10:04:15.999Z</time></trkpt><trkpt lat="44.46193047462757" lon="10.062790481491454"><ele>867.3333333333333</ele><time>2026-04-07T10:04:16.999Z</time></trkpt><trkpt lat="44.46189122722943" lon="10.062870586243722"><ele>870.0</ele><time>2026-04-07T10:04:17.999Z</time></trkpt><trkpt lat="44.46185303075378" lon="10.062945868517387"><ele>872.6666666666667</ele><time>2026-04-07T10:04:18.999Z</time></trkpt><trkpt lat="44.461802134666144" lon="10.06300326569272"><ele>875.3333333333334</ele><time>2026-04-07T10:04:19.999Z</time></trkpt><trkpt lat="44.46171050964217" lon="10.063109187733053"><ele>878.0</ele><time>2026-04-07T10:04:21.999Z</time></trkpt><trkpt lat="44.46163136257762" lon="10.063208569312584"><ele>881.2857142857142</ele><time>2026-04-07T10:04:23.999Z</time></trkpt><trkpt lat="44.46158513698912" lon="10.063291554258988"><ele>884.5714285714286</ele><time>2026-04-07T10:04:24.999Z</time></trkpt><trkpt lat="44.46153995521683" lon="10.063389200650057"><ele>887.8571428571429</ele><time>2026-04-07T10:04:25.999Z</time></trkpt><trkpt lat="44.46149340806954" lon="10.06347730973435"><ele>891.1428571428571</ele><time>2026-04-07T10:04:26.999Z</time></trkpt><trkpt lat="44.46144662159884" lon="10.063554624135879"><ele>894.4285714285716</ele><time>2026-04-07T10:04:27.999Z</time></trkpt><trkpt lat="44.461392562485166" lon="10.06361065660341"><ele>897.7142857142858</ele><time>2026-04-07T10:04:28.999Z</time></trkpt><trkpt lat="44.4613386771387" lon="10.063664901146158"><ele>901.0</ele><time>2026-04-07T10:04:29.999Z</time></trkpt><trkpt lat="44.46129137915119" lon="10.063724103914115"><ele>900.4</ele><time>2026-04-07T10:04:30.999Z</time></trkpt><trkpt lat="44.461240475648026" lon="10.063787826834545"><ele>899.8</ele><time>2026-04-07T10:04:31.999Z</time></trkpt><trkpt lat="44.461151088944504" lon="10.063909904897752"><ele>899.1999999999999</ele><time>2026-04-07T10:04:33.999Z</time></trkpt><trkpt lat="44.46108398058916" lon="10.064057298975289"><ele>898.5999999999999</ele><time>2026-04-07T10:04:35.999Z</time></trkpt><trkpt lat="44.461057743210525" lon="10.064160843297515"><ele>898.0</ele><time>2026-04-07T10:04:36.999Z</time></trkpt><trkpt lat="44.46103457687067" lon="10.064278525796961"><ele>900.6666666666666</ele><time>2026-04-07T10:04:37.999Z</time></trkpt><trkpt lat="44.461009554689035" lon="10.06437597027246"><ele>903.3333333333333</ele><time>2026-04-07T10:04:38.999Z</time></trkpt><trkpt lat="44.4609923825975" lon="10.064513957594878"><ele>906.0</ele><time>2026-04-07T10:04:40.999Z</time></trkpt><trkpt lat="44.46091428010772" lon="10.064635694014148"><ele>908.6666666666667</ele><time>2026-04-07T10:04:42.999Z</time></trkpt><trkpt lat="44.46090714017211" lon="10.064738015757495"><ele>911.3333333333334</ele><time>2026-04-07T10:04:43.999Z</time></trkpt><trkpt lat="44.46088396681391" lon="10.064821553158463"><ele>914.0</ele><time>2026-04-07T10:04:44.999Z</time></trkpt><trkpt lat="44.460845801384465" lon="10.064912809734418"><ele>915.1428571428573</ele><time>2026-04-07T10:04:45.999Z</time></trkpt><trkpt lat="44.460806785537194" lon="10.065001315665015"><ele>916.2857142857143</ele><time>2026-04-07T10:04:46.999Z</time></trkpt><trkpt lat="44.46076755305342" lon="10.065087159938239"><ele>917.4285714285716</ele><time>2026-04-07T10:04:47.999Z</time></trkpt><trkpt lat="44.46070965812518" lon="10.06516109567082"><ele>918.5714285714287</ele><time>2026-04-07T10:04:48.999Z</time></trkpt><trkpt lat="44.46066820701808" lon="10.065231754630723"><ele>919.7142857142858</ele><time>2026-04-07T10:04:49.999Z</time></trkpt><trkpt lat="44.46061602766238" lon="10.06528755656843"><ele>920.8571428571429</ele><time>2026-04-07T10:04:50.999Z</time></trkpt><trkpt lat="44.46056930612878" lon="10.06535381392733"><ele>922.0</ele><time>2026-04-07T10:04:51.999Z</time></trkpt><trkpt lat="44.46048041674386" lon="10.065466891870217"><ele>921.8571428571429</ele><time>2026-04-07T10:04:53.999Z</time></trkpt><trkpt lat="44.46042708271506" lon="10.065516797281196"><ele>921.7142857142858</ele><time>2026-04-07T10:04:54.999Z</time></trkpt><trkpt lat="44.4603663697854" lon="10.065566544585167"><ele>921.5714285714287</ele><time>2026-04-07T10:04:55.999Z</time></trkpt><trkpt lat="44.46030228753003" lon="10.065625515824212"><ele>921.4285714285716</ele><time>2026-04-07T10:04:56.999Z</time></trkpt><trkpt lat="44.460240651023824" lon="10.065688787950664"><ele>921.2857142857143</ele><time>2026-04-07T10:04:57.999Z</time></trkpt><trkpt lat="44.46018609244918" lon="10.065740676535043"><ele>921.1428571428573</ele><time>2026-04-07T10:04:58.999Z</time></trkpt><trkpt lat="44.46014854273497" lon="10.065812270650106"><ele>921.0000000000001</ele><time>2026-04-07T10:04:59.999Z</time></trkpt><trkpt lat="44.46006476597404" lon="10.065921055379318"><ele>923.3333333333334</ele><time>2026-04-07T10:05:02Z</time></trkpt><trkpt lat="44.46001424567174" lon="10.065980455588443"><ele>925.6666666666667</ele><time>2026-04-07T10:05:03Z</time></trkpt><trkpt lat="44.45997812040012" lon="10.06607667577405"><ele>928.0</ele><time>2026-04-07T10:05:04Z</time></trkpt><trkpt lat="44.45990887871968" lon="10.066196985527565"><ele>930.3333333333334</ele><time>2026-04-07T10:05:06Z</time></trkpt><trkpt lat="44.45985036627202" lon="10.066234362694459"><ele>932.6666666666667</ele><time>2026-04-07T10:05:07Z</time></trkpt><trkpt lat="44.45976693847453" lon="10.066360530731643"><ele>935.0</ele><time>2026-04-07T10:05:09Z</time></trkpt><trkpt lat="44.459727326335184" lon="10.066439645595544"><ele>935.0000000000001</ele><time>2026-04-07T10:05:10Z</time></trkpt><trkpt lat="44.45968235165991" lon="10.066509675541791"><ele>935.0</ele><time>2026-04-07T10:05:11Z</time></trkpt><trkpt lat="44.459631133320634" lon="10.066581195980126"><ele>935.0000000000001</ele><time>2026-04-07T10:05:12Z</time></trkpt><trkpt lat="44.45957017406424" lon="10.066637113509662"><ele>935.0000000000001</ele><time>2026-04-07T10:05:13Z</time></trkpt><trkpt lat="44.45951128578985" lon="10.066676071190928"><ele>935.0</ele><time>2026-04-07T10:05:14Z</time></trkpt><trkpt lat="44.45945029079076" lon="10.0667121879243"><ele>935.0000000000001</ele><time>2026-04-07T10:05:15Z</time></trkpt><trkpt lat="44.45937116765878" lon="10.066803895264092"><ele>935.0000000000001</ele><time>2026-04-07T10:05:17Z</time></trkpt><trkpt lat="44.45928631864463" lon="10.066868693430308"><ele>941.0</ele><time>2026-04-07T10:05:19Z</time></trkpt><trkpt lat="44.45919371310552" lon="10.0669262176631"><ele>947.0</ele><time>2026-04-07T10:05:21Z</time></trkpt><trkpt lat="44.45908733652294" lon="10.066961094956065"><ele>953.0</ele><time>2026-04-07T10:05:24Z</time></trkpt><trkpt lat="44.458997193194776" lon="10.067044133480392"><ele>959.0</ele><time>2026-04-07T10:05:27Z</time></trkpt><trkpt lat="44.45886581300855" lon="10.0673446430661"><ele>961.5000000000001</ele><time>2026-04-07T10:05:31Z</time></trkpt><trkpt lat="44.458803592104665" lon="10.067474634165787"><ele>964.0</ele><time>2026-04-07T10:05:32Z</time></trkpt><trkpt lat="44.45874747256329" lon="10.067560181430885"><ele>966.5</ele><time>2026-04-07T10:05:33Z</time></trkpt><trkpt lat="44.45870087670344" lon="10.06763532121217"><ele>969.0</ele><time>2026-04-07T10:05:34Z</time></trkpt><trkpt lat="44.45865526663676" lon="10.067708017592052"><ele>971.5000000000001</ele><time>2026-04-07T10:05:35Z</time></trkpt><trkpt lat="44.458590850913566" lon="10.067738986573435"><ele>974.0</ele><time>2026-04-07T10:05:36Z</time></trkpt><trkpt lat="44.45851249983652" lon="10.067790713269002"><ele>976.25</ele><time>2026-04-07T10:05:38Z</time></trkpt><trkpt lat="44.45845036156846" lon="10.067899108944019"><ele>978.5</ele><time>2026-04-07T10:05:40Z</time></trkpt><trkpt lat="44.45838048459633" lon="10.068017474733773"><ele>980.75</ele><time>2026-04-07T10:05:42Z</time></trkpt><trkpt lat="44.45828932596883" lon="10.068151122236452"><ele>983.0</ele><time>2026-04-07T10:05:44Z</time></trkpt><trkpt lat="44.458200504678835" lon="10.06828011662255"><ele>985.0000000000001</ele><time>2026-04-07T10:05:46Z</time></trkpt><trkpt lat="44.45816867368561" lon="10.068357636166153"><ele>987.0</ele><time>2026-04-07T10:05:47Z</time></trkpt><trkpt lat="44.458120602129355" lon="10.068419229534001"><ele>989.0</ele><time>2026-04-07T10:05:48Z</time></trkpt><trkpt lat="44.458056160051655" lon="10.068507422230416"><ele>991.0</ele><time>2026-04-07T10:05:50Z</time></trkpt><trkpt lat="44.458039212003584" lon="10.068678844994944"><ele>993.0000000000001</ele><time>2026-04-07T10:05:52Z</time></trkpt><trkpt lat="44.45805241118232" lon="10.068779043777742"><ele>995.0</ele><time>2026-04-07T10:05:53Z</time></trkpt><trkpt lat="44.457997742935305" lon="10.068931949715788"><ele>995.0</ele><time>2026-04-07T10:05:55Z</time></trkpt><trkpt lat="44.4579652252076" lon="10.069049082854873"><ele>995.0</ele><time>2026-04-07T10:05:57Z</time></trkpt><trkpt lat="44.45799614135712" lon="10.069138292768596"><ele>995.0</ele><time>2026-04-07T10:05:59Z</time></trkpt><trkpt lat="44.4579840338049" lon="10.06923060360465"><ele>995.0</ele><time>2026-04-07T10:06:02Z</time></trkpt><trkpt lat="44.45795223968215" lon="10.069308291753085"><ele>995.0</ele><time>2026-04-07T10:06:04Z</time></trkpt><trkpt lat="44.45788873125138" lon="10.069342646765993"><ele>995.0</ele><time>2026-04-07T10:06:05Z</time></trkpt><trkpt lat="44.457834434040414" lon="10.069411808203713"><ele>995.0</ele><time>2026-04-07T10:06:07Z</time></trkpt><trkpt lat="44.45782554482958" lon="10.069601186042146"><ele>996.4</ele><time>2026-04-07T10:06:53.999Z</time></trkpt><trkpt lat="44.457858758790735" lon="10.069706924338849"><ele>997.8</ele><time>2026-04-07T10:06:56.999Z</time></trkpt><trkpt lat="44.457930675073904" lon="10.069817848630647"><ele>999.2</ele><time>2026-04-07T10:06:58.999Z</time></trkpt><trkpt lat="44.457983759327774" lon="10.069927453775184"><ele>1000.6</ele><time>2026-04-07T10:07:00.999Z</time></trkpt><trkpt lat="44.45791931215203" lon="10.070008843950289"><ele>1002.0</ele><time>2026-04-07T10:07:03.999Z</time></trkpt><trkpt lat="44.45781832518225" lon="10.069995939470612"><ele>1006.8333333333334</ele><time>2026-04-07T10:07:05.999Z</time></trkpt><trkpt lat="44.457737390871074" lon="10.070075444705921"><ele>1011.6666666666667</ele><time>2026-04-07T10:07:08Z</time></trkpt><trkpt lat="44.45765490314974" lon="10.070180870948304"><ele>1016.5</ele><time>2026-04-07T10:07:11Z</time></trkpt><trkpt lat="44.45757960448162" lon="10.070200148455895"><ele>1021.3333333333334</ele><time>2026-04-07T10:07:13Z</time></trkpt><trkpt lat="44.45750302765527" lon="10.070233373927708"><ele>1026.1666666666667</ele><time>2026-04-07T10:07:15Z</time></trkpt><trkpt lat="44.45746187458432" lon="10.070331095670936"><ele>1031.0</ele><time>2026-04-07T10:07:17Z</time></trkpt><trkpt lat="44.457414839231745" lon="10.070403976679579"><ele>1031.0</ele><time>2026-04-07T10:07:20Z</time></trkpt><trkpt lat="44.4573545189049" lon="10.070441131297356"><ele>1031.0</ele><time>2026-04-07T10:07:22Z</time></trkpt><trkpt lat="44.45729987590686" lon="10.070381685653201"><ele>1031.0</ele><time>2026-04-07T10:07:23Z</time></trkpt><trkpt lat="44.45723422787106" lon="10.07033644474002"><ele>1031.0</ele><time>2026-04-07T10:07:24Z</time></trkpt><trkpt lat="44.45713520200253" lon="10.070349910681989"><ele>1031.0</ele><time>2026-04-07T10:07:26Z</time></trkpt><trkpt lat="44.457050496794636" lon="10.070351711279367"><ele>1031.0</ele><time>2026-04-07T10:07:28Z</time></trkpt><trkpt lat="44.45697927599957" lon="10.070351480867703"><ele>1034.5</ele><time>2026-04-07T10:07:30Z</time></trkpt><trkpt lat="44.45691674250975" lon="10.070313352667933"><ele>1038.0</ele><time>2026-04-07T10:07:32Z</time></trkpt><trkpt lat="44.45684274875458" lon="10.070314034402776"><ele>1041.5</ele><time>2026-04-07T10:07:33Z</time></trkpt><trkpt lat="44.456758718824005" lon="10.07031960314053"><ele>1045.0</ele><time>2026-04-07T10:07:34Z</time></trkpt><trkpt lat="44.45666598918615" lon="10.070324839688846"><ele>1048.5</ele><time>2026-04-07T10:07:35Z</time></trkpt><trkpt lat="44.45655786342928" lon="10.070313018156856"><ele>1052.0</ele><time>2026-04-07T10:07:37Z</time></trkpt><trkpt lat="44.45646849561931" lon="10.070349735750451"><ele>1052.0</ele><time>2026-04-07T10:07:39Z</time></trkpt><trkpt lat="44.45639994291694" lon="10.070394047606706"><ele>1052.0</ele><time>2026-04-07T10:07:42Z</time></trkpt><trkpt lat="44.45633714312229" lon="10.07041235620371"><ele>1052.0</ele><time>2026-04-07T10:07:44Z</time></trkpt><trkpt lat="44.45626630519286" lon="10.070430635944307"><ele>1052.0</ele><time>2026-04-07T10:07:46Z</time></trkpt><trkpt lat="44.45617830320457" lon="10.070453913114864"><ele>1052.0</ele><time>2026-04-07T10:07:48Z</time></trkpt><trkpt lat="44.45611637926011" lon="10.070418825074826"><ele>1052.0</ele><time>2026-04-07T10:07:50Z</time></trkpt><trkpt lat="44.456075492728274" lon="10.070307944001868"><ele>1054.1666666666667</ele><time>2026-04-07T10:07:53Z</time></trkpt><trkpt lat="44.45599360988593" lon="10.070227135268073"><ele>1056.3333333333335</ele><time>2026-04-07T10:07:55Z</time></trkpt><trkpt lat="44.45594380688084" lon="10.070136947005773"><ele>1058.5</ele><time>2026-04-07T10:07:57Z</time></trkpt><trkpt lat="44.45587287250692" lon="10.070093194568564"><ele>1060.6666666666667</ele><time>2026-04-07T10:07:59Z</time></trkpt><trkpt lat="44.45583850055582" lon="10.070014986784114"><ele>1062.8333333333333</ele><time>2026-04-07T10:08:00Z</time></trkpt><trkpt lat="44.455780955035735" lon="10.069942782805406"><ele>1065.0</ele><time>2026-04-07T10:08:02Z</time></trkpt><trkpt lat="44.45571057149416" lon="10.069899103719754"><ele>1065.0</ele><time>2026-04-07T10:08:04Z</time></trkpt><trkpt lat="44.45561904081149" lon="10.06985526281786"><ele>1065.0</ele><time>2026-04-07T10:08:06Z</time></trkpt><trkpt lat="44.45551991548878" lon="10.069795986704827"><ele>1065.0</ele><time>2026-04-07T10:08:08Z</time></trkpt><trkpt lat="44.455438763793296" lon="10.069701956975017"><ele>1065.0</ele><time>2026-04-07T10:08:10Z</time></trkpt><trkpt lat="44.45536758382899" lon="10.069613815060665"><ele>1065.0</ele><time>2026-04-07T10:08:11.999Z</time></trkpt><trkpt lat="44.455293981575224" lon="10.069532341178231"><ele>1064.1666666666667</ele><time>2026-04-07T10:08:12.999Z</time></trkpt><trkpt lat="44.455216489809345" lon="10.069397478934558"><ele>1063.3333333333333</ele><time>2026-04-07T10:08:14.999Z</time></trkpt><trkpt lat="44.45515134313031" lon="10.069297413072887"><ele>1062.5</ele><time>2026-04-07T10:08:16.999Z</time></trkpt><trkpt lat="44.45510250755354" lon="10.069236279666736"><ele>1061.6666666666665</ele><time>2026-04-07T10:08:18.999Z</time></trkpt><trkpt lat="44.4550550811615" lon="10.06916533541983"><ele>1060.8333333333333</ele><time>2026-04-07T10:08:20.999Z</time></trkpt><trkpt lat="44.45501469584091" lon="10.069094099777661"><ele>1060.0</ele><time>2026-04-07T10:08:22.999Z</time></trkpt><trkpt lat="44.45496357613699" lon="10.0690322581766"><ele>1060.0</ele><time>2026-04-07T10:08:24.999Z</time></trkpt><trkpt lat="44.45489676762711" lon="10.068973855193141"><ele>1060.0</ele><time>2026-04-07T10:08:25.999Z</time></trkpt><trkpt lat="44.45483670782406" lon="10.068927176046234"><ele>1060.0</ele><time>2026-04-07T10:08:30.999Z</time></trkpt><trkpt lat="44.45475989981977" lon="10.068911329308204"><ele>1060.0</ele><time>2026-04-07T10:08:32.999Z</time></trkpt><trkpt lat="44.45464907820376" lon="10.068907528758263"><ele>1060.0</ele><time>2026-04-07T10:08:34.999Z</time></trkpt><trkpt lat="44.45454841736491" lon="10.06885793166378"><ele>1060.0</ele><time>2026-04-07T10:08:36.999Z</time></trkpt><trkpt lat="44.4544558540063" lon="10.068819898862708"><ele>1062.6666666666665</ele><time>2026-04-07T10:08:39.999Z</time></trkpt><trkpt lat="44.454373805736886" lon="10.068754633780543"><ele>1065.3333333333333</ele><time>2026-04-07T10:08:43.999Z</time></trkpt><trkpt lat="44.45429739570821" lon="10.068758003190855"><ele>1068.0</ele><time>2026-04-07T10:08:46.999Z</time></trkpt><trkpt lat="44.45420527847139" lon="10.068755649566961"><ele>1070.6666666666667</ele><time>2026-04-07T10:08:48.999Z</time></trkpt><trkpt lat="44.45412263116604" lon="10.068753345489133"><ele>1073.3333333333335</ele><time>2026-04-07T10:08:50.999Z</time></trkpt><trkpt lat="44.45404959176861" lon="10.068767907868763"><ele>1076.0</ele><time>2026-04-07T10:08:51.999Z</time></trkpt><trkpt lat="44.45397936263026" lon="10.068786357853917"><ele>1076.0</ele><time>2026-04-07T10:08:53.999Z</time></trkpt><trkpt lat="44.45391949474132" lon="10.068744297193032"><ele>1076.0</ele><time>2026-04-07T10:08:55.999Z</time></trkpt><trkpt lat="44.45385355516886" lon="10.068740640642426"><ele>1076.0</ele><time>2026-04-07T10:08:59.999Z</time></trkpt><trkpt lat="44.45378999699775" lon="10.068751283713715"><ele>1076.0</ele><time>2026-04-07T10:09:04.999Z</time></trkpt><trkpt lat="44.45372586539856" lon="10.068733801700766"><ele>1076.0</ele><time>2026-04-07T10:09:22.999Z</time></trkpt><trkpt lat="44.453655373727884" lon="10.06866945798287"><ele>1076.0</ele><time>2026-04-07T10:09:35Z</time></trkpt><trkpt lat="44.45361288058659" lon="10.068600761664253"><ele>1076.0</ele><time>2026-04-07T10:09:38Z</time></trkpt><trkpt lat="44.45352027785777" lon="10.068607195898956"><ele>1077.1666666666667</ele><time>2026-04-07T10:09:43Z</time></trkpt><trkpt lat="44.45347245080872" lon="10.068545641958954"><ele>1078.3333333333335</ele><time>2026-04-07T10:09:46Z</time></trkpt><trkpt lat="44.4533955171354" lon="10.068473993444053"><ele>1079.5</ele><time>2026-04-07T10:09:48Z</time></trkpt><trkpt lat="44.453328664300265" lon="10.06843167034045"><ele>1080.6666666666667</ele><time>2026-04-07T10:09:50Z</time></trkpt><trkpt lat="44.453257814470845" lon="10.068347201234218"><ele>1081.8333333333333</ele><time>2026-04-07T10:09:52.999Z</time></trkpt><trkpt lat="44.4531783134671" lon="10.06835299069482"><ele>1083.0</ele><time>2026-04-07T10:09:53.999Z</time></trkpt><trkpt lat="44.45308416568381" lon="10.06836190769609"><ele>1083.0</ele><time>2026-04-07T10:09:55.999Z</time></trkpt><trkpt lat="44.45301550292152" lon="10.068364007633084"><ele>1083.0</ele><time>2026-04-07T10:09:57.999Z</time></trkpt><trkpt lat="44.452956049168776" lon="10.06839591610733"><ele>1083.0</ele><time>2026-04-07T10:09:58.999Z</time></trkpt><trkpt lat="44.45289529587601" lon="10.068462731716155"><ele>1083.0</ele><time>2026-04-07T10:10:00.999Z</time></trkpt><trkpt lat="44.452815552041564" lon="10.068512941730962"><ele>1083.0</ele><time>2026-04-07T10:10:04.999Z</time></trkpt><trkpt lat="44.45273882957946" lon="10.068539027231019"><ele>1083.0</ele><time>2026-04-07T10:10:07.999Z</time></trkpt><trkpt lat="44.45267148480555" lon="10.068485065866929"><ele>1086.0</ele><time>2026-04-07T10:10:12.999Z</time></trkpt><trkpt lat="44.45258378897301" lon="10.068449125327712"><ele>1089.0</ele><time>2026-04-07T10:10:15.999Z</time></trkpt><trkpt lat="44.452487526063805" lon="10.068427355575029"><ele>1092.0</ele><time>2026-04-07T10:10:18.999Z</time></trkpt><trkpt lat="44.45242131589569" lon="10.06840804964662"><ele>1095.0</ele><time>2026-04-07T10:10:20.999Z</time></trkpt><trkpt lat="44.45233134002864" lon="10.068404952009114"><ele>1098.0</ele><time>2026-04-07T10:10:23.999Z</time></trkpt><trkpt lat="44.45223093705468" lon="10.068402164658265"><ele>1101.0</ele><time>2026-04-07T10:10:27.999Z</time></trkpt><trkpt lat="44.45216471810294" lon="10.068376199156202"><ele>1101.0</ele><time>2026-04-07T10:10:29.999Z</time></trkpt><trkpt lat="44.45209380762792" lon="10.06835294451762"><ele>1101.0</ele><time>2026-04-07T10:12:01Z</time></trkpt><trkpt lat="44.452160200388676" lon="10.068367567417635"><ele>1101.0</ele><time>2026-04-07T10:12:51.999Z</time></trkpt><trkpt lat="44.45209474916148" lon="10.068325389137051"><ele>1101.0</ele><time>2026-04-07T10:14:04Z</time></trkpt><trkpt lat="44.45207788143326" lon="10.068239969949097"><ele>1101.0</ele><time>2026-04-07T10:14:12Z</time></trkpt><trkpt lat="44.45208059410092" lon="10.068147958990554"><ele>1101.0</ele><time>2026-04-07T10:14:24Z</time></trkpt><trkpt lat="44.45203200750596" lon="10.068057358586069"><ele>1101.0</ele><time>2026-04-07T10:16:52Z</time></trkpt><trkpt lat="44.45204078551214" lon="10.068145426954903"><ele>1101.0</ele><time>2026-04-07T10:17:15.999Z</time></trkpt><trkpt lat="44.45202293890181" lon="10.068234168930823"><ele>1101.0</ele><time>2026-04-07T10:17:21.999Z</time></trkpt><trkpt lat="44.452052566536324" lon="10.06832011694929"><ele>1101.0</ele><time>2026-04-07T10:17:44Z</time></trkpt><trkpt lat="44.45212636812265" lon="10.068364660292746"><ele>1101.0</ele><time>2026-04-07T10:18:18Z</time></trkpt><trkpt lat="44.452193021064986" lon="10.068380587057856"><ele>1101.0</ele><time>2026-04-07T10:18:27Z</time></trkpt><trkpt lat="44.45227625721819" lon="10.068407090679619"><ele>1101.0</ele><time>2026-04-07T10:18:39Z</time></trkpt><trkpt lat="44.45233909517509" lon="10.068415775459199"><ele>1101.0</ele><time>2026-04-07T10:18:41Z</time></trkpt><trkpt lat="44.45241555948893" lon="10.0684499860092"><ele>1101.0</ele><time>2026-04-07T10:18:44Z</time></trkpt><trkpt lat="44.452473995728326" lon="10.068486699572167"><ele>1101.0</ele><time>2026-04-07T10:18:46Z</time></trkpt><trkpt lat="44.452543417800605" lon="10.068506067133304"><ele>1101.0</ele><time>2026-04-07T10:18:48Z</time></trkpt><trkpt lat="44.45259518855947" lon="10.068575850387319"><ele>1101.0</ele><time>2026-04-07T10:18:51Z</time></trkpt><trkpt lat="44.45266363249773" lon="10.068586784716302"><ele>1101.0</ele><time>2026-04-07T10:18:54Z</time></trkpt><trkpt lat="44.45273924233858" lon="10.06855452646027"><ele>1101.0</ele><time>2026-04-07T10:18:57.999Z</time></trkpt><trkpt lat="44.452806069544096" lon="10.06850534656494"><ele>1101.0</ele><time>2026-04-07T10:19:00.999Z</time></trkpt><trkpt lat="44.4528642269293" lon="10.068451709848077"><ele>1101.0</ele><time>2026-04-07T10:19:03.999Z</time></trkpt><trkpt lat="44.45293036480381" lon="10.068414992642799"><ele>1101.0</ele><time>2026-04-07T10:19:06.999Z</time></trkpt><trkpt lat="44.45300641250434" lon="10.068404908190207"><ele>1101.0</ele><time>2026-04-07T10:19:08.999Z</time></trkpt><trkpt lat="44.453072314122224" lon="10.068376187546887"><ele>1101.0</ele><time>2026-04-07T10:19:10.999Z</time></trkpt><trkpt lat="44.45316133618655" lon="10.06839713485544"><ele>1101.0</ele><time>2026-04-07T10:19:15.999Z</time></trkpt><trkpt lat="44.45322031708997" lon="10.068441495466093"><ele>1101.0</ele><time>2026-04-07T10:19:18.999Z</time></trkpt><trkpt lat="44.45329189733273" lon="10.06849818135826"><ele>1098.0</ele><time>2026-04-07T10:19:21.999Z</time></trkpt><trkpt lat="44.45336802399887" lon="10.068534891550433"><ele>1095.0</ele><time>2026-04-07T10:19:25.999Z</time></trkpt><trkpt lat="44.453446552914464" lon="10.06854836062906"><ele>1092.0</ele><time>2026-04-07T10:19:29.999Z</time></trkpt><trkpt lat="44.453508152227535" lon="10.068582139055621"><ele>1089.0</ele><time>2026-04-07T10:19:35.999Z</time></trkpt><trkpt lat="44.453567357108355" lon="10.068628013064137"><ele>1086.0</ele><time>2026-04-07T10:19:55Z</time></trkpt><trkpt lat="44.45363890324362" lon="10.068668665889442"><ele>1083.0</ele><time>2026-04-07T10:20:28Z</time></trkpt><trkpt lat="44.45373555173545" lon="10.068732666712934"><ele>1081.8333333333333</ele><time>2026-04-07T10:20:31Z</time></trkpt><trkpt lat="44.45381802644111" lon="10.06874187700674"><ele>1080.6666666666667</ele><time>2026-04-07T10:20:33Z</time></trkpt><trkpt lat="44.45388072537056" lon="10.068728548751865"><ele>1079.5</ele><time>2026-04-07T10:20:35Z</time></trkpt><trkpt lat="44.45398111488639" lon="10.068731562945"><ele>1078.3333333333335</ele><time>2026-04-07T10:20:38Z</time></trkpt><trkpt lat="44.454043095686764" lon="10.068714769975486"><ele>1077.1666666666667</ele><time>2026-04-07T10:20:40Z</time></trkpt><trkpt lat="44.45412488061178" lon="10.068701485046214"><ele>1076.0</ele><time>2026-04-07T10:20:43Z</time></trkpt><trkpt lat="44.45419698466359" lon="10.068730646824811"><ele>1076.0</ele><time>2026-04-07T10:20:46Z</time></trkpt><trkpt lat="44.45430051567373" lon="10.068762694564388"><ele>1076.0</ele><time>2026-04-07T10:20:49Z</time></trkpt><trkpt lat="44.454358151059175" lon="10.068807459467074"><ele>1076.0</ele><time>2026-04-07T10:20:51Z</time></trkpt><trkpt lat="44.454429262371974" lon="10.06879505439565"><ele>1076.0</ele><time>2026-04-07T10:20:53Z</time></trkpt><trkpt lat="44.4545190637176" lon="10.068839033117879"><ele>1076.0</ele><time>2026-04-07T10:20:56Z</time></trkpt><trkpt lat="44.45458246040469" lon="10.068851283054101"><ele>1076.0</ele><time>2026-04-07T10:20:58Z</time></trkpt><trkpt lat="44.45464860824746" lon="10.06887843915033"><ele>1076.5714285714287</ele><time>2026-04-07T10:21:00.999Z</time></trkpt><trkpt lat="44.45472147911205" lon="10.068902558008178"><ele>1077.1428571428573</ele><time>2026-04-07T10:21:03.999Z</time></trkpt><trkpt lat="44.45478885330007" lon="10.068934516245516"><ele>1077.7142857142858</ele><time>2026-04-07T10:21:06.999Z</time></trkpt><trkpt lat="44.45484549377132" lon="10.06898824957754"><ele>1078.2857142857142</ele><time>2026-04-07T10:21:08.999Z</time></trkpt><trkpt lat="44.454913884591136" lon="10.06903070489422"><ele>1078.8571428571427</ele><time>2026-04-07T10:21:11.999Z</time></trkpt><trkpt lat="44.45497397449559" lon="10.06912610824927"><ele>1079.4285714285713</ele><time>2026-04-07T10:21:14.999Z</time></trkpt><trkpt lat="44.455013654744846" lon="10.069197035120451"><ele>1080.0</ele><time>2026-04-07T10:21:16.999Z</time></trkpt><trkpt lat="44.4550709224492" lon="10.06929345393711"><ele>1080.0</ele><time>2026-04-07T10:21:19.999Z</time></trkpt><trkpt lat="44.45511166882491" lon="10.069384832155981"><ele>1080.0</ele><time>2026-04-07T10:21:22.999Z</time></trkpt><trkpt lat="44.45517016624777" lon="10.06946508662158"><ele>1080.0</ele><time>2026-04-07T10:21:24.999Z</time></trkpt><trkpt lat="44.45522415286886" lon="10.069555713882012"><ele>1080.0</ele><time>2026-04-07T10:21:27.999Z</time></trkpt><trkpt lat="44.4552710011141" lon="10.069627239034453"><ele>1080.0</ele><time>2026-04-07T10:21:30.999Z</time></trkpt><trkpt lat="44.45531674313107" lon="10.069701562263289"><ele>1080.0</ele><time>2026-04-07T10:21:33.999Z</time></trkpt><trkpt lat="44.45539503629443" lon="10.06972997807776"><ele>1078.857142857143</ele><time>2026-04-07T10:21:35.999Z</time></trkpt><trkpt lat="44.45545963366188" lon="10.069756875688599"><ele>1077.7142857142856</ele><time>2026-04-07T10:21:38.999Z</time></trkpt><trkpt lat="44.45551779421956" lon="10.06979621273407"><ele>1076.5714285714284</ele><time>2026-04-07T10:21:40.999Z</time></trkpt><trkpt lat="44.455567946627234" lon="10.069872447507354"><ele>1075.4285714285713</ele><time>2026-04-07T10:21:42.999Z</time></trkpt><trkpt lat="44.45563549612716" lon="10.069937759643901"><ele>1074.2857142857142</ele><time>2026-04-07T10:21:45.999Z</time></trkpt><trkpt lat="44.45566845160233" lon="10.070013561538765"><ele>1073.142857142857</ele><time>2026-04-07T10:21:47.999Z</time></trkpt><trkpt lat="44.45571766828527" lon="10.070093922608997"><ele>1072.0</ele><time>2026-04-07T10:21:51Z</time></trkpt><trkpt lat="44.45578966743713" lon="10.070140147219385"><ele>1072.0</ele><time>2026-04-07T10:21:54Z</time></trkpt><trkpt lat="44.45585581168967" lon="10.070183969368264"><ele>1072.0</ele><time>2026-04-07T10:21:57Z</time></trkpt><trkpt lat="44.45591671313114" lon="10.070283912391872"><ele>1072.0</ele><time>2026-04-07T10:21:59Z</time></trkpt><trkpt lat="44.45597323848065" lon="10.070367551796693"><ele>1072.0</ele><time>2026-04-07T10:22:01Z</time></trkpt><trkpt lat="44.45605406643585" lon="10.07040858448653"><ele>1072.0</ele><time>2026-04-07T10:22:03Z</time></trkpt><trkpt lat="44.45612998870657" lon="10.070399348904939"><ele>1072.0</ele><time>2026-04-07T10:22:07Z</time></trkpt><trkpt lat="44.45619446352192" lon="10.07038105036667"><ele>1068.6666666666665</ele><time>2026-04-07T10:22:09Z</time></trkpt><trkpt lat="44.45629480281244" lon="10.070339033897486"><ele>1065.3333333333333</ele><time>2026-04-07T10:22:12Z</time></trkpt><trkpt lat="44.45637533944846" lon="10.07034010221884"><ele>1062.0</ele><time>2026-04-07T10:22:17Z</time></trkpt><trkpt lat="44.456438775439814" lon="10.070342748485663"><ele>1058.6666666666667</ele><time>2026-04-07T10:22:19Z</time></trkpt><trkpt lat="44.45654622262054" lon="10.070346761377959"><ele>1055.3333333333335</ele><time>2026-04-07T10:22:22Z</time></trkpt><trkpt lat="44.45661561108441" lon="10.070365864791714"><ele>1052.0</ele><time>2026-04-07T10:22:26Z</time></trkpt><trkpt lat="44.45672590880972" lon="10.070382005911368"><ele>1052.0</ele><time>2026-04-07T10:22:29Z</time></trkpt><trkpt lat="44.45681022091194" lon="10.07040362164214"><ele>1052.0</ele><time>2026-04-07T10:22:31Z</time></trkpt><trkpt lat="44.45688797211707" lon="10.070422496018463"><ele>1052.0</ele><time>2026-04-07T10:22:33Z</time></trkpt><trkpt lat="44.456970565124635" lon="10.070418029010273"><ele>1052.0</ele><time>2026-04-07T10:22:35Z</time></trkpt><trkpt lat="44.45705597576411" lon="10.070410923891588"><ele>1052.0</ele><time>2026-04-07T10:22:37Z</time></trkpt><trkpt lat="44.45713248496067" lon="10.0704504698087"><ele>1052.0</ele><time>2026-04-07T10:22:40Z</time></trkpt><trkpt lat="44.457197804562746" lon="10.070507012639787"><ele>1048.5</ele><time>2026-04-07T10:22:42Z</time></trkpt><trkpt lat="44.457261817948265" lon="10.070531027724682"><ele>1045.0</ele><time>2026-04-07T10:22:44Z</time></trkpt><trkpt lat="44.45732644486811" lon="10.070456412404445"><ele>1041.5</ele><time>2026-04-07T10:22:47Z</time></trkpt><trkpt lat="44.4573678174835" lon="10.070381374959155"><ele>1038.0</ele><time>2026-04-07T10:22:49Z</time></trkpt><trkpt lat="44.45743968920591" lon="10.070306349154727"><ele>1034.5</ele><time>2026-04-07T10:22:51.999Z</time></trkpt><trkpt lat="44.457510282287494" lon="10.070324986071778"><ele>1031.0</ele><time>2026-04-07T10:22:54.999Z</time></trkpt><trkpt lat="44.45761968652308" lon="10.070271046435423"><ele>1031.0</ele><time>2026-04-07T10:22:57.999Z</time></trkpt><trkpt lat="44.457710334186565" lon="10.070227040178558"><ele>1031.0</ele><time>2026-04-07T10:22:59.999Z</time></trkpt><trkpt lat="44.45776974713459" lon="10.070146035940148"><ele>1031.0</ele><time>2026-04-07T10:23:01.999Z</time></trkpt><trkpt lat="44.45786944103117" lon="10.070136753078136"><ele>1031.0</ele><time>2026-04-07T10:23:03.999Z</time></trkpt><trkpt lat="44.457948912997665" lon="10.07005564113165"><ele>1031.0</ele><time>2026-04-07T10:23:06.999Z</time></trkpt><trkpt lat="44.45792518443938" lon="10.069945562298452"><ele>1029.3333333333335</ele><time>2026-04-07T10:23:09.999Z</time></trkpt><trkpt lat="44.45790348093027" lon="10.069855206431964"><ele>1027.6666666666667</ele><time>2026-04-07T10:23:12.999Z</time></trkpt><trkpt lat="44.45787173859276" lon="10.069745797673027"><ele>1026.0</ele><time>2026-04-07T10:23:16.999Z</time></trkpt><trkpt lat="44.45784844330114" lon="10.069660890779637"><ele>1024.3333333333333</ele><time>2026-04-07T10:23:19.999Z</time></trkpt><trkpt lat="44.45783992300387" lon="10.069564483820177"><ele>1022.6666666666666</ele><time>2026-04-07T10:23:22.999Z</time></trkpt><trkpt lat="44.45790147615389" lon="10.069508276825598"><ele>1021.0</ele><time>2026-04-07T10:23:25.999Z</time></trkpt><trkpt lat="44.45800161516924" lon="10.069464362997648"><ele>1017.8333333333333</ele><time>2026-04-07T10:23:28.999Z</time></trkpt><trkpt lat="44.4580303770192" lon="10.069364956390391"><ele>1014.6666666666666</ele><time>2026-04-07T10:23:30.999Z</time></trkpt><trkpt lat="44.458008173914386" lon="10.06926617737879"><ele>1011.5</ele><time>2026-04-07T10:23:32.999Z</time></trkpt><trkpt lat="44.4579866084308" lon="10.06916033939035"><ele>1008.3333333333333</ele><time>2026-04-07T10:23:34.999Z</time></trkpt><trkpt lat="44.45804968096526" lon="10.069105143995383"><ele>1005.1666666666666</ele><time>2026-04-07T10:23:36.999Z</time></trkpt><trkpt lat="44.458067075861244" lon="10.068972320662551"><ele>1002.0</ele><time>2026-04-07T10:23:39.999Z</time></trkpt><trkpt lat="44.45807021584639" lon="10.068858844479358"><ele>1000.6</ele><time>2026-04-07T10:23:41.999Z</time></trkpt><trkpt lat="44.45808595014604" lon="10.068690663979071"><ele>999.2</ele><time>2026-04-07T10:23:43.999Z</time></trkpt><trkpt lat="44.45811457306643" lon="10.068565822294362"><ele>997.8</ele><time>2026-04-07T10:23:45.999Z</time></trkpt><trkpt lat="44.458179469206534" lon="10.068441969630898"><ele>996.4</ele><time>2026-04-07T10:23:47.999Z</time></trkpt><trkpt lat="44.458252804063505" lon="10.068359730300129"><ele>995.0</ele><time>2026-04-07T10:23:49.999Z</time></trkpt><trkpt lat="44.45833565116261" lon="10.068261352943203"><ele>992.6</ele><time>2026-04-07T10:23:51.999Z</time></trkpt><trkpt lat="44.45840864572611" lon="10.068115950940317"><ele>990.2</ele><time>2026-04-07T10:23:53.999Z</time></trkpt><trkpt lat="44.458453452579754" lon="10.068038574194729"><ele>987.8</ele><time>2026-04-07T10:23:55Z</time></trkpt><trkpt lat="44.458532402825014" lon="10.067918935293392"><ele>985.4</ele><time>2026-04-07T10:23:57Z</time></trkpt><trkpt lat="44.458597855900045" lon="10.067811209546111"><ele>983.0</ele><time>2026-04-07T10:24:00Z</time></trkpt><trkpt lat="44.45864323274265" lon="10.06773170599503"><ele>983.0</ele><time>2026-04-07T10:24:02Z</time></trkpt><trkpt lat="44.45868509866583" lon="10.067646638577752"><ele>983.0</ele><time>2026-04-07T10:24:04Z</time></trkpt><trkpt lat="44.45873113545533" lon="10.067561394458137"><ele>983.0</ele><time>2026-04-07T10:24:06Z</time></trkpt><trkpt lat="44.45878719495926" lon="10.06744655398378"><ele>983.0</ele><time>2026-04-07T10:24:09Z</time></trkpt><trkpt lat="44.45886476269883" lon="10.067317370898335"><ele>983.0</ele><time>2026-04-07T10:24:11Z</time></trkpt><trkpt lat="44.45896604217877" lon="10.067230853477565"><ele>978.2</ele><time>2026-04-07T10:24:13Z</time></trkpt><trkpt lat="44.45902495208691" lon="10.067112550126842"><ele>973.4</ele><time>2026-04-07T10:24:15Z</time></trkpt><trkpt lat="44.45907281157951" lon="10.067028967391009"><ele>968.6000000000001</ele><time>2026-04-07T10:24:17Z</time></trkpt><trkpt lat="44.4591695605394" lon="10.066994929180716"><ele>963.8000000000001</ele><time>2026-04-07T10:24:19Z</time></trkpt><trkpt lat="44.459271003144465" lon="10.066941456479263"><ele>959.0</ele><time>2026-04-07T10:24:21Z</time></trkpt><trkpt lat="44.45935449490557" lon="10.066856053386845"><ele>959.0</ele><time>2026-04-07T10:24:23Z</time></trkpt><trkpt lat="44.45943050753509" lon="10.066772170750225"><ele>959.0000000000001</ele><time>2026-04-07T10:24:25Z</time></trkpt><trkpt lat="44.45954207526161" lon="10.066693290637284"><ele>959.0000000000001</ele><time>2026-04-07T10:24:27Z</time></trkpt><trkpt lat="44.45961868849051" lon="10.066651736648106"><ele>959.0</ele><time>2026-04-07T10:24:29Z</time></trkpt><trkpt lat="44.45966927838303" lon="10.066571825035115"><ele>959.0</ele><time>2026-04-07T10:24:31Z</time></trkpt><trkpt lat="44.45972683974234" lon="10.066490332160576"><ele>954.2</ele><time>2026-04-07T10:24:33Z</time></trkpt><trkpt lat="44.459779909170884" lon="10.066384182154817"><ele>949.4000000000001</ele><time>2026-04-07T10:24:35Z</time></trkpt><trkpt lat="44.459842145889006" lon="10.066301220176955"><ele>944.6</ele><time>2026-04-07T10:24:37Z</time></trkpt><trkpt lat="44.45990885920086" lon="10.066194664235566"><ele>939.8</ele><time>2026-04-07T10:24:39Z</time></trkpt><trkpt lat="44.45997758502586" lon="10.066098826884986"><ele>935.0</ele><time>2026-04-07T10:24:41Z</time></trkpt><trkpt lat="44.460018828178114" lon="10.0659806715624"><ele>935.0</ele><time>2026-04-07T10:24:43Z</time></trkpt><trkpt lat="44.46010492069575" lon="10.065868293806918"><ele>935.0</ele><time>2026-04-07T10:24:45Z</time></trkpt><trkpt lat="44.46020932696966" lon="10.065790259285102"><ele>935.0</ele><time>2026-04-07T10:24:47Z</time></trkpt><trkpt lat="44.46028679317843" lon="10.065708299374487"><ele>935.0</ele><time>2026-04-07T10:24:49Z</time></trkpt><trkpt lat="44.46036893301998" lon="10.065632315896561"><ele>935.0</ele><time>2026-04-07T10:24:51Z</time></trkpt><trkpt lat="44.46046385189341" lon="10.065561129891934"><ele>932.4</ele><time>2026-04-07T10:24:53Z</time></trkpt><trkpt lat="44.46055925259502" lon="10.065468102992584"><ele>929.8</ele><time>2026-04-07T10:24:55Z</time></trkpt><trkpt lat="44.46063781159967" lon="10.065355591705876"><ele>927.2</ele><time>2026-04-07T10:24:57Z</time></trkpt><trkpt lat="44.460720419342934" lon="10.065245354145354"><ele>924.6</ele><time>2026-04-07T10:24:58.999Z</time></trkpt><trkpt lat="44.46079224474481" lon="10.065137517960387"><ele>922.0</ele><time>2026-04-07T10:25:00.999Z</time></trkpt><trkpt lat="44.460829845590496" lon="10.0650494929187"><ele>920.6666666666666</ele><time>2026-04-07T10:25:04.999Z</time></trkpt><trkpt lat="44.46086679215954" lon="10.064943150122863"><ele>919.3333333333333</ele><time>2026-04-07T10:25:07.999Z</time></trkpt><trkpt lat="44.46090772948114" lon="10.064819976335876"><ele>918.0</ele><time>2026-04-07T10:25:09.999Z</time></trkpt><trkpt lat="44.46093984494586" lon="10.064684729920618"><ele>916.6666666666667</ele><time>2026-04-07T10:25:12.999Z</time></trkpt><trkpt lat="44.460969895285125" lon="10.064562495228909"><ele>915.3333333333334</ele><time>2026-04-07T10:25:15.999Z</time></trkpt><trkpt lat="44.46100684368627" lon="10.064480795191166"><ele>914.0</ele><time>2026-04-07T10:25:19.999Z</time></trkpt><trkpt lat="44.4610343354365" lon="10.064380249322388"><ele>914.0000000000001</ele><time>2026-04-07T10:25:21.999Z</time></trkpt><trkpt lat="44.4610515546105" lon="10.06427365862224"><ele>914.0</ele><time>2026-04-07T10:25:23.999Z</time></trkpt><trkpt lat="44.46107931522666" lon="10.064171236741204"><ele>914.0</ele><time>2026-04-07T10:25:26.999Z</time></trkpt><trkpt lat="44.46112538493255" lon="10.064046899791757"><ele>914.0</ele><time>2026-04-07T10:25:29.999Z</time></trkpt><trkpt lat="44.46118598595099" lon="10.063960254029993"><ele>914.0000000000001</ele><time>2026-04-07T10:25:31.999Z</time></trkpt><trkpt lat="44.46123704608118" lon="10.063873167672982"><ele>914.0</ele><time>2026-04-07T10:25:34.999Z</time></trkpt><trkpt lat="44.461294277757126" lon="10.063776647838273"><ele>911.4000000000001</ele><time>2026-04-07T10:25:35.999Z</time></trkpt><trkpt lat="44.46137530280211" lon="10.063688191779802"><ele>908.8000000000001</ele><time>2026-04-07T10:25:37.999Z</time></trkpt><trkpt lat="44.461449951610916" lon="10.06360396252078"><ele>906.1999999999999</ele><time>2026-04-07T10:25:39.999Z</time></trkpt><trkpt lat="44.46151363539873" lon="10.063500272728657"><ele>903.5999999999999</ele><time>2026-04-07T10:25:41.999Z</time></trkpt><trkpt lat="44.46155996135878" lon="10.063405361939688"><ele>901.0</ele><time>2026-04-07T10:25:44.999Z</time></trkpt><trkpt lat="44.46163826967286" lon="10.063351546026961"><ele>897.7142857142858</ele><time>2026-04-07T10:25:46.999Z</time></trkpt><trkpt lat="44.461652517967615" lon="10.063260723543774"><ele>894.4285714285716</ele><time>2026-04-07T10:25:49.999Z</time></trkpt><trkpt lat="44.46171353378816" lon="10.063196203325848"><ele>891.1428571428571</ele><time>2026-04-07T10:25:51.999Z</time></trkpt><trkpt lat="44.46176280343731" lon="10.06313285602365"><ele>887.8571428571429</ele><time>2026-04-07T10:25:53.999Z</time></trkpt><trkpt lat="44.4618122012515" lon="10.063057906605136"><ele>884.5714285714286</ele><time>2026-04-07T10:25:56.999Z</time></trkpt><trkpt lat="44.46185413369033" lon="10.062990498761947"><ele>881.2857142857142</ele><time>2026-04-07T10:25:58.999Z</time></trkpt><trkpt lat="44.461897420841474" lon="10.062908486813319"><ele>878.0</ele><time>2026-04-07T10:25:59.999Z</time></trkpt><trkpt lat="44.46193373357923" lon="10.062801127131133"><ele>878.0000000000001</ele><time>2026-04-07T10:26:02Z</time></trkpt><trkpt lat="44.461983148214976" lon="10.062679975596971"><ele>878.0</ele><time>2026-04-07T10:26:04Z</time></trkpt><trkpt lat="44.462037146249095" lon="10.062585283514894"><ele>878.0</ele><time>2026-04-07T10:26:06Z</time></trkpt><trkpt lat="44.462076273293725" lon="10.062486811557802"><ele>878.0</ele><time>2026-04-07T10:26:08Z</time></trkpt><trkpt lat="44.462101339456154" lon="10.062401905536449"><ele>878.0000000000001</ele><time>2026-04-07T10:26:10Z</time></trkpt><trkpt lat="44.46215195463494" lon="10.062308112939688"><ele>878.0</ele><time>2026-04-07T10:26:12Z</time></trkpt><trkpt lat="44.46223468671265" lon="10.062220983763476"><ele>874.8</ele><time>2026-04-07T10:26:14Z</time></trkpt><trkpt lat="44.46232294364798" lon="10.062108331261154"><ele>871.5999999999999</ele><time>2026-04-07T10:26:16Z</time></trkpt><trkpt lat="44.46241401684634" lon="10.062037358824465"><ele>868.4000000000001</ele><time>2026-04-07T10:26:18Z</time></trkpt><trkpt lat="44.46247702465267" lon="10.062036285200639"><ele>865.2</ele><time>2026-04-07T10:26:20Z</time></trkpt><trkpt lat="44.46252287419813" lon="10.061968949270641"><ele>862.0</ele><time>2026-04-07T10:26:24Z</time></trkpt><trkpt lat="44.462615107807075" lon="10.061897901235946"><ele>862.0</ele><time>2026-04-07T10:26:26Z</time></trkpt><trkpt lat="44.46266605747267" lon="10.06182280561731"><ele>862.0</ele><time>2026-04-07T10:26:27Z</time></trkpt><trkpt lat="44.46274864443487" lon="10.061757008448714"><ele>862.0</ele><time>2026-04-07T10:26:29Z</time></trkpt><trkpt lat="44.46281100813278" lon="10.061642974320431"><ele>862.0</ele><time>2026-04-07T10:26:32Z</time></trkpt><trkpt lat="44.46282323611377" lon="10.061484191501432"><ele>862.0</ele><time>2026-04-07T10:26:34Z</time></trkpt><trkpt lat="44.46288913408214" lon="10.06139384171245"><ele>859.2</ele><time>2026-04-07T10:26:35Z</time></trkpt><trkpt lat="44.46295627523651" lon="10.061274152277129"><ele>856.4000000000001</ele><time>2026-04-07T10:26:37Z</time></trkpt><trkpt lat="44.4629753070134" lon="10.06112471981562"><ele>853.5999999999999</ele><time>2026-04-07T10:26:39Z</time></trkpt><trkpt lat="44.463015502666266" lon="10.060981857620062"><ele>850.8</ele><time>2026-04-07T10:26:41Z</time></trkpt><trkpt lat="44.46307682671761" lon="10.060904902039944"><ele>848.0</ele><time>2026-04-07T10:26:45Z</time></trkpt><trkpt lat="44.46313861081258" lon="10.060828033641473"><ele>848.0000000000001</ele><time>2026-04-07T10:26:49Z</time></trkpt><trkpt lat="44.46320837767506" lon="10.060783475575356"><ele>848.0</ele><time>2026-04-07T10:26:52Z</time></trkpt><trkpt lat="44.46326949279649" lon="10.060734431233781"><ele>848.0</ele><time>2026-04-07T10:26:53Z</time></trkpt><trkpt lat="44.46333031540523" lon="10.060669060020782"><ele>848.0</ele><time>2026-04-07T10:26:55Z</time></trkpt><trkpt lat="44.46340822551118" lon="10.060578319039614"><ele>848.0000000000001</ele><time>2026-04-07T10:26:57Z</time></trkpt><trkpt lat="44.46347840336528" lon="10.060493352586544"><ele>848.0</ele><time>2026-04-07T10:26:59Z</time></trkpt><trkpt lat="44.46356462369306" lon="10.060375850618595"><ele>845.5000000000001</ele><time>2026-04-07T10:27:01Z</time></trkpt><trkpt lat="44.46362386469087" lon="10.060251907008235"><ele>843.0</ele><time>2026-04-07T10:27:02.999Z</time></trkpt><trkpt lat="44.463657425075304" lon="10.060167895774303"><ele>840.5</ele><time>2026-04-07T10:27:04.999Z</time></trkpt><trkpt lat="44.463705528141546" lon="10.060081858905635"><ele>838.0</ele><time>2026-04-07T10:27:07.999Z</time></trkpt><trkpt lat="44.46376752938922" lon="10.059990216012219"><ele>835.5000000000001</ele><time>2026-04-07T10:27:09.999Z</time></trkpt><trkpt lat="44.46381739922127" lon="10.059891098854095"><ele>833.0</ele><time>2026-04-07T10:27:11.999Z</time></trkpt><trkpt lat="44.46385894965256" lon="10.059784807275133"><ele>831.3333333333334</ele><time>2026-04-07T10:27:13.999Z</time></trkpt><trkpt lat="44.46389852734672" lon="10.05967829542788"><ele>829.6666666666667</ele><time>2026-04-07T10:27:15.999Z</time></trkpt><trkpt lat="44.46394352949684" lon="10.059569384477783"><ele>828.0</ele><time>2026-04-07T10:27:17.999Z</time></trkpt><trkpt lat="44.46399422541666" lon="10.059451382374315"><ele>826.3333333333333</ele><time>2026-04-07T10:27:19.999Z</time></trkpt><trkpt lat="44.46404088261096" lon="10.05935569826585"><ele>824.6666666666666</ele><time>2026-04-07T10:27:21.999Z</time></trkpt><trkpt lat="44.46408189196255" lon="10.059264259231831"><ele>823.0</ele><time>2026-04-07T10:27:24.999Z</time></trkpt><trkpt lat="44.46411377412337" lon="10.059168524892428"><ele>820.3333333333333</ele><time>2026-04-07T10:27:27.999Z</time></trkpt><trkpt lat="44.46416095999284" lon="10.059100764286823"><ele>817.6666666666666</ele><time>2026-04-07T10:27:31.999Z</time></trkpt><trkpt lat="44.464244473275336" lon="10.059093674909024"><ele>815.0</ele><time>2026-04-07T10:27:35.999Z</time></trkpt><trkpt lat="44.46430533281871" lon="10.059062248285672"><ele>812.3333333333333</ele><time>2026-04-07T10:27:37.999Z</time></trkpt><trkpt lat="44.46439746458036" lon="10.05902169474851"><ele>809.6666666666666</ele><time>2026-04-07T10:27:41.999Z</time></trkpt><trkpt lat="44.46446577078546" lon="10.058966202689218"><ele>807.0</ele><time>2026-04-07T10:27:44.999Z</time></trkpt><trkpt lat="44.464553370798725" lon="10.058902606313662"><ele>806.6666666666666</ele><time>2026-04-07T10:27:46.999Z</time></trkpt><trkpt lat="44.46465543865637" lon="10.058830326500525"><ele>806.3333333333333</ele><time>2026-04-07T10:27:48.999Z</time></trkpt><trkpt lat="44.464711422509" lon="10.058782808597002"><ele>806.0</ele><time>2026-04-07T10:27:49.999Z</time></trkpt><trkpt lat="44.46476966899034" lon="10.058730299343104"><ele>805.6666666666666</ele><time>2026-04-07T10:27:50.999Z</time></trkpt><trkpt lat="44.46482935391825" lon="10.05866712934846"><ele>805.3333333333333</ele><time>2026-04-07T10:27:51.999Z</time></trkpt><trkpt lat="44.46488521405956" lon="10.058595679424222"><ele>805.0</ele><time>2026-04-07T10:27:52.999Z</time></trkpt><trkpt lat="44.46492740995045" lon="10.058525885464636"><ele>804.9999999999999</ele><time>2026-04-07T10:27:53.999Z</time></trkpt><trkpt lat="44.46500833572917" lon="10.058396092370792"><ele>805.0</ele><time>2026-04-07T10:27:55.999Z</time></trkpt><trkpt lat="44.46504519072664" lon="10.058321129764302"><ele>805.0</ele><time>2026-04-07T10:27:56.999Z</time></trkpt><trkpt lat="44.465105766429346" lon="10.058194914366661"><ele>805.0</ele><time>2026-04-07T10:27:58.999Z</time></trkpt><trkpt lat="44.46514029142995" lon="10.058113577290904"><ele>804.9999999999999</ele><time>2026-04-07T10:28:00.999Z</time></trkpt><trkpt lat="44.465119806191865" lon="10.058008304005137"><ele>805.0</ele><time>2026-04-07T10:28:02.999Z</time></trkpt><trkpt lat="44.46507246226498" lon="10.057910068159192"><ele>802.8571428571429</ele><time>2026-04-07T10:28:04.999Z</time></trkpt><trkpt lat="44.465011614165405" lon="10.05784025708764"><ele>800.7142857142858</ele><time>2026-04-07T10:28:07Z</time></trkpt><trkpt lat="44.464939919550886" lon="10.057806931361826"><ele>798.5714285714286</ele><time>2026-04-07T10:28:09Z</time></trkpt><trkpt lat="44.46487956694814" lon="10.057760376239342"><ele>796.4285714285714</ele><time>2026-04-07T10:28:11Z</time></trkpt><trkpt lat="44.46482315631067" lon="10.057708530616477"><ele>794.2857142857143</ele><time>2026-04-07T10:28:13Z</time></trkpt><trkpt lat="44.46479808558042" lon="10.05758425317092"><ele>792.1428571428571</ele><time>2026-04-07T10:28:16Z</time></trkpt><trkpt lat="44.46479872287126" lon="10.057494361991079"><ele>790.0</ele><time>2026-04-07T10:28:18Z</time></trkpt><trkpt lat="44.464747143922516" lon="10.0574273556525"><ele>789.2</ele><time>2026-04-07T10:28:21Z</time></trkpt><trkpt lat="44.46468156889938" lon="10.057442838362235"><ele>788.4</ele><time>2026-04-07T10:28:23Z</time></trkpt><trkpt lat="44.464569354611655" lon="10.057482793160137"><ele>787.5999999999999</ele><time>2026-04-07T10:28:25Z</time></trkpt><trkpt lat="44.464477815933066" lon="10.057533617559622"><ele>786.8</ele><time>2026-04-07T10:28:27Z</time></trkpt><trkpt lat="44.464387079106196" lon="10.057564511782331"><ele>786.0</ele><time>2026-04-07T10:28:29Z</time></trkpt><trkpt lat="44.464299267687004" lon="10.05760332958151"><ele>786.0</ele><time>2026-04-07T10:28:31Z</time></trkpt><trkpt lat="44.46417807097497" lon="10.057637332316858"><ele>786.0</ele><time>2026-04-07T10:28:33Z</time></trkpt><trkpt lat="44.46411158668952" lon="10.057650359107042"><ele>786.0</ele><time>2026-04-07T10:28:34Z</time></trkpt><trkpt lat="44.46403055337936" lon="10.057677042315685"><ele>786.0</ele><time>2026-04-07T10:28:35Z</time></trkpt><trkpt lat="44.46394918048029" lon="10.057699318766067"><ele>786.0</ele><time>2026-04-07T10:28:36Z</time></trkpt><trkpt lat="44.46386399979505" lon="10.057721200686293"><ele>786.0</ele><time>2026-04-07T10:28:37Z</time></trkpt><trkpt lat="44.46377219742763" lon="10.057739125024842"><ele>785.4</ele><time>2026-04-07T10:28:38Z</time></trkpt><trkpt lat="44.463669955860645" lon="10.05775989530895"><ele>784.8</ele><time>2026-04-07T10:28:39Z</time></trkpt><trkpt lat="44.46356351926573" lon="10.057778722801222"><ele>784.1999999999999</ele><time>2026-04-07T10:28:40Z</time></trkpt><trkpt lat="44.46345370608251" lon="10.057793589343712"><ele>783.5999999999999</ele><time>2026-04-07T10:28:41Z</time></trkpt><trkpt lat="44.46334417013671" lon="10.057800956488721"><ele>783.0</ele><time>2026-04-07T10:28:42Z</time></trkpt><trkpt lat="44.46323552970199" lon="10.057812860954455"><ele>783.0</ele><time>2026-04-07T10:28:43Z</time></trkpt><trkpt lat="44.46313048863487" lon="10.057821271576499"><ele>783.0</ele><time>2026-04-07T10:28:44Z</time></trkpt><trkpt lat="44.46302181089857" lon="10.057822588464663"><ele>783.0</ele><time>2026-04-07T10:28:45Z</time></trkpt><trkpt lat="44.46290827953928" lon="10.057822440784705"><ele>783.0</ele><time>2026-04-07T10:28:46Z</time></trkpt><trkpt lat="44.46280086202745" lon="10.057814916691857"><ele>783.0</ele><time>2026-04-07T10:28:47Z</time></trkpt><trkpt lat="44.46268781936922" lon="10.057814269603648"><ele>783.5</ele><time>2026-04-07T10:28:48Z</time></trkpt><trkpt lat="44.462571284417116" lon="10.057836526228803"><ele>784.0</ele><time>2026-04-07T10:28:49Z</time></trkpt><trkpt lat="44.46245916263947" lon="10.05788216644395"><ele>784.5</ele><time>2026-04-07T10:28:50Z</time></trkpt><trkpt lat="44.46236147186396" lon="10.057956089248675"><ele>785.0</ele><time>2026-04-07T10:28:51Z</time></trkpt><trkpt lat="44.46226718484637" lon="10.058019145573976"><ele>785.0</ele><time>2026-04-07T10:28:52Z</time></trkpt><trkpt lat="44.46217947387294" lon="10.058045101921822"><ele>785.0</ele><time>2026-04-07T10:28:53Z</time></trkpt><trkpt lat="44.4620937384827" lon="10.058038925641172"><ele>785.0</ele><time>2026-04-07T10:28:54Z</time></trkpt><trkpt lat="44.462010780956035" lon="10.057980280096947"><ele>785.0</ele><time>2026-04-07T10:28:55Z</time></trkpt><trkpt lat="44.46193131267856" lon="10.05788821792155"><ele>785.0</ele><time>2026-04-07T10:28:56Z</time></trkpt><trkpt lat="44.46186628033303" lon="10.057798909371275"><ele>786.0</ele><time>2026-04-07T10:28:57Z</time></trkpt><trkpt lat="44.46178261292611" lon="10.057715220036886"><ele>787.0</ele><time>2026-04-07T10:28:58Z</time></trkpt><trkpt lat="44.46169227037976" lon="10.057628158544217"><ele>788.0</ele><time>2026-04-07T10:28:59Z</time></trkpt><trkpt lat="44.46160759561701" lon="10.057531404012911"><ele>789.0</ele><time>2026-04-07T10:29:00Z</time></trkpt><trkpt lat="44.46151454139702" lon="10.057430681893022"><ele>790.0</ele><time>2026-04-07T10:29:01Z</time></trkpt><trkpt lat="44.461430549264044" lon="10.057335207886116"><ele>790.0</ele><time>2026-04-07T10:29:02Z</time></trkpt><trkpt lat="44.46134444420769" lon="10.057236613515704"><ele>790.0</ele><time>2026-04-07T10:29:02.999Z</time></trkpt><trkpt lat="44.461250224742116" lon="10.057134939129831"><ele>790.0</ele><time>2026-04-07T10:29:03.999Z</time></trkpt><trkpt lat="44.461154694836175" lon="10.057030019274695"><ele>790.0</ele><time>2026-04-07T10:29:04.999Z</time></trkpt><trkpt lat="44.4610567448587" lon="10.05692836763638"><ele>791.5</ele><time>2026-04-07T10:29:05.999Z</time></trkpt><trkpt lat="44.46095960639937" lon="10.056827408397492"><ele>793.0</ele><time>2026-04-07T10:29:06.999Z</time></trkpt><trkpt lat="44.46086751325559" lon="10.05672692317504"><ele>794.5</ele><time>2026-04-07T10:29:07.999Z</time></trkpt><trkpt lat="44.46077356131525" lon="10.056616467975799"><ele>796.0</ele><time>2026-04-07T10:29:08.999Z</time></trkpt><trkpt lat="44.460686613950855" lon="10.056497808084456"><ele>796.0</ele><time>2026-04-07T10:29:09.999Z</time></trkpt><trkpt lat="44.46059769137581" lon="10.056375140214527"><ele>796.0</ele><time>2026-04-07T10:29:10.999Z</time></trkpt><trkpt lat="44.46052169615687" lon="10.056254179423062"><ele>796.0</ele><time>2026-04-07T10:29:11.999Z</time></trkpt><trkpt lat="44.460438166698424" lon="10.0561298743552"><ele>796.0</ele><time>2026-04-07T10:29:12.999Z</time></trkpt><trkpt lat="44.46035354563305" lon="10.055997660429844"><ele>798.75</ele><time>2026-04-07T10:29:13.999Z</time></trkpt><trkpt lat="44.46026641884468" lon="10.055856110925388"><ele>801.5</ele><time>2026-04-07T10:29:14.999Z</time></trkpt><trkpt lat="44.46018035058122" lon="10.055712063062009"><ele>804.25</ele><time>2026-04-07T10:29:15.999Z</time></trkpt><trkpt lat="44.46009607877009" lon="10.055566307137243"><ele>807.0</ele><time>2026-04-07T10:29:16.999Z</time></trkpt><trkpt lat="44.460018519495506" lon="10.055420692137494"><ele>807.0</ele><time>2026-04-07T10:29:17.999Z</time></trkpt><trkpt lat="44.45994496581372" lon="10.05527618155067"><ele>807.0</ele><time>2026-04-07T10:29:18.999Z</time></trkpt><trkpt lat="44.459877595850244" lon="10.055123434928111"><ele>807.0</ele><time>2026-04-07T10:29:19.999Z</time></trkpt><trkpt lat="44.459812503662754" lon="10.054968745283693"><ele>807.0</ele><time>2026-04-07T10:29:20.999Z</time></trkpt><trkpt lat="44.459741301494816" lon="10.054822503810353"><ele>806.5</ele><time>2026-04-07T10:29:21.999Z</time></trkpt><trkpt lat="44.459660847612355" lon="10.054687318570393"><ele>806.0</ele><time>2026-04-07T10:29:22.999Z</time></trkpt><trkpt lat="44.45957821146816" lon="10.05456894206055"><ele>805.5</ele><time>2026-04-07T10:29:23.999Z</time></trkpt><trkpt lat="44.45948419043953" lon="10.054470713823026"><ele>805.0</ele><time>2026-04-07T10:29:24.999Z</time></trkpt><trkpt lat="44.459386334560506" lon="10.05437935578736"><ele>808.25</ele><time>2026-04-07T10:29:25.999Z</time></trkpt><trkpt lat="44.45929366815264" lon="10.054280321878288"><ele>811.5</ele><time>2026-04-07T10:29:26.999Z</time></trkpt><trkpt lat="44.45920264726583" lon="10.054165526117862"><ele>814.75</ele><time>2026-04-07T10:29:27.999Z</time></trkpt><trkpt lat="44.459118278539286" lon="10.054041566371446"><ele>818.0</ele><time>2026-04-07T10:29:28.999Z</time></trkpt><trkpt lat="44.45904821663596" lon="10.053905321091113"><ele>818.0</ele><time>2026-04-07T10:29:29.999Z</time></trkpt><trkpt lat="44.458982016090275" lon="10.053759831582203"><ele>818.0</ele><time>2026-04-07T10:29:30.999Z</time></trkpt><trkpt lat="44.45891343870931" lon="10.053612804869326"><ele>818.0</ele><time>2026-04-07T10:29:31.999Z</time></trkpt><trkpt lat="44.45884959555457" lon="10.053468403282286"><ele>818.0</ele><time>2026-04-07T10:29:32.999Z</time></trkpt><trkpt lat="44.45879323291445" lon="10.053333153314702"><ele>819.5000000000001</ele><time>2026-04-07T10:29:33.999Z</time></trkpt><trkpt lat="44.458762639003886" lon="10.053207772013916"><ele>821.0</ele><time>2026-04-07T10:29:34.999Z</time></trkpt><trkpt lat="44.45876129826271" lon="10.053095166513154"><ele>822.5</ele><time>2026-04-07T10:29:35.999Z</time></trkpt><trkpt lat="44.45880332270733" lon="10.052997733475687"><ele>824.0</ele><time>2026-04-07T10:29:36.999Z</time></trkpt><trkpt lat="44.45883362488291" lon="10.052879402368854"><ele>825.5000000000001</ele><time>2026-04-07T10:29:37.999Z</time></trkpt><trkpt lat="44.45887843819943" lon="10.052761521688478"><ele>827.0</ele><time>2026-04-07T10:29:38.999Z</time></trkpt><trkpt lat="44.458920708050265" lon="10.052631814235294"><ele>827.0</ele><time>2026-04-07T10:29:39.999Z</time></trkpt><trkpt lat="44.45896502943486" lon="10.05249360996518"><ele>827.0</ele><time>2026-04-07T10:29:40.999Z</time></trkpt><trkpt lat="44.459016282306365" lon="10.052351411511582"><ele>827.0</ele><time>2026-04-07T10:29:41.999Z</time></trkpt><trkpt lat="44.45906110951793" lon="10.052203303809646"><ele>827.0</ele><time>2026-04-07T10:29:42.999Z</time></trkpt><trkpt lat="44.4591012028814" lon="10.052062186245404"><ele>827.0</ele><time>2026-04-07T10:29:43.999Z</time></trkpt><trkpt lat="44.459152597742545" lon="10.051929890977979"><ele>829.2</ele><time>2026-04-07T10:29:44.999Z</time></trkpt><trkpt lat="44.45921994922075" lon="10.05181888334592"><ele>831.4000000000001</ele><time>2026-04-07T10:29:45.999Z</time></trkpt><trkpt lat="44.459301830756374" lon="10.05172533413932"><ele>833.5999999999999</ele><time>2026-04-07T10:29:46.999Z</time></trkpt><trkpt lat="44.459393015117655" lon="10.051644656300352"><ele>835.8</ele><time>2026-04-07T10:29:47.999Z</time></trkpt><trkpt lat="44.45948200738806" lon="10.051567387578972"><ele>838.0</ele><time>2026-04-07T10:29:48.999Z</time></trkpt><trkpt lat="44.459555963248896" lon="10.05147931191529"><ele>838.0</ele><time>2026-04-07T10:29:49.999Z</time></trkpt><trkpt lat="44.459602028329925" lon="10.051372068228943"><ele>838.0</ele><time>2026-04-07T10:29:50.999Z</time></trkpt><trkpt lat="44.459611671349926" lon="10.051240732055419"><ele>838.0</ele><time>2026-04-07T10:29:51.999Z</time></trkpt><trkpt lat="44.45958873841512" lon="10.051114358697944"><ele>838.0</ele><time>2026-04-07T10:29:52.999Z</time></trkpt><trkpt lat="44.45952670246436" lon="10.05100497175693"><ele>838.0</ele><time>2026-04-07T10:29:53.999Z</time></trkpt><trkpt lat="44.459457035218534" lon="10.05090142486091"><ele>838.0</ele><time>2026-04-07T10:29:54.999Z</time></trkpt><trkpt lat="44.45937554645" lon="10.050798551274537"><ele>838.0</ele><time>2026-04-07T10:29:55.999Z</time></trkpt><trkpt lat="44.45928253404524" lon="10.050686247472916"><ele>838.0</ele><time>2026-04-07T10:29:56.999Z</time></trkpt><trkpt lat="44.45918083631342" lon="10.05058297850908"><ele>838.0</ele><time>2026-04-07T10:29:57.999Z</time></trkpt><trkpt lat="44.459065284763" lon="10.050499872309818"><ele>840.0</ele><time>2026-04-07T10:29:58.999Z</time></trkpt><trkpt lat="44.45893771381465" lon="10.050463033791695"><ele>842.0</ele><time>2026-04-07T10:29:59.999Z</time></trkpt><trkpt lat="44.458823673501406" lon="10.050429126518987"><ele>844.0</ele><time>2026-04-07T10:30:00.999Z</time></trkpt><trkpt lat="44.45870324581087" lon="10.050375928400792"><ele>846.0</ele><time>2026-04-07T10:30:01.999Z</time></trkpt><trkpt lat="44.45859239034238" lon="10.050297645875014"><ele>846.0</ele><time>2026-04-07T10:30:02.999Z</time></trkpt><trkpt lat="44.45849037948011" lon="10.050199731564785"><ele>846.0</ele><time>2026-04-07T10:30:03.999Z</time></trkpt><trkpt lat="44.45841389234401" lon="10.050073383929286"><ele>846.0</ele><time>2026-04-07T10:30:04.999Z</time></trkpt><trkpt lat="44.45835746913332" lon="10.049923138598402"><ele>846.0</ele><time>2026-04-07T10:30:05.999Z</time></trkpt><trkpt lat="44.45831819146631" lon="10.04975764054689"><ele>842.5</ele><time>2026-04-07T10:30:06.999Z</time></trkpt><trkpt lat="44.45828123471918" lon="10.049585050188822"><ele>839.0</ele><time>2026-04-07T10:30:07.999Z</time></trkpt><trkpt lat="44.458250398998324" lon="10.049415722693471"><ele>835.5</ele><time>2026-04-07T10:30:08.999Z</time></trkpt><trkpt lat="44.45821316367245" lon="10.049264663143173"><ele>832.0</ele><time>2026-04-07T10:30:09.999Z</time></trkpt><trkpt lat="44.45817634366606" lon="10.049133019701255"><ele>831.8</ele><time>2026-04-07T10:30:10.999Z</time></trkpt><trkpt lat="44.45812148391587" lon="10.049033266439151"><ele>831.6</ele><time>2026-04-07T10:30:11.999Z</time></trkpt><trkpt lat="44.45804818659969" lon="10.048981029765189"><ele>831.4</ele><time>2026-04-07T10:30:13Z</time></trkpt><trkpt lat="44.45795874208824" lon="10.048981575260235"><ele>831.1999999999999</ele><time>2026-04-07T10:30:14Z</time></trkpt><trkpt lat="44.45786763817613" lon="10.049039814052467"><ele>831.0</ele><time>2026-04-07T10:30:15Z</time></trkpt><trkpt lat="44.45779274265662" lon="10.049134688020155"><ele>831.0</ele><time>2026-04-07T10:30:16Z</time></trkpt><trkpt lat="44.45771515538215" lon="10.049257138379904"><ele>831.0</ele><time>2026-04-07T10:30:17Z</time></trkpt><trkpt lat="44.45763408362372" lon="10.049384071632817"><ele>831.0</ele><time>2026-04-07T10:30:18Z</time></trkpt><trkpt lat="44.45754722646231" lon="10.04951676968005"><ele>831.0</ele><time>2026-04-07T10:30:19Z</time></trkpt><trkpt lat="44.45745251738418" lon="10.049646842559731"><ele>831.0</ele><time>2026-04-07T10:30:20Z</time></trkpt><trkpt lat="44.45735808313168" lon="10.04976879807442"><ele>831.0</ele><time>2026-04-07T10:30:21Z</time></trkpt><trkpt lat="44.45724760661866" lon="10.049878773790473"><ele>831.0</ele><time>2026-04-07T10:30:22Z</time></trkpt><trkpt lat="44.45712894773787" lon="10.049966349362986"><ele>831.0</ele><time>2026-04-07T10:30:23Z</time></trkpt><trkpt lat="44.45700386004346" lon="10.050026105715189"><ele>832.75</ele><time>2026-04-07T10:30:24Z</time></trkpt><trkpt lat="44.45688212356803" lon="10.05007751198596"><ele>834.5</ele><time>2026-04-07T10:30:25Z</time></trkpt><trkpt lat="44.45677010543283" lon="10.050090896694991"><ele>836.25</ele><time>2026-04-07T10:30:26Z</time></trkpt><trkpt lat="44.45666197246772" lon="10.050032931686124"><ele>838.0</ele><time>2026-04-07T10:30:27Z</time></trkpt><trkpt lat="44.456537447097105" lon="10.049994776707194"><ele>834.0</ele><time>2026-04-07T10:30:28Z</time></trkpt><trkpt lat="44.45641301315415" lon="10.049947251491535"><ele>830.0</ele><time>2026-04-07T10:30:29Z</time></trkpt><trkpt lat="44.45628568563994" lon="10.0499090488904"><ele>826.0</ele><time>2026-04-07T10:30:30Z</time></trkpt><trkpt lat="44.45615995165208" lon="10.049882101816605"><ele>822.0</ele><time>2026-04-07T10:30:31Z</time></trkpt><trkpt lat="44.45602668826018" lon="10.049856606339981"><ele>822.0</ele><time>2026-04-07T10:30:32Z</time></trkpt><trkpt lat="44.45589684944902" lon="10.049833867938704"><ele>822.0</ele><time>2026-04-07T10:30:33Z</time></trkpt><trkpt lat="44.455769823467364" lon="10.049840025345656"><ele>822.0</ele><time>2026-04-07T10:30:34Z</time></trkpt><trkpt lat="44.45564509787692" lon="10.049855759831845"><ele>822.0</ele><time>2026-04-07T10:30:35Z</time></trkpt><trkpt lat="44.45551634239583" lon="10.049885018629203"><ele>822.0</ele><time>2026-04-07T10:30:36Z</time></trkpt><trkpt lat="44.455397585802686" lon="10.0499230913904"><ele>822.0</ele><time>2026-04-07T10:30:37Z</time></trkpt><trkpt lat="44.455291163158805" lon="10.049977238379258"><ele>822.0</ele><time>2026-04-07T10:30:38Z</time></trkpt><trkpt lat="44.45519290646942" lon="10.05006991658903"><ele>822.0</ele><time>2026-04-07T10:30:39Z</time></trkpt><trkpt lat="44.455113739357294" lon="10.050201009834955"><ele>825.0</ele><time>2026-04-07T10:30:40Z</time></trkpt><trkpt lat="44.455047125982624" lon="10.050349028668574"><ele>828.0</ele><time>2026-04-07T10:30:41Z</time></trkpt><trkpt lat="44.45498556963331" lon="10.050490499973733"><ele>831.0</ele><time>2026-04-07T10:30:42Z</time></trkpt><trkpt lat="44.45491019071753" lon="10.050638647866824"><ele>834.0</ele><time>2026-04-07T10:30:43Z</time></trkpt><trkpt lat="44.454830021239886" lon="10.05077398889365"><ele>836.6</ele><time>2026-04-07T10:30:44Z</time></trkpt><trkpt lat="44.45475291267468" lon="10.050874427466933"><ele>839.2</ele><time>2026-04-07T10:30:45Z</time></trkpt><trkpt lat="44.45466413338448" lon="10.05092565386996"><ele>841.8000000000001</ele><time>2026-04-07T10:30:46Z</time></trkpt><trkpt lat="44.45457261187088" lon="10.050943498755863"><ele>844.4000000000001</ele><time>2026-04-07T10:30:47Z</time></trkpt><trkpt lat="44.454469375125974" lon="10.05091710851906"><ele>847.0</ele><time>2026-04-07T10:30:48Z</time></trkpt><trkpt lat="44.45435898971591" lon="10.050884273778449"><ele>847.0</ele><time>2026-04-07T10:30:49Z</time></trkpt><trkpt lat="44.45423545565109" lon="10.050861716080174"><ele>847.0</ele><time>2026-04-07T10:30:50Z</time></trkpt><trkpt lat="44.454107540822704" lon="10.050854531136709"><ele>847.0</ele><time>2026-04-07T10:30:51Z</time></trkpt><trkpt lat="44.45399918877141" lon="10.050837110576031"><ele>847.0</ele><time>2026-04-07T10:30:52Z</time></trkpt><trkpt lat="44.45391449640336" lon="10.050782697704852"><ele>846.0</ele><time>2026-04-07T10:30:53Z</time></trkpt><trkpt lat="44.453850913724885" lon="10.050683720291437"><ele>845.0</ele><time>2026-04-07T10:30:54Z</time></trkpt><trkpt lat="44.45380396926506" lon="10.050552474921915"><ele>844.0</ele><time>2026-04-07T10:30:55Z</time></trkpt><trkpt lat="44.45377483207123" lon="10.050409341050822"><ele>843.0</ele><time>2026-04-07T10:30:56Z</time></trkpt><trkpt lat="44.45375031573645" lon="10.0502605086467"><ele>842.0</ele><time>2026-04-07T10:30:57Z</time></trkpt><trkpt lat="44.45372464990918" lon="10.050103330292078"><ele>845.0</ele><time>2026-04-07T10:30:58Z</time></trkpt><trkpt lat="44.453698921561134" lon="10.049939689688335"><ele>848.0</ele><time>2026-04-07T10:30:59Z</time></trkpt><trkpt lat="44.45366171595788" lon="10.049778603698257"><ele>851.0</ele><time>2026-04-07T10:31:00Z</time></trkpt><trkpt lat="44.45363914411105" lon="10.049620023274809"><ele>854.0</ele><time>2026-04-07T10:31:01Z</time></trkpt><trkpt lat="44.4536181735077" lon="10.049461134971263"><ele>854.0</ele><time>2026-04-07T10:31:02Z</time></trkpt><trkpt lat="44.45358500572428" lon="10.049300187171326"><ele>854.0</ele><time>2026-04-07T10:31:03Z</time></trkpt><trkpt lat="44.453561386724814" lon="10.049137871281975"><ele>854.0</ele><time>2026-04-07T10:31:04Z</time></trkpt><trkpt lat="44.45353477740722" lon="10.048969350182977"><ele>854.0</ele><time>2026-04-07T10:31:05Z</time></trkpt><trkpt lat="44.453501847950655" lon="10.048793569720944"><ele>852.25</ele><time>2026-04-07T10:31:06Z</time></trkpt><trkpt lat="44.45345633300439" lon="10.048619907811602"><ele>850.5</ele><time>2026-04-07T10:31:07Z</time></trkpt><trkpt lat="44.453404063757155" lon="10.048460254352348"><ele>848.75</ele><time>2026-04-07T10:31:08Z</time></trkpt><trkpt lat="44.4533400481564" lon="10.048310375985139"><ele>847.0</ele><time>2026-04-07T10:31:09Z</time></trkpt><trkpt lat="44.45326310587154" lon="10.04816954150851"><ele>846.75</ele><time>2026-04-07T10:31:09.999Z</time></trkpt><trkpt lat="44.4531806336365" lon="10.04803086473247"><ele>846.5</ele><time>2026-04-07T10:31:10.999Z</time></trkpt><trkpt lat="44.453091536124624" lon="10.047891639871203"><ele>846.25</ele><time>2026-04-07T10:31:11.999Z</time></trkpt><trkpt lat="44.452988553874526" lon="10.047777893380415"><ele>846.0</ele><time>2026-04-07T10:31:12.999Z</time></trkpt><trkpt lat="44.45288308208314" lon="10.047678495105902"><ele>846.0</ele><time>2026-04-07T10:31:13.999Z</time></trkpt><trkpt lat="44.45276979761787" lon="10.047584835902919"><ele>846.0</ele><time>2026-04-07T10:31:14.999Z</time></trkpt><trkpt lat="44.452650220250256" lon="10.047499772530625"><ele>846.0</ele><time>2026-04-07T10:31:15.999Z</time></trkpt><trkpt lat="44.4525268319083" lon="10.047409013131503"><ele>846.0</ele><time>2026-04-07T10:31:16.999Z</time></trkpt><trkpt lat="44.45240417373479" lon="10.047323127943178"><ele>846.25</ele><time>2026-04-07T10:31:17.999Z</time></trkpt><trkpt lat="44.452288236058834" lon="10.047229777555811"><ele>846.5</ele><time>2026-04-07T10:31:18.999Z</time></trkpt><trkpt lat="44.45217741812555" lon="10.047124035648178"><ele>846.75</ele><time>2026-04-07T10:31:19.999Z</time></trkpt><trkpt lat="44.45207502523891" lon="10.047014598940311"><ele>847.0</ele><time>2026-04-07T10:31:20.999Z</time></trkpt><trkpt lat="44.45197868472507" lon="10.046909550726609"><ele>847.0</ele><time>2026-04-07T10:31:21.999Z</time></trkpt><trkpt lat="44.45188263053181" lon="10.04681236322219"><ele>847.0</ele><time>2026-04-07T10:31:22.999Z</time></trkpt><trkpt lat="44.45178547426147" lon="10.046724652504354"><ele>847.0</ele><time>2026-04-07T10:31:23.999Z</time></trkpt><trkpt lat="44.45168337191447" lon="10.046636410942712"><ele>847.0</ele><time>2026-04-07T10:31:24.999Z</time></trkpt><trkpt lat="44.45158394550714" lon="10.046543724049183"><ele>846.2</ele><time>2026-04-07T10:31:25.999Z</time></trkpt><trkpt lat="44.45149053346382" lon="10.04644019371574"><ele>845.4000000000001</ele><time>2026-04-07T10:31:26.999Z</time></trkpt><trkpt lat="44.45140185297349" lon="10.04633723622987"><ele>844.5999999999999</ele><time>2026-04-07T10:31:27.999Z</time></trkpt><trkpt lat="44.45131976191878" lon="10.046233441472793"><ele>843.8</ele><time>2026-04-07T10:31:28.999Z</time></trkpt><trkpt lat="44.45124873195689" lon="10.046130670149351"><ele>843.0</ele><time>2026-04-07T10:31:29.999Z</time></trkpt><trkpt lat="44.451188387119444" lon="10.046017695150365"><ele>843.0</ele><time>2026-04-07T10:31:30.999Z</time></trkpt><trkpt lat="44.451139821890735" lon="10.0458939247361"><ele>843.0</ele><time>2026-04-07T10:31:31.999Z</time></trkpt><trkpt lat="44.451100260173156" lon="10.045771111029426"><ele>843.0</ele><time>2026-04-07T10:31:32.999Z</time></trkpt><trkpt lat="44.451050147337625" lon="10.045660635706993"><ele>843.0</ele><time>2026-04-07T10:31:33.999Z</time></trkpt><trkpt lat="44.45098187587135" lon="10.045579708835064"><ele>843.0</ele><time>2026-04-07T10:31:34.999Z</time></trkpt><trkpt lat="44.45088730778842" lon="10.045518110731821"><ele>839.5999999999999</ele><time>2026-04-07T10:31:35.999Z</time></trkpt><trkpt lat="44.450784163095584" lon="10.04549310869628"><ele>836.1999999999999</ele><time>2026-04-07T10:31:36.999Z</time></trkpt><trkpt lat="44.450678657355574" lon="10.045492281916303"><ele>832.8</ele><time>2026-04-07T10:31:37.999Z</time></trkpt><trkpt lat="44.450564668156154" lon="10.045486087329222"><ele>829.4</ele><time>2026-04-07T10:31:38.999Z</time></trkpt><trkpt lat="44.450446075471135" lon="10.045485771162687"><ele>826.0</ele><time>2026-04-07T10:31:39.999Z</time></trkpt><trkpt lat="44.450317348492355" lon="10.045489654378173"><ele>826.0</ele><time>2026-04-07T10:31:40.999Z</time></trkpt><trkpt lat="44.450183126827525" lon="10.045503464027016"><ele>826.0</ele><time>2026-04-07T10:31:41.999Z</time></trkpt><trkpt lat="44.450049363592285" lon="10.045536048669437"><ele>826.0</ele><time>2026-04-07T10:31:42.999Z</time></trkpt><trkpt lat="44.44991402614334" lon="10.045574210972033"><ele>826.0</ele><time>2026-04-07T10:31:43.999Z</time></trkpt><trkpt lat="44.44979456990461" lon="10.045624066145058"><ele>826.0</ele><time>2026-04-07T10:31:44.999Z</time></trkpt><trkpt lat="44.44968093451436" lon="10.045690091283152"><ele>826.0</ele><time>2026-04-07T10:31:45.999Z</time></trkpt><trkpt lat="44.449582566756334" lon="10.045777337168685"><ele>826.0</ele><time>2026-04-07T10:31:46.999Z</time></trkpt><trkpt lat="44.449497212805966" lon="10.045888165600257"><ele>826.0</ele><time>2026-04-07T10:31:47.999Z</time></trkpt><trkpt lat="44.44941785767421" lon="10.04602080805974"><ele>827.0</ele><time>2026-04-07T10:31:48.999Z</time></trkpt><trkpt lat="44.44934088849379" lon="10.046159911672465"><ele>828.0</ele><time>2026-04-07T10:31:49.999Z</time></trkpt><trkpt lat="44.449257924516246" lon="10.046301858927809"><ele>829.0</ele><time>2026-04-07T10:31:50.999Z</time></trkpt><trkpt lat="44.449168294589846" lon="10.046445202114844"><ele>830.0</ele><time>2026-04-07T10:31:51.999Z</time></trkpt><trkpt lat="44.449075867799536" lon="10.04658553825059"><ele>829.5</ele><time>2026-04-07T10:31:52.999Z</time></trkpt><trkpt lat="44.4489819955487" lon="10.046715668912322"><ele>829.0</ele><time>2026-04-07T10:31:53.999Z</time></trkpt><trkpt lat="44.44889069091169" lon="10.046821492006032"><ele>828.5</ele><time>2026-04-07T10:31:54.999Z</time></trkpt><trkpt lat="44.4487928965904" lon="10.046912088009746"><ele>828.0</ele><time>2026-04-07T10:31:55.999Z</time></trkpt><trkpt lat="44.448689023743974" lon="10.046961810255485"><ele>828.0</ele><time>2026-04-07T10:31:56.999Z</time></trkpt><trkpt lat="44.448586512117764" lon="10.046968738348102"><ele>828.0</ele><time>2026-04-07T10:31:57.999Z</time></trkpt><trkpt lat="44.44849250070564" lon="10.046930283195657"><ele>828.0</ele><time>2026-04-07T10:31:58.999Z</time></trkpt><trkpt lat="44.44839523146203" lon="10.04687216004569"><ele>828.0</ele><time>2026-04-07T10:31:59.999Z</time></trkpt><trkpt lat="44.448285608501564" lon="10.046843453767632"><ele>828.0</ele><time>2026-04-07T10:32:00.999Z</time></trkpt><trkpt lat="44.44817299063733" lon="10.046865986052085"><ele>828.0</ele><time>2026-04-07T10:32:01.999Z</time></trkpt><trkpt lat="44.448075182397695" lon="10.046927169641735"><ele>828.0</ele><time>2026-04-07T10:32:02.999Z</time></trkpt><trkpt lat="44.44797856724419" lon="10.047028843023883"><ele>828.0</ele><time>2026-04-07T10:32:03.999Z</time></trkpt><trkpt lat="44.4478991214868" lon="10.047150520191632"><ele>828.0</ele><time>2026-04-07T10:32:04.999Z</time></trkpt><trkpt lat="44.447813317366375" lon="10.04727297371915"><ele>827.5999999999999</ele><time>2026-04-07T10:32:05.999Z</time></trkpt><trkpt lat="44.44772132199751" lon="10.047379629740087"><ele>827.1999999999999</ele><time>2026-04-07T10:32:06.999Z</time></trkpt><trkpt lat="44.4476243124794" lon="10.047457882640881"><ele>826.8</ele><time>2026-04-07T10:32:07.999Z</time></trkpt><trkpt lat="44.44752310756049" lon="10.047497703074857"><ele>826.4</ele><time>2026-04-07T10:32:08.999Z</time></trkpt><trkpt lat="44.44742179887781" lon="10.047487885351991"><ele>826.0</ele><time>2026-04-07T10:32:09.999Z</time></trkpt><trkpt lat="44.44733136839799" lon="10.047436723878684"><ele>826.0</ele><time>2026-04-07T10:32:10.999Z</time></trkpt><trkpt lat="44.44725638888897" lon="10.047334542848489"><ele>826.0</ele><time>2026-04-07T10:32:11.999Z</time></trkpt><trkpt lat="44.447205520213004" lon="10.047200092833117"><ele>826.0</ele><time>2026-04-07T10:32:12.999Z</time></trkpt><trkpt lat="44.44716465185979" lon="10.04705162888723"><ele>826.0</ele><time>2026-04-07T10:32:13.999Z</time></trkpt><trkpt lat="44.44711161976056" lon="10.04690436070146"><ele>826.0</ele><time>2026-04-07T10:32:14.999Z</time></trkpt><trkpt lat="44.44704487480333" lon="10.046764035307623"><ele>826.5</ele><time>2026-04-07T10:32:15.999Z</time></trkpt><trkpt lat="44.44696907811473" lon="10.04663733822689"><ele>827.0</ele><time>2026-04-07T10:32:16.999Z</time></trkpt><trkpt lat="44.44689389092793" lon="10.046503637312215"><ele>827.5</ele><time>2026-04-07T10:32:17.999Z</time></trkpt><trkpt lat="44.44684849010956" lon="10.046357044580065"><ele>828.0</ele><time>2026-04-07T10:32:19Z</time></trkpt><trkpt lat="44.446824544808486" lon="10.046196376542552"><ele>828.0</ele><time>2026-04-07T10:32:20Z</time></trkpt><trkpt lat="44.44681136196373" lon="10.046027655259975"><ele>828.0</ele><time>2026-04-07T10:32:21Z</time></trkpt><trkpt lat="44.4467957083797" lon="10.045870085997768"><ele>828.0</ele><time>2026-04-07T10:32:22Z</time></trkpt><trkpt lat="44.446760627414946" lon="10.045732682584093"><ele>828.0</ele><time>2026-04-07T10:32:23Z</time></trkpt><trkpt lat="44.446697991325046" lon="10.045622885770259"><ele>828.0</ele><time>2026-04-07T10:32:24Z</time></trkpt><trkpt lat="44.446620709858905" lon="10.045548618502917"><ele>825.0</ele><time>2026-04-07T10:32:25Z</time></trkpt><trkpt lat="44.44652243096533" lon="10.045513352955542"><ele>822.0</ele><time>2026-04-07T10:32:26Z</time></trkpt><trkpt lat="44.446417596859625" lon="10.045515012625916"><ele>819.0</ele><time>2026-04-07T10:32:27Z</time></trkpt><trkpt lat="44.446306481074046" lon="10.045540031910864"><ele>816.0</ele><time>2026-04-07T10:32:28Z</time></trkpt><trkpt lat="44.446195561835616" lon="10.045559960513325"><ele>813.0</ele><time>2026-04-07T10:32:29Z</time></trkpt><trkpt lat="44.446080264514435" lon="10.045573626750254"><ele>813.0</ele><time>2026-04-07T10:32:30Z</time></trkpt><trkpt lat="44.44595973392666" lon="10.045584870864051"><ele>813.0</ele><time>2026-04-07T10:32:31Z</time></trkpt><trkpt lat="44.44583534619615" lon="10.045592188764921"><ele>813.0</ele><time>2026-04-07T10:32:32Z</time></trkpt><trkpt lat="44.44570939149381" lon="10.04559432266654"><ele>813.0</ele><time>2026-04-07T10:32:33Z</time></trkpt><trkpt lat="44.44557882025157" lon="10.045585798256909"><ele>813.0</ele><time>2026-04-07T10:32:34Z</time></trkpt><trkpt lat="44.44544772191515" lon="10.045579966732806"><ele>813.0</ele><time>2026-04-07T10:32:35Z</time></trkpt><trkpt lat="44.44531664445163" lon="10.045572474751959"><ele>813.0</ele><time>2026-04-07T10:32:36Z</time></trkpt><trkpt lat="44.44518709173298" lon="10.04556502864804"><ele>813.0</ele><time>2026-04-07T10:32:37Z</time></trkpt><trkpt lat="44.4450548394042" lon="10.04555899777832"><ele>813.0</ele><time>2026-04-07T10:32:38Z</time></trkpt><trkpt lat="44.44492046034613" lon="10.045549944565662"><ele>813.0</ele><time>2026-04-07T10:32:39Z</time></trkpt><trkpt lat="44.44478656755574" lon="10.045548230416426"><ele>813.0</ele><time>2026-04-07T10:32:40Z</time></trkpt><trkpt lat="44.44466261097003" lon="10.045543500069092"><ele>813.0</ele><time>2026-04-07T10:32:41Z</time></trkpt><trkpt lat="44.44454782434762" lon="10.045551516613411"><ele>815.5</ele><time>2026-04-07T10:32:42Z</time></trkpt><trkpt lat="44.44443249267522" lon="10.045584313327359"><ele>818.0</ele><time>2026-04-07T10:32:43Z</time></trkpt><trkpt lat="44.44432473900363" lon="10.045642503114792"><ele>820.5</ele><time>2026-04-07T10:32:44Z</time></trkpt><trkpt lat="44.44422133150006" lon="10.04572764401194"><ele>823.0</ele><time>2026-04-07T10:32:45Z</time></trkpt><trkpt lat="44.44412238722284" lon="10.045822360031021"><ele>823.0</ele><time>2026-04-07T10:32:46Z</time></trkpt><trkpt lat="44.444013517427486" lon="10.045903936610584"><ele>823.0</ele><time>2026-04-07T10:32:47Z</time></trkpt><trkpt lat="44.443894735217384" lon="10.04596360298312"><ele>823.0</ele><time>2026-04-07T10:32:48Z</time></trkpt><trkpt lat="44.44376611602824" lon="10.045988869212506"><ele>823.0</ele><time>2026-04-07T10:32:49Z</time></trkpt><trkpt lat="44.44364081965607" lon="10.045993835098573"><ele>820.0</ele><time>2026-04-07T10:32:50Z</time></trkpt><trkpt lat="44.44352574155252" lon="10.046027379869914"><ele>817.0</ele><time>2026-04-07T10:32:51Z</time></trkpt><trkpt lat="44.4434212609791" lon="10.046099943675973"><ele>814.0</ele><time>2026-04-07T10:32:52Z</time></trkpt><trkpt lat="44.44332444054509" lon="10.046199331667566"><ele>811.0</ele><time>2026-04-07T10:32:53Z</time></trkpt><trkpt lat="44.44323011704525" lon="10.04631563269755"><ele>811.0</ele><time>2026-04-07T10:32:54Z</time></trkpt><trkpt lat="44.44313316103034" lon="10.04643886336069"><ele>811.0</ele><time>2026-04-07T10:32:55Z</time></trkpt><trkpt lat="44.44303625538795" lon="10.046560208370861"><ele>811.0</ele><time>2026-04-07T10:32:56Z</time></trkpt><trkpt lat="44.442936606931454" lon="10.046685596808908"><ele>811.0</ele><time>2026-04-07T10:32:57Z</time></trkpt><trkpt lat="44.44284440999665" lon="10.04681821337468"><ele>813.25</ele><time>2026-04-07T10:32:58Z</time></trkpt><trkpt lat="44.44276548983884" lon="10.046945296252984"><ele>815.5</ele><time>2026-04-07T10:32:59Z</time></trkpt><trkpt lat="44.4426830614713" lon="10.047052434246117"><ele>817.75</ele><time>2026-04-07T10:33:00Z</time></trkpt><trkpt lat="44.44258439120908" lon="10.04712483267792"><ele>820.0</ele><time>2026-04-07T10:33:01Z</time></trkpt><trkpt lat="44.44246930019704" lon="10.047160441878528"><ele>820.0</ele><time>2026-04-07T10:33:02Z</time></trkpt><trkpt lat="44.44235232051151" lon="10.047158456011623"><ele>820.0</ele><time>2026-04-07T10:33:03Z</time></trkpt><trkpt lat="44.4422390573899" lon="10.04712059442814"><ele>820.0</ele><time>2026-04-07T10:33:04Z</time></trkpt><trkpt lat="44.44213363166636" lon="10.04706428756735"><ele>820.0</ele><time>2026-04-07T10:33:05Z</time></trkpt><trkpt lat="44.44204579004518" lon="10.04697139231695"><ele>822.4</ele><time>2026-04-07T10:33:06Z</time></trkpt><trkpt lat="44.44198091350409" lon="10.046851732882862"><ele>824.8</ele><time>2026-04-07T10:33:07Z</time></trkpt><trkpt lat="44.44193891261498" lon="10.046701234553511"><ele>827.2</ele><time>2026-04-07T10:33:08Z</time></trkpt><trkpt lat="44.44189457233968" lon="10.046559323752097"><ele>829.6</ele><time>2026-04-07T10:33:09Z</time></trkpt><trkpt lat="44.441841313583375" lon="10.046437158997593"><ele>832.0</ele><time>2026-04-07T10:33:10Z</time></trkpt><trkpt lat="44.44178949465187" lon="10.046317499836352"><ele>831.9999999999999</ele><time>2026-04-07T10:33:11Z</time></trkpt><trkpt lat="44.441746122874356" lon="10.046190825101386"><ele>832.0</ele><time>2026-04-07T10:33:12Z</time></trkpt><trkpt lat="44.441721748649094" lon="10.046065625912554"><ele>832.0</ele><time>2026-04-07T10:33:13Z</time></trkpt><trkpt lat="44.441715765079394" lon="10.045936977590804"><ele>832.0</ele><time>2026-04-07T10:33:14Z</time></trkpt><trkpt lat="44.44172934261942" lon="10.045831069811868"><ele>831.9999999999999</ele><time>2026-04-07T10:33:15Z</time></trkpt><trkpt lat="44.44175684381891" lon="10.045721148486718"><ele>832.0</ele><time>2026-04-07T10:33:16Z</time></trkpt><trkpt lat="44.44178289492125" lon="10.045588455237342"><ele>832.2</ele><time>2026-04-07T10:33:17Z</time></trkpt><trkpt lat="44.44181703623862" lon="10.04547312173646"><ele>832.4000000000001</ele><time>2026-04-07T10:33:18Z</time></trkpt><trkpt lat="44.44178622103126" lon="10.045338131840838"><ele>832.5999999999999</ele><time>2026-04-07T10:33:19Z</time></trkpt><trkpt lat="44.441801157141114" lon="10.045217170408737"><ele>832.8</ele><time>2026-04-07T10:33:20Z</time></trkpt><trkpt lat="44.44183060878647" lon="10.045100012815286"><ele>833.0</ele><time>2026-04-07T10:33:21Z</time></trkpt><trkpt lat="44.44187016381886" lon="10.044981082235466"><ele>830.8333333333334</ele><time>2026-04-07T10:33:22Z</time></trkpt><trkpt lat="44.44187756187287" lon="10.044861136958328"><ele>828.6666666666667</ele><time>2026-04-07T10:33:23Z</time></trkpt><trkpt lat="44.44185408729156" lon="10.04473626950639"><ele>826.5</ele><time>2026-04-07T10:33:24Z</time></trkpt><trkpt lat="44.441801510610716" lon="10.044643793537524"><ele>824.3333333333333</ele><time>2026-04-07T10:33:24.999Z</time></trkpt><trkpt lat="44.44172559067454" lon="10.044600225233944"><ele>822.1666666666666</ele><time>2026-04-07T10:33:25.999Z</time></trkpt><trkpt lat="44.44163466126806" lon="10.044606042422282"><ele>820.0</ele><time>2026-04-07T10:33:26.999Z</time></trkpt><trkpt lat="44.44153940702753" lon="10.044619581213603"><ele>820.0</ele><time>2026-04-07T10:33:27.999Z</time></trkpt><trkpt lat="44.44143681243333" lon="10.044622898464935"><ele>820.0</ele><time>2026-04-07T10:33:28.999Z</time></trkpt><trkpt lat="44.44133084865949" lon="10.044631372289853"><ele>820.0</ele><time>2026-04-07T10:33:29.999Z</time></trkpt><trkpt lat="44.44122134593193" lon="10.044661740405248"><ele>820.0</ele><time>2026-04-07T10:33:30.999Z</time></trkpt><trkpt lat="44.441106708279904" lon="10.044702250517993"><ele>820.0</ele><time>2026-04-07T10:33:31.999Z</time></trkpt><trkpt lat="44.440988606930965" lon="10.044749546564207"><ele>822.4</ele><time>2026-04-07T10:33:32.999Z</time></trkpt><trkpt lat="44.44088820364371" lon="10.044822369104265"><ele>824.8</ele><time>2026-04-07T10:33:33.999Z</time></trkpt><trkpt lat="44.44078833931032" lon="10.044905007459187"><ele>827.2</ele><time>2026-04-07T10:33:34.999Z</time></trkpt><trkpt lat="44.440691535239125" lon="10.044979704036543"><ele>829.6</ele><time>2026-04-07T10:33:35.999Z</time></trkpt><trkpt lat="44.440597578219005" lon="10.045045168612736"><ele>832.0</ele><time>2026-04-07T10:33:36.999Z</time></trkpt><trkpt lat="44.44049390764908" lon="10.0450889390013"><ele>834.8</ele><time>2026-04-07T10:33:37.999Z</time></trkpt><trkpt lat="44.44040312097977" lon="10.045098454137877"><ele>837.6</ele><time>2026-04-07T10:33:38.999Z</time></trkpt><trkpt lat="44.44031673747835" lon="10.045051188634709"><ele>840.4</ele><time>2026-04-07T10:33:39.999Z</time></trkpt><trkpt lat="44.44022431456592" lon="10.04503335400342"><ele>843.1999999999999</ele><time>2026-04-07T10:33:40.999Z</time></trkpt><trkpt lat="44.44013522274927" lon="10.0449886052808"><ele>846.0</ele><time>2026-04-07T10:33:41.999Z</time></trkpt><trkpt lat="44.4400380298392" lon="10.044931911509158"><ele>846.0</ele><time>2026-04-07T10:33:42.999Z</time></trkpt><trkpt lat="44.43992952422244" lon="10.044882827644434"><ele>846.0</ele><time>2026-04-07T10:33:43.999Z</time></trkpt><trkpt lat="44.43981596883139" lon="10.044840395187038"><ele>846.0</ele><time>2026-04-07T10:33:44.999Z</time></trkpt><trkpt lat="44.439690222655294" lon="10.044794030066885"><ele>846.0</ele><time>2026-04-07T10:33:45.999Z</time></trkpt><trkpt lat="44.43957039784803" lon="10.044750476815398"><ele>849.1999999999999</ele><time>2026-04-07T10:33:46.999Z</time></trkpt><trkpt lat="44.43946459491027" lon="10.0446962594081"><ele>852.4</ele><time>2026-04-07T10:33:47.999Z</time></trkpt><trkpt lat="44.4393732833261" lon="10.044624240155018"><ele>855.6</ele><time>2026-04-07T10:33:48.999Z</time></trkpt><trkpt lat="44.43928431746302" lon="10.044530129495595"><ele>858.8</ele><time>2026-04-07T10:33:49.999Z</time></trkpt><trkpt lat="44.43919503783108" lon="10.044440586132769"><ele>862.0</ele><time>2026-04-07T10:33:50.999Z</time></trkpt><trkpt lat="44.43910117797133" lon="10.044359828473835"><ele>862.0</ele><time>2026-04-07T10:33:51.999Z</time></trkpt><trkpt lat="44.43900868088115" lon="10.04427585619375"><ele>862.0</ele><time>2026-04-07T10:33:52.999Z</time></trkpt><trkpt lat="44.43891517396861" lon="10.044190351140514"><ele>862.0</ele><time>2026-04-07T10:33:53.999Z</time></trkpt><trkpt lat="44.4388171974915" lon="10.044111166277926"><ele>862.0</ele><time>2026-04-07T10:33:54.999Z</time></trkpt><trkpt lat="44.438722189743906" lon="10.044033580597173"><ele>862.0</ele><time>2026-04-07T10:33:55.999Z</time></trkpt><trkpt lat="44.43861813864884" lon="10.043967772201533"><ele>863.4000000000001</ele><time>2026-04-07T10:33:56.999Z</time></trkpt><trkpt lat="44.43851516059155" lon="10.043900235519827"><ele>864.8000000000001</ele><time>2026-04-07T10:33:57.999Z</time></trkpt><trkpt lat="44.438426651813785" lon="10.04380814334507"><ele>866.2</ele><time>2026-04-07T10:33:58.999Z</time></trkpt><trkpt lat="44.438361359818316" lon="10.043706469406306"><ele>867.6</ele><time>2026-04-07T10:33:59.999Z</time></trkpt><trkpt lat="44.43830909388004" lon="10.043599785669809"><ele>869.0</ele><time>2026-04-07T10:34:00.999Z</time></trkpt><trkpt lat="44.438258328495394" lon="10.043498468472494"><ele>869.0</ele><time>2026-04-07T10:34:01.999Z</time></trkpt><trkpt lat="44.43819776821776" lon="10.043407790789686"><ele>869.0000000000001</ele><time>2026-04-07T10:34:02.999Z</time></trkpt><trkpt lat="44.43812126287324" lon="10.04333560200486"><ele>869.0000000000001</ele><time>2026-04-07T10:34:03.999Z</time></trkpt><trkpt lat="44.438031050448366" lon="10.043273767832707"><ele>869.0</ele><time>2026-04-07T10:34:04.999Z</time></trkpt><trkpt lat="44.437929190779364" lon="10.043221262789206"><ele>869.0</ele><time>2026-04-07T10:34:05.999Z</time></trkpt><trkpt lat="44.43782551879105" lon="10.043172786297717"><ele>870.0</ele><time>2026-04-07T10:34:06.999Z</time></trkpt><trkpt lat="44.43772491903814" lon="10.043115365287244"><ele>871.0000000000001</ele><time>2026-04-07T10:34:07.999Z</time></trkpt><trkpt lat="44.43762621439062" lon="10.04305864701796"><ele>872.0000000000001</ele><time>2026-04-07T10:34:08.999Z</time></trkpt><trkpt lat="44.437525633290996" lon="10.04300213903167"><ele>873.0</ele><time>2026-04-07T10:34:09.999Z</time></trkpt><trkpt lat="44.43742683451408" lon="10.042951369234105"><ele>874.0</ele><time>2026-04-07T10:34:10.999Z</time></trkpt><trkpt lat="44.43732891325144" lon="10.042897995922145"><ele>874.0</ele><time>2026-04-07T10:34:11.999Z</time></trkpt><trkpt lat="44.43723019973521" lon="10.042847114911888"><ele>874.0000000000001</ele><time>2026-04-07T10:34:12.999Z</time></trkpt><trkpt lat="44.43713276022372" lon="10.042786144602765"><ele>874.0000000000001</ele><time>2026-04-07T10:34:13.999Z</time></trkpt><trkpt lat="44.43703901186444" lon="10.042715582828542"><ele>874.0</ele><time>2026-04-07T10:34:14.999Z</time></trkpt><trkpt lat="44.436949801897164" lon="10.042642192654766"><ele>874.0</ele><time>2026-04-07T10:34:15.999Z</time></trkpt><trkpt lat="44.43686592067788" lon="10.042578949003914"><ele>877.2</ele><time>2026-04-07T10:34:16.999Z</time></trkpt><trkpt lat="44.436793376629026" lon="10.042541152587166"><ele>880.4000000000001</ele><time>2026-04-07T10:34:17.999Z</time></trkpt><trkpt lat="44.43668533533719" lon="10.042515560730745"><ele>883.6</ele><time>2026-04-07T10:34:19.999Z</time></trkpt><trkpt lat="44.43656635208293" lon="10.042561531233472"><ele>886.8</ele><time>2026-04-07T10:34:21.999Z</time></trkpt><trkpt lat="44.43652790188532" lon="10.042636993885335"><ele>890.0</ele><time>2026-04-07T10:34:22.999Z</time></trkpt><trkpt lat="44.436503834378435" lon="10.042742415952423"><ele>890.0</ele><time>2026-04-07T10:34:23.999Z</time></trkpt><trkpt lat="44.43649501787298" lon="10.04283874942407"><ele>890.0</ele><time>2026-04-07T10:34:25Z</time></trkpt><trkpt lat="44.43647871577195" lon="10.042932554533747"><ele>890.0</ele><time>2026-04-07T10:34:26Z</time></trkpt><trkpt lat="44.43646760045888" lon="10.043039942882231"><ele>890.0</ele><time>2026-04-07T10:34:27Z</time></trkpt><trkpt lat="44.43644028504653" lon="10.043138902488053"><ele>890.0</ele><time>2026-04-07T10:34:28Z</time></trkpt><trkpt lat="44.436407983023386" lon="10.04323142225834"><ele>890.0</ele><time>2026-04-07T10:34:29Z</time></trkpt><trkpt lat="44.436385943945574" lon="10.04332181636498"><ele>890.0</ele><time>2026-04-07T10:34:30Z</time></trkpt><trkpt lat="44.43639711349476" lon="10.043481857977348"><ele>891.5000000000001</ele><time>2026-04-07T10:34:32Z</time></trkpt><trkpt lat="44.43649585739385" lon="10.043517243333422"><ele>893.0</ele><time>2026-04-07T10:34:33Z</time></trkpt><trkpt lat="44.43656189422902" lon="10.043587437382767"><ele>894.5</ele><time>2026-04-07T10:34:34Z</time></trkpt><trkpt lat="44.43662878035569" lon="10.043643590865617"><ele>896.0</ele><time>2026-04-07T10:34:35Z</time></trkpt><trkpt lat="44.43667624320694" lon="10.043757880433674"><ele>897.5000000000001</ele><time>2026-04-07T10:34:36Z</time></trkpt><trkpt lat="44.436705460331105" lon="10.043870250476658"><ele>899.0</ele><time>2026-04-07T10:34:37Z</time></trkpt><trkpt lat="44.43673469694196" lon="10.043978416446711"><ele>899.0000000000001</ele><time>2026-04-07T10:34:38Z</time></trkpt><trkpt lat="44.43676224832336" lon="10.044090795813062"><ele>899.0</ele><time>2026-04-07T10:34:39Z</time></trkpt><trkpt lat="44.436778319247644" lon="10.044193358725579"><ele>899.0</ele><time>2026-04-07T10:34:40Z</time></trkpt><trkpt lat="44.436801180253134" lon="10.044311720276633"><ele>899.0</ele><time>2026-04-07T10:34:41Z</time></trkpt><trkpt lat="44.43682724345711" lon="10.04440814394297"><ele>899.0000000000001</ele><time>2026-04-07T10:34:42Z</time></trkpt><trkpt lat="44.43687899571408" lon="10.044481127271736"><ele>899.0</ele><time>2026-04-07T10:34:43Z</time></trkpt><trkpt lat="44.43695810972744" lon="10.044516152869406"><ele>900.0</ele><time>2026-04-07T10:34:44Z</time></trkpt><trkpt lat="44.437055593599574" lon="10.044533660950496"><ele>901.0000000000001</ele><time>2026-04-07T10:34:45Z</time></trkpt><trkpt lat="44.437159158189836" lon="10.044541221133182"><ele>902.0000000000001</ele><time>2026-04-07T10:34:46Z</time></trkpt><trkpt lat="44.43727151611548" lon="10.044558567221628"><ele>903.0</ele><time>2026-04-07T10:34:47Z</time></trkpt><trkpt lat="44.43738733380165" lon="10.04457503133022"><ele>904.0</ele><time>2026-04-07T10:34:48Z</time></trkpt><trkpt lat="44.43749707056533" lon="10.04460745369686"><ele>904.0</ele><time>2026-04-07T10:34:49Z</time></trkpt><trkpt lat="44.43759862199493" lon="10.044620910192402"><ele>904.0000000000001</ele><time>2026-04-07T10:34:50Z</time></trkpt><trkpt lat="44.43768246045235" lon="10.044640329585832"><ele>904.0000000000001</ele><time>2026-04-07T10:34:51Z</time></trkpt><trkpt lat="44.43776467706514" lon="10.044687911859775"><ele>904.0</ele><time>2026-04-07T10:34:52Z</time></trkpt><trkpt lat="44.43784173655168" lon="10.044763501700968"><ele>904.0</ele><time>2026-04-07T10:34:53Z</time></trkpt><trkpt lat="44.437912078473694" lon="10.044874505735004"><ele>906.4000000000001</ele><time>2026-04-07T10:34:54Z</time></trkpt><trkpt lat="44.4379738756717" lon="10.044987645908922"><ele>908.8000000000001</ele><time>2026-04-07T10:34:55Z</time></trkpt><trkpt lat="44.43801485945622" lon="10.04511031124157"><ele>911.1999999999999</ele><time>2026-04-07T10:34:56Z</time></trkpt><trkpt lat="44.43803464806179" lon="10.045245567765745"><ele>913.5999999999999</ele><time>2026-04-07T10:34:57Z</time></trkpt><trkpt lat="44.438032980973276" lon="10.045378988312752"><ele>916.0</ele><time>2026-04-07T10:34:58Z</time></trkpt><trkpt lat="44.438026994246684" lon="10.04552586632784"><ele>916.0</ele><time>2026-04-07T10:34:59Z</time></trkpt><trkpt lat="44.43801592037017" lon="10.045656053679673"><ele>915.9999999999999</ele><time>2026-04-07T10:35:00Z</time></trkpt><trkpt lat="44.437989360378864" lon="10.045779608128184"><ele>915.9999999999999</ele><time>2026-04-07T10:35:01Z</time></trkpt><trkpt lat="44.43795548875388" lon="10.045899284313505"><ele>916.0</ele><time>2026-04-07T10:35:02Z</time></trkpt><trkpt lat="44.437912559943555" lon="10.046029762109834"><ele>916.0</ele><time>2026-04-07T10:35:03Z</time></trkpt><trkpt lat="44.43785114764463" lon="10.046144008846566"><ele>921.1999999999999</ele><time>2026-04-07T10:35:04Z</time></trkpt><trkpt lat="44.43779141894443" lon="10.046243786019016"><ele>926.3999999999999</ele><time>2026-04-07T10:35:05Z</time></trkpt><trkpt lat="44.43776044951929" lon="10.046349278237585"><ele>931.6</ele><time>2026-04-07T10:35:06Z</time></trkpt><trkpt lat="44.43775737224003" lon="10.046482266380158"><ele>936.8</ele><time>2026-04-07T10:35:07Z</time></trkpt><trkpt lat="44.43779107699633" lon="10.046608602417992"><ele>942.0</ele><time>2026-04-07T10:35:08Z</time></trkpt><trkpt lat="44.437847830457116" lon="10.046727325532359"><ele>942.5</ele><time>2026-04-07T10:35:09Z</time></trkpt><trkpt lat="44.43789914619807" lon="10.04685076694344"><ele>943.0</ele><time>2026-04-07T10:35:10Z</time></trkpt><trkpt lat="44.437939367133566" lon="10.047003021553099"><ele>943.5</ele><time>2026-04-07T10:35:11Z</time></trkpt><trkpt lat="44.437980730651994" lon="10.047162494763414"><ele>944.0</ele><time>2026-04-07T10:35:12Z</time></trkpt><trkpt lat="44.43802751301752" lon="10.047322390687508"><ele>941.0</ele><time>2026-04-07T10:35:13Z</time></trkpt><trkpt lat="44.438077896199985" lon="10.047474162890028"><ele>938.0</ele><time>2026-04-07T10:35:14Z</time></trkpt><trkpt lat="44.43813149061178" lon="10.047631353939645"><ele>935.0</ele><time>2026-04-07T10:35:15Z</time></trkpt><trkpt lat="44.4381705005823" lon="10.047774222688027"><ele>932.0</ele><time>2026-04-07T10:35:16Z</time></trkpt><trkpt lat="44.43822415417667" lon="10.047901313860581"><ele>932.0000000000001</ele><time>2026-04-07T10:35:17Z</time></trkpt><trkpt lat="44.43824999108314" lon="10.048009905153654"><ele>932.0</ele><time>2026-04-07T10:35:18Z</time></trkpt><trkpt lat="44.43827022838323" lon="10.04810616763426"><ele>932.0</ele><time>2026-04-07T10:35:19Z</time></trkpt><trkpt lat="44.43823372070457" lon="10.048271126506048"><ele>932.0</ele><time>2026-04-07T10:35:21Z</time></trkpt><trkpt lat="44.43816429090429" lon="10.048304621647679"><ele>932.0000000000001</ele><time>2026-04-07T10:35:22Z</time></trkpt><trkpt lat="44.43808753611889" lon="10.048343117373367"><ele>932.0</ele><time>2026-04-07T10:35:23Z</time></trkpt><trkpt lat="44.43800296631226" lon="10.04839287243528"><ele>937.8</ele><time>2026-04-07T10:35:24Z</time></trkpt><trkpt lat="44.43791074503029" lon="10.048451525514063"><ele>943.6</ele><time>2026-04-07T10:35:25Z</time></trkpt><trkpt lat="44.43780867177645" lon="10.048518909260274"><ele>949.3999999999999</ele><time>2026-04-07T10:35:25.999Z</time></trkpt><trkpt lat="44.437699741736786" lon="10.048575367511159"><ele>955.1999999999999</ele><time>2026-04-07T10:35:26.999Z</time></trkpt><trkpt lat="44.43759187012984" lon="10.048633272334841"><ele>961.0</ele><time>2026-04-07T10:35:27.999Z</time></trkpt><trkpt lat="44.437490158199886" lon="10.048697290841428"><ele>961.0</ele><time>2026-04-07T10:35:28.999Z</time></trkpt><trkpt lat="44.43737867911905" lon="10.048769012218312"><ele>961.0</ele><time>2026-04-07T10:35:29.999Z</time></trkpt><trkpt lat="44.43726657089155" lon="10.048849613484743"><ele>961.0</ele><time>2026-04-07T10:35:30.999Z</time></trkpt><trkpt lat="44.437169951086496" lon="10.048947341130452"><ele>961.0</ele><time>2026-04-07T10:35:31.999Z</time></trkpt><trkpt lat="44.437086798847766" lon="10.0490665198029"><ele>961.8</ele><time>2026-04-07T10:35:32.999Z</time></trkpt><trkpt lat="44.43701537480367" lon="10.04919998361781"><ele>962.5999999999999</ele><time>2026-04-07T10:35:33.999Z</time></trkpt><trkpt lat="44.43694720099801" lon="10.049317959857635"><ele>963.4</ele><time>2026-04-07T10:35:34.999Z</time></trkpt><trkpt lat="44.43689630981393" lon="10.049420413042292"><ele>964.2</ele><time>2026-04-07T10:35:35.999Z</time></trkpt><trkpt lat="44.436837743533545" lon="10.049515062088783"><ele>965.0</ele><time>2026-04-07T10:35:36.999Z</time></trkpt><trkpt lat="44.43679612912541" lon="10.049631377517725"><ele>965.0</ele><time>2026-04-07T10:35:37.999Z</time></trkpt><trkpt lat="44.436753311024844" lon="10.049743313992881"><ele>965.0</ele><time>2026-04-07T10:35:38.999Z</time></trkpt><trkpt lat="44.436715398239514" lon="10.04986405120544"><ele>965.0</ele><time>2026-04-07T10:35:39.999Z</time></trkpt><trkpt lat="44.436663589549696" lon="10.049975258896673"><ele>965.0</ele><time>2026-04-07T10:35:40.999Z</time></trkpt><trkpt lat="44.436623783115955" lon="10.050085879362584"><ele>965.0</ele><time>2026-04-07T10:35:41.999Z</time></trkpt><trkpt lat="44.43657799274683" lon="10.050196390838003"><ele>963.8333333333334</ele><time>2026-04-07T10:35:42.999Z</time></trkpt><trkpt lat="44.43652782561862" lon="10.050308770642298"><ele>962.6666666666667</ele><time>2026-04-07T10:35:43.999Z</time></trkpt><trkpt lat="44.43648977195337" lon="10.050436556191423"><ele>961.5</ele><time>2026-04-07T10:35:44.999Z</time></trkpt><trkpt lat="44.4364749576871" lon="10.050570801611189"><ele>960.3333333333333</ele><time>2026-04-07T10:35:45.999Z</time></trkpt><trkpt lat="44.43646387279611" lon="10.050690148314404"><ele>959.1666666666666</ele><time>2026-04-07T10:35:46.999Z</time></trkpt><trkpt lat="44.43645396431606" lon="10.050787606046109"><ele>958.0</ele><time>2026-04-07T10:35:47.999Z</time></trkpt><trkpt lat="44.43642136396207" lon="10.050915124108617"><ele>957.5999999999999</ele><time>2026-04-07T10:35:49.999Z</time></trkpt><trkpt lat="44.43639462338375" lon="10.051003358979045"><ele>957.1999999999999</ele><time>2026-04-07T10:35:51.999Z</time></trkpt><trkpt lat="44.43626998578491" lon="10.050932708417806"><ele>956.8</ele><time>2026-04-07T10:35:53.999Z</time></trkpt><trkpt lat="44.436170146515835" lon="10.050834247661372"><ele>956.4</ele><time>2026-04-07T10:35:55.999Z</time></trkpt><trkpt lat="44.43608617112861" lon="10.050778637387934"><ele>956.0</ele><time>2026-04-07T10:35:57.999Z</time></trkpt><trkpt lat="44.43602172190399" lon="10.050716924560472"><ele>975.0</ele><time>2026-04-07T10:35:59.999Z</time></trkpt><trkpt lat="44.43598645015203" lon="10.050643577150817"><ele>975.0</ele><time>2026-04-07T10:37:05Z</time></trkpt><trkpt lat="44.43598645015203" lon="10.050643577150817"><ele>975.0</ele><time>2026-04-07T10:37:05Z</time></trkpt><trkpt lat="44.43598645015203" lon="10.050643577150817"><ele>975.0</ele><time>2026-04-07T10:37:05Z</time></trkpt></trkseg></trk></gpx>